GEFSSE_prec_meanprecacc_006.txt.gz
Total_Precipitation_Accumulation
0.00 0.00 0.01 0.01 0.01 0.00 0.00 0.00 0.00 0.00 0.00 0.00 0.00 0.00 0.00 0.00 0.01 0.00 0.00 0.00 0.00 0.00 0.00 0.00 0.00 0.01 0.02 0.04 0.03 0.01 0.00 0.00 0.00 0.00 0.00 0.00 0.00 0.00 0.00 0.00 0.00 0.00 0.00
0.00 0.00 0.01 0.01 0.01 0.00 0.00 0.00 0.00 0.00 0.00 0.00 0.00 0.00 0.00 0.00 0.00 0.00 0.00 0.00 0.00 0.00 0.00 0.00 0.00 0.00 0.00 0.00 0.00 0.00 0.00 0.00 0.00 0.00 0.00 0.00 0.00 0.00 0.00 0.00 0.00 0.00 0.00
0.00 0.00 0.00 0.01 0.01 0.00 0.00 0.00 0.00 0.00 0.00 0.00 0.00 0.00 0.00 0.00 0.00 0.00 0.00 0.00 0.00 0.00 0.00 0.00 0.00 0.00 0.00 0.00 0.00 0.00 0.00 0.00 0.00 0.00 0.00 0.00 0.00 0.00 0.00 0.00 0.00 0.00 0.00
0.00 0.00 0.00 0.00 0.00 0.00 0.00 0.00 0.00 0.00 0.00 0.00 0.00 0.00 0.00 0.00 0.01 0.00 0.00 0.00 0.00 0.00 0.00 0.00 0.00 0.00 0.00 0.00 0.00 0.00 0.00 0.00 0.00 0.00 0.00 0.00 0.00 0.00 0.00 0.00 0.00 0.00 0.00
0.00 0.00 0.00 0.00 0.00 0.00 0.00 0.00 0.00 0.00 0.00 0.00 0.00 0.00 0.00 0.01 0.01 0.00 0.00 0.00 0.00 0.00 0.00 0.00 0.00 0.00 0.00 0.00 0.00 0.00 0.00 0.00 0.00 0.00 0.00 0.00 0.00 0.00 0.00 0.00 0.01 0.01 0.00
0.00 0.00 0.00 0.00 0.00 0.00 0.00 0.00 0.00 0.00 0.00 0.00 0.00 0.00 0.00 0.01 0.02 0.01 0.00 0.00 0.00 0.00 0.00 0.00 0.00 0.00 0.00 0.00 0.00 0.00 0.00 0.00 0.00 0.00 0.00 0.00 0.00 0.00 0.00 0.00 0.00 0.00 0.00
0.00 0.00 0.00 0.00 0.00 0.00 0.00 0.00 0.00 0.00 0.00 0.00 0.00 0.00 0.00 0.00 0.01 0.02 0.01 0.00 0.00 0.00 0.00 0.00 0.00 0.00 0.00 0.00 0.00 0.00 0.00 0.00 0.00 0.00 0.00 0.00 0.00 0.00 0.00 0.00 0.00 0.00 0.00
0.00 0.00 0.00 0.00 0.00 0.00 0.00 0.00 0.00 0.00 0.00 0.00 0.00 0.00 0.00 0.00 0.00 0.01 0.01 0.00 0.00 0.00 0.00 0.00 0.00 0.00 0.00 0.00 0.00 0.00 0.00 0.00 0.00 0.00 0.00 0.00 0.00 0.00 0.00 0.00 0.00 0.00 0.00
0.00 0.00 0.00 0.00 0.00 0.00 0.00 0.00 0.00 0.00 0.00 0.00 0.00 0.00 0.00 0.00 0.00 0.00 0.01 0.00 0.00 0.00 0.00 0.00 0.00 0.00 0.00 0.00 0.00 0.00 0.00 0.00 0.00 0.00 0.00 0.00 0.00 0.00 0.00 0.00 0.00 0.00 0.00
0.00 0.00 0.00 0.00 0.00 0.00 0.00 0.00 0.00 0.00 0.00 0.00 0.00 0.00 0.00 0.00 0.00 0.00 0.00 0.00 0.00 0.00 0.00 0.00 0.00 0.00 0.00 0.00 0.00 0.00 0.00 0.00 0.00 0.00 0.00 0.00 0.00 0.00 0.01 0.02 0.02 0.01 0.01
0.00 0.00 0.00 0.00 0.00 0.00 0.00 0.00 0.00 0.00 0.00 0.00 0.00 0.00 0.00 0.00 0.00 0.00 0.00 0.00 0.00 0.00 0.00 0.00 0.01 0.01 0.01 0.00 0.00 0.00 0.00 0.00 0.00 0.00 0.00 0.00 0.00 0.01 0.01 0.02 0.02 0.03 0.04
0.00 0.00 0.00 0.00 0.00 0.00 0.00 0.00 0.00 0.00 0.00 0.00 0.00 0.00 0.00 0.00 0.00 0.00 0.00 0.00 0.00 0.00 0.00 0.00 0.01 0.01 0.00 0.00 0.00 0.00 0.00 0.00 0.00 0.00 0.00 0.00 0.00 0.00 0.01 0.02 0.03 0.04 0.05
0.00 0.00 0.00 0.00 0.00 0.00 0.00 0.00 0.00 0.00 0.00 0.00 0.00 0.00 0.00 0.00 0.00 0.00 0.00 0.00 0.00 0.00 0.00 0.00 0.00 0.00 0.00 0.00 0.00 0.00 0.00 0.00 0.00 0.00 0.00 0.00 0.00 0.00 0.00 0.01 0.02 0.02 0.01
0.00 0.00 0.00 0.00 0.00 0.00 0.00 0.00 0.00 0.00 0.00 0.00 0.00 0.00 0.00 0.00 0.00 0.00 0.00 0.00 0.00 0.00 0.00 0.00 0.00 0.00 0.00 0.00 0.00 0.00 0.00 0.00 0.00 0.00 0.00 0.00 0.00 0.00 0.00 0.00 0.00 0.00 0.00
0.00 0.00 0.00 0.00 0.00 0.00 0.00 0.00 0.00 0.00 0.00 0.00 0.00 0.00 0.00 0.00 0.00 0.00 0.00 0.00 0.00 0.00 0.00 0.00 0.00 0.00 0.00 0.00 0.00 0.00 0.00 0.00 0.00 0.00 0.00 0.00 0.00 0.00 0.00 0.00 0.00 0.00 0.00
0.00 0.00 0.00 0.00 0.00 0.00 0.00 0.01 0.00 0.00 0.00 0.00 0.00 0.00 0.00 0.00 0.00 0.00 0.00 0.00 0.00 0.00 0.00 0.00 0.00 0.00 0.00 0.00 0.00 0.00 0.00 0.00 0.00 0.00 0.00 0.00 0.00 0.00 0.00 0.00 0.00 0.00 0.00
0.00 0.00 0.00 0.00 0.00 0.01 0.01 0.01 0.01 0.00 0.00 0.00 0.00 0.00 0.00 0.00 0.00 0.00 0.00 0.00 0.00 0.00 0.00 0.00 0.00 0.00 0.00 0.00 0.00 0.00 0.00 0.00 0.00 0.00 0.00 0.00 0.00 0.00 0.00 0.00 0.00 0.00 0.00
0.00 0.00 0.00 0.00 0.00 0.01 0.01 0.01 0.00 0.00 0.00 0.00 0.00 0.00 0.00 0.00 0.00 0.00 0.00 0.00 0.00 0.00 0.00 0.00 0.00 0.00 0.00 0.00 0.00 0.00 0.00 0.00 0.00 0.00 0.00 0.00 0.00 0.00 0.00 0.00 0.00 0.00 0.00
0.00 0.00 0.00 0.00 0.00 0.01 0.01 0.00 0.00 0.00 0.00 0.00 0.00 0.00 0.00 0.00 0.00 0.00 0.00 0.00 0.00 0.00 0.00 0.00 0.00 0.00 0.00 0.00 0.00 0.00 0.00 0.00 0.00 0.00 0.00 0.00 0.00 0.00 0.00 0.00 0.00 0.00 0.00
0.00 0.00 0.00 0.00 0.00 0.01 0.01 0.00 0.00 0.00 0.00 0.00 0.00 0.00 0.00 0.00 0.00 0.00 0.00 0.00 0.00 0.00 0.00 0.00 0.00 0.00 0.00 0.00 0.00 0.00 0.00 0.00 0.00 0.00 0.00 0.00 0.00 0.00 0.00 0.00 0.00 0.00 0.00
0.00 0.00 0.00 0.00 0.00 0.01 0.00 0.00 0.00 0.00 0.00 0.00 0.00 0.00 0.00 0.00 0.00 0.00 0.00 0.00 0.00 0.00 0.00 0.00 0.00 0.00 0.00 0.00 0.00 0.00 0.00 0.00 0.00 0.00 0.00 0.00 0.00 0.00 0.00 0.00 0.00 0.00 0.00
0.00 0.00 0.00 0.00 0.00 0.01 0.01 0.00 0.00 0.00 0.00 0.00 0.00 0.00 0.00 0.00 0.00 0.00 0.00 0.00 0.00 0.00 0.00 0.00 0.00 0.00 0.00 0.00 0.00 0.00 0.00 0.00 0.00 0.00 0.00 0.00 0.00 0.00 0.00 0.00 0.00 0.00 0.00
0.00 0.00 0.00 0.00 0.00 0.01 0.01 0.01 0.00 0.00 0.00 0.00 0.00 0.00 0.00 0.00 0.00 0.00 0.00 0.00 0.00 0.00 0.00 0.00 0.00 0.00 0.00 0.00 0.00 0.00 0.00 0.00 0.00 0.00 0.00 0.00 0.00 0.00 0.00 0.00 0.00 0.00 0.00
0.00 0.00 0.00 0.00 0.00 0.00 0.00 0.00 0.00 0.00 0.00 0.00 0.00 0.00 0.00 0.00 0.00 0.00 0.00 0.00 0.00 0.00 0.00 0.00 0.00 0.00 0.00 0.00 0.00 0.00 0.00 0.00 0.00 0.00 0.00 0.00 0.00 0.00 0.00 0.00 0.00 0.00 0.00
0.00 0.00 0.00 0.00 0.00 0.00 0.00 0.00 0.00 0.00 0.00 0.00 0.00 0.00 0.00 0.00 0.00 0.00 0.00 0.00 0.00 0.00 0.00 0.00 0.00 0.00 0.00 0.00 0.00 0.00 0.00 0.00 0.00 0.00 0.00 0.00 0.00 0.00 0.00 0.00 0.00 0.00 0.00
0.00 0.00 0.00 0.00 0.00 0.00 0.00 0.00 0.00 0.00 0.00 0.00 0.00 0.00 0.00 0.00 0.00 0.00 0.00 0.00 0.00 0.00 0.00 0.00 0.00 0.00 0.00 0.00 0.00 0.00 0.00 0.00 0.00 0.00 0.00 0.00 0.00 0.00 0.00 0.00 0.00 0.00 0.00

GEFSSE_prec_meanprecacc_012.txt.gz
Total_Precipitation_Accumulation
0.00 0.00 0.01 0.02 0.01 0.00 0.00 0.00 0.00 0.00 0.00 0.00 0.00 0.01 0.02 0.04 0.04 0.01 0.00 0.00 0.00 0.00 0.00 0.00 0.01 0.02 0.06 0.10 0.08 0.02 0.00 0.00 0.00 0.00 0.00 0.00 0.00 0.00 0.00 0.01 0.01 0.00 0.00
0.00 0.00 0.01 0.02 0.01 0.00 0.00 0.00 0.00 0.00 0.00 0.00 0.00 0.01 0.01 0.02 0.01 0.01 0.01 0.00 0.00 0.00 0.00 0.00 0.00 0.00 0.01 0.02 0.01 0.01 0.00 0.00 0.00 0.00 0.00 0.00 0.00 0.00 0.00 0.01 0.01 0.00 0.00
0.00 0.00 0.01 0.01 0.01 0.01 0.00 0.00 0.00 0.00 0.00 0.00 0.00 0.00 0.00 0.00 0.00 0.00 0.01 0.00 0.00 0.00 0.00 0.00 0.00 0.00 0.00 0.00 0.00 0.00 0.00 0.00 0.00 0.00 0.00 0.00 0.00 0.00 0.00 0.00 0.01 0.00 0.00
0.00 0.00 0.00 0.01 0.01 0.01 0.00 0.00 0.00 0.00 0.00 0.00 0.00 0.00 0.00 0.00 0.01 0.00 0.00 0.00 0.00 0.00 0.00 0.00 0.00 0.00 0.00 0.00 0.00 0.00 0.00 0.00 0.00 0.00 0.00 0.00 0.00 0.00 0.00 0.00 0.01 0.00 0.00
0.00 0.00 0.00 0.01 0.01 0.01 0.00 0.00 0.00 0.00 0.00 0.00 0.00 0.00 0.00 0.01 0.02 0.01 0.00 0.00 0.00 0.00 0.00 0.00 0.00 0.00 0.00 0.00 0.00 0.00 0.00 0.00 0.00 0.00 0.00 0.00 0.00 0.00 0.00 0.00 0.01 0.02 0.01
0.00 0.00 0.00 0.01 0.01 0.01 0.00 0.00 0.00 0.00 0.00 0.00 0.00 0.00 0.00 0.02 0.03 0.02 0.01 0.00 0.00 0.00 0.00 0.00 0.00 0.00 0.00 0.00 0.00 0.00 0.00 0.01 0.00 0.00 0.00 0.00 0.00 0.00 0.00 0.00 0.00 0.01 0.01
0.00 0.00 0.00 0.01 0.01 0.01 0.00 0.00 0.00 0.00 0.00 0.00 0.00 0.00 0.00 0.01 0.03 0.04 0.02 0.00 0.00 0.00 0.00 0.00 0.00 0.00 0.00 0.00 0.00 0.00 0.00 0.00 0.00 0.00 0.00 0.00 0.00 0.00 0.00 0.00 0.00 0.00 0.00
0.00 0.00 0.00 0.01 0.01 0.01 0.00 0.00 0.00 0.00 0.00 0.00 0.00 0.00 0.00 0.00 0.01 0.03 0.03 0.01 0.00 0.00 0.00 0.00 0.00 0.00 0.00 0.00 0.00 0.00 0.00 0.00 0.00 0.00 0.00 0.00 0.00 0.00 0.00 0.01 0.01 0.00 0.00
0.00 0.00 0.00 0.01 0.01 0.01 0.01 0.00 0.00 0.00 0.00 0.00 0.00 0.00 0.00 0.00 0.00 0.01 0.02 0.01 0.00 0.00 0.00 0.00 0.00 0.00 0.01 0.00 0.01 0.00 0.00 0.00 0.00 0.00 0.00 0.00 0.00 0.00 0.01 0.02 0.03 0.04 0.04
0.00 0.00 0.00 0.00 0.01 0.01 0.01 0.00 0.00 0.00 0.00 0.00 0.00 0.00 0.00 0.00 0.00 0.00 0.00 0.00 0.00 0.00 0.00 0.00 0.01 0.01 0.01 0.01 0.01 0.00 0.00 0.00 0.00 0.00 0.00 0.00 0.00 0.00 0.02 0.04 0.05 0.05 0.06
0.00 0.00 0.00 0.00 0.01 0.01 0.01 0.00 0.00 0.00 0.00 0.00 0.00 0.00 0.00 0.00 0.00 0.00 0.00 0.00 0.00 0.00 0.00 0.00 0.01 0.02 0.01 0.00 0.00 0.00 0.00 0.00 0.00 0.00 0.00 0.00 0.00 0.01 0.02 0.02 0.03 0.04 0.06
0.00 0.00 0.00 0.01 0.01 0.01 0.01 0.01 0.00 0.00 0.00 0.00 0.00 0.00 0.00 0.00 0.00 0.00 0.00 0.00 0.00 0.00 0.00 0.00 0.01 0.01 0.00 0.00 0.00 0.00 0.00 0.00 0.00 0.00 0.00 0.00 0.00 0.00 0.01 0.02 0.03 0.04 0.05
0.00 0.00 0.00 0.00 0.01 0.01 0.01 0.00 0.00 0.00 0.00 0.00 0.00 0.00 0.00 0.00 0.00 0.00 0.00 0.00 0.00 0.00 0.00 0.00 0.00 0.00 0.00 0.00 0.00 0.00 0.00 0.00 0.00 0.00 0.00 0.00 0.00 0.00 0.00 0.01 0.02 0.02 0.01
0.00 0.00 0.00 0.00 0.00 0.01 0.00 0.00 0.00 0.00 0.00 0.00 0.00 0.00 0.00 0.00 0.00 0.00 0.00 0.00 0.00 0.00 0.00 0.00 0.00 0.00 0.00 0.00 0.00 0.00 0.00 0.00 0.00 0.00 0.00 0.00 0.00 0.00 0.00 0.00 0.00 0.00 0.00
0.00 0.00 0.00 0.00 0.00 0.00 0.00 0.00 0.00 0.00 0.00 0.00 0.00 0.00 0.00 0.00 0.00 0.00 0.00 0.00 0.00 0.00 0.00 0.00 0.00 0.00 0.00 0.00 0.00 0.00 0.00 0.00 0.00 0.00 0.00 0.00 0.00 0.00 0.00 0.00 0.00 0.00 0.00
0.00 0.00 0.00 0.00 0.00 0.01 0.01 0.01 0.00 0.00 0.00 0.00 0.00 0.00 0.00 0.00 0.00 0.00 0.00 0.00 0.00 0.00 0.00 0.00 0.00 0.00 0.00 0.00 0.00 0.00 0.00 0.00 0.00 0.00 0.00 0.00 0.00 0.00 0.00 0.00 0.00 0.00 0.00
0.00 0.00 0.00 0.00 0.00 0.01 0.02 0.02 0.02 0.01 0.00 0.00 0.00 0.00 0.00 0.00 0.00 0.00 0.00 0.00 0.00 0.00 0.00 0.00 0.00 0.00 0.00 0.00 0.00 0.00 0.00 0.00 0.00 0.00 0.00 0.00 0.00 0.00 0.00 0.00 0.00 0.00 0.00
0.00 0.00 0.00 0.00 0.00 0.02 0.03 0.04 0.03 0.01 0.01 0.00 0.00 0.00 0.00 0.00 0.00 0.00 0.00 0.00 0.00 0.00 0.00 0.00 0.00 0.00 0.00 0.00 0.00 0.00 0.00 0.00 0.00 0.00 0.00 0.00 0.00 0.00 0.00 0.00 0.00 0.00 0.00
0.00 0.00 0.00 0.00 0.00 0.01 0.03 0.04 0.03 0.01 0.00 0.00 0.00 0.00 0.00 0.00 0.00 0.00 0.00 0.00 0.00 0.00 0.00 0.00 0.00 0.00 0.00 0.00 0.00 0.00 0.00 0.00 0.00 0.00 0.00 0.00 0.00 0.00 0.00 0.00 0.00 0.00 0.00
0.00 0.00 0.00 0.00 0.00 0.01 0.03 0.05 0.04 0.01 0.01 0.01 0.01 0.00 0.00 0.00 0.00 0.00 0.00 0.00 0.00 0.00 0.00 0.00 0.00 0.00 0.00 0.00 0.00 0.00 0.00 0.00 0.00 0.00 0.00 0.00 0.00 0.00 0.00 0.00 0.00 0.00 0.00
0.00 0.00 0.00 0.00 0.00 0.01 0.03 0.05 0.04 0.02 0.02 0.01 0.01 0.00 0.00 0.00 0.00 0.00 0.00 0.00 0.00 0.00 0.00 0.00 0.00 0.00 0.00 0.00 0.00 0.00 0.00 0.00 0.00 0.00 0.00 0.00 0.00 0.00 0.00 0.00 0.00 0.00 0.00
0.00 0.00 0.00 0.00 0.00 0.02 0.04 0.07 0.07 0.04 0.02 0.01 0.01 0.00 0.00 0.00 0.00 0.00 0.00 0.00 0.00 0.00 0.00 0.00 0.00 0.00 0.00 0.00 0.00 0.00 0.00 0.00 0.00 0.00 0.00 0.00 0.00 0.00 0.00 0.00 0.00 0.00 0.00
0.00 0.00 0.00 0.00 0.01 0.02 0.04 0.05 0.05 0.03 0.01 0.00 0.00 0.00 0.00 0.00 0.00 0.00 0.00 0.00 0.00 0.00 0.00 0.00 0.00 0.00 0.00 0.00 0.00 0.00 0.00 0.00 0.00 0.00 0.00 0.00 0.00 0.00 0.00 0.00 0.00 0.00 0.00
0.00 0.00 0.00 0.00 0.01 0.02 0.03 0.05 0.04 0.02 0.01 0.00 0.00 0.00 0.00 0.00 0.00 0.00 0.00 0.00 0.00 0.00 0.00 0.00 0.00 0.00 0.00 0.00 0.00 0.00 0.00 0.00 0.00 0.00 0.00 0.00 0.00 0.00 0.00 0.00 0.00 0.00 0.00
0.00 0.00 0.00 0.00 0.00 0.01 0.02 0.06 0.06 0.02 0.01 0.00 0.00 0.00 0.00 0.00 0.00 0.00 0.00 0.00 0.00 0.00 0.00 0.00 0.00 0.00 0.00 0.00 0.00 0.00 0.00 0.00 0.00 0.00 0.00 0.00 0.00 0.00 0.00 0.00 0.00 0.00 0.00
0.00 0.00 0.00 0.00 0.00 0.00 0.01 0.03 0.02 0.00 0.00 0.00 0.00 0.00 0.00 0.00 0.00 0.00 0.00 0.00 0.00 0.00 0.00 0.00 0.00 0.00 0.00 0.00 0.00 0.00 0.00 0.00 0.00 0.00 0.00 0.00 0.00 0.00 0.00 0.00 0.00 0.00 0.00

GEFSSE_prec_meanprecacc_018.txt.gz
Total_Precipitation_Accumulation
0.00 0.00 0.01 0.02 0.01 0.00 0.00 0.00 0.00 0.00 0.00 0.00 0.00 0.02 0.04 0.06 0.04 0.01 0.00 0.00 0.00 0.00 0.00 0.00 0.01 0.05 0.12 0.17 0.13 0.04 0.01 0.00 0.00 0.00 0.00 0.00 0.00 0.00 0.00 0.01 0.01 0.01 0.00
0.00 0.00 0.01 0.02 0.01 0.00 0.00 0.00 0.00 0.00 0.00 0.00 0.01 0.02 0.04 0.04 0.02 0.01 0.01 0.00 0.00 0.00 0.00 0.00 0.00 0.00 0.02 0.03 0.03 0.01 0.00 0.00 0.00 0.00 0.00 0.00 0.00 0.00 0.00 0.01 0.01 0.00 0.00
0.00 0.00 0.01 0.02 0.01 0.01 0.00 0.00 0.00 0.00 0.00 0.00 0.01 0.01 0.01 0.01 0.01 0.00 0.01 0.00 0.00 0.00 0.00 0.00 0.00 0.00 0.00 0.00 0.00 0.00 0.00 0.00 0.00 0.00 0.00 0.00 0.00 0.00 0.00 0.00 0.01 0.00 0.00
0.00 0.00 0.00 0.01 0.01 0.01 0.00 0.00 0.00 0.00 0.00 0.00 0.00 0.00 0.00 0.00 0.01 0.01 0.01 0.00 0.00 0.00 0.00 0.00 0.00 0.00 0.00 0.00 0.00 0.00 0.00 0.00 0.00 0.00 0.00 0.00 0.00 0.00 0.00 0.00 0.01 0.01 0.01
0.00 0.00 0.00 0.01 0.01 0.01 0.01 0.00 0.00 0.00 0.00 0.00 0.00 0.00 0.00 0.01 0.02 0.01 0.00 0.00 0.00 0.00 0.00 0.00 0.00 0.00 0.00 0.00 0.00 0.00 0.00 0.00 0.00 0.00 0.00 0.00 0.00 0.00 0.00 0.00 0.01 0.02 0.01
0.00 0.00 0.00 0.01 0.02 0.01 0.01 0.00 0.00 0.00 0.00 0.00 0.00 0.00 0.00 0.02 0.04 0.03 0.01 0.00 0.00 0.00 0.00 0.00 0.00 0.00 0.00 0.00 0.00 0.00 0.00 0.01 0.00 0.00 0.00 0.00 0.00 0.00 0.00 0.00 0.00 0.01 0.01
0.00 0.00 0.00 0.01 0.02 0.02 0.01 0.00 0.00 0.00 0.00 0.00 0.00 0.00 0.00 0.01 0.03 0.05 0.03 0.00 0.00 0.00 0.00 0.00 0.00 0.00 0.00 0.00 0.00 0.00 0.00 0.00 0.00 0.00 0.00 0.00 0.00 0.00 0.00 0.01 0.01 0.01 0.01
0.00 0.00 0.00 0.01 0.02 0.02 0.01 0.01 0.00 0.00 0.00 0.00 0.00 0.00 0.00 0.00 0.01 0.04 0.03 0.01 0.00 0.00 0.00 0.00 0.01 0.01 0.00 0.00 0.00 0.00 0.00 0.00 0.00 0.00 0.00 0.00 0.00 0.00 0.01 0.02 0.02 0.02 0.03
0.00 0.00 0.00 0.01 0.02 0.02 0.01 0.01 0.00 0.00 0.00 0.00 0.00 0.00 0.00 0.00 0.01 0.02 0.02 0.01 0.00 0.00 0.00 0.00 0.01 0.01 0.01 0.01 0.01 0.00 0.00 0.00 0.00 0.00 0.00 0.00 0.00 0.00 0.01 0.03 0.04 0.05 0.05
0.00 0.00 0.00 0.00 0.01 0.02 0.02 0.01 0.00 0.00 0.00 0.00 0.00 0.00 0.00 0.00 0.00 0.00 0.01 0.00 0.00 0.00 0.00 0.00 0.01 0.01 0.01 0.01 0.01 0.00 0.00 0.00 0.00 0.00 0.00 0.00 0.00 0.00 0.02 0.04 0.05 0.06 0.07
0.00 0.00 0.00 0.00 0.01 0.01 0.02 0.01 0.00 0.00 0.00 0.00 0.00 0.00 0.00 0.00 0.00 0.00 0.00 0.00 0.00 0.00 0.00 0.00 0.01 0.02 0.01 0.00 0.00 0.00 0.00 0.00 0.00 0.00 0.00 0.00 0.00 0.01 0.02 0.03 0.03 0.05 0.06
0.00 0.00 0.00 0.01 0.01 0.01 0.01 0.01 0.00 0.00 0.00 0.00 0.00 0.00 0.00 0.00 0.00 0.00 0.00 0.00 0.00 0.00 0.00 0.00 0.01 0.01 0.00 0.00 0.00 0.00 0.00 0.00 0.00 0.00 0.00 0.00 0.00 0.00 0.01 0.02 0.03 0.05 0.05
0.00 0.00 0.00 0.01 0.01 0.01 0.01 0.01 0.00 0.00 0.00 0.00 0.00 0.00 0.00 0.00 0.00 0.00 0.00 0.00 0.00 0.00 0.00 0.00 0.00 0.00 0.00 0.00 0.00 0.00 0.00 0.00 0.00 0.00 0.00 0.00 0.00 0.00 0.01 0.01 0.02 0.02 0.02
0.00 0.00 0.00 0.00 0.01 0.01 0.01 0.01 0.00 0.00 0.00 0.00 0.00 0.00 0.00 0.00 0.00 0.00 0.00 0.00 0.00 0.00 0.00 0.00 0.00 0.00 0.00 0.00 0.00 0.00 0.00 0.00 0.00 0.00 0.00 0.00 0.00 0.00 0.00 0.00 0.00 0.00 0.00
0.00 0.00 0.00 0.00 0.00 0.01 0.02 0.01 0.00 0.00 0.00 0.00 0.00 0.00 0.00 0.00 0.00 0.00 0.00 0.00 0.00 0.00 0.00 0.00 0.00 0.00 0.00 0.00 0.00 0.00 0.00 0.00 0.00 0.00 0.00 0.00 0.00 0.00 0.00 0.00 0.00 0.00 0.00
0.00 0.00 0.00 0.00 0.00 0.01 0.01 0.02 0.01 0.00 0.00 0.00 0.00 0.00 0.00 0.00 0.00 0.00 0.00 0.00 0.00 0.00 0.00 0.00 0.00 0.00 0.00 0.00 0.00 0.00 0.00 0.00 0.00 0.00 0.00 0.00 0.00 0.00 0.00 0.00 0.00 0.00 0.00
0.00 0.00 0.00 0.00 0.01 0.02 0.02 0.02 0.02 0.01 0.00 0.00 0.00 0.00 0.00 0.00 0.00 0.00 0.00 0.00 0.00 0.00 0.00 0.00 0.00 0.00 0.00 0.00 0.00 0.00 0.00 0.00 0.00 0.00 0.00 0.00 0.00 0.00 0.00 0.00 0.00 0.00 0.00
0.00 0.00 0.00 0.00 0.01 0.02 0.03 0.04 0.03 0.02 0.01 0.01 0.00 0.00 0.00 0.00 0.00 0.00 0.00 0.00 0.00 0.00 0.00 0.00 0.00 0.00 0.00 0.00 0.00 0.00 0.00 0.00 0.00 0.00 0.00 0.00 0.00 0.00 0.00 0.00 0.00 0.00 0.00
0.00 0.00 0.00 0.00 0.01 0.02 0.04 0.05 0.04 0.02 0.02 0.02 0.01 0.00 0.00 0.00 0.00 0.00 0.00 0.00 0.00 0.00 0.00 0.00 0.00 0.00 0.00 0.00 0.00 0.00 0.00 0.00 0.00 0.00 0.00 0.00 0.00 0.00 0.00 0.00 0.00 0.00 0.00
0.00 0.00 0.00 0.00 0.01 0.02 0.04 0.06 0.05 0.03 0.03 0.03 0.01 0.01 0.00 0.00 0.00 0.00 0.00 0.00 0.00 0.00 0.00 0.00 0.00 0.00 0.00 0.00 0.00 0.00 0.00 0.00 0.00 0.00 0.00 0.00 0.00 0.00 0.00 0.00 0.00 0.00 0.00
0.00 0.00 0.00 0.00 0.00 0.02 0.04 0.05 0.05 0.04 0.04 0.03 0.02 0.02 0.01 0.00 0.00 0.00 0.00 0.00 0.00 0.00 0.00 0.00 0.00 0.00 0.00 0.00 0.00 0.00 0.00 0.00 0.00 0.00 0.00 0.00 0.00 0.00 0.00 0.00 0.00 0.00 0.00
0.00 0.00 0.00 0.00 0.00 0.02 0.04 0.07 0.07 0.06 0.05 0.04 0.03 0.02 0.01 0.00 0.00 0.00 0.00 0.00 0.00 0.00 0.00 0.00 0.00 0.00 0.00 0.00 0.00 0.00 0.00 0.00 0.00 0.00 0.00 0.00 0.00 0.00 0.00 0.00 0.00 0.00 0.00
0.00 0.00 0.00 0.00 0.01 0.03 0.04 0.06 0.05 0.04 0.02 0.02 0.02 0.01 0.01 0.01 0.00 0.00 0.00 0.00 0.00 0.00 0.00 0.00 0.00 0.00 0.00 0.00 0.00 0.00 0.00 0.00 0.00 0.00 0.00 0.00 0.00 0.00 0.00 0.00 0.00 0.00 0.00
0.00 0.00 0.00 0.00 0.01 0.02 0.03 0.05 0.04 0.04 0.03 0.02 0.03 0.04 0.02 0.01 0.01 0.00 0.00 0.00 0.00 0.00 0.00 0.00 0.00 0.00 0.00 0.00 0.00 0.00 0.00 0.00 0.00 0.00 0.00 0.00 0.00 0.00 0.00 0.00 0.00 0.00 0.00
0.00 0.00 0.00 0.00 0.01 0.01 0.02 0.06 0.07 0.04 0.02 0.02 0.03 0.03 0.02 0.01 0.00 0.00 0.00 0.00 0.00 0.00 0.00 0.00 0.00 0.00 0.00 0.00 0.00 0.00 0.00 0.00 0.00 0.00 0.00 0.00 0.00 0.00 0.00 0.00 0.00 0.00 0.00
0.00 0.00 0.00 0.00 0.00 0.00 0.01 0.03 0.02 0.01 0.01 0.01 0.03 0.03 0.02 0.01 0.00 0.00 0.00 0.00 0.00 0.00 0.00 0.00 0.00 0.00 0.00 0.00 0.00 0.00 0.00 0.00 0.00 0.00 0.00 0.00 0.00 0.00 0.00 0.00 0.00 0.00 0.00

GEFSSE_prec_meanprecacc_024.txt.gz
Total_Precipitation_Accumulation
0.00 0.00 0.01 0.02 0.01 0.00 0.00 0.00 0.00 0.00 0.00 0.01 0.02 0.03 0.05 0.06 0.05 0.01 0.00 0.00 0.00 0.00 0.00 0.01 0.04 0.10 0.18 0.22 0.15 0.04 0.01 0.00 0.00 0.00 0.00 0.00 0.00 0.00 0.00 0.01 0.01 0.01 0.01
0.00 0.00 0.01 0.02 0.01 0.00 0.00 0.00 0.00 0.00 0.00 0.01 0.02 0.04 0.06 0.05 0.03 0.01 0.01 0.00 0.00 0.00 0.00 0.00 0.01 0.02 0.03 0.04 0.03 0.01 0.00 0.00 0.00 0.00 0.00 0.00 0.00 0.00 0.00 0.01 0.01 0.01 0.01
0.00 0.00 0.01 0.02 0.01 0.01 0.00 0.00 0.00 0.00 0.00 0.01 0.02 0.02 0.02 0.01 0.01 0.00 0.01 0.00 0.00 0.00 0.00 0.00 0.00 0.00 0.00 0.00 0.00 0.00 0.00 0.00 0.00 0.00 0.00 0.00 0.00 0.00 0.00 0.00 0.01 0.00 0.00
0.00 0.00 0.00 0.01 0.01 0.01 0.00 0.00 0.00 0.00 0.00 0.00 0.01 0.01 0.01 0.01 0.01 0.01 0.01 0.00 0.00 0.00 0.00 0.00 0.00 0.00 0.00 0.00 0.00 0.00 0.00 0.00 0.00 0.00 0.00 0.00 0.00 0.00 0.00 0.00 0.01 0.01 0.01
0.00 0.00 0.00 0.01 0.01 0.01 0.01 0.00 0.00 0.00 0.00 0.00 0.00 0.00 0.00 0.01 0.02 0.01 0.00 0.00 0.00 0.00 0.00 0.00 0.00 0.00 0.00 0.00 0.00 0.00 0.00 0.00 0.00 0.00 0.00 0.00 0.00 0.00 0.00 0.00 0.01 0.02 0.01
0.00 0.00 0.00 0.01 0.02 0.01 0.01 0.00 0.00 0.00 0.00 0.00 0.00 0.00 0.00 0.02 0.04 0.03 0.01 0.00 0.00 0.00 0.00 0.00 0.00 0.00 0.00 0.00 0.00 0.00 0.00 0.01 0.00 0.00 0.00 0.00 0.00 0.00 0.00 0.01 0.01 0.01 0.01
0.00 0.00 0.00 0.01 0.02 0.02 0.01 0.00 0.00 0.00 0.00 0.00 0.00 0.00 0.00 0.01 0.03 0.05 0.03 0.00 0.00 0.00 0.00 0.00 0.00 0.00 0.00 0.00 0.00 0.00 0.00 0.00 0.00 0.00 0.00 0.00 0.00 0.00 0.00 0.02 0.02 0.02 0.03
0.00 0.00 0.00 0.01 0.02 0.02 0.01 0.01 0.00 0.00 0.00 0.00 0.00 0.00 0.00 0.00 0.02 0.04 0.03 0.01 0.00 0.00 0.00 0.00 0.01 0.01 0.01 0.00 0.00 0.00 0.00 0.00 0.00 0.00 0.00 0.00 0.00 0.00 0.01 0.02 0.02 0.02 0.03
0.00 0.00 0.00 0.01 0.02 0.02 0.01 0.01 0.00 0.00 0.00 0.00 0.00 0.00 0.00 0.00 0.01 0.02 0.02 0.01 0.00 0.00 0.00 0.00 0.01 0.01 0.01 0.01 0.01 0.00 0.00 0.00 0.00 0.00 0.00 0.00 0.00 0.00 0.01 0.03 0.05 0.05 0.06
0.00 0.01 0.00 0.00 0.01 0.02 0.02 0.01 0.00 0.00 0.00 0.00 0.00 0.00 0.00 0.00 0.00 0.00 0.01 0.00 0.00 0.00 0.00 0.00 0.01 0.01 0.01 0.01 0.01 0.00 0.00 0.00 0.00 0.00 0.00 0.00 0.00 0.00 0.03 0.05 0.07 0.08 0.08
0.01 0.01 0.01 0.00 0.01 0.01 0.02 0.01 0.00 0.00 0.00 0.00 0.00 0.00 0.00 0.00 0.00 0.00 0.00 0.00 0.00 0.00 0.00 0.00 0.01 0.02 0.01 0.00 0.00 0.00 0.00 0.00 0.00 0.00 0.00 0.00 0.00 0.02 0.03 0.04 0.05 0.06 0.07
0.01 0.01 0.01 0.01 0.01 0.01 0.01 0.01 0.00 0.00 0.00 0.00 0.00 0.00 0.00 0.00 0.00 0.00 0.00 0.00 0.00 0.00 0.00 0.00 0.01 0.01 0.00 0.00 0.00 0.00 0.00 0.00 0.00 0.00 0.00 0.00 0.01 0.02 0.03 0.03 0.04 0.05 0.05
0.00 0.01 0.01 0.02 0.01 0.01 0.01 0.01 0.00 0.00 0.00 0.00 0.00 0.00 0.00 0.00 0.00 0.00 0.00 0.00 0.00 0.00 0.00 0.00 0.00 0.00 0.00 0.00 0.00 0.00 0.00 0.00 0.00 0.00 0.00 0.00 0.01 0.01 0.01 0.01 0.02 0.02 0.02
0.00 0.00 0.01 0.01 0.01 0.01 0.01 0.01 0.00 0.00 0.00 0.00 0.00 0.00 0.00 0.00 0.00 0.00 0.00 0.00 0.00 0.00 0.00 0.00 0.00 0.00 0.00 0.00 0.00 0.00 0.00 0.00 0.00 0.00 0.00 0.00 0.00 0.00 0.00 0.00 0.00 0.00 0.00
0.00 0.01 0.01 0.01 0.01 0.02 0.02 0.01 0.00 0.00 0.00 0.00 0.00 0.00 0.00 0.00 0.00 0.00 0.00 0.00 0.00 0.00 0.00 0.00 0.00 0.00 0.00 0.00 0.00 0.00 0.00 0.00 0.00 0.00 0.00 0.00 0.00 0.00 0.00 0.00 0.00 0.00 0.00
0.00 0.00 0.01 0.01 0.01 0.01 0.01 0.02 0.01 0.00 0.00 0.00 0.00 0.00 0.00 0.00 0.00 0.00 0.00 0.00 0.00 0.00 0.00 0.00 0.00 0.00 0.00 0.00 0.00 0.00 0.00 0.00 0.00 0.00 0.00 0.00 0.00 0.00 0.00 0.00 0.00 0.00 0.00
0.00 0.00 0.00 0.01 0.02 0.02 0.02 0.03 0.03 0.02 0.01 0.00 0.01 0.00 0.00 0.00 0.00 0.00 0.00 0.00 0.00 0.00 0.00 0.00 0.00 0.00 0.00 0.00 0.00 0.00 0.00 0.00 0.00 0.00 0.00 0.00 0.00 0.00 0.00 0.00 0.00 0.00 0.00
0.00 0.00 0.00 0.01 0.03 0.03 0.04 0.05 0.04 0.03 0.02 0.01 0.01 0.00 0.00 0.00 0.00 0.00 0.00 0.00 0.00 0.00 0.00 0.00 0.00 0.00 0.00 0.00 0.00 0.00 0.00 0.00 0.00 0.00 0.00 0.00 0.00 0.00 0.00 0.00 0.00 0.00 0.00
0.00 0.00 0.00 0.03 0.04 0.05 0.08 0.10 0.08 0.06 0.05 0.03 0.01 0.00 0.00 0.00 0.00 0.00 0.00 0.00 0.00 0.00 0.00 0.00 0.00 0.00 0.00 0.00 0.00 0.00 0.00 0.00 0.00 0.00 0.00 0.00 0.00 0.00 0.00 0.00 0.00 0.00 0.00
0.00 0.00 0.00 0.02 0.05 0.09 0.14 0.16 0.13 0.10 0.07 0.05 0.03 0.01 0.01 0.01 0.00 0.00 0.00 0.00 0.00 0.00 0.00 0.00 0.00 0.00 0.00 0.00 0.00 0.00 0.00 0.00 0.00 0.00 0.00 0.00 0.00 0.00 0.00 0.00 0.00 0.00 0.00
0.00 0.00 0.00 0.01 0.04 0.09 0.13 0.12 0.10 0.08 0.07 0.05 0.04 0.04 0.03 0.03 0.01 0.00 0.00 0.00 0.00 0.00 0.00 0.00 0.00 0.00 0.00 0.00 0.00 0.00 0.00 0.00 0.00 0.00 0.00 0.00 0.00 0.00 0.00 0.00 0.00 0.00 0.00
0.00 0.00 0.00 0.00 0.01 0.05 0.08 0.10 0.12 0.14 0.13 0.10 0.08 0.05 0.04 0.04 0.02 0.00 0.00 0.00 0.00 0.00 0.00 0.00 0.00 0.00 0.00 0.00 0.00 0.00 0.00 0.00 0.00 0.00 0.00 0.00 0.00 0.00 0.00 0.00 0.00 0.00 0.00
0.00 0.00 0.00 0.00 0.01 0.05 0.09 0.13 0.14 0.15 0.12 0.08 0.05 0.04 0.05 0.04 0.03 0.01 0.00 0.00 0.00 0.00 0.00 0.00 0.00 0.00 0.00 0.00 0.00 0.00 0.00 0.00 0.00 0.00 0.00 0.00 0.00 0.00 0.00 0.00 0.00 0.00 0.00
0.00 0.00 0.00 0.00 0.01 0.03 0.07 0.10 0.08 0.06 0.05 0.05 0.08 0.10 0.10 0.06 0.04 0.02 0.01 0.00 0.00 0.00 0.00 0.00 0.00 0.00 0.00 0.00 0.00 0.00 0.00 0.00 0.00 0.00 0.00 0.00 0.00 0.00 0.00 0.00 0.00 0.00 0.00
0.00 0.00 0.00 0.00 0.01 0.02 0.05 0.08 0.08 0.06 0.04 0.06 0.08 0.11 0.10 0.07 0.05 0.03 0.02 0.01 0.00 0.00 0.00 0.00 0.00 0.00 0.00 0.00 0.00 0.00 0.00 0.00 0.00 0.00 0.00 0.00 0.00 0.00 0.00 0.00 0.00 0.00 0.00
0.00 0.00 0.00 0.00 0.00 0.01 0.02 0.05 0.03 0.02 0.02 0.03 0.06 0.07 0.07 0.06 0.04 0.04 0.03 0.02 0.01 0.00 0.00 0.00 0.00 0.00 0.00 0.00 0.00 0.00 0.00 0.00 0.00 0.00 0.00 0.00 0.00 0.00 0.00 0.00 0.00 0.00 0.00

GEFSSE_prec_meanprecacc_030.txt.gz
Total_Precipitation_Accumulation
0.00 0.00 0.02 0.03 0.02 0.01 0.01 0.00 0.01 0.01 0.01 0.02 0.02 0.04 0.05 0.06 0.05 0.01 0.00 0.00 0.00 0.01 0.02 0.05 0.08 0.15 0.21 0.22 0.15 0.05 0.01 0.00 0.00 0.00 0.00 0.00 0.00 0.00 0.00 0.01 0.01 0.01 0.01
0.00 0.00 0.02 0.02 0.02 0.01 0.01 0.00 0.00 0.01 0.01 0.02 0.03 0.05 0.06 0.05 0.03 0.01 0.01 0.00 0.00 0.01 0.02 0.04 0.05 0.05 0.04 0.04 0.03 0.01 0.00 0.00 0.00 0.00 0.00 0.00 0.00 0.00 0.00 0.01 0.01 0.01 0.01
0.00 0.00 0.02 0.02 0.02 0.01 0.01 0.00 0.00 0.01 0.01 0.02 0.03 0.03 0.03 0.01 0.01 0.00 0.01 0.00 0.00 0.01 0.01 0.02 0.02 0.01 0.00 0.00 0.00 0.00 0.00 0.00 0.00 0.00 0.00 0.00 0.00 0.00 0.00 0.00 0.01 0.00 0.00
0.00 0.00 0.00 0.02 0.01 0.01 0.01 0.00 0.00 0.00 0.01 0.01 0.02 0.01 0.01 0.01 0.01 0.01 0.01 0.00 0.00 0.00 0.00 0.00 0.00 0.00 0.00 0.00 0.00 0.00 0.00 0.00 0.00 0.00 0.00 0.00 0.00 0.00 0.00 0.00 0.01 0.01 0.01
0.00 0.00 0.00 0.02 0.02 0.01 0.01 0.00 0.00 0.00 0.01 0.01 0.01 0.01 0.01 0.01 0.02 0.01 0.00 0.00 0.00 0.00 0.00 0.00 0.00 0.00 0.00 0.00 0.00 0.00 0.00 0.00 0.00 0.00 0.00 0.00 0.00 0.00 0.00 0.01 0.01 0.02 0.02
0.00 0.00 0.00 0.01 0.02 0.01 0.01 0.00 0.00 0.00 0.01 0.01 0.00 0.00 0.00 0.02 0.04 0.03 0.01 0.00 0.00 0.00 0.00 0.00 0.00 0.00 0.00 0.00 0.00 0.00 0.00 0.01 0.00 0.00 0.00 0.00 0.00 0.01 0.01 0.02 0.03 0.03 0.04
0.00 0.00 0.00 0.01 0.02 0.02 0.01 0.00 0.00 0.00 0.00 0.00 0.00 0.00 0.00 0.01 0.03 0.05 0.03 0.00 0.00 0.00 0.00 0.00 0.00 0.00 0.00 0.00 0.00 0.00 0.00 0.00 0.00 0.00 0.00 0.00 0.00 0.00 0.01 0.03 0.04 0.04 0.05
0.00 0.00 0.00 0.02 0.02 0.02 0.01 0.01 0.00 0.00 0.00 0.00 0.00 0.00 0.00 0.00 0.02 0.04 0.03 0.01 0.00 0.00 0.00 0.00 0.01 0.01 0.01 0.00 0.00 0.00 0.00 0.00 0.00 0.00 0.00 0.00 0.00 0.00 0.01 0.02 0.03 0.03 0.05
0.00 0.00 0.00 0.01 0.02 0.02 0.01 0.01 0.00 0.00 0.00 0.00 0.00 0.00 0.00 0.00 0.01 0.02 0.02 0.01 0.00 0.00 0.00 0.01 0.01 0.01 0.01 0.01 0.01 0.00 0.00 0.00 0.00 0.00 0.00 0.00 0.00 0.00 0.02 0.04 0.07 0.08 0.09
0.01 0.01 0.00 0.00 0.01 0.02 0.02 0.01 0.00 0.00 0.00 0.00 0.00 0.00 0.00 0.00 0.00 0.00 0.01 0.00 0.00 0.00 0.01 0.01 0.01 0.01 0.01 0.01 0.01 0.00 0.00 0.00 0.00 0.00 0.00 0.00 0.00 0.01 0.05 0.09 0.11 0.11 0.10
0.02 0.02 0.01 0.00 0.01 0.01 0.02 0.01 0.00 0.00 0.00 0.00 0.00 0.00 0.00 0.00 0.00 0.00 0.00 0.00 0.00 0.00 0.00 0.01 0.01 0.02 0.01 0.00 0.00 0.00 0.00 0.00 0.00 0.00 0.00 0.00 0.02 0.05 0.07 0.07 0.07 0.07 0.07
0.02 0.02 0.01 0.01 0.01 0.01 0.01 0.01 0.00 0.00 0.00 0.00 0.00 0.00 0.00 0.00 0.00 0.00 0.00 0.00 0.00 0.00 0.00 0.00 0.01 0.01 0.00 0.00 0.00 0.00 0.00 0.00 0.00 0.00 0.00 0.02 0.04 0.05 0.04 0.04 0.05 0.05 0.05
0.01 0.01 0.01 0.02 0.01 0.01 0.01 0.01 0.00 0.00 0.00 0.00 0.00 0.00 0.00 0.00 0.00 0.00 0.00 0.00 0.00 0.00 0.00 0.00 0.00 0.00 0.00 0.00 0.00 0.00 0.00 0.00 0.00 0.00 0.00 0.01 0.02 0.02 0.02 0.02 0.02 0.02 0.02
0.01 0.00 0.01 0.01 0.01 0.01 0.01 0.01 0.00 0.00 0.00 0.00 0.00 0.00 0.00 0.00 0.00 0.00 0.00 0.00 0.00 0.00 0.00 0.00 0.00 0.00 0.00 0.00 0.00 0.00 0.00 0.00 0.00 0.00 0.00 0.00 0.00 0.00 0.00 0.00 0.00 0.00 0.00
0.01 0.01 0.01 0.02 0.01 0.02 0.02 0.01 0.01 0.00 0.00 0.00 0.00 0.00 0.00 0.00 0.00 0.00 0.00 0.00 0.00 0.00 0.00 0.00 0.00 0.00 0.00 0.00 0.00 0.00 0.00 0.00 0.00 0.00 0.00 0.00 0.00 0.00 0.00 0.00 0.00 0.00 0.00
0.01 0.01 0.02 0.02 0.03 0.02 0.02 0.03 0.01 0.01 0.01 0.00 0.00 0.00 0.00 0.00 0.00 0.00 0.00 0.00 0.00 0.00 0.00 0.00 0.00 0.00 0.00 0.00 0.00 0.00 0.00 0.00 0.00 0.00 0.00 0.00 0.00 0.00 0.00 0.00 0.00 0.00 0.00
0.00 0.01 0.02 0.04 0.06 0.04 0.04 0.05 0.04 0.03 0.01 0.01 0.01 0.00 0.00 0.00 0.00 0.00 0.00 0.00 0.00 0.00 0.00 0.00 0.00 0.00 0.00 0.00 0.00 0.00 0.00 0.00 0.00 0.00 0.00 0.00 0.00 0.00 0.00 0.00 0.00 0.00 0.00
0.00 0.00 0.01 0.03 0.05 0.06 0.07 0.09 0.07 0.05 0.03 0.02 0.01 0.00 0.00 0.00 0.00 0.00 0.00 0.00 0.00 0.00 0.00 0.00 0.00 0.00 0.00 0.00 0.00 0.00 0.00 0.00 0.00 0.00 0.00 0.00 0.00 0.00 0.00 0.00 0.00 0.00 0.00
0.00 0.00 0.00 0.03 0.06 0.08 0.12 0.15 0.11 0.09 0.08 0.06 0.03 0.01 0.00 0.00 0.00 0.00 0.00 0.00 0.00 0.00 0.00 0.00 0.00 0.00 0.00 0.00 0.00 0.00 0.00 0.00 0.00 0.00 0.00 0.00 0.00 0.00 0.00 0.00 0.00 0.00 0.00
0.00 0.00 0.00 0.02 0.05 0.12 0.20 0.22 0.19 0.13 0.09 0.08 0.05 0.02 0.02 0.01 0.01 0.00 0.00 0.00 0.00 0.00 0.00 0.00 0.00 0.00 0.00 0.00 0.00 0.00 0.00 0.00 0.00 0.00 0.00 0.00 0.00 0.00 0.00 0.00 0.00 0.00 0.00
0.00 0.00 0.00 0.01 0.04 0.11 0.16 0.16 0.13 0.09 0.09 0.08 0.07 0.07 0.06 0.05 0.03 0.02 0.01 0.00 0.00 0.00 0.00 0.00 0.00 0.00 0.00 0.00 0.00 0.00 0.00 0.00 0.00 0.00 0.00 0.00 0.00 0.00 0.00 0.00 0.00 0.00 0.00
0.00 0.00 0.00 0.00 0.01 0.05 0.08 0.11 0.13 0.16 0.17 0.14 0.14 0.11 0.09 0.08 0.08 0.04 0.02 0.02 0.01 0.00 0.00 0.00 0.00 0.00 0.00 0.00 0.00 0.00 0.00 0.00 0.00 0.00 0.00 0.00 0.00 0.00 0.00 0.00 0.00 0.00 0.00
0.00 0.00 0.00 0.00 0.01 0.05 0.09 0.15 0.18 0.21 0.18 0.13 0.07 0.05 0.07 0.10 0.11 0.07 0.05 0.05 0.03 0.01 0.00 0.00 0.00 0.00 0.00 0.00 0.00 0.00 0.00 0.00 0.00 0.00 0.00 0.00 0.00 0.00 0.00 0.00 0.00 0.00 0.00
0.00 0.00 0.00 0.00 0.01 0.03 0.08 0.11 0.10 0.08 0.06 0.05 0.08 0.12 0.14 0.15 0.14 0.11 0.09 0.07 0.05 0.02 0.01 0.01 0.00 0.00 0.00 0.00 0.00 0.00 0.00 0.00 0.00 0.00 0.00 0.00 0.00 0.00 0.00 0.00 0.00 0.00 0.00
0.00 0.00 0.00 0.00 0.01 0.02 0.05 0.09 0.10 0.07 0.05 0.07 0.11 0.14 0.14 0.14 0.13 0.13 0.12 0.09 0.06 0.03 0.02 0.01 0.00 0.00 0.00 0.00 0.00 0.00 0.00 0.00 0.00 0.00 0.00 0.00 0.00 0.00 0.00 0.00 0.00 0.00 0.00
0.00 0.00 0.00 0.00 0.00 0.01 0.03 0.05 0.04 0.03 0.03 0.05 0.08 0.11 0.11 0.11 0.11 0.12 0.12 0.10 0.09 0.07 0.04 0.02 0.01 0.00 0.00 0.00 0.00 0.00 0.00 0.00 0.00 0.00 0.00 0.00 0.00 0.00 0.00 0.00 0.00 0.00 0.00

GEFSSE_prec_meanprecacc_036.txt.gz
Total_Precipitation_Accumulation
0.00 0.01 0.03 0.03 0.02 0.02 0.01 0.02 0.02 0.02 0.03 0.04 0.04 0.05 0.06 0.07 0.05 0.01 0.00 0.00 0.01 0.02 0.05 0.09 0.14 0.19 0.23 0.23 0.15 0.05 0.01 0.00 0.00 0.00 0.00 0.00 0.00 0.00 0.01 0.01 0.02 0.02 0.01
0.00 0.00 0.02 0.03 0.03 0.02 0.02 0.02 0.02 0.02 0.02 0.03 0.04 0.05 0.06 0.05 0.03 0.01 0.01 0.00 0.01 0.04 0.07 0.10 0.09 0.07 0.05 0.04 0.03 0.01 0.00 0.00 0.00 0.00 0.00 0.00 0.00 0.00 0.00 0.01 0.01 0.01 0.01
0.00 0.00 0.02 0.03 0.03 0.02 0.02 0.01 0.01 0.01 0.02 0.03 0.03 0.04 0.03 0.01 0.01 0.00 0.01 0.01 0.01 0.04 0.06 0.06 0.04 0.02 0.00 0.00 0.00 0.00 0.00 0.00 0.00 0.00 0.00 0.00 0.00 0.00 0.00 0.00 0.01 0.00 0.00
0.00 0.00 0.01 0.02 0.02 0.02 0.01 0.01 0.01 0.01 0.02 0.02 0.02 0.02 0.01 0.01 0.01 0.01 0.01 0.01 0.01 0.02 0.02 0.01 0.01 0.00 0.00 0.00 0.00 0.00 0.00 0.00 0.00 0.00 0.00 0.00 0.00 0.00 0.00 0.00 0.01 0.01 0.01
0.00 0.00 0.00 0.02 0.02 0.02 0.01 0.01 0.01 0.01 0.02 0.02 0.02 0.01 0.01 0.01 0.02 0.01 0.00 0.00 0.00 0.00 0.00 0.00 0.00 0.00 0.00 0.00 0.00 0.00 0.00 0.00 0.00 0.00 0.00 0.00 0.00 0.01 0.01 0.02 0.02 0.03 0.02
0.00 0.00 0.00 0.02 0.02 0.01 0.01 0.01 0.01 0.01 0.02 0.02 0.01 0.00 0.01 0.02 0.04 0.03 0.01 0.00 0.00 0.00 0.00 0.00 0.00 0.00 0.00 0.00 0.00 0.00 0.00 0.01 0.00 0.00 0.00 0.00 0.00 0.01 0.02 0.03 0.05 0.06 0.06
0.00 0.00 0.00 0.02 0.02 0.02 0.01 0.01 0.01 0.01 0.01 0.01 0.01 0.00 0.00 0.01 0.03 0.05 0.03 0.00 0.00 0.00 0.00 0.00 0.00 0.00 0.00 0.00 0.00 0.00 0.00 0.00 0.00 0.00 0.00 0.00 0.00 0.01 0.02 0.04 0.05 0.07 0.09
0.00 0.00 0.00 0.02 0.02 0.02 0.01 0.01 0.00 0.01 0.01 0.01 0.01 0.00 0.00 0.00 0.02 0.04 0.03 0.01 0.00 0.00 0.00 0.01 0.01 0.01 0.01 0.00 0.00 0.00 0.00 0.00 0.00 0.00 0.00 0.00 0.00 0.01 0.02 0.03 0.04 0.06 0.08
0.00 0.00 0.00 0.01 0.02 0.02 0.01 0.01 0.00 0.00 0.01 0.01 0.01 0.00 0.00 0.00 0.01 0.02 0.02 0.01 0.00 0.00 0.01 0.01 0.01 0.01 0.01 0.01 0.01 0.00 0.00 0.00 0.00 0.00 0.00 0.00 0.00 0.01 0.03 0.07 0.09 0.10 0.10
0.01 0.01 0.00 0.00 0.01 0.02 0.02 0.01 0.00 0.00 0.00 0.01 0.00 0.00 0.00 0.00 0.00 0.00 0.01 0.00 0.00 0.01 0.01 0.01 0.01 0.01 0.01 0.01 0.01 0.00 0.00 0.00 0.00 0.00 0.00 0.00 0.01 0.04 0.08 0.12 0.13 0.11 0.10
0.02 0.03 0.01 0.00 0.01 0.01 0.02 0.01 0.00 0.00 0.00 0.00 0.00 0.00 0.00 0.00 0.00 0.00 0.00 0.00 0.00 0.01 0.01 0.01 0.01 0.02 0.01 0.00 0.00 0.00 0.00 0.00 0.00 0.00 0.00 0.01 0.04 0.08 0.09 0.08 0.07 0.07 0.07
0.02 0.03 0.02 0.01 0.01 0.01 0.01 0.01 0.00 0.00 0.00 0.00 0.00 0.00 0.00 0.00 0.00 0.00 0.00 0.00 0.00 0.01 0.01 0.01 0.01 0.01 0.00 0.00 0.00 0.00 0.00 0.00 0.00 0.00 0.01 0.03 0.05 0.06 0.05 0.04 0.05 0.05 0.05
0.01 0.01 0.01 0.02 0.02 0.02 0.01 0.01 0.00 0.00 0.00 0.00 0.00 0.00 0.00 0.00 0.00 0.00 0.00 0.00 0.00 0.00 0.00 0.00 0.00 0.00 0.00 0.00 0.00 0.00 0.00 0.00 0.00 0.00 0.01 0.01 0.02 0.02 0.02 0.02 0.02 0.02 0.02
0.01 0.01 0.01 0.02 0.02 0.02 0.01 0.01 0.00 0.00 0.00 0.00 0.00 0.00 0.00 0.00 0.00 0.00 0.00 0.00 0.00 0.00 0.00 0.00 0.00 0.00 0.00 0.00 0.00 0.00 0.00 0.00 0.00 0.00 0.00 0.00 0.00 0.00 0.00 0.00 0.00 0.00 0.00
0.01 0.01 0.02 0.02 0.02 0.02 0.03 0.02 0.01 0.01 0.00 0.00 0.00 0.00 0.00 0.00 0.00 0.00 0.00 0.00 0.00 0.00 0.00 0.00 0.00 0.00 0.00 0.00 0.00 0.00 0.00 0.00 0.00 0.00 0.00 0.00 0.00 0.00 0.00 0.00 0.00 0.00 0.00
0.01 0.01 0.02 0.03 0.03 0.03 0.02 0.03 0.02 0.01 0.01 0.00 0.00 0.00 0.00 0.00 0.00 0.00 0.00 0.00 0.00 0.00 0.00 0.00 0.00 0.00 0.00 0.00 0.00 0.00 0.00 0.00 0.00 0.00 0.00 0.00 0.00 0.00 0.00 0.00 0.00 0.00 0.00
0.00 0.01 0.02 0.04 0.06 0.04 0.04 0.05 0.04 0.04 0.02 0.01 0.01 0.00 0.00 0.00 0.00 0.00 0.00 0.00 0.00 0.00 0.00 0.00 0.00 0.00 0.00 0.00 0.00 0.00 0.00 0.00 0.00 0.00 0.00 0.00 0.00 0.00 0.00 0.00 0.00 0.00 0.00
0.00 0.00 0.01 0.03 0.05 0.06 0.08 0.09 0.07 0.06 0.04 0.02 0.02 0.01 0.00 0.00 0.00 0.00 0.00 0.00 0.00 0.00 0.00 0.00 0.00 0.00 0.00 0.00 0.00 0.00 0.00 0.00 0.00 0.00 0.00 0.00 0.00 0.00 0.00 0.00 0.00 0.00 0.00
0.00 0.00 0.00 0.03 0.06 0.08 0.12 0.15 0.12 0.10 0.09 0.07 0.04 0.01 0.01 0.01 0.01 0.00 0.00 0.00 0.00 0.00 0.00 0.00 0.00 0.00 0.00 0.00 0.00 0.00 0.00 0.00 0.00 0.00 0.00 0.00 0.00 0.00 0.00 0.00 0.00 0.00 0.00
0.00 0.00 0.00 0.02 0.05 0.12 0.20 0.23 0.19 0.14 0.10 0.09 0.05 0.03 0.03 0.03 0.03 0.02 0.01 0.00 0.00 0.00 0.00 0.00 0.00 0.00 0.00 0.00 0.00 0.00 0.00 0.00 0.00 0.00 0.00 0.00 0.00 0.00 0.00 0.00 0.00 0.00 0.00
0.00 0.00 0.00 0.01 0.04 0.11 0.16 0.17 0.14 0.10 0.09 0.08 0.08 0.09 0.08 0.08 0.07 0.05 0.03 0.02 0.01 0.00 0.00 0.00 0.00 0.00 0.00 0.00 0.00 0.00 0.00 0.00 0.00 0.00 0.00 0.00 0.00 0.00 0.00 0.00 0.00 0.00 0.00
0.00 0.00 0.00 0.00 0.01 0.05 0.08 0.11 0.13 0.16 0.17 0.14 0.14 0.12 0.10 0.10 0.11 0.08 0.05 0.04 0.03 0.01 0.00 0.00 0.00 0.00 0.00 0.00 0.00 0.00 0.00 0.00 0.00 0.00 0.00 0.00 0.00 0.00 0.00 0.00 0.00 0.00 0.00
0.00 0.00 0.00 0.00 0.01 0.05 0.09 0.15 0.19 0.22 0.18 0.13 0.08 0.06 0.07 0.11 0.13 0.10 0.10 0.09 0.07 0.04 0.02 0.01 0.00 0.00 0.00 0.00 0.00 0.00 0.00 0.00 0.00 0.00 0.00 0.00 0.00 0.00 0.00 0.00 0.00 0.00 0.00
0.00 0.00 0.00 0.00 0.01 0.03 0.08 0.11 0.10 0.08 0.07 0.06 0.08 0.12 0.15 0.16 0.17 0.16 0.16 0.15 0.12 0.09 0.05 0.03 0.02 0.01 0.00 0.00 0.00 0.00 0.00 0.00 0.00 0.00 0.00 0.00 0.00 0.00 0.00 0.00 0.00 0.00 0.00
0.00 0.00 0.00 0.00 0.01 0.02 0.05 0.09 0.10 0.07 0.05 0.07 0.11 0.14 0.15 0.15 0.17 0.18 0.18 0.17 0.14 0.11 0.10 0.08 0.05 0.03 0.02 0.01 0.00 0.00 0.00 0.00 0.00 0.00 0.00 0.00 0.00 0.00 0.00 0.00 0.00 0.00 0.00
0.00 0.00 0.00 0.00 0.00 0.01 0.03 0.05 0.05 0.03 0.03 0.06 0.09 0.11 0.12 0.12 0.13 0.15 0.17 0.16 0.16 0.16 0.15 0.13 0.12 0.09 0.06 0.03 0.01 0.01 0.00 0.00 0.00 0.00 0.00 0.00 0.00 0.00 0.00 0.00 0.00 0.00 0.00

GEFSSE_prec_meanprecacc_042.txt.gz
Total_Precipitation_Accumulation
0.00 0.01 0.03 0.03 0.02 0.02 0.02 0.02 0.03 0.03 0.04 0.06 0.07 0.07 0.07 0.07 0.05 0.01 0.00 0.01 0.02 0.05 0.09 0.14 0.17 0.21 0.24 0.23 0.15 0.05 0.01 0.00 0.00 0.00 0.00 0.00 0.00 0.00 0.01 0.01 0.02 0.02 0.01
0.00 0.00 0.02 0.03 0.03 0.02 0.02 0.03 0.03 0.03 0.04 0.06 0.06 0.06 0.06 0.05 0.03 0.01 0.01 0.01 0.03 0.07 0.12 0.13 0.11 0.08 0.05 0.04 0.03 0.01 0.00 0.00 0.00 0.00 0.00 0.00 0.00 0.00 0.00 0.01 0.01 0.01 0.01
0.00 0.00 0.02 0.03 0.03 0.02 0.02 0.03 0.02 0.02 0.03 0.04 0.04 0.04 0.03 0.02 0.01 0.01 0.01 0.02 0.04 0.07 0.09 0.07 0.04 0.02 0.01 0.00 0.00 0.00 0.00 0.00 0.00 0.00 0.00 0.00 0.00 0.00 0.00 0.00 0.01 0.00 0.00
0.00 0.00 0.01 0.02 0.02 0.02 0.02 0.02 0.02 0.02 0.03 0.03 0.03 0.02 0.01 0.01 0.01 0.01 0.02 0.03 0.03 0.03 0.03 0.01 0.01 0.00 0.00 0.00 0.00 0.00 0.00 0.00 0.00 0.00 0.00 0.00 0.00 0.00 0.00 0.00 0.01 0.01 0.01
0.00 0.00 0.00 0.02 0.02 0.02 0.02 0.02 0.02 0.02 0.03 0.03 0.02 0.01 0.01 0.01 0.02 0.01 0.01 0.01 0.01 0.01 0.00 0.00 0.00 0.00 0.00 0.00 0.00 0.00 0.00 0.00 0.00 0.00 0.00 0.00 0.01 0.01 0.02 0.02 0.03 0.03 0.03
0.00 0.00 0.00 0.02 0.02 0.02 0.02 0.01 0.02 0.03 0.03 0.02 0.01 0.00 0.01 0.02 0.04 0.03 0.01 0.00 0.00 0.00 0.00 0.00 0.00 0.00 0.00 0.00 0.00 0.00 0.00 0.01 0.00 0.00 0.00 0.00 0.01 0.02 0.03 0.04 0.06 0.07 0.09
0.00 0.00 0.00 0.02 0.02 0.02 0.02 0.01 0.02 0.02 0.03 0.02 0.01 0.00 0.00 0.01 0.03 0.05 0.03 0.00 0.00 0.00 0.00 0.00 0.00 0.00 0.00 0.00 0.00 0.00 0.00 0.00 0.00 0.00 0.00 0.00 0.01 0.02 0.03 0.05 0.07 0.10 0.12
0.00 0.00 0.00 0.02 0.03 0.02 0.02 0.01 0.01 0.02 0.02 0.02 0.01 0.00 0.00 0.00 0.02 0.04 0.03 0.01 0.00 0.00 0.00 0.01 0.01 0.01 0.01 0.00 0.00 0.00 0.00 0.00 0.00 0.00 0.00 0.00 0.01 0.01 0.03 0.05 0.06 0.08 0.09
0.00 0.00 0.00 0.01 0.02 0.02 0.02 0.01 0.01 0.02 0.02 0.02 0.01 0.00 0.00 0.00 0.01 0.02 0.02 0.01 0.00 0.00 0.01 0.01 0.01 0.01 0.01 0.01 0.01 0.00 0.00 0.00 0.00 0.00 0.00 0.00 0.01 0.03 0.05 0.08 0.11 0.11 0.11
0.01 0.01 0.00 0.00 0.01 0.02 0.02 0.01 0.00 0.01 0.01 0.01 0.01 0.00 0.00 0.00 0.00 0.00 0.01 0.01 0.00 0.01 0.01 0.01 0.01 0.01 0.01 0.01 0.01 0.00 0.00 0.00 0.00 0.00 0.00 0.00 0.02 0.06 0.10 0.13 0.13 0.11 0.10
0.02 0.03 0.01 0.00 0.01 0.01 0.02 0.01 0.00 0.00 0.01 0.01 0.01 0.00 0.00 0.00 0.00 0.00 0.00 0.00 0.00 0.01 0.01 0.01 0.01 0.02 0.01 0.00 0.00 0.00 0.00 0.00 0.00 0.00 0.01 0.02 0.06 0.10 0.10 0.09 0.07 0.07 0.07
0.02 0.03 0.02 0.01 0.01 0.01 0.01 0.01 0.00 0.00 0.01 0.00 0.00 0.00 0.00 0.00 0.00 0.00 0.00 0.00 0.00 0.01 0.01 0.01 0.01 0.01 0.00 0.00 0.00 0.00 0.00 0.00 0.00 0.00 0.01 0.04 0.06 0.07 0.05 0.04 0.05 0.05 0.05
0.01 0.01 0.01 0.02 0.02 0.02 0.01 0.01 0.00 0.00 0.00 0.00 0.00 0.00 0.00 0.00 0.00 0.00 0.00 0.00 0.00 0.00 0.00 0.00 0.00 0.00 0.00 0.00 0.00 0.00 0.00 0.00 0.00 0.00 0.01 0.01 0.02 0.03 0.02 0.02 0.02 0.02 0.02
0.01 0.01 0.01 0.02 0.02 0.02 0.01 0.01 0.00 0.00 0.00 0.00 0.00 0.00 0.00 0.00 0.00 0.00 0.00 0.00 0.00 0.00 0.00 0.00 0.00 0.00 0.00 0.00 0.00 0.00 0.00 0.00 0.00 0.00 0.00 0.00 0.00 0.00 0.00 0.00 0.00 0.00 0.00
0.01 0.01 0.02 0.02 0.02 0.02 0.03 0.02 0.01 0.01 0.00 0.00 0.00 0.00 0.00 0.00 0.00 0.00 0.00 0.00 0.00 0.00 0.00 0.00 0.00 0.00 0.00 0.00 0.00 0.00 0.00 0.00 0.00 0.00 0.00 0.00 0.00 0.00 0.00 0.00 0.00 0.00 0.00
0.01 0.01 0.02 0.03 0.03 0.03 0.02 0.03 0.02 0.01 0.01 0.00 0.00 0.00 0.00 0.00 0.00 0.00 0.00 0.00 0.00 0.00 0.00 0.00 0.00 0.00 0.00 0.00 0.00 0.00 0.00 0.00 0.00 0.00 0.00 0.00 0.00 0.00 0.00 0.00 0.00 0.00 0.00
0.00 0.01 0.02 0.04 0.06 0.04 0.04 0.06 0.05 0.04 0.02 0.01 0.01 0.00 0.00 0.00 0.00 0.00 0.00 0.00 0.00 0.00 0.00 0.00 0.00 0.00 0.00 0.00 0.00 0.00 0.00 0.00 0.00 0.00 0.00 0.00 0.00 0.00 0.00 0.00 0.00 0.00 0.00
0.00 0.01 0.01 0.04 0.06 0.06 0.08 0.09 0.07 0.06 0.04 0.03 0.02 0.01 0.00 0.00 0.00 0.00 0.00 0.00 0.00 0.00 0.00 0.00 0.00 0.00 0.00 0.00 0.00 0.00 0.00 0.00 0.00 0.00 0.00 0.00 0.00 0.00 0.00 0.00 0.00 0.00 0.00
0.00 0.00 0.01 0.04 0.06 0.08 0.12 0.16 0.12 0.11 0.09 0.07 0.05 0.02 0.01 0.01 0.01 0.01 0.00 0.00 0.00 0.00 0.00 0.00 0.00 0.00 0.00 0.00 0.00 0.00 0.00 0.00 0.00 0.00 0.00 0.00 0.00 0.00 0.00 0.00 0.00 0.00 0.00
0.00 0.00 0.00 0.03 0.05 0.12 0.20 0.23 0.20 0.14 0.10 0.09 0.06 0.03 0.04 0.04 0.04 0.03 0.01 0.01 0.00 0.00 0.00 0.00 0.00 0.00 0.00 0.00 0.00 0.00 0.00 0.00 0.00 0.00 0.00 0.00 0.00 0.00 0.00 0.00 0.00 0.00 0.00
0.00 0.00 0.00 0.01 0.04 0.11 0.16 0.17 0.14 0.10 0.09 0.08 0.08 0.09 0.09 0.09 0.09 0.06 0.03 0.02 0.01 0.00 0.00 0.00 0.00 0.00 0.00 0.00 0.00 0.00 0.00 0.00 0.00 0.00 0.00 0.00 0.00 0.00 0.00 0.00 0.00 0.00 0.00
0.00 0.00 0.00 0.00 0.01 0.06 0.09 0.12 0.14 0.17 0.17 0.14 0.15 0.12 0.10 0.11 0.12 0.09 0.06 0.05 0.03 0.02 0.01 0.00 0.00 0.00 0.00 0.00 0.00 0.00 0.00 0.00 0.00 0.00 0.00 0.00 0.00 0.00 0.00 0.00 0.00 0.00 0.00
0.00 0.00 0.00 0.00 0.01 0.05 0.10 0.15 0.19 0.22 0.19 0.14 0.08 0.06 0.08 0.11 0.14 0.11 0.11 0.11 0.09 0.06 0.03 0.02 0.01 0.01 0.00 0.00 0.00 0.00 0.00 0.00 0.00 0.00 0.00 0.00 0.00 0.00 0.00 0.00 0.00 0.00 0.00
0.00 0.00 0.00 0.00 0.01 0.03 0.08 0.11 0.10 0.08 0.07 0.06 0.09 0.13 0.16 0.17 0.18 0.17 0.17 0.17 0.14 0.11 0.07 0.07 0.06 0.04 0.02 0.01 0.01 0.01 0.00 0.00 0.00 0.00 0.00 0.00 0.00 0.00 0.00 0.00 0.00 0.00 0.00
0.00 0.00 0.00 0.00 0.01 0.02 0.05 0.09 0.10 0.07 0.05 0.07 0.11 0.15 0.15 0.16 0.17 0.19 0.20 0.20 0.16 0.14 0.14 0.14 0.12 0.09 0.06 0.03 0.03 0.03 0.02 0.01 0.00 0.00 0.00 0.00 0.00 0.00 0.00 0.00 0.00 0.00 0.00
0.00 0.00 0.00 0.00 0.00 0.01 0.03 0.05 0.05 0.03 0.03 0.06 0.09 0.11 0.12 0.13 0.14 0.17 0.19 0.18 0.19 0.19 0.20 0.20 0.19 0.17 0.14 0.11 0.07 0.05 0.05 0.04 0.03 0.02 0.01 0.01 0.01 0.01 0.00 0.00 0.00 0.00 0.00

GEFSSE_prec_meanprecacc_048.txt.gz
Total_Precipitation_Accumulation
0.00 0.01 0.03 0.03 0.02 0.02 0.02 0.02 0.03 0.04 0.06 0.09 0.10 0.08 0.07 0.07 0.05 0.02 0.01 0.02 0.04 0.08 0.12 0.16 0.18 0.21 0.24 0.23 0.15 0.05 0.01 0.00 0.00 0.00 0.00 0.00 0.00 0.00 0.01 0.01 0.02 0.02 0.01
0.00 0.00 0.02 0.03 0.03 0.02 0.02 0.03 0.03 0.03 0.05 0.08 0.07 0.07 0.07 0.05 0.03 0.02 0.03 0.04 0.06 0.10 0.14 0.14 0.11 0.08 0.05 0.05 0.03 0.01 0.01 0.00 0.00 0.00 0.00 0.00 0.00 0.00 0.00 0.01 0.01 0.01 0.01
0.00 0.00 0.02 0.03 0.03 0.02 0.03 0.03 0.02 0.03 0.04 0.05 0.05 0.04 0.03 0.02 0.01 0.02 0.04 0.05 0.07 0.09 0.10 0.08 0.04 0.02 0.01 0.00 0.00 0.00 0.00 0.00 0.00 0.00 0.00 0.00 0.00 0.00 0.00 0.00 0.01 0.00 0.01
0.00 0.00 0.01 0.02 0.02 0.02 0.02 0.02 0.02 0.03 0.04 0.04 0.03 0.02 0.01 0.01 0.02 0.03 0.04 0.04 0.04 0.04 0.03 0.02 0.01 0.00 0.00 0.00 0.00 0.00 0.00 0.00 0.00 0.00 0.00 0.00 0.00 0.01 0.01 0.01 0.01 0.01 0.01
0.00 0.00 0.00 0.02 0.02 0.02 0.02 0.02 0.02 0.03 0.03 0.03 0.02 0.01 0.01 0.02 0.03 0.03 0.02 0.02 0.01 0.01 0.00 0.00 0.00 0.00 0.00 0.00 0.00 0.00 0.00 0.00 0.00 0.00 0.00 0.00 0.01 0.02 0.02 0.03 0.04 0.05 0.05
0.00 0.00 0.00 0.02 0.02 0.02 0.02 0.02 0.02 0.03 0.03 0.02 0.01 0.00 0.01 0.02 0.04 0.04 0.02 0.01 0.00 0.00 0.00 0.00 0.00 0.00 0.00 0.00 0.00 0.00 0.00 0.01 0.00 0.00 0.00 0.00 0.01 0.03 0.04 0.05 0.07 0.10 0.11
0.00 0.00 0.00 0.02 0.03 0.02 0.02 0.02 0.02 0.03 0.03 0.02 0.01 0.00 0.00 0.02 0.04 0.05 0.03 0.01 0.00 0.00 0.00 0.00 0.00 0.00 0.00 0.00 0.00 0.00 0.00 0.00 0.00 0.00 0.00 0.00 0.01 0.03 0.05 0.07 0.09 0.11 0.14
0.00 0.00 0.01 0.02 0.03 0.02 0.02 0.02 0.02 0.03 0.03 0.02 0.01 0.00 0.00 0.01 0.02 0.04 0.03 0.01 0.00 0.00 0.00 0.01 0.01 0.01 0.01 0.00 0.00 0.00 0.00 0.00 0.00 0.00 0.00 0.00 0.01 0.03 0.05 0.06 0.07 0.08 0.10
0.00 0.00 0.01 0.02 0.02 0.02 0.02 0.01 0.01 0.02 0.02 0.02 0.01 0.00 0.00 0.00 0.01 0.02 0.02 0.01 0.00 0.00 0.01 0.01 0.01 0.01 0.01 0.01 0.01 0.00 0.00 0.00 0.00 0.00 0.00 0.00 0.02 0.04 0.07 0.09 0.11 0.11 0.11
0.01 0.01 0.00 0.01 0.01 0.02 0.02 0.01 0.01 0.01 0.02 0.01 0.01 0.00 0.00 0.00 0.00 0.00 0.01 0.01 0.00 0.01 0.01 0.01 0.01 0.01 0.01 0.01 0.01 0.00 0.00 0.00 0.00 0.00 0.00 0.01 0.03 0.07 0.11 0.13 0.13 0.11 0.10
0.02 0.03 0.01 0.00 0.01 0.02 0.02 0.01 0.00 0.01 0.01 0.01 0.01 0.00 0.00 0.00 0.00 0.00 0.00 0.00 0.00 0.01 0.01 0.01 0.01 0.02 0.01 0.00 0.00 0.00 0.00 0.00 0.00 0.00 0.01 0.02 0.06 0.11 0.11 0.09 0.07 0.07 0.07
0.02 0.03 0.02 0.01 0.01 0.01 0.01 0.01 0.00 0.00 0.01 0.00 0.00 0.00 0.00 0.00 0.00 0.00 0.00 0.00 0.00 0.01 0.01 0.01 0.01 0.01 0.00 0.00 0.00 0.00 0.00 0.00 0.00 0.00 0.01 0.04 0.07 0.07 0.05 0.04 0.05 0.05 0.05
0.01 0.01 0.01 0.02 0.02 0.02 0.01 0.01 0.00 0.00 0.00 0.00 0.00 0.00 0.00 0.00 0.00 0.00 0.00 0.00 0.00 0.00 0.00 0.00 0.00 0.00 0.00 0.00 0.00 0.00 0.00 0.00 0.00 0.00 0.01 0.01 0.03 0.03 0.02 0.02 0.02 0.02 0.02
0.01 0.01 0.01 0.02 0.02 0.02 0.01 0.01 0.00 0.00 0.00 0.00 0.00 0.00 0.00 0.00 0.00 0.00 0.00 0.00 0.00 0.00 0.00 0.00 0.00 0.00 0.00 0.00 0.00 0.00 0.00 0.00 0.00 0.00 0.00 0.00 0.00 0.00 0.00 0.00 0.00 0.00 0.00
0.01 0.01 0.02 0.02 0.02 0.02 0.03 0.02 0.01 0.01 0.00 0.00 0.00 0.00 0.00 0.00 0.00 0.00 0.00 0.00 0.00 0.00 0.00 0.00 0.00 0.00 0.00 0.00 0.00 0.00 0.00 0.00 0.00 0.00 0.00 0.00 0.00 0.00 0.00 0.00 0.00 0.00 0.00
0.01 0.01 0.02 0.03 0.03 0.03 0.03 0.03 0.02 0.01 0.01 0.00 0.00 0.00 0.00 0.00 0.00 0.00 0.00 0.00 0.00 0.00 0.00 0.00 0.00 0.00 0.00 0.00 0.00 0.00 0.00 0.00 0.00 0.00 0.00 0.00 0.00 0.00 0.00 0.00 0.00 0.00 0.00
0.01 0.02 0.02 0.04 0.06 0.05 0.04 0.06 0.05 0.04 0.02 0.01 0.01 0.01 0.00 0.00 0.00 0.00 0.00 0.00 0.00 0.00 0.00 0.00 0.00 0.00 0.00 0.00 0.00 0.00 0.00 0.00 0.00 0.00 0.00 0.00 0.00 0.00 0.00 0.00 0.00 0.00 0.00
0.00 0.01 0.02 0.04 0.06 0.06 0.08 0.10 0.07 0.06 0.04 0.03 0.03 0.01 0.01 0.00 0.00 0.00 0.00 0.00 0.00 0.00 0.00 0.00 0.00 0.00 0.00 0.00 0.00 0.00 0.00 0.00 0.00 0.00 0.00 0.00 0.00 0.00 0.00 0.00 0.00 0.00 0.00
0.00 0.00 0.01 0.04 0.06 0.08 0.13 0.16 0.13 0.12 0.10 0.08 0.06 0.02 0.02 0.02 0.02 0.01 0.00 0.00 0.00 0.00 0.00 0.00 0.00 0.00 0.00 0.00 0.00 0.00 0.00 0.00 0.00 0.00 0.00 0.00 0.00 0.00 0.00 0.00 0.00 0.00 0.00
0.00 0.00 0.00 0.03 0.06 0.12 0.21 0.24 0.21 0.15 0.11 0.11 0.07 0.05 0.05 0.05 0.06 0.04 0.02 0.01 0.01 0.00 0.00 0.00 0.01 0.01 0.00 0.01 0.00 0.00 0.00 0.00 0.00 0.00 0.00 0.00 0.00 0.00 0.00 0.00 0.00 0.00 0.00
0.00 0.00 0.00 0.01 0.04 0.11 0.17 0.17 0.15 0.11 0.10 0.09 0.09 0.10 0.11 0.11 0.11 0.08 0.05 0.03 0.02 0.01 0.01 0.02 0.02 0.01 0.01 0.01 0.01 0.00 0.00 0.00 0.00 0.00 0.00 0.00 0.00 0.00 0.00 0.00 0.00 0.00 0.00
0.00 0.00 0.00 0.00 0.02 0.06 0.09 0.12 0.14 0.17 0.17 0.15 0.15 0.14 0.12 0.13 0.14 0.11 0.08 0.07 0.06 0.04 0.03 0.03 0.03 0.03 0.03 0.03 0.02 0.01 0.00 0.00 0.00 0.00 0.00 0.00 0.00 0.00 0.00 0.00 0.00 0.00 0.00
0.00 0.00 0.00 0.00 0.01 0.05 0.10 0.16 0.19 0.23 0.19 0.14 0.09 0.06 0.08 0.12 0.16 0.13 0.14 0.14 0.12 0.10 0.07 0.06 0.07 0.06 0.06 0.06 0.05 0.04 0.02 0.00 0.00 0.00 0.00 0.00 0.00 0.00 0.00 0.01 0.01 0.01 0.00
0.00 0.00 0.00 0.00 0.01 0.03 0.08 0.11 0.11 0.09 0.07 0.06 0.09 0.13 0.16 0.18 0.19 0.18 0.19 0.20 0.18 0.16 0.13 0.13 0.13 0.12 0.10 0.08 0.08 0.06 0.04 0.02 0.01 0.01 0.01 0.01 0.01 0.01 0.01 0.01 0.01 0.01 0.01
0.00 0.00 0.00 0.00 0.01 0.02 0.05 0.09 0.10 0.07 0.05 0.08 0.11 0.15 0.16 0.16 0.18 0.20 0.21 0.22 0.19 0.18 0.19 0.22 0.21 0.19 0.16 0.14 0.12 0.11 0.11 0.07 0.03 0.02 0.02 0.02 0.03 0.03 0.03 0.02 0.01 0.01 0.01
0.00 0.00 0.00 0.00 0.00 0.01 0.03 0.05 0.05 0.03 0.03 0.06 0.09 0.12 0.12 0.13 0.14 0.17 0.20 0.20 0.21 0.22 0.25 0.27 0.30 0.29 0.27 0.23 0.18 0.15 0.17 0.15 0.10 0.09 0.08 0.06 0.06 0.06 0.04 0.03 0.02 0.02 0.02

GEFSSE_prec_meanprecacc_054.txt.gz
Total_Precipitation_Accumulation
0.00 0.01 0.03 0.03 0.02 0.02 0.02 0.03 0.03 0.04 0.06 0.10 0.10 0.08 0.07 0.07 0.05 0.03 0.02 0.04 0.06 0.09 0.13 0.16 0.19 0.22 0.25 0.25 0.16 0.06 0.02 0.00 0.00 0.00 0.00 0.00 0.00 0.00 0.01 0.01 0.02 0.02 0.02
0.00 0.01 0.03 0.03 0.03 0.02 0.02 0.03 0.04 0.04 0.06 0.08 0.08 0.07 0.07 0.06 0.04 0.03 0.04 0.05 0.07 0.11 0.14 0.14 0.11 0.08 0.05 0.05 0.03 0.01 0.01 0.00 0.00 0.00 0.00 0.00 0.00 0.00 0.00 0.01 0.01 0.02 0.02
0.00 0.01 0.02 0.03 0.03 0.03 0.03 0.04 0.03 0.04 0.05 0.05 0.05 0.04 0.03 0.03 0.03 0.04 0.05 0.06 0.07 0.09 0.10 0.08 0.04 0.02 0.01 0.00 0.00 0.00 0.00 0.00 0.00 0.00 0.00 0.00 0.00 0.00 0.00 0.01 0.01 0.01 0.02
0.00 0.00 0.01 0.02 0.02 0.03 0.03 0.03 0.03 0.04 0.04 0.04 0.03 0.02 0.01 0.02 0.04 0.05 0.05 0.05 0.05 0.04 0.03 0.02 0.01 0.00 0.00 0.00 0.00 0.00 0.00 0.00 0.00 0.00 0.00 0.00 0.00 0.02 0.02 0.02 0.02 0.02 0.03
0.00 0.00 0.01 0.02 0.02 0.03 0.02 0.02 0.03 0.03 0.03 0.03 0.02 0.01 0.01 0.03 0.05 0.04 0.03 0.02 0.01 0.01 0.00 0.00 0.00 0.00 0.00 0.00 0.00 0.00 0.00 0.00 0.00 0.00 0.00 0.00 0.01 0.03 0.04 0.04 0.05 0.07 0.07
0.00 0.00 0.01 0.02 0.02 0.02 0.02 0.02 0.03 0.03 0.03 0.02 0.01 0.01 0.01 0.04 0.06 0.04 0.02 0.01 0.00 0.00 0.00 0.00 0.00 0.00 0.00 0.00 0.00 0.00 0.00 0.01 0.00 0.00 0.00 0.00 0.01 0.04 0.05 0.06 0.09 0.12 0.13
0.00 0.00 0.01 0.02 0.03 0.03 0.02 0.02 0.02 0.03 0.03 0.02 0.01 0.00 0.01 0.02 0.04 0.06 0.03 0.01 0.00 0.00 0.00 0.00 0.00 0.00 0.00 0.00 0.00 0.00 0.00 0.00 0.00 0.00 0.00 0.00 0.02 0.04 0.06 0.08 0.10 0.12 0.15
0.00 0.01 0.02 0.03 0.03 0.03 0.02 0.02 0.02 0.03 0.03 0.02 0.01 0.01 0.01 0.01 0.02 0.05 0.04 0.01 0.00 0.00 0.00 0.01 0.01 0.01 0.01 0.00 0.00 0.00 0.00 0.00 0.00 0.00 0.00 0.00 0.02 0.04 0.06 0.07 0.08 0.09 0.11
0.00 0.01 0.01 0.03 0.03 0.03 0.02 0.01 0.01 0.02 0.02 0.02 0.01 0.01 0.01 0.01 0.01 0.03 0.02 0.01 0.01 0.00 0.01 0.01 0.01 0.01 0.01 0.01 0.01 0.00 0.00 0.00 0.00 0.00 0.00 0.00 0.02 0.05 0.07 0.09 0.11 0.11 0.11
0.01 0.02 0.01 0.01 0.02 0.03 0.02 0.01 0.01 0.02 0.02 0.01 0.01 0.00 0.00 0.00 0.00 0.01 0.01 0.01 0.01 0.01 0.01 0.01 0.01 0.01 0.01 0.01 0.01 0.00 0.00 0.00 0.00 0.00 0.00 0.01 0.03 0.08 0.12 0.13 0.13 0.11 0.10
0.03 0.03 0.02 0.01 0.01 0.02 0.02 0.01 0.01 0.01 0.01 0.01 0.01 0.00 0.00 0.00 0.00 0.00 0.00 0.00 0.00 0.01 0.01 0.01 0.01 0.02 0.01 0.00 0.00 0.00 0.00 0.00 0.00 0.00 0.01 0.02 0.07 0.11 0.11 0.09 0.07 0.07 0.07
0.03 0.04 0.02 0.01 0.01 0.02 0.02 0.01 0.01 0.01 0.01 0.01 0.00 0.00 0.00 0.00 0.00 0.00 0.00 0.00 0.00 0.01 0.01 0.01 0.01 0.01 0.00 0.00 0.00 0.00 0.00 0.00 0.00 0.00 0.01 0.04 0.07 0.08 0.05 0.04 0.05 0.05 0.05
0.01 0.02 0.02 0.02 0.02 0.02 0.02 0.01 0.01 0.00 0.00 0.00 0.00 0.00 0.00 0.00 0.00 0.00 0.00 0.00 0.00 0.00 0.00 0.00 0.00 0.00 0.00 0.00 0.00 0.00 0.00 0.00 0.00 0.00 0.01 0.02 0.03 0.03 0.02 0.02 0.02 0.02 0.02
0.01 0.01 0.01 0.02 0.02 0.02 0.01 0.01 0.00 0.00 0.00 0.00 0.00 0.00 0.00 0.00 0.00 0.00 0.00 0.00 0.00 0.00 0.00 0.00 0.00 0.00 0.00 0.00 0.00 0.00 0.00 0.00 0.00 0.00 0.00 0.00 0.00 0.01 0.01 0.00 0.00 0.00 0.00
0.01 0.02 0.02 0.02 0.02 0.03 0.03 0.02 0.01 0.01 0.01 0.00 0.00 0.00 0.00 0.00 0.00 0.00 0.00 0.00 0.00 0.00 0.00 0.00 0.00 0.00 0.00 0.00 0.00 0.00 0.00 0.00 0.00 0.00 0.00 0.00 0.00 0.00 0.00 0.00 0.00 0.00 0.00
0.01 0.01 0.02 0.03 0.03 0.03 0.03 0.03 0.02 0.01 0.01 0.00 0.00 0.00 0.00 0.00 0.00 0.00 0.00 0.00 0.00 0.00 0.00 0.00 0.00 0.00 0.00 0.00 0.00 0.00 0.00 0.00 0.00 0.00 0.00 0.00 0.00 0.00 0.00 0.00 0.00 0.00 0.00
0.01 0.02 0.02 0.04 0.06 0.05 0.04 0.06 0.05 0.04 0.02 0.01 0.01 0.01 0.00 0.00 0.00 0.00 0.00 0.00 0.00 0.00 0.00 0.00 0.00 0.00 0.00 0.00 0.00 0.00 0.00 0.00 0.00 0.00 0.00 0.00 0.00 0.00 0.00 0.00 0.00 0.00 0.00
0.01 0.01 0.02 0.04 0.06 0.06 0.08 0.10 0.07 0.06 0.04 0.03 0.03 0.01 0.01 0.01 0.00 0.00 0.00 0.00 0.00 0.00 0.00 0.00 0.00 0.00 0.00 0.00 0.00 0.00 0.00 0.00 0.00 0.00 0.00 0.00 0.00 0.00 0.00 0.00 0.00 0.00 0.00
0.00 0.01 0.01 0.04 0.06 0.09 0.13 0.17 0.13 0.12 0.10 0.08 0.06 0.03 0.02 0.03 0.02 0.01 0.00 0.00 0.00 0.00 0.00 0.00 0.00 0.00 0.00 0.00 0.00 0.00 0.00 0.00 0.00 0.00 0.00 0.00 0.00 0.00 0.00 0.00 0.00 0.00 0.00
0.00 0.00 0.00 0.03 0.06 0.12 0.21 0.24 0.21 0.15 0.12 0.11 0.08 0.05 0.06 0.06 0.06 0.05 0.02 0.01 0.01 0.01 0.01 0.01 0.01 0.01 0.01 0.01 0.01 0.01 0.00 0.00 0.00 0.00 0.00 0.00 0.00 0.00 0.00 0.00 0.00 0.00 0.00
0.00 0.00 0.00 0.01 0.04 0.11 0.17 0.18 0.15 0.11 0.11 0.10 0.10 0.11 0.12 0.12 0.12 0.09 0.05 0.04 0.03 0.02 0.02 0.02 0.03 0.03 0.02 0.03 0.02 0.01 0.00 0.00 0.00 0.00 0.00 0.00 0.00 0.01 0.01 0.00 0.00 0.00 0.00
0.00 0.00 0.00 0.00 0.02 0.06 0.09 0.12 0.14 0.17 0.18 0.15 0.16 0.14 0.12 0.13 0.15 0.12 0.09 0.09 0.07 0.06 0.05 0.04 0.05 0.05 0.05 0.06 0.05 0.04 0.01 0.00 0.00 0.00 0.00 0.00 0.00 0.01 0.01 0.01 0.01 0.01 0.01
0.00 0.00 0.00 0.00 0.01 0.05 0.10 0.16 0.20 0.23 0.19 0.14 0.09 0.07 0.09 0.13 0.17 0.15 0.15 0.15 0.13 0.12 0.08 0.08 0.09 0.09 0.08 0.08 0.09 0.09 0.04 0.01 0.00 0.00 0.00 0.01 0.01 0.01 0.01 0.02 0.03 0.03 0.02
0.00 0.00 0.00 0.00 0.01 0.03 0.08 0.11 0.11 0.09 0.07 0.06 0.10 0.14 0.16 0.18 0.19 0.19 0.20 0.21 0.19 0.17 0.14 0.14 0.15 0.14 0.13 0.11 0.10 0.08 0.07 0.04 0.03 0.01 0.01 0.01 0.02 0.02 0.03 0.04 0.04 0.04 0.03
0.00 0.00 0.00 0.00 0.01 0.02 0.05 0.09 0.10 0.07 0.05 0.08 0.11 0.15 0.16 0.16 0.18 0.20 0.22 0.22 0.20 0.19 0.20 0.23 0.23 0.21 0.19 0.16 0.14 0.13 0.13 0.09 0.05 0.05 0.03 0.02 0.03 0.05 0.05 0.04 0.04 0.04 0.04
0.00 0.00 0.00 0.00 0.00 0.01 0.03 0.05 0.05 0.03 0.03 0.06 0.09 0.12 0.12 0.13 0.15 0.18 0.21 0.20 0.21 0.22 0.25 0.28 0.31 0.31 0.29 0.25 0.21 0.18 0.20 0.17 0.12 0.12 0.11 0.07 0.07 0.07 0.07 0.06 0.05 0.06 0.07

GEFSSE_prec_meanprecacc_060.txt.gz
Total_Precipitation_Accumulation
0.00 0.01 0.04 0.03 0.03 0.02 0.02 0.03 0.04 0.04 0.07 0.10 0.10 0.09 0.08 0.08 0.06 0.03 0.03 0.04 0.06 0.10 0.14 0.18 0.21 0.25 0.27 0.26 0.18 0.07 0.02 0.00 0.00 0.00 0.00 0.00 0.00 0.01 0.01 0.01 0.02 0.03 0.03
0.00 0.01 0.04 0.03 0.03 0.03 0.03 0.04 0.04 0.04 0.07 0.09 0.08 0.07 0.07 0.06 0.04 0.03 0.04 0.06 0.08 0.11 0.15 0.15 0.13 0.09 0.06 0.06 0.04 0.01 0.01 0.00 0.00 0.00 0.00 0.00 0.00 0.00 0.00 0.01 0.02 0.02 0.03
0.00 0.01 0.03 0.03 0.03 0.03 0.04 0.04 0.03 0.04 0.05 0.06 0.05 0.05 0.04 0.03 0.03 0.04 0.06 0.07 0.08 0.10 0.10 0.08 0.05 0.03 0.01 0.00 0.00 0.00 0.00 0.00 0.00 0.00 0.00 0.00 0.00 0.01 0.01 0.01 0.02 0.02 0.03
0.00 0.01 0.01 0.03 0.03 0.03 0.03 0.03 0.03 0.04 0.04 0.04 0.04 0.03 0.02 0.03 0.04 0.05 0.05 0.05 0.05 0.04 0.03 0.02 0.01 0.00 0.00 0.00 0.00 0.00 0.00 0.00 0.00 0.00 0.00 0.01 0.01 0.03 0.03 0.03 0.03 0.03 0.04
0.00 0.00 0.01 0.03 0.03 0.03 0.03 0.03 0.04 0.04 0.04 0.03 0.02 0.02 0.02 0.03 0.05 0.05 0.03 0.02 0.01 0.01 0.01 0.00 0.00 0.00 0.00 0.00 0.00 0.00 0.00 0.00 0.00 0.00 0.00 0.01 0.02 0.04 0.04 0.05 0.07 0.08 0.08
0.00 0.01 0.02 0.03 0.03 0.03 0.02 0.03 0.03 0.03 0.03 0.02 0.02 0.01 0.02 0.05 0.07 0.05 0.02 0.01 0.00 0.00 0.00 0.00 0.00 0.00 0.00 0.00 0.00 0.00 0.00 0.01 0.00 0.00 0.00 0.01 0.02 0.05 0.06 0.07 0.10 0.12 0.14
0.00 0.01 0.02 0.03 0.04 0.03 0.03 0.02 0.02 0.03 0.03 0.02 0.01 0.02 0.03 0.04 0.05 0.06 0.03 0.01 0.00 0.00 0.00 0.00 0.00 0.00 0.00 0.00 0.00 0.00 0.00 0.00 0.00 0.00 0.00 0.01 0.02 0.06 0.07 0.09 0.10 0.13 0.15
0.01 0.02 0.03 0.04 0.04 0.04 0.03 0.02 0.02 0.03 0.03 0.02 0.01 0.02 0.02 0.02 0.03 0.05 0.04 0.01 0.00 0.00 0.00 0.01 0.01 0.01 0.01 0.00 0.00 0.00 0.00 0.00 0.00 0.00 0.00 0.01 0.02 0.05 0.07 0.08 0.08 0.10 0.11
0.01 0.02 0.03 0.04 0.04 0.04 0.03 0.02 0.02 0.02 0.02 0.02 0.01 0.01 0.01 0.01 0.01 0.03 0.03 0.01 0.01 0.00 0.01 0.01 0.01 0.01 0.01 0.01 0.01 0.00 0.00 0.00 0.00 0.00 0.00 0.01 0.03 0.06 0.08 0.09 0.11 0.11 0.11
0.03 0.03 0.03 0.03 0.04 0.04 0.03 0.02 0.01 0.02 0.02 0.01 0.01 0.01 0.00 0.00 0.01 0.01 0.01 0.01 0.01 0.01 0.01 0.01 0.01 0.01 0.01 0.01 0.01 0.00 0.00 0.00 0.00 0.00 0.00 0.01 0.04 0.09 0.12 0.13 0.13 0.11 0.10
0.05 0.05 0.03 0.03 0.03 0.04 0.04 0.02 0.01 0.01 0.01 0.01 0.01 0.00 0.00 0.00 0.00 0.00 0.00 0.00 0.00 0.01 0.01 0.01 0.01 0.02 0.01 0.00 0.00 0.00 0.00 0.00 0.00 0.00 0.01 0.02 0.07 0.12 0.11 0.09 0.07 0.07 0.07
0.04 0.05 0.04 0.03 0.03 0.03 0.03 0.02 0.02 0.01 0.01 0.01 0.00 0.00 0.00 0.00 0.00 0.00 0.00 0.00 0.00 0.01 0.01 0.01 0.01 0.01 0.00 0.00 0.00 0.00 0.00 0.00 0.00 0.00 0.01 0.04 0.07 0.09 0.06 0.04 0.05 0.05 0.05
0.02 0.03 0.03 0.04 0.03 0.03 0.03 0.02 0.01 0.01 0.01 0.00 0.00 0.00 0.00 0.00 0.00 0.00 0.00 0.00 0.00 0.00 0.00 0.00 0.00 0.00 0.00 0.00 0.00 0.00 0.00 0.00 0.00 0.00 0.01 0.02 0.03 0.04 0.03 0.02 0.02 0.02 0.02
0.02 0.02 0.02 0.03 0.03 0.03 0.02 0.02 0.01 0.01 0.00 0.00 0.00 0.00 0.00 0.00 0.00 0.00 0.00 0.00 0.00 0.00 0.00 0.00 0.00 0.00 0.00 0.00 0.00 0.00 0.00 0.00 0.00 0.00 0.00 0.00 0.00 0.01 0.01 0.01 0.00 0.00 0.00
0.02 0.02 0.03 0.03 0.03 0.03 0.04 0.02 0.01 0.01 0.01 0.00 0.00 0.00 0.00 0.00 0.00 0.00 0.00 0.00 0.00 0.00 0.00 0.00 0.00 0.00 0.00 0.00 0.00 0.00 0.00 0.00 0.00 0.00 0.00 0.00 0.00 0.00 0.01 0.01 0.00 0.00 0.00
0.03 0.02 0.03 0.03 0.04 0.03 0.03 0.04 0.02 0.02 0.01 0.01 0.00 0.00 0.00 0.00 0.00 0.00 0.00 0.00 0.00 0.00 0.00 0.00 0.00 0.00 0.00 0.00 0.00 0.00 0.00 0.00 0.00 0.00 0.00 0.00 0.00 0.00 0.00 0.01 0.01 0.01 0.00
0.05 0.05 0.03 0.04 0.07 0.05 0.05 0.06 0.05 0.04 0.02 0.01 0.01 0.01 0.00 0.00 0.00 0.00 0.00 0.00 0.00 0.00 0.00 0.00 0.00 0.00 0.00 0.00 0.00 0.00 0.00 0.00 0.00 0.00 0.00 0.00 0.00 0.00 0.00 0.00 0.01 0.01 0.01
0.04 0.04 0.04 0.05 0.06 0.07 0.08 0.10 0.08 0.06 0.04 0.03 0.03 0.02 0.01 0.01 0.00 0.00 0.00 0.00 0.00 0.00 0.00 0.00 0.00 0.00 0.00 0.00 0.00 0.00 0.00 0.00 0.00 0.00 0.00 0.00 0.00 0.00 0.00 0.00 0.01 0.01 0.01
0.05 0.03 0.03 0.06 0.07 0.09 0.14 0.17 0.14 0.12 0.10 0.08 0.06 0.03 0.02 0.03 0.02 0.01 0.00 0.00 0.01 0.00 0.00 0.00 0.00 0.00 0.01 0.00 0.00 0.00 0.00 0.00 0.00 0.00 0.00 0.00 0.00 0.00 0.00 0.00 0.00 0.01 0.01
0.03 0.03 0.03 0.05 0.08 0.14 0.22 0.25 0.22 0.15 0.12 0.12 0.08 0.05 0.06 0.06 0.07 0.05 0.02 0.01 0.01 0.01 0.01 0.01 0.01 0.01 0.01 0.01 0.01 0.01 0.00 0.00 0.00 0.00 0.00 0.01 0.00 0.01 0.01 0.01 0.01 0.00 0.01
0.01 0.01 0.02 0.03 0.06 0.13 0.18 0.19 0.16 0.11 0.11 0.10 0.10 0.11 0.12 0.12 0.12 0.09 0.06 0.04 0.03 0.03 0.03 0.03 0.04 0.03 0.03 0.03 0.03 0.01 0.00 0.00 0.00 0.00 0.01 0.00 0.00 0.01 0.01 0.01 0.01 0.01 0.01
0.00 0.01 0.01 0.01 0.03 0.07 0.10 0.13 0.15 0.17 0.18 0.15 0.16 0.14 0.12 0.13 0.15 0.13 0.10 0.09 0.08 0.06 0.05 0.05 0.06 0.06 0.06 0.07 0.06 0.06 0.02 0.01 0.00 0.00 0.00 0.00 0.01 0.01 0.01 0.02 0.02 0.02 0.02
0.00 0.00 0.01 0.01 0.02 0.06 0.11 0.16 0.20 0.23 0.19 0.15 0.09 0.07 0.09 0.13 0.17 0.15 0.15 0.16 0.14 0.12 0.09 0.09 0.10 0.10 0.10 0.09 0.10 0.11 0.07 0.03 0.01 0.00 0.00 0.01 0.01 0.01 0.02 0.03 0.03 0.03 0.03
0.00 0.00 0.00 0.01 0.02 0.04 0.08 0.12 0.11 0.09 0.08 0.07 0.10 0.14 0.17 0.18 0.19 0.19 0.20 0.21 0.20 0.18 0.15 0.15 0.16 0.15 0.14 0.12 0.11 0.09 0.08 0.06 0.05 0.03 0.01 0.01 0.02 0.02 0.03 0.04 0.04 0.04 0.03
0.00 0.00 0.00 0.00 0.01 0.03 0.06 0.10 0.11 0.08 0.05 0.08 0.12 0.15 0.16 0.16 0.19 0.21 0.22 0.23 0.20 0.19 0.21 0.23 0.24 0.22 0.20 0.18 0.15 0.14 0.14 0.10 0.06 0.07 0.05 0.03 0.04 0.05 0.05 0.04 0.04 0.04 0.05
0.00 0.00 0.00 0.00 0.00 0.01 0.03 0.06 0.05 0.03 0.03 0.06 0.09 0.12 0.12 0.13 0.15 0.18 0.21 0.20 0.21 0.23 0.26 0.29 0.32 0.32 0.30 0.26 0.23 0.19 0.21 0.19 0.13 0.13 0.13 0.09 0.08 0.08 0.07 0.06 0.06 0.06 0.08

GEFSSE_prec_meanprecacc_066.txt.gz
Total_Precipitation_Accumulation
0.00 0.01 0.04 0.03 0.03 0.03 0.03 0.04 0.05 0.05 0.07 0.11 0.11 0.09 0.09 0.08 0.06 0.04 0.04 0.06 0.10 0.15 0.20 0.24 0.25 0.28 0.29 0.28 0.19 0.07 0.02 0.00 0.00 0.00 0.00 0.00 0.00 0.01 0.01 0.02 0.03 0.03 0.03
0.00 0.01 0.04 0.04 0.04 0.04 0.04 0.05 0.04 0.05 0.07 0.09 0.08 0.08 0.08 0.07 0.05 0.04 0.05 0.08 0.10 0.14 0.17 0.17 0.14 0.11 0.07 0.06 0.04 0.01 0.01 0.00 0.00 0.00 0.00 0.00 0.00 0.00 0.01 0.01 0.02 0.03 0.04
0.00 0.01 0.03 0.04 0.04 0.04 0.05 0.04 0.04 0.04 0.06 0.06 0.06 0.06 0.05 0.04 0.04 0.05 0.07 0.08 0.09 0.11 0.12 0.10 0.06 0.03 0.01 0.00 0.00 0.00 0.00 0.00 0.00 0.00 0.01 0.01 0.01 0.01 0.01 0.02 0.03 0.03 0.04
0.00 0.01 0.01 0.03 0.04 0.04 0.04 0.04 0.04 0.05 0.05 0.05 0.04 0.04 0.03 0.03 0.05 0.05 0.06 0.06 0.05 0.05 0.04 0.02 0.01 0.00 0.00 0.00 0.00 0.00 0.00 0.00 0.00 0.00 0.01 0.01 0.02 0.03 0.03 0.03 0.04 0.04 0.05
0.00 0.00 0.02 0.04 0.04 0.04 0.03 0.03 0.04 0.04 0.04 0.04 0.03 0.03 0.03 0.04 0.06 0.05 0.03 0.02 0.02 0.01 0.01 0.00 0.00 0.00 0.00 0.00 0.00 0.00 0.00 0.01 0.00 0.00 0.00 0.01 0.02 0.05 0.05 0.06 0.07 0.08 0.08
0.00 0.01 0.02 0.04 0.04 0.03 0.03 0.03 0.03 0.04 0.03 0.03 0.02 0.02 0.03 0.06 0.07 0.05 0.02 0.01 0.00 0.00 0.00 0.00 0.00 0.00 0.00 0.00 0.00 0.00 0.00 0.01 0.00 0.00 0.00 0.01 0.02 0.05 0.06 0.07 0.10 0.13 0.14
0.00 0.01 0.03 0.04 0.04 0.04 0.03 0.03 0.02 0.03 0.03 0.03 0.02 0.02 0.04 0.05 0.05 0.06 0.03 0.01 0.00 0.00 0.00 0.00 0.00 0.00 0.00 0.00 0.00 0.00 0.00 0.00 0.00 0.00 0.00 0.01 0.03 0.06 0.08 0.09 0.10 0.13 0.16
0.01 0.02 0.04 0.06 0.05 0.04 0.03 0.03 0.02 0.03 0.03 0.03 0.02 0.03 0.03 0.03 0.03 0.05 0.04 0.01 0.00 0.00 0.00 0.01 0.01 0.01 0.01 0.00 0.00 0.00 0.00 0.00 0.00 0.00 0.00 0.01 0.02 0.06 0.07 0.08 0.09 0.10 0.11
0.01 0.02 0.04 0.05 0.05 0.05 0.04 0.02 0.02 0.03 0.02 0.02 0.02 0.02 0.02 0.01 0.02 0.03 0.03 0.01 0.01 0.00 0.01 0.01 0.01 0.01 0.01 0.01 0.01 0.00 0.00 0.00 0.00 0.00 0.00 0.01 0.03 0.06 0.08 0.09 0.11 0.11 0.11
0.03 0.04 0.04 0.04 0.05 0.06 0.05 0.03 0.02 0.02 0.02 0.02 0.01 0.01 0.00 0.00 0.01 0.01 0.01 0.01 0.01 0.01 0.01 0.01 0.01 0.01 0.01 0.01 0.01 0.00 0.00 0.00 0.00 0.00 0.00 0.01 0.04 0.09 0.12 0.13 0.13 0.12 0.10
0.06 0.06 0.05 0.04 0.05 0.05 0.05 0.03 0.02 0.01 0.01 0.01 0.01 0.00 0.00 0.00 0.00 0.00 0.00 0.00 0.00 0.01 0.01 0.01 0.01 0.02 0.01 0.00 0.00 0.00 0.00 0.00 0.00 0.00 0.01 0.02 0.07 0.12 0.11 0.09 0.07 0.07 0.07
0.06 0.07 0.06 0.05 0.06 0.05 0.05 0.03 0.02 0.01 0.01 0.01 0.00 0.00 0.00 0.00 0.00 0.00 0.00 0.00 0.00 0.01 0.01 0.01 0.01 0.01 0.00 0.00 0.00 0.00 0.00 0.00 0.00 0.00 0.01 0.04 0.07 0.09 0.06 0.04 0.05 0.05 0.05
0.04 0.05 0.05 0.06 0.06 0.06 0.05 0.03 0.03 0.01 0.01 0.01 0.00 0.00 0.00 0.00 0.00 0.00 0.00 0.00 0.00 0.00 0.00 0.00 0.00 0.00 0.00 0.00 0.00 0.00 0.00 0.00 0.00 0.00 0.01 0.02 0.03 0.04 0.03 0.02 0.02 0.02 0.02
0.05 0.04 0.04 0.05 0.06 0.06 0.04 0.03 0.02 0.02 0.01 0.01 0.00 0.00 0.00 0.00 0.00 0.00 0.00 0.00 0.00 0.00 0.00 0.00 0.00 0.00 0.00 0.00 0.00 0.00 0.00 0.00 0.00 0.00 0.00 0.00 0.00 0.01 0.01 0.01 0.00 0.00 0.00
0.05 0.04 0.04 0.05 0.05 0.07 0.06 0.04 0.02 0.02 0.01 0.01 0.01 0.00 0.00 0.00 0.00 0.00 0.00 0.00 0.00 0.00 0.00 0.00 0.00 0.00 0.00 0.00 0.00 0.00 0.00 0.00 0.00 0.00 0.00 0.00 0.00 0.00 0.01 0.01 0.01 0.00 0.00
0.07 0.04 0.05 0.05 0.07 0.07 0.06 0.06 0.03 0.03 0.02 0.01 0.01 0.00 0.00 0.00 0.00 0.00 0.00 0.00 0.00 0.00 0.00 0.00 0.00 0.00 0.00 0.00 0.00 0.00 0.00 0.00 0.00 0.00 0.00 0.00 0.00 0.00 0.00 0.01 0.01 0.01 0.01
0.09 0.08 0.06 0.06 0.09 0.09 0.08 0.08 0.06 0.04 0.03 0.02 0.02 0.01 0.00 0.00 0.00 0.00 0.00 0.00 0.00 0.00 0.00 0.00 0.00 0.00 0.00 0.00 0.00 0.00 0.00 0.00 0.00 0.00 0.00 0.00 0.00 0.00 0.00 0.00 0.01 0.01 0.02
0.07 0.07 0.06 0.06 0.08 0.09 0.12 0.13 0.09 0.07 0.05 0.03 0.03 0.02 0.01 0.01 0.00 0.00 0.00 0.00 0.00 0.00 0.00 0.00 0.00 0.00 0.01 0.01 0.01 0.01 0.00 0.00 0.00 0.00 0.00 0.00 0.00 0.00 0.00 0.00 0.01 0.01 0.02
0.07 0.05 0.05 0.06 0.08 0.11 0.17 0.21 0.17 0.13 0.11 0.09 0.06 0.03 0.03 0.03 0.03 0.01 0.01 0.01 0.01 0.01 0.01 0.01 0.01 0.01 0.02 0.02 0.02 0.01 0.00 0.00 0.00 0.00 0.00 0.00 0.00 0.00 0.00 0.00 0.00 0.01 0.02
0.05 0.04 0.04 0.05 0.08 0.16 0.25 0.28 0.25 0.18 0.14 0.13 0.08 0.06 0.06 0.06 0.07 0.05 0.03 0.02 0.02 0.02 0.02 0.02 0.03 0.02 0.02 0.03 0.02 0.01 0.00 0.00 0.00 0.00 0.00 0.01 0.00 0.01 0.01 0.01 0.01 0.01 0.01
0.02 0.03 0.03 0.04 0.07 0.15 0.20 0.20 0.18 0.14 0.13 0.11 0.10 0.11 0.12 0.12 0.12 0.09 0.06 0.04 0.03 0.03 0.03 0.04 0.05 0.05 0.04 0.04 0.04 0.02 0.01 0.01 0.00 0.00 0.01 0.00 0.00 0.01 0.01 0.01 0.01 0.01 0.01
0.01 0.02 0.02 0.02 0.03 0.07 0.11 0.15 0.17 0.20 0.21 0.17 0.17 0.15 0.13 0.13 0.15 0.13 0.10 0.09 0.08 0.07 0.06 0.06 0.07 0.08 0.08 0.08 0.09 0.08 0.03 0.01 0.00 0.00 0.01 0.00 0.01 0.01 0.01 0.02 0.02 0.02 0.02
0.01 0.01 0.02 0.02 0.04 0.08 0.12 0.19 0.23 0.25 0.21 0.17 0.11 0.08 0.10 0.14 0.18 0.16 0.16 0.16 0.14 0.13 0.10 0.09 0.11 0.12 0.11 0.11 0.12 0.14 0.09 0.03 0.01 0.01 0.01 0.01 0.01 0.01 0.02 0.03 0.03 0.03 0.03
0.00 0.01 0.01 0.02 0.03 0.06 0.10 0.14 0.13 0.11 0.09 0.09 0.12 0.15 0.18 0.19 0.20 0.20 0.21 0.21 0.20 0.18 0.15 0.15 0.16 0.16 0.15 0.13 0.12 0.10 0.10 0.08 0.07 0.04 0.01 0.02 0.02 0.02 0.03 0.04 0.04 0.04 0.03
0.00 0.00 0.00 0.01 0.02 0.04 0.07 0.11 0.13 0.09 0.07 0.10 0.13 0.16 0.17 0.18 0.19 0.21 0.23 0.23 0.21 0.20 0.21 0.24 0.24 0.23 0.21 0.19 0.17 0.15 0.16 0.11 0.08 0.09 0.06 0.04 0.04 0.05 0.05 0.05 0.04 0.04 0.05
0.00 0.00 0.00 0.01 0.02 0.02 0.04 0.07 0.06 0.04 0.05 0.07 0.10 0.13 0.13 0.14 0.15 0.18 0.21 0.21 0.22 0.23 0.26 0.29 0.32 0.32 0.31 0.27 0.24 0.21 0.23 0.21 0.15 0.15 0.15 0.10 0.09 0.09 0.07 0.06 0.06 0.06 0.08

GEFSSE_prec_meanprecacc_072.txt.gz
Total_Precipitation_Accumulation
0.00 0.01 0.04 0.04 0.03 0.03 0.04 0.05 0.05 0.06 0.08 0.11 0.12 0.10 0.09 0.10 0.08 0.07 0.09 0.12 0.16 0.20 0.23 0.25 0.26 0.28 0.31 0.29 0.19 0.07 0.02 0.00 0.00 0.00 0.00 0.00 0.01 0.01 0.02 0.02 0.03 0.03 0.04
0.00 0.01 0.04 0.04 0.04 0.04 0.05 0.05 0.05 0.05 0.07 0.10 0.09 0.09 0.09 0.09 0.07 0.07 0.09 0.11 0.13 0.16 0.19 0.19 0.15 0.11 0.08 0.06 0.04 0.02 0.01 0.00 0.00 0.00 0.00 0.00 0.00 0.01 0.01 0.01 0.03 0.03 0.04
0.00 0.01 0.03 0.04 0.04 0.05 0.05 0.05 0.04 0.05 0.06 0.07 0.07 0.06 0.06 0.05 0.05 0.06 0.09 0.10 0.10 0.12 0.13 0.10 0.06 0.03 0.01 0.01 0.00 0.00 0.00 0.00 0.00 0.00 0.01 0.01 0.01 0.02 0.02 0.02 0.03 0.04 0.05
0.00 0.01 0.02 0.04 0.04 0.05 0.04 0.04 0.04 0.05 0.05 0.05 0.05 0.04 0.04 0.04 0.06 0.07 0.07 0.07 0.06 0.06 0.04 0.02 0.01 0.01 0.00 0.00 0.00 0.00 0.00 0.00 0.00 0.00 0.01 0.01 0.02 0.04 0.04 0.04 0.05 0.05 0.05
0.00 0.01 0.02 0.04 0.05 0.04 0.04 0.03 0.04 0.05 0.05 0.04 0.04 0.03 0.03 0.05 0.06 0.05 0.04 0.03 0.02 0.01 0.01 0.00 0.00 0.00 0.00 0.00 0.00 0.00 0.01 0.01 0.00 0.00 0.00 0.01 0.02 0.05 0.05 0.06 0.07 0.08 0.09
0.00 0.01 0.03 0.04 0.05 0.04 0.03 0.03 0.04 0.04 0.04 0.04 0.03 0.03 0.03 0.06 0.07 0.05 0.02 0.01 0.00 0.00 0.00 0.00 0.00 0.00 0.00 0.00 0.00 0.00 0.00 0.01 0.00 0.00 0.00 0.01 0.02 0.06 0.06 0.08 0.10 0.13 0.15
0.01 0.01 0.04 0.05 0.05 0.05 0.04 0.03 0.03 0.04 0.04 0.03 0.03 0.03 0.04 0.05 0.05 0.06 0.03 0.01 0.00 0.00 0.00 0.00 0.00 0.00 0.00 0.00 0.00 0.00 0.00 0.00 0.00 0.00 0.00 0.01 0.03 0.06 0.08 0.09 0.10 0.13 0.16
0.01 0.02 0.05 0.07 0.06 0.05 0.04 0.03 0.03 0.04 0.04 0.03 0.03 0.03 0.03 0.03 0.03 0.05 0.04 0.01 0.00 0.00 0.00 0.01 0.01 0.01 0.01 0.00 0.00 0.00 0.00 0.00 0.00 0.00 0.00 0.01 0.02 0.06 0.07 0.08 0.09 0.10 0.11
0.02 0.03 0.05 0.07 0.07 0.06 0.04 0.03 0.03 0.03 0.03 0.03 0.02 0.02 0.02 0.01 0.02 0.03 0.03 0.01 0.01 0.00 0.01 0.01 0.01 0.01 0.01 0.01 0.01 0.00 0.00 0.00 0.00 0.00 0.00 0.01 0.03 0.06 0.08 0.09 0.11 0.11 0.11
0.06 0.05 0.05 0.06 0.06 0.07 0.05 0.03 0.02 0.03 0.02 0.02 0.01 0.01 0.00 0.01 0.01 0.01 0.01 0.01 0.01 0.01 0.01 0.01 0.01 0.01 0.01 0.01 0.01 0.00 0.00 0.00 0.00 0.00 0.00 0.01 0.04 0.09 0.12 0.13 0.13 0.12 0.10
0.12 0.08 0.06 0.05 0.05 0.06 0.05 0.03 0.02 0.02 0.02 0.01 0.01 0.00 0.00 0.00 0.00 0.00 0.00 0.00 0.00 0.01 0.01 0.01 0.01 0.02 0.01 0.00 0.00 0.00 0.00 0.00 0.00 0.00 0.01 0.02 0.07 0.12 0.11 0.09 0.07 0.07 0.07
0.16 0.12 0.08 0.06 0.06 0.06 0.05 0.04 0.03 0.01 0.01 0.01 0.00 0.00 0.00 0.00 0.00 0.00 0.00 0.00 0.00 0.01 0.01 0.01 0.01 0.01 0.00 0.00 0.00 0.00 0.00 0.00 0.00 0.00 0.01 0.04 0.07 0.09 0.06 0.04 0.05 0.05 0.05
0.20 0.14 0.09 0.08 0.07 0.06 0.05 0.03 0.03 0.01 0.01 0.01 0.00 0.00 0.00 0.00 0.00 0.00 0.00 0.00 0.00 0.00 0.00 0.00 0.00 0.00 0.00 0.00 0.00 0.00 0.00 0.00 0.00 0.00 0.01 0.02 0.03 0.04 0.03 0.02 0.02 0.02 0.02
0.23 0.18 0.13 0.09 0.08 0.06 0.04 0.03 0.02 0.02 0.01 0.01 0.00 0.00 0.00 0.00 0.00 0.00 0.00 0.00 0.00 0.00 0.00 0.00 0.00 0.00 0.00 0.00 0.00 0.00 0.00 0.00 0.00 0.00 0.00 0.00 0.00 0.01 0.01 0.01 0.00 0.00 0.00
0.21 0.21 0.18 0.14 0.11 0.09 0.08 0.04 0.03 0.02 0.01 0.01 0.01 0.00 0.00 0.00 0.00 0.00 0.00 0.00 0.00 0.00 0.00 0.00 0.00 0.00 0.00 0.00 0.00 0.00 0.00 0.00 0.00 0.00 0.00 0.00 0.00 0.00 0.01 0.01 0.01 0.01 0.01
0.20 0.20 0.20 0.20 0.17 0.13 0.09 0.07 0.04 0.03 0.02 0.01 0.01 0.00 0.00 0.00 0.00 0.00 0.00 0.00 0.00 0.00 0.00 0.00 0.00 0.00 0.00 0.00 0.00 0.00 0.00 0.00 0.00 0.00 0.00 0.00 0.00 0.00 0.00 0.01 0.01 0.01 0.02
0.19 0.20 0.19 0.21 0.23 0.19 0.13 0.12 0.07 0.05 0.03 0.02 0.02 0.01 0.00 0.00 0.00 0.00 0.00 0.00 0.00 0.00 0.00 0.00 0.00 0.00 0.00 0.00 0.00 0.00 0.00 0.00 0.00 0.00 0.00 0.00 0.00 0.00 0.00 0.01 0.01 0.03 0.04
0.16 0.17 0.18 0.18 0.19 0.19 0.19 0.18 0.12 0.09 0.05 0.03 0.03 0.02 0.01 0.01 0.00 0.00 0.00 0.00 0.00 0.00 0.00 0.00 0.00 0.01 0.01 0.01 0.01 0.01 0.00 0.00 0.00 0.00 0.00 0.00 0.00 0.00 0.00 0.00 0.01 0.03 0.04
0.16 0.15 0.16 0.16 0.16 0.18 0.23 0.27 0.20 0.15 0.12 0.09 0.06 0.03 0.03 0.03 0.03 0.01 0.01 0.01 0.01 0.01 0.01 0.01 0.01 0.01 0.02 0.02 0.02 0.01 0.01 0.00 0.00 0.00 0.00 0.00 0.00 0.00 0.00 0.00 0.01 0.02 0.03
0.13 0.13 0.14 0.17 0.18 0.25 0.32 0.35 0.30 0.21 0.16 0.14 0.10 0.07 0.07 0.07 0.07 0.05 0.03 0.02 0.02 0.02 0.02 0.03 0.03 0.03 0.03 0.03 0.03 0.01 0.01 0.00 0.00 0.00 0.00 0.01 0.01 0.01 0.01 0.01 0.01 0.01 0.01
0.09 0.11 0.12 0.12 0.15 0.23 0.27 0.26 0.21 0.16 0.15 0.13 0.13 0.14 0.14 0.13 0.12 0.09 0.06 0.05 0.04 0.04 0.04 0.04 0.05 0.05 0.04 0.04 0.04 0.02 0.01 0.01 0.00 0.00 0.01 0.01 0.01 0.01 0.02 0.02 0.01 0.01 0.01
0.05 0.07 0.08 0.08 0.09 0.13 0.17 0.23 0.24 0.28 0.27 0.23 0.23 0.19 0.15 0.15 0.16 0.14 0.11 0.11 0.10 0.08 0.07 0.07 0.08 0.09 0.08 0.09 0.09 0.09 0.03 0.01 0.00 0.00 0.01 0.01 0.01 0.01 0.01 0.02 0.02 0.02 0.02
0.04 0.05 0.07 0.07 0.09 0.13 0.19 0.26 0.29 0.31 0.27 0.23 0.16 0.12 0.13 0.17 0.21 0.19 0.19 0.19 0.17 0.15 0.11 0.11 0.12 0.13 0.12 0.11 0.12 0.15 0.10 0.03 0.02 0.01 0.01 0.01 0.01 0.01 0.02 0.03 0.03 0.03 0.03
0.03 0.04 0.05 0.07 0.08 0.12 0.18 0.22 0.20 0.16 0.15 0.14 0.19 0.21 0.23 0.24 0.24 0.23 0.23 0.24 0.22 0.20 0.16 0.16 0.17 0.16 0.16 0.14 0.12 0.11 0.11 0.09 0.09 0.05 0.01 0.02 0.02 0.02 0.03 0.04 0.04 0.04 0.03
0.02 0.03 0.03 0.04 0.07 0.11 0.15 0.21 0.23 0.18 0.14 0.16 0.20 0.22 0.23 0.23 0.23 0.24 0.25 0.25 0.23 0.22 0.24 0.26 0.26 0.25 0.22 0.20 0.17 0.16 0.16 0.12 0.09 0.11 0.07 0.04 0.04 0.05 0.05 0.05 0.04 0.04 0.05
0.00 0.01 0.02 0.03 0.05 0.08 0.13 0.17 0.15 0.12 0.12 0.12 0.15 0.17 0.18 0.18 0.18 0.20 0.23 0.23 0.24 0.25 0.29 0.31 0.34 0.33 0.32 0.28 0.24 0.22 0.24 0.21 0.15 0.16 0.16 0.11 0.10 0.09 0.07 0.06 0.06 0.07 0.08

GEFSSE_prec_meanprecacc_078.txt.gz
Total_Precipitation_Accumulation
0.01 0.02 0.06 0.05 0.04 0.04 0.04 0.05 0.06 0.06 0.08 0.12 0.13 0.12 0.12 0.13 0.12 0.09 0.12 0.15 0.19 0.22 0.24 0.26 0.27 0.29 0.31 0.29 0.19 0.07 0.02 0.01 0.00 0.00 0.00 0.01 0.01 0.02 0.02 0.03 0.03 0.04 0.05
0.00 0.02 0.05 0.05 0.05 0.05 0.05 0.06 0.05 0.05 0.08 0.11 0.11 0.12 0.14 0.13 0.11 0.10 0.13 0.15 0.15 0.17 0.19 0.19 0.16 0.12 0.08 0.07 0.04 0.02 0.01 0.00 0.00 0.00 0.00 0.00 0.01 0.01 0.01 0.02 0.03 0.05 0.06
0.00 0.02 0.04 0.05 0.05 0.06 0.06 0.05 0.04 0.05 0.07 0.07 0.09 0.09 0.10 0.09 0.08 0.09 0.12 0.12 0.11 0.12 0.13 0.11 0.07 0.03 0.01 0.01 0.00 0.00 0.00 0.00 0.00 0.00 0.01 0.01 0.01 0.02 0.02 0.02 0.04 0.05 0.06
0.01 0.01 0.02 0.05 0.05 0.05 0.05 0.04 0.04 0.06 0.06 0.06 0.06 0.07 0.07 0.06 0.08 0.08 0.09 0.07 0.06 0.06 0.04 0.03 0.01 0.01 0.00 0.00 0.00 0.00 0.00 0.00 0.00 0.00 0.01 0.01 0.02 0.04 0.05 0.05 0.05 0.05 0.06
0.01 0.01 0.03 0.06 0.06 0.05 0.04 0.04 0.05 0.05 0.05 0.05 0.05 0.06 0.06 0.06 0.07 0.06 0.04 0.03 0.02 0.01 0.01 0.01 0.00 0.00 0.00 0.00 0.00 0.00 0.01 0.01 0.00 0.00 0.00 0.01 0.02 0.05 0.06 0.06 0.07 0.09 0.09
0.01 0.02 0.05 0.06 0.06 0.04 0.04 0.04 0.05 0.05 0.05 0.05 0.05 0.04 0.05 0.07 0.08 0.05 0.02 0.01 0.00 0.00 0.00 0.00 0.00 0.00 0.00 0.00 0.00 0.00 0.00 0.01 0.00 0.00 0.00 0.01 0.02 0.06 0.06 0.08 0.10 0.13 0.15
0.02 0.03 0.06 0.07 0.06 0.05 0.04 0.04 0.04 0.05 0.05 0.04 0.04 0.04 0.05 0.05 0.06 0.06 0.03 0.01 0.00 0.00 0.00 0.00 0.00 0.00 0.00 0.00 0.00 0.00 0.00 0.00 0.00 0.00 0.00 0.01 0.03 0.06 0.08 0.09 0.10 0.13 0.16
0.03 0.05 0.09 0.10 0.07 0.06 0.05 0.04 0.04 0.05 0.04 0.04 0.04 0.04 0.04 0.03 0.03 0.05 0.04 0.01 0.00 0.00 0.00 0.01 0.01 0.01 0.01 0.00 0.00 0.00 0.00 0.00 0.00 0.00 0.00 0.01 0.02 0.06 0.07 0.08 0.09 0.10 0.12
0.06 0.07 0.10 0.10 0.09 0.07 0.05 0.04 0.04 0.05 0.04 0.03 0.03 0.02 0.02 0.01 0.02 0.03 0.03 0.01 0.01 0.00 0.01 0.01 0.01 0.01 0.01 0.01 0.01 0.00 0.00 0.00 0.00 0.00 0.00 0.01 0.03 0.06 0.08 0.09 0.11 0.11 0.11
0.14 0.12 0.11 0.08 0.08 0.08 0.06 0.05 0.04 0.04 0.03 0.03 0.02 0.01 0.00 0.01 0.01 0.01 0.01 0.01 0.01 0.01 0.01 0.01 0.01 0.01 0.01 0.01 0.01 0.00 0.00 0.00 0.00 0.00 0.00 0.01 0.04 0.09 0.12 0.13 0.13 0.12 0.10
0.24 0.18 0.13 0.08 0.06 0.06 0.07 0.05 0.03 0.03 0.02 0.02 0.01 0.00 0.00 0.00 0.00 0.00 0.00 0.00 0.00 0.01 0.01 0.01 0.01 0.02 0.01 0.00 0.00 0.00 0.00 0.00 0.00 0.00 0.01 0.02 0.07 0.12 0.11 0.09 0.07 0.07 0.07
0.31 0.23 0.16 0.10 0.07 0.07 0.06 0.05 0.04 0.02 0.02 0.01 0.01 0.00 0.00 0.00 0.00 0.00 0.00 0.00 0.00 0.01 0.01 0.01 0.01 0.01 0.00 0.00 0.00 0.00 0.00 0.00 0.00 0.00 0.01 0.04 0.07 0.09 0.06 0.04 0.05 0.05 0.05
0.42 0.32 0.21 0.13 0.08 0.07 0.06 0.04 0.03 0.02 0.01 0.01 0.00 0.00 0.00 0.00 0.00 0.00 0.00 0.00 0.00 0.00 0.00 0.00 0.00 0.00 0.00 0.00 0.00 0.00 0.00 0.00 0.00 0.00 0.01 0.02 0.03 0.04 0.03 0.02 0.02 0.02 0.02
0.48 0.42 0.33 0.20 0.11 0.08 0.05 0.04 0.03 0.02 0.01 0.01 0.00 0.00 0.00 0.00 0.00 0.00 0.00 0.00 0.00 0.00 0.00 0.00 0.00 0.00 0.00 0.00 0.00 0.00 0.00 0.00 0.00 0.00 0.00 0.00 0.00 0.01 0.02 0.01 0.01 0.01 0.01
0.43 0.42 0.41 0.33 0.21 0.13 0.09 0.05 0.03 0.02 0.02 0.01 0.01 0.00 0.00 0.00 0.00 0.00 0.00 0.00 0.00 0.00 0.00 0.00 0.00 0.00 0.00 0.00 0.00 0.00 0.00 0.00 0.00 0.00 0.00 0.00 0.00 0.00 0.01 0.01 0.01 0.02 0.02
0.38 0.37 0.38 0.39 0.35 0.26 0.15 0.10 0.05 0.04 0.03 0.01 0.01 0.00 0.00 0.00 0.00 0.00 0.00 0.00 0.00 0.00 0.00 0.00 0.00 0.00 0.00 0.00 0.00 0.00 0.00 0.00 0.00 0.00 0.00 0.00 0.00 0.00 0.00 0.01 0.02 0.03 0.04
0.38 0.39 0.36 0.39 0.43 0.39 0.30 0.23 0.13 0.09 0.04 0.02 0.02 0.01 0.00 0.00 0.00 0.00 0.00 0.00 0.00 0.00 0.00 0.00 0.00 0.00 0.00 0.00 0.00 0.00 0.00 0.00 0.00 0.00 0.00 0.00 0.00 0.00 0.00 0.01 0.02 0.04 0.06
0.42 0.40 0.38 0.38 0.40 0.39 0.40 0.39 0.26 0.18 0.10 0.06 0.04 0.02 0.01 0.01 0.00 0.00 0.00 0.00 0.00 0.00 0.00 0.00 0.00 0.01 0.01 0.01 0.01 0.01 0.00 0.00 0.00 0.00 0.00 0.00 0.00 0.00 0.00 0.00 0.02 0.04 0.06
0.41 0.41 0.42 0.40 0.41 0.42 0.44 0.48 0.42 0.32 0.23 0.17 0.10 0.05 0.03 0.03 0.03 0.01 0.01 0.01 0.01 0.01 0.01 0.01 0.01 0.01 0.02 0.02 0.02 0.01 0.01 0.00 0.00 0.00 0.00 0.00 0.00 0.00 0.00 0.00 0.01 0.02 0.03
0.39 0.40 0.42 0.43 0.44 0.56 0.61 0.60 0.56 0.43 0.33 0.29 0.20 0.13 0.10 0.08 0.08 0.05 0.03 0.02 0.02 0.02 0.02 0.03 0.03 0.03 0.03 0.03 0.03 0.01 0.01 0.00 0.00 0.00 0.00 0.01 0.01 0.01 0.01 0.01 0.01 0.01 0.02
0.35 0.38 0.40 0.40 0.44 0.54 0.56 0.52 0.43 0.37 0.35 0.31 0.28 0.25 0.20 0.17 0.15 0.10 0.06 0.05 0.04 0.04 0.04 0.05 0.06 0.05 0.05 0.05 0.04 0.02 0.01 0.01 0.00 0.00 0.01 0.01 0.01 0.01 0.02 0.02 0.01 0.01 0.01
0.22 0.28 0.32 0.33 0.36 0.39 0.44 0.50 0.51 0.55 0.54 0.46 0.42 0.34 0.25 0.22 0.21 0.17 0.13 0.12 0.11 0.10 0.09 0.09 0.09 0.10 0.09 0.10 0.10 0.09 0.03 0.01 0.00 0.00 0.01 0.01 0.01 0.01 0.01 0.02 0.02 0.02 0.02
0.14 0.20 0.27 0.32 0.35 0.39 0.49 0.61 0.62 0.60 0.52 0.42 0.31 0.26 0.26 0.28 0.29 0.25 0.24 0.23 0.22 0.20 0.15 0.13 0.14 0.15 0.14 0.13 0.13 0.16 0.10 0.03 0.02 0.01 0.01 0.01 0.01 0.01 0.02 0.03 0.03 0.03 0.03
0.08 0.13 0.17 0.23 0.29 0.35 0.46 0.50 0.45 0.38 0.32 0.30 0.36 0.40 0.43 0.41 0.39 0.35 0.34 0.32 0.29 0.26 0.21 0.19 0.19 0.18 0.17 0.15 0.13 0.12 0.13 0.10 0.10 0.05 0.01 0.02 0.02 0.02 0.03 0.04 0.04 0.04 0.04
0.06 0.10 0.13 0.18 0.24 0.33 0.40 0.45 0.49 0.42 0.36 0.40 0.44 0.43 0.41 0.39 0.39 0.39 0.38 0.36 0.31 0.28 0.28 0.29 0.29 0.27 0.24 0.21 0.19 0.17 0.18 0.14 0.10 0.12 0.08 0.04 0.04 0.05 0.05 0.05 0.04 0.04 0.05
0.03 0.05 0.09 0.13 0.17 0.22 0.31 0.40 0.38 0.34 0.35 0.36 0.39 0.40 0.37 0.34 0.33 0.33 0.35 0.33 0.32 0.32 0.33 0.34 0.36 0.35 0.34 0.30 0.26 0.23 0.25 0.22 0.16 0.17 0.17 0.11 0.10 0.09 0.07 0.06 0.06 0.07 0.08

GEFSSE_prec_meanprecacc_084.txt.gz
Total_Precipitation_Accumulation
0.01 0.04 0.09 0.06 0.05 0.04 0.04 0.06 0.06 0.06 0.09 0.14 0.15 0.14 0.14 0.15 0.15 0.12 0.15 0.18 0.21 0.24 0.25 0.26 0.27 0.30 0.32 0.30 0.20 0.08 0.02 0.01 0.01 0.00 0.01 0.01 0.02 0.03 0.03 0.03 0.04 0.05 0.06
0.01 0.03 0.08 0.06 0.05 0.05 0.06 0.06 0.05 0.06 0.10 0.14 0.14 0.15 0.16 0.17 0.14 0.13 0.14 0.17 0.17 0.18 0.20 0.20 0.16 0.12 0.09 0.07 0.04 0.02 0.01 0.00 0.00 0.00 0.00 0.00 0.01 0.02 0.02 0.02 0.04 0.06 0.07
0.01 0.03 0.06 0.06 0.06 0.06 0.06 0.05 0.04 0.06 0.09 0.11 0.13 0.14 0.14 0.12 0.10 0.12 0.15 0.14 0.12 0.13 0.14 0.11 0.07 0.04 0.01 0.01 0.00 0.00 0.00 0.00 0.00 0.00 0.01 0.01 0.01 0.02 0.02 0.03 0.04 0.06 0.07
0.01 0.03 0.04 0.06 0.06 0.05 0.05 0.04 0.05 0.06 0.09 0.10 0.11 0.12 0.12 0.10 0.11 0.12 0.11 0.08 0.07 0.06 0.05 0.03 0.01 0.01 0.00 0.00 0.00 0.00 0.00 0.00 0.00 0.00 0.01 0.01 0.02 0.05 0.05 0.05 0.06 0.06 0.07
0.03 0.03 0.05 0.07 0.06 0.05 0.04 0.04 0.05 0.06 0.07 0.09 0.12 0.12 0.10 0.10 0.11 0.09 0.05 0.03 0.02 0.01 0.01 0.01 0.00 0.00 0.00 0.00 0.00 0.00 0.01 0.01 0.00 0.00 0.00 0.01 0.02 0.05 0.06 0.06 0.08 0.09 0.10
0.04 0.05 0.07 0.08 0.07 0.05 0.04 0.05 0.05 0.06 0.07 0.09 0.12 0.11 0.10 0.10 0.10 0.06 0.02 0.01 0.00 0.00 0.00 0.00 0.00 0.00 0.00 0.00 0.00 0.00 0.00 0.01 0.00 0.00 0.00 0.01 0.02 0.06 0.06 0.08 0.10 0.13 0.15
0.06 0.07 0.10 0.10 0.08 0.06 0.05 0.05 0.05 0.06 0.07 0.09 0.12 0.09 0.09 0.08 0.07 0.06 0.03 0.01 0.00 0.00 0.00 0.00 0.00 0.00 0.00 0.00 0.00 0.00 0.00 0.00 0.00 0.00 0.01 0.01 0.03 0.06 0.08 0.09 0.11 0.13 0.16
0.10 0.12 0.15 0.14 0.10 0.07 0.06 0.05 0.05 0.06 0.06 0.09 0.11 0.08 0.06 0.04 0.03 0.05 0.04 0.01 0.00 0.00 0.00 0.01 0.01 0.01 0.01 0.00 0.00 0.00 0.00 0.00 0.00 0.00 0.00 0.01 0.02 0.06 0.07 0.08 0.09 0.10 0.12
0.21 0.18 0.18 0.16 0.11 0.09 0.07 0.05 0.05 0.06 0.06 0.07 0.08 0.05 0.03 0.02 0.02 0.03 0.03 0.01 0.01 0.01 0.01 0.01 0.01 0.01 0.01 0.01 0.01 0.00 0.00 0.00 0.00 0.00 0.00 0.01 0.03 0.06 0.08 0.09 0.11 0.11 0.11
0.37 0.29 0.21 0.16 0.11 0.10 0.09 0.06 0.05 0.05 0.05 0.05 0.05 0.03 0.01 0.01 0.01 0.01 0.01 0.01 0.01 0.01 0.01 0.01 0.01 0.01 0.01 0.01 0.01 0.00 0.00 0.00 0.00 0.00 0.00 0.01 0.04 0.09 0.12 0.13 0.13 0.12 0.10
0.50 0.40 0.29 0.16 0.10 0.09 0.09 0.07 0.05 0.04 0.04 0.04 0.03 0.01 0.01 0.00 0.01 0.00 0.00 0.00 0.01 0.01 0.01 0.01 0.01 0.02 0.01 0.00 0.00 0.00 0.00 0.00 0.00 0.00 0.01 0.02 0.07 0.12 0.12 0.09 0.07 0.07 0.07
0.58 0.44 0.35 0.21 0.12 0.10 0.09 0.08 0.06 0.04 0.04 0.03 0.01 0.01 0.00 0.00 0.00 0.00 0.00 0.00 0.01 0.01 0.01 0.01 0.01 0.01 0.00 0.00 0.00 0.00 0.00 0.00 0.00 0.00 0.01 0.04 0.07 0.09 0.06 0.04 0.05 0.05 0.06
0.68 0.54 0.39 0.28 0.16 0.11 0.09 0.07 0.05 0.03 0.03 0.02 0.01 0.00 0.00 0.00 0.00 0.00 0.00 0.00 0.00 0.00 0.00 0.00 0.00 0.00 0.00 0.00 0.00 0.00 0.00 0.00 0.00 0.00 0.01 0.02 0.03 0.04 0.04 0.03 0.03 0.03 0.02
0.79 0.65 0.52 0.38 0.22 0.13 0.09 0.06 0.04 0.03 0.02 0.02 0.01 0.00 0.00 0.00 0.00 0.00 0.00 0.00 0.00 0.00 0.00 0.00 0.00 0.00 0.00 0.00 0.00 0.00 0.00 0.00 0.00 0.00 0.00 0.00 0.00 0.01 0.02 0.01 0.01 0.02 0.02
0.72 0.70 0.64 0.53 0.35 0.21 0.14 0.07 0.04 0.03 0.02 0.01 0.01 0.00 0.00 0.00 0.00 0.00 0.00 0.00 0.00 0.00 0.00 0.00 0.00 0.00 0.00 0.00 0.00 0.00 0.00 0.00 0.00 0.00 0.00 0.00 0.00 0.00 0.01 0.01 0.02 0.02 0.04
0.62 0.64 0.63 0.61 0.50 0.38 0.22 0.14 0.06 0.04 0.03 0.02 0.01 0.01 0.00 0.00 0.00 0.00 0.00 0.00 0.00 0.00 0.00 0.00 0.00 0.00 0.00 0.00 0.00 0.00 0.00 0.00 0.00 0.00 0.00 0.00 0.00 0.00 0.00 0.01 0.02 0.04 0.05
0.63 0.67 0.60 0.61 0.61 0.53 0.41 0.30 0.17 0.11 0.05 0.03 0.02 0.01 0.01 0.00 0.00 0.00 0.00 0.00 0.00 0.00 0.00 0.00 0.00 0.00 0.00 0.00 0.00 0.00 0.00 0.00 0.00 0.00 0.00 0.00 0.00 0.00 0.00 0.01 0.02 0.05 0.07
0.73 0.69 0.66 0.62 0.61 0.56 0.54 0.50 0.33 0.22 0.13 0.08 0.05 0.03 0.02 0.01 0.00 0.00 0.00 0.00 0.00 0.00 0.00 0.00 0.00 0.01 0.01 0.01 0.01 0.01 0.00 0.00 0.00 0.00 0.00 0.00 0.00 0.00 0.00 0.00 0.02 0.04 0.07
0.75 0.73 0.73 0.68 0.64 0.63 0.62 0.63 0.54 0.41 0.29 0.22 0.14 0.07 0.05 0.04 0.03 0.02 0.01 0.01 0.01 0.01 0.01 0.01 0.01 0.01 0.02 0.02 0.02 0.01 0.01 0.00 0.00 0.00 0.00 0.00 0.00 0.00 0.00 0.00 0.01 0.02 0.04
0.76 0.76 0.77 0.76 0.74 0.85 0.88 0.82 0.73 0.56 0.42 0.37 0.27 0.19 0.15 0.12 0.10 0.07 0.04 0.03 0.03 0.02 0.03 0.03 0.03 0.03 0.03 0.03 0.03 0.01 0.01 0.00 0.00 0.00 0.00 0.01 0.01 0.01 0.01 0.01 0.01 0.01 0.02
0.77 0.77 0.76 0.74 0.77 0.88 0.88 0.80 0.69 0.56 0.49 0.45 0.41 0.36 0.30 0.26 0.22 0.16 0.10 0.08 0.06 0.06 0.06 0.07 0.07 0.06 0.05 0.05 0.05 0.02 0.01 0.01 0.00 0.00 0.01 0.01 0.01 0.01 0.02 0.02 0.01 0.01 0.01
0.57 0.68 0.71 0.72 0.77 0.77 0.77 0.84 0.84 0.85 0.78 0.65 0.59 0.49 0.39 0.35 0.33 0.25 0.20 0.18 0.16 0.14 0.12 0.11 0.11 0.11 0.10 0.10 0.10 0.09 0.03 0.01 0.00 0.00 0.01 0.01 0.01 0.01 0.01 0.02 0.02 0.02 0.02
0.37 0.52 0.68 0.73 0.79 0.81 0.87 1.00 1.04 1.02 0.87 0.69 0.51 0.44 0.45 0.48 0.50 0.41 0.37 0.36 0.32 0.27 0.20 0.17 0.18 0.18 0.15 0.13 0.14 0.16 0.10 0.04 0.02 0.01 0.01 0.01 0.01 0.01 0.02 0.03 0.03 0.03 0.03
0.21 0.33 0.48 0.60 0.73 0.80 0.88 0.91 0.87 0.81 0.71 0.60 0.60 0.61 0.64 0.64 0.63 0.61 0.56 0.52 0.47 0.39 0.30 0.27 0.25 0.22 0.20 0.16 0.14 0.12 0.13 0.10 0.10 0.05 0.02 0.02 0.02 0.02 0.03 0.04 0.04 0.04 0.04
0.13 0.22 0.34 0.43 0.57 0.68 0.80 0.89 0.95 0.86 0.77 0.78 0.77 0.74 0.69 0.66 0.64 0.64 0.62 0.60 0.53 0.46 0.42 0.41 0.38 0.34 0.28 0.23 0.20 0.17 0.18 0.14 0.11 0.13 0.08 0.04 0.04 0.05 0.05 0.05 0.04 0.04 0.05
0.05 0.10 0.19 0.28 0.39 0.50 0.66 0.79 0.83 0.78 0.77 0.73 0.73 0.74 0.71 0.66 0.62 0.58 0.57 0.54 0.53 0.50 0.49 0.47 0.47 0.43 0.39 0.34 0.29 0.25 0.26 0.23 0.17 0.18 0.18 0.11 0.10 0.09 0.07 0.06 0.06 0.07 0.08

GEFSSE_prec_meanprecacc_090.txt.gz
Total_Precipitation_Accumulation
0.01 0.04 0.10 0.06 0.05 0.04 0.04 0.06 0.06 0.07 0.10 0.16 0.16 0.15 0.16 0.17 0.19 0.16 0.18 0.20 0.23 0.26 0.25 0.27 0.28 0.31 0.33 0.31 0.20 0.08 0.02 0.01 0.01 0.01 0.01 0.01 0.02 0.03 0.04 0.05 0.05 0.05 0.06
0.01 0.03 0.08 0.06 0.06 0.05 0.06 0.06 0.05 0.06 0.11 0.16 0.15 0.17 0.19 0.19 0.19 0.18 0.18 0.20 0.19 0.19 0.20 0.20 0.17 0.13 0.09 0.07 0.04 0.02 0.01 0.00 0.00 0.00 0.00 0.00 0.01 0.02 0.02 0.03 0.04 0.07 0.08
0.01 0.03 0.07 0.07 0.06 0.06 0.06 0.05 0.05 0.06 0.10 0.13 0.14 0.16 0.17 0.16 0.16 0.17 0.19 0.16 0.13 0.13 0.14 0.12 0.07 0.04 0.02 0.01 0.01 0.00 0.00 0.00 0.00 0.00 0.01 0.01 0.01 0.03 0.03 0.03 0.05 0.07 0.08
0.01 0.03 0.05 0.07 0.06 0.06 0.05 0.04 0.05 0.07 0.11 0.12 0.14 0.15 0.16 0.15 0.15 0.16 0.14 0.10 0.07 0.07 0.05 0.03 0.02 0.01 0.00 0.00 0.00 0.00 0.00 0.00 0.00 0.00 0.01 0.01 0.02 0.05 0.05 0.05 0.06 0.06 0.08
0.03 0.04 0.07 0.08 0.07 0.05 0.04 0.04 0.06 0.07 0.10 0.12 0.15 0.16 0.16 0.15 0.15 0.13 0.09 0.05 0.03 0.02 0.01 0.01 0.00 0.00 0.00 0.00 0.00 0.00 0.01 0.01 0.00 0.00 0.00 0.01 0.02 0.06 0.06 0.06 0.08 0.09 0.10
0.06 0.07 0.10 0.10 0.08 0.06 0.05 0.05 0.06 0.08 0.10 0.13 0.17 0.17 0.17 0.16 0.14 0.10 0.06 0.02 0.01 0.00 0.00 0.00 0.00 0.00 0.00 0.00 0.00 0.00 0.00 0.01 0.00 0.00 0.00 0.01 0.02 0.06 0.07 0.08 0.11 0.13 0.15
0.12 0.14 0.15 0.13 0.10 0.07 0.06 0.06 0.06 0.09 0.10 0.13 0.18 0.16 0.17 0.13 0.11 0.10 0.05 0.01 0.00 0.00 0.00 0.00 0.01 0.00 0.00 0.00 0.00 0.00 0.00 0.00 0.00 0.00 0.01 0.01 0.03 0.07 0.08 0.09 0.11 0.13 0.16
0.20 0.24 0.23 0.20 0.13 0.09 0.06 0.06 0.06 0.09 0.10 0.15 0.19 0.17 0.15 0.10 0.07 0.07 0.05 0.01 0.00 0.00 0.00 0.01 0.01 0.01 0.01 0.00 0.00 0.00 0.00 0.00 0.00 0.00 0.00 0.01 0.02 0.06 0.08 0.08 0.09 0.10 0.12
0.39 0.38 0.33 0.24 0.16 0.12 0.08 0.06 0.06 0.08 0.10 0.16 0.19 0.16 0.12 0.07 0.06 0.05 0.03 0.01 0.01 0.01 0.01 0.01 0.01 0.01 0.01 0.01 0.01 0.00 0.00 0.00 0.00 0.00 0.00 0.01 0.03 0.07 0.08 0.09 0.11 0.11 0.11
0.62 0.55 0.44 0.30 0.19 0.14 0.11 0.08 0.06 0.07 0.09 0.14 0.14 0.11 0.08 0.06 0.04 0.02 0.01 0.01 0.01 0.01 0.01 0.01 0.01 0.01 0.01 0.01 0.01 0.00 0.00 0.00 0.00 0.00 0.00 0.01 0.04 0.09 0.12 0.13 0.13 0.12 0.10
0.82 0.72 0.59 0.40 0.25 0.17 0.13 0.09 0.06 0.06 0.09 0.10 0.09 0.07 0.05 0.04 0.03 0.01 0.01 0.00 0.01 0.01 0.02 0.01 0.01 0.02 0.01 0.00 0.00 0.00 0.00 0.00 0.00 0.00 0.01 0.02 0.07 0.12 0.12 0.09 0.07 0.07 0.07
0.87 0.77 0.71 0.52 0.36 0.26 0.18 0.11 0.08 0.07 0.08 0.08 0.06 0.05 0.04 0.03 0.02 0.01 0.00 0.00 0.01 0.01 0.01 0.01 0.01 0.01 0.00 0.00 0.00 0.00 0.00 0.00 0.00 0.00 0.01 0.04 0.07 0.09 0.06 0.04 0.05 0.06 0.06
0.96 0.91 0.79 0.69 0.49 0.36 0.25 0.14 0.08 0.06 0.07 0.09 0.05 0.04 0.04 0.02 0.01 0.01 0.01 0.01 0.01 0.00 0.00 0.00 0.00 0.00 0.00 0.00 0.00 0.00 0.00 0.00 0.00 0.00 0.01 0.02 0.03 0.04 0.04 0.03 0.03 0.03 0.03
1.03 0.97 0.89 0.79 0.61 0.46 0.31 0.17 0.10 0.06 0.06 0.08 0.06 0.03 0.03 0.02 0.01 0.01 0.00 0.00 0.00 0.00 0.00 0.00 0.00 0.00 0.00 0.00 0.00 0.00 0.00 0.00 0.00 0.00 0.00 0.00 0.00 0.01 0.02 0.02 0.02 0.02 0.02
0.94 0.98 0.97 0.91 0.75 0.57 0.43 0.25 0.14 0.08 0.06 0.07 0.07 0.04 0.02 0.02 0.01 0.00 0.00 0.00 0.00 0.00 0.00 0.00 0.00 0.00 0.00 0.00 0.00 0.00 0.00 0.00 0.00 0.00 0.00 0.00 0.00 0.00 0.01 0.01 0.02 0.03 0.04
0.85 0.91 0.96 0.96 0.90 0.75 0.52 0.35 0.22 0.14 0.09 0.07 0.08 0.04 0.02 0.01 0.01 0.01 0.00 0.00 0.00 0.00 0.00 0.00 0.00 0.00 0.00 0.00 0.00 0.00 0.00 0.00 0.00 0.00 0.00 0.00 0.00 0.00 0.01 0.01 0.02 0.04 0.06
0.86 0.96 0.94 0.97 0.99 0.91 0.73 0.54 0.35 0.25 0.14 0.08 0.09 0.07 0.03 0.01 0.01 0.01 0.00 0.00 0.00 0.00 0.00 0.00 0.00 0.00 0.00 0.00 0.00 0.00 0.00 0.00 0.00 0.00 0.00 0.00 0.00 0.00 0.00 0.01 0.02 0.05 0.08
0.99 1.00 1.01 0.97 1.01 0.96 0.89 0.79 0.58 0.39 0.25 0.16 0.12 0.08 0.05 0.03 0.01 0.01 0.01 0.00 0.00 0.00 0.00 0.01 0.01 0.01 0.01 0.01 0.01 0.01 0.00 0.00 0.00 0.00 0.00 0.00 0.00 0.00 0.00 0.00 0.02 0.04 0.07
1.04 1.04 1.10 1.05 1.04 1.06 1.02 0.98 0.84 0.64 0.44 0.32 0.22 0.14 0.10 0.07 0.05 0.03 0.02 0.02 0.02 0.01 0.01 0.01 0.01 0.01 0.02 0.02 0.02 0.01 0.01 0.00 0.00 0.00 0.00 0.00 0.00 0.00 0.00 0.00 0.01 0.02 0.04
1.05 1.10 1.14 1.14 1.13 1.26 1.30 1.22 1.08 0.84 0.61 0.49 0.36 0.26 0.21 0.16 0.13 0.09 0.05 0.04 0.04 0.03 0.03 0.03 0.04 0.03 0.03 0.04 0.03 0.02 0.01 0.00 0.00 0.00 0.00 0.01 0.01 0.01 0.01 0.01 0.01 0.01 0.02
1.01 1.10 1.12 1.12 1.16 1.29 1.28 1.17 1.04 0.86 0.71 0.60 0.52 0.46 0.38 0.32 0.28 0.21 0.14 0.13 0.11 0.09 0.09 0.10 0.10 0.08 0.06 0.07 0.06 0.03 0.01 0.01 0.00 0.00 0.01 0.01 0.01 0.01 0.02 0.02 0.02 0.02 0.02
0.81 0.98 1.08 1.10 1.15 1.15 1.15 1.19 1.20 1.23 1.06 0.86 0.76 0.63 0.50 0.46 0.41 0.32 0.26 0.24 0.21 0.19 0.17 0.16 0.15 0.15 0.13 0.14 0.13 0.11 0.04 0.01 0.00 0.01 0.01 0.01 0.01 0.01 0.01 0.02 0.02 0.03 0.03
0.61 0.80 1.01 1.12 1.19 1.20 1.25 1.40 1.42 1.42 1.22 0.97 0.72 0.62 0.60 0.59 0.60 0.50 0.45 0.43 0.38 0.33 0.26 0.23 0.24 0.25 0.22 0.19 0.19 0.19 0.12 0.04 0.02 0.01 0.01 0.01 0.01 0.01 0.02 0.03 0.03 0.04 0.03
0.41 0.56 0.75 0.94 1.10 1.20 1.27 1.31 1.26 1.21 1.08 0.90 0.85 0.81 0.83 0.80 0.77 0.73 0.68 0.64 0.57 0.49 0.40 0.36 0.32 0.30 0.28 0.22 0.19 0.17 0.17 0.13 0.12 0.07 0.02 0.02 0.02 0.02 0.03 0.04 0.04 0.04 0.04
0.28 0.41 0.56 0.72 0.91 1.07 1.19 1.27 1.33 1.23 1.14 1.13 1.07 0.98 0.88 0.82 0.79 0.78 0.76 0.75 0.68 0.60 0.56 0.54 0.49 0.44 0.37 0.31 0.26 0.22 0.22 0.17 0.13 0.14 0.09 0.05 0.05 0.05 0.05 0.05 0.04 0.04 0.05
0.14 0.24 0.37 0.49 0.65 0.80 1.00 1.16 1.23 1.15 1.12 1.07 1.04 1.01 0.96 0.89 0.82 0.76 0.73 0.71 0.68 0.65 0.64 0.61 0.59 0.54 0.49 0.43 0.38 0.32 0.31 0.27 0.20 0.19 0.19 0.12 0.11 0.09 0.07 0.06 0.06 0.07 0.08

GEFSSE_prec_meanprecacc_096.txt.gz
Total_Precipitation_Accumulation
0.01 0.04 0.10 0.06 0.05 0.04 0.04 0.06 0.06 0.07 0.11 0.16 0.17 0.16 0.16 0.18 0.20 0.17 0.19 0.21 0.24 0.26 0.26 0.28 0.29 0.31 0.33 0.31 0.21 0.08 0.03 0.01 0.01 0.01 0.01 0.02 0.03 0.04 0.04 0.05 0.06 0.06 0.07
0.01 0.03 0.08 0.06 0.06 0.05 0.06 0.06 0.05 0.06 0.11 0.16 0.16 0.17 0.19 0.20 0.21 0.19 0.19 0.20 0.20 0.20 0.21 0.21 0.18 0.14 0.10 0.07 0.05 0.02 0.01 0.00 0.00 0.00 0.00 0.01 0.02 0.02 0.02 0.03 0.05 0.07 0.09
0.01 0.03 0.07 0.07 0.06 0.06 0.06 0.05 0.05 0.07 0.11 0.14 0.15 0.17 0.18 0.18 0.18 0.19 0.20 0.17 0.15 0.15 0.15 0.13 0.08 0.04 0.02 0.01 0.01 0.00 0.00 0.00 0.00 0.00 0.01 0.01 0.02 0.03 0.03 0.03 0.05 0.08 0.09
0.02 0.03 0.05 0.07 0.06 0.06 0.05 0.05 0.05 0.08 0.11 0.13 0.15 0.17 0.18 0.17 0.19 0.20 0.17 0.12 0.09 0.07 0.06 0.04 0.02 0.01 0.00 0.00 0.00 0.00 0.00 0.00 0.00 0.00 0.01 0.01 0.02 0.05 0.05 0.06 0.06 0.07 0.08
0.04 0.04 0.07 0.09 0.08 0.06 0.05 0.05 0.06 0.08 0.11 0.14 0.16 0.19 0.19 0.19 0.20 0.18 0.12 0.07 0.04 0.02 0.02 0.01 0.00 0.00 0.00 0.00 0.00 0.00 0.01 0.01 0.00 0.00 0.00 0.01 0.02 0.06 0.06 0.07 0.08 0.10 0.10
0.08 0.08 0.11 0.12 0.10 0.07 0.05 0.05 0.06 0.08 0.11 0.14 0.19 0.20 0.21 0.20 0.20 0.15 0.09 0.04 0.01 0.01 0.01 0.00 0.00 0.00 0.00 0.00 0.00 0.00 0.01 0.01 0.00 0.00 0.00 0.01 0.02 0.06 0.07 0.08 0.11 0.14 0.15
0.17 0.16 0.17 0.16 0.12 0.08 0.07 0.06 0.06 0.09 0.11 0.15 0.20 0.19 0.21 0.19 0.16 0.14 0.08 0.03 0.01 0.00 0.01 0.00 0.01 0.00 0.00 0.00 0.00 0.00 0.00 0.00 0.00 0.00 0.01 0.01 0.03 0.07 0.08 0.10 0.11 0.14 0.16
0.28 0.31 0.28 0.25 0.16 0.11 0.08 0.07 0.07 0.10 0.12 0.16 0.22 0.20 0.19 0.16 0.12 0.11 0.08 0.03 0.01 0.01 0.01 0.01 0.01 0.01 0.01 0.00 0.00 0.00 0.00 0.00 0.00 0.00 0.00 0.01 0.02 0.06 0.08 0.08 0.09 0.10 0.12
0.54 0.53 0.44 0.32 0.23 0.17 0.12 0.09 0.08 0.10 0.12 0.17 0.22 0.20 0.18 0.14 0.11 0.08 0.06 0.02 0.01 0.01 0.01 0.01 0.01 0.01 0.01 0.01 0.01 0.00 0.00 0.00 0.00 0.00 0.00 0.01 0.03 0.07 0.08 0.10 0.11 0.11 0.11
0.79 0.78 0.67 0.46 0.32 0.23 0.17 0.12 0.09 0.09 0.11 0.16 0.18 0.14 0.13 0.12 0.11 0.05 0.03 0.02 0.01 0.01 0.01 0.02 0.02 0.01 0.01 0.01 0.01 0.00 0.00 0.00 0.00 0.00 0.00 0.01 0.04 0.09 0.12 0.13 0.13 0.12 0.10
1.00 0.95 0.88 0.68 0.45 0.31 0.20 0.13 0.10 0.10 0.12 0.13 0.13 0.11 0.10 0.09 0.08 0.04 0.02 0.01 0.01 0.01 0.02 0.01 0.01 0.02 0.01 0.00 0.00 0.00 0.00 0.00 0.00 0.00 0.01 0.02 0.07 0.12 0.12 0.09 0.08 0.07 0.08
1.04 1.00 0.97 0.83 0.64 0.49 0.34 0.18 0.13 0.12 0.12 0.12 0.09 0.09 0.08 0.07 0.05 0.03 0.02 0.01 0.01 0.01 0.01 0.01 0.01 0.01 0.00 0.00 0.00 0.00 0.00 0.00 0.00 0.00 0.01 0.04 0.07 0.09 0.06 0.04 0.05 0.06 0.06
1.12 1.15 1.09 1.00 0.80 0.66 0.53 0.31 0.17 0.12 0.13 0.14 0.10 0.09 0.08 0.06 0.04 0.03 0.02 0.01 0.01 0.00 0.00 0.00 0.00 0.00 0.00 0.00 0.00 0.00 0.00 0.00 0.00 0.00 0.01 0.02 0.03 0.04 0.04 0.03 0.03 0.03 0.03
1.19 1.16 1.14 1.12 0.96 0.75 0.60 0.42 0.25 0.15 0.13 0.14 0.13 0.10 0.08 0.05 0.04 0.03 0.02 0.01 0.00 0.00 0.00 0.00 0.00 0.00 0.00 0.00 0.00 0.00 0.00 0.00 0.00 0.00 0.00 0.00 0.00 0.01 0.02 0.02 0.02 0.02 0.02
1.12 1.16 1.16 1.17 1.10 0.90 0.75 0.55 0.38 0.24 0.18 0.16 0.14 0.11 0.08 0.07 0.05 0.03 0.03 0.01 0.00 0.00 0.00 0.00 0.00 0.00 0.00 0.00 0.00 0.00 0.00 0.00 0.00 0.00 0.00 0.00 0.00 0.00 0.01 0.02 0.02 0.03 0.05
1.00 1.10 1.13 1.15 1.19 1.10 0.87 0.68 0.50 0.35 0.23 0.20 0.18 0.13 0.10 0.08 0.06 0.04 0.03 0.02 0.01 0.00 0.00 0.00 0.00 0.00 0.00 0.00 0.00 0.00 0.00 0.00 0.00 0.00 0.00 0.00 0.00 0.00 0.01 0.01 0.02 0.05 0.07
0.97 1.12 1.10 1.14 1.22 1.21 1.06 0.86 0.61 0.48 0.31 0.21 0.20 0.17 0.13 0.09 0.07 0.05 0.03 0.03 0.02 0.00 0.00 0.00 0.00 0.00 0.00 0.00 0.00 0.00 0.00 0.00 0.00 0.00 0.00 0.00 0.00 0.00 0.00 0.01 0.03 0.06 0.08
1.10 1.16 1.20 1.16 1.25 1.24 1.19 1.08 0.86 0.62 0.45 0.32 0.24 0.21 0.15 0.10 0.09 0.07 0.04 0.03 0.02 0.01 0.01 0.01 0.01 0.01 0.01 0.01 0.01 0.01 0.00 0.00 0.00 0.00 0.00 0.00 0.00 0.00 0.00 0.00 0.02 0.04 0.08
1.16 1.19 1.32 1.27 1.30 1.36 1.33 1.26 1.13 0.92 0.67 0.51 0.38 0.27 0.22 0.15 0.11 0.08 0.05 0.04 0.04 0.03 0.02 0.02 0.01 0.01 0.02 0.02 0.02 0.01 0.01 0.00 0.00 0.00 0.00 0.00 0.00 0.00 0.00 0.00 0.01 0.02 0.04
1.16 1.24 1.38 1.41 1.40 1.53 1.61 1.55 1.41 1.14 0.87 0.72 0.57 0.43 0.35 0.29 0.22 0.15 0.10 0.07 0.07 0.06 0.05 0.04 0.04 0.03 0.04 0.04 0.04 0.02 0.01 0.01 0.00 0.00 0.00 0.01 0.01 0.01 0.01 0.01 0.02 0.01 0.02
1.10 1.22 1.33 1.40 1.46 1.58 1.59 1.52 1.41 1.21 0.98 0.82 0.74 0.66 0.55 0.49 0.42 0.30 0.19 0.17 0.14 0.12 0.12 0.13 0.12 0.09 0.08 0.09 0.08 0.04 0.02 0.01 0.01 0.01 0.01 0.01 0.01 0.02 0.02 0.02 0.02 0.02 0.02
0.92 1.11 1.25 1.33 1.43 1.44 1.44 1.53 1.59 1.61 1.40 1.12 0.99 0.87 0.73 0.65 0.59 0.46 0.35 0.29 0.25 0.23 0.21 0.21 0.21 0.19 0.17 0.18 0.17 0.14 0.06 0.02 0.01 0.01 0.01 0.01 0.02 0.02 0.02 0.02 0.02 0.03 0.03
0.75 0.96 1.19 1.32 1.42 1.44 1.49 1.67 1.78 1.85 1.63 1.31 0.99 0.86 0.85 0.84 0.82 0.69 0.58 0.50 0.43 0.38 0.31 0.29 0.29 0.29 0.26 0.24 0.24 0.23 0.15 0.06 0.03 0.01 0.01 0.01 0.02 0.02 0.02 0.03 0.03 0.04 0.03
0.58 0.74 0.93 1.12 1.32 1.45 1.48 1.53 1.54 1.55 1.47 1.24 1.12 1.04 1.07 1.06 1.03 0.94 0.85 0.77 0.66 0.57 0.47 0.42 0.38 0.36 0.34 0.30 0.27 0.23 0.21 0.16 0.14 0.08 0.03 0.03 0.03 0.02 0.04 0.04 0.04 0.04 0.04
0.45 0.61 0.76 0.90 1.10 1.31 1.41 1.47 1.55 1.47 1.45 1.49 1.41 1.26 1.12 1.07 1.04 1.00 0.96 0.91 0.81 0.72 0.66 0.62 0.56 0.51 0.43 0.38 0.33 0.29 0.28 0.21 0.16 0.16 0.10 0.05 0.05 0.05 0.05 0.05 0.04 0.04 0.05
0.29 0.39 0.57 0.69 0.85 1.01 1.21 1.37 1.43 1.38 1.41 1.43 1.40 1.32 1.21 1.12 1.05 0.97 0.95 0.91 0.85 0.80 0.78 0.75 0.72 0.66 0.58 0.51 0.45 0.38 0.36 0.32 0.25 0.23 0.21 0.13 0.11 0.09 0.08 0.06 0.06 0.07 0.08

GEFSSE_prec_meanprecacc_102.txt.gz
Total_Precipitation_Accumulation
0.01 0.04 0.11 0.07 0.05 0.04 0.05 0.06 0.07 0.07 0.11 0.16 0.17 0.16 0.17 0.18 0.20 0.18 0.20 0.22 0.24 0.27 0.27 0.28 0.30 0.32 0.34 0.32 0.21 0.09 0.03 0.02 0.02 0.02 0.02 0.03 0.04 0.05 0.05 0.06 0.06 0.07 0.09
0.01 0.03 0.09 0.07 0.06 0.06 0.06 0.07 0.06 0.07 0.11 0.17 0.16 0.18 0.20 0.21 0.21 0.20 0.20 0.21 0.21 0.21 0.22 0.22 0.19 0.14 0.10 0.08 0.05 0.02 0.01 0.01 0.00 0.00 0.01 0.01 0.02 0.03 0.03 0.04 0.05 0.08 0.10
0.01 0.03 0.08 0.08 0.07 0.07 0.07 0.06 0.05 0.07 0.11 0.14 0.16 0.18 0.19 0.19 0.19 0.20 0.21 0.18 0.16 0.16 0.16 0.14 0.09 0.05 0.02 0.01 0.01 0.01 0.01 0.00 0.00 0.00 0.01 0.01 0.02 0.04 0.04 0.04 0.06 0.08 0.10
0.02 0.03 0.05 0.08 0.07 0.07 0.06 0.05 0.06 0.08 0.12 0.14 0.16 0.18 0.19 0.18 0.20 0.21 0.17 0.13 0.10 0.09 0.07 0.04 0.02 0.01 0.01 0.01 0.01 0.01 0.01 0.00 0.00 0.00 0.01 0.01 0.03 0.06 0.06 0.06 0.07 0.07 0.09
0.04 0.05 0.08 0.11 0.10 0.08 0.06 0.06 0.07 0.09 0.11 0.15 0.18 0.21 0.20 0.21 0.22 0.20 0.13 0.08 0.05 0.04 0.03 0.01 0.01 0.00 0.00 0.00 0.00 0.00 0.01 0.01 0.00 0.00 0.00 0.01 0.03 0.06 0.06 0.07 0.08 0.10 0.10
0.10 0.10 0.14 0.16 0.14 0.11 0.10 0.09 0.09 0.10 0.12 0.16 0.21 0.22 0.23 0.23 0.24 0.19 0.11 0.05 0.03 0.02 0.02 0.01 0.00 0.00 0.00 0.00 0.00 0.00 0.01 0.01 0.00 0.00 0.00 0.01 0.03 0.06 0.07 0.08 0.11 0.14 0.16
0.20 0.20 0.21 0.21 0.17 0.14 0.12 0.11 0.10 0.12 0.13 0.16 0.22 0.22 0.24 0.22 0.21 0.20 0.12 0.05 0.03 0.02 0.01 0.01 0.01 0.01 0.00 0.00 0.00 0.00 0.00 0.00 0.00 0.00 0.01 0.01 0.03 0.07 0.09 0.10 0.11 0.14 0.16
0.35 0.38 0.35 0.32 0.24 0.18 0.14 0.13 0.12 0.13 0.14 0.19 0.24 0.23 0.24 0.22 0.19 0.18 0.12 0.05 0.02 0.02 0.02 0.01 0.01 0.01 0.01 0.00 0.00 0.00 0.00 0.00 0.00 0.00 0.00 0.01 0.03 0.06 0.08 0.08 0.09 0.10 0.12
0.63 0.63 0.53 0.43 0.34 0.26 0.20 0.16 0.15 0.15 0.16 0.21 0.25 0.24 0.23 0.21 0.18 0.14 0.11 0.06 0.03 0.02 0.02 0.02 0.01 0.01 0.01 0.01 0.01 0.00 0.00 0.00 0.00 0.00 0.00 0.01 0.03 0.07 0.08 0.10 0.11 0.11 0.11
0.87 0.89 0.79 0.60 0.46 0.35 0.28 0.21 0.16 0.16 0.16 0.20 0.21 0.18 0.18 0.19 0.19 0.11 0.08 0.05 0.03 0.02 0.02 0.02 0.02 0.01 0.01 0.01 0.01 0.00 0.00 0.00 0.00 0.00 0.00 0.01 0.04 0.09 0.12 0.14 0.13 0.12 0.11
1.08 1.04 1.00 0.82 0.61 0.46 0.33 0.25 0.21 0.19 0.19 0.20 0.18 0.15 0.14 0.16 0.17 0.10 0.05 0.04 0.04 0.03 0.02 0.02 0.02 0.02 0.01 0.00 0.00 0.00 0.00 0.00 0.00 0.00 0.01 0.02 0.07 0.12 0.12 0.09 0.08 0.07 0.08
1.11 1.07 1.06 0.93 0.79 0.66 0.49 0.31 0.25 0.23 0.21 0.18 0.14 0.14 0.13 0.12 0.12 0.08 0.05 0.04 0.03 0.03 0.02 0.01 0.01 0.01 0.00 0.00 0.00 0.00 0.00 0.00 0.00 0.00 0.01 0.04 0.07 0.09 0.06 0.05 0.05 0.06 0.06
1.20 1.23 1.17 1.07 0.91 0.81 0.69 0.46 0.31 0.25 0.24 0.22 0.16 0.15 0.14 0.12 0.11 0.09 0.06 0.04 0.03 0.01 0.01 0.00 0.00 0.00 0.00 0.00 0.00 0.00 0.00 0.00 0.00 0.00 0.01 0.02 0.03 0.04 0.04 0.03 0.03 0.03 0.03
1.27 1.25 1.23 1.20 1.03 0.84 0.71 0.57 0.41 0.28 0.25 0.26 0.22 0.18 0.15 0.12 0.09 0.07 0.05 0.03 0.03 0.01 0.00 0.00 0.00 0.00 0.00 0.00 0.00 0.00 0.00 0.00 0.00 0.00 0.00 0.00 0.01 0.01 0.02 0.02 0.02 0.03 0.03
1.22 1.28 1.25 1.25 1.16 0.97 0.83 0.66 0.51 0.37 0.30 0.28 0.27 0.22 0.17 0.15 0.11 0.08 0.06 0.04 0.03 0.02 0.01 0.00 0.00 0.00 0.00 0.00 0.00 0.00 0.00 0.00 0.00 0.00 0.00 0.00 0.00 0.00 0.01 0.02 0.03 0.04 0.06
1.06 1.22 1.27 1.26 1.27 1.18 0.95 0.78 0.63 0.47 0.35 0.33 0.31 0.25 0.21 0.19 0.17 0.13 0.08 0.06 0.05 0.04 0.02 0.01 0.00 0.00 0.00 0.00 0.00 0.00 0.00 0.00 0.00 0.00 0.00 0.00 0.00 0.00 0.01 0.01 0.03 0.05 0.08
1.00 1.19 1.20 1.26 1.33 1.30 1.15 0.96 0.72 0.59 0.42 0.34 0.35 0.31 0.26 0.22 0.19 0.17 0.12 0.08 0.07 0.06 0.04 0.03 0.01 0.00 0.00 0.00 0.00 0.00 0.00 0.00 0.00 0.00 0.00 0.00 0.00 0.00 0.00 0.01 0.03 0.06 0.09
1.12 1.20 1.25 1.23 1.34 1.34 1.30 1.22 0.98 0.74 0.56 0.43 0.38 0.40 0.32 0.27 0.25 0.21 0.17 0.11 0.08 0.07 0.06 0.04 0.03 0.02 0.01 0.01 0.01 0.01 0.00 0.00 0.00 0.00 0.00 0.00 0.00 0.00 0.00 0.00 0.02 0.04 0.08
1.19 1.23 1.36 1.31 1.36 1.44 1.45 1.43 1.28 1.05 0.80 0.64 0.51 0.43 0.40 0.32 0.28 0.26 0.23 0.19 0.14 0.09 0.08 0.06 0.05 0.03 0.03 0.02 0.02 0.01 0.01 0.00 0.00 0.00 0.00 0.00 0.00 0.00 0.00 0.00 0.01 0.02 0.04
1.22 1.30 1.44 1.47 1.47 1.61 1.71 1.71 1.61 1.33 1.02 0.86 0.70 0.56 0.50 0.47 0.38 0.31 0.26 0.24 0.22 0.17 0.11 0.08 0.07 0.07 0.05 0.05 0.04 0.02 0.01 0.01 0.01 0.00 0.01 0.01 0.01 0.01 0.01 0.01 0.02 0.02 0.02
1.18 1.30 1.38 1.48 1.54 1.66 1.68 1.66 1.61 1.42 1.17 0.98 0.87 0.80 0.70 0.63 0.60 0.47 0.32 0.29 0.27 0.24 0.21 0.18 0.16 0.13 0.11 0.11 0.09 0.04 0.02 0.02 0.01 0.01 0.01 0.01 0.01 0.02 0.02 0.02 0.02 0.02 0.02
0.97 1.18 1.32 1.41 1.54 1.55 1.55 1.66 1.77 1.81 1.61 1.31 1.16 1.02 0.88 0.79 0.75 0.65 0.52 0.41 0.35 0.32 0.31 0.28 0.25 0.23 0.20 0.21 0.19 0.17 0.08 0.03 0.01 0.01 0.01 0.02 0.02 0.02 0.02 0.03 0.03 0.03 0.03
0.81 1.01 1.25 1.40 1.54 1.57 1.61 1.82 1.95 2.05 1.85 1.53 1.19 1.03 1.00 0.99 0.96 0.85 0.76 0.68 0.56 0.47 0.40 0.37 0.35 0.33 0.29 0.27 0.27 0.27 0.18 0.08 0.04 0.02 0.01 0.02 0.02 0.03 0.03 0.04 0.04 0.04 0.04
0.67 0.84 1.01 1.20 1.40 1.57 1.62 1.65 1.66 1.70 1.65 1.44 1.32 1.23 1.23 1.21 1.17 1.08 1.00 0.93 0.81 0.68 0.55 0.50 0.47 0.43 0.39 0.34 0.31 0.26 0.24 0.18 0.16 0.09 0.03 0.04 0.04 0.04 0.05 0.05 0.05 0.05 0.04
0.58 0.78 0.91 1.02 1.21 1.43 1.54 1.59 1.67 1.60 1.58 1.63 1.59 1.48 1.36 1.28 1.24 1.18 1.12 1.08 0.97 0.85 0.76 0.70 0.65 0.59 0.50 0.44 0.38 0.33 0.33 0.26 0.20 0.20 0.12 0.07 0.07 0.07 0.06 0.05 0.05 0.05 0.05
0.45 0.61 0.82 0.87 1.00 1.16 1.37 1.53 1.58 1.52 1.54 1.54 1.53 1.48 1.42 1.37 1.33 1.22 1.14 1.09 1.02 0.97 0.92 0.86 0.83 0.76 0.68 0.60 0.53 0.46 0.43 0.38 0.30 0.29 0.27 0.17 0.14 0.11 0.09 0.07 0.07 0.07 0.09

GEFSSE_prec_meanprecacc_108.txt.gz
Total_Precipitation_Accumulation
0.01 0.05 0.12 0.08 0.06 0.05 0.06 0.07 0.08 0.08 0.13 0.19 0.19 0.18 0.19 0.19 0.21 0.18 0.22 0.24 0.25 0.28 0.28 0.29 0.31 0.33 0.34 0.33 0.22 0.10 0.04 0.03 0.03 0.03 0.03 0.04 0.05 0.06 0.06 0.06 0.07 0.08 0.10
0.01 0.04 0.11 0.08 0.07 0.07 0.07 0.08 0.07 0.08 0.14 0.19 0.19 0.20 0.22 0.22 0.22 0.21 0.21 0.22 0.22 0.22 0.23 0.23 0.20 0.15 0.11 0.09 0.05 0.03 0.02 0.01 0.01 0.01 0.01 0.01 0.03 0.04 0.04 0.04 0.06 0.09 0.11
0.01 0.04 0.10 0.10 0.08 0.08 0.08 0.07 0.07 0.09 0.13 0.17 0.19 0.20 0.20 0.20 0.20 0.21 0.22 0.19 0.18 0.17 0.18 0.15 0.10 0.06 0.03 0.02 0.01 0.01 0.01 0.01 0.00 0.00 0.01 0.02 0.03 0.04 0.04 0.04 0.07 0.10 0.11
0.02 0.05 0.07 0.11 0.10 0.09 0.08 0.08 0.09 0.11 0.14 0.16 0.19 0.21 0.21 0.20 0.21 0.22 0.19 0.14 0.12 0.11 0.09 0.05 0.03 0.02 0.01 0.01 0.01 0.01 0.01 0.00 0.00 0.00 0.01 0.02 0.03 0.06 0.07 0.06 0.07 0.08 0.09
0.05 0.06 0.11 0.16 0.15 0.12 0.10 0.10 0.11 0.13 0.15 0.19 0.22 0.25 0.24 0.24 0.24 0.22 0.15 0.10 0.07 0.06 0.05 0.03 0.01 0.01 0.01 0.01 0.01 0.00 0.01 0.01 0.00 0.00 0.00 0.01 0.03 0.07 0.07 0.07 0.08 0.10 0.11
0.12 0.13 0.18 0.23 0.23 0.20 0.16 0.14 0.14 0.15 0.17 0.20 0.25 0.28 0.27 0.27 0.27 0.21 0.15 0.08 0.05 0.04 0.04 0.02 0.01 0.00 0.00 0.00 0.01 0.00 0.01 0.01 0.00 0.00 0.00 0.01 0.03 0.07 0.07 0.08 0.11 0.14 0.16
0.22 0.23 0.25 0.27 0.26 0.25 0.23 0.19 0.16 0.18 0.19 0.22 0.27 0.28 0.28 0.27 0.26 0.23 0.15 0.07 0.05 0.04 0.03 0.02 0.02 0.01 0.00 0.01 0.00 0.00 0.00 0.00 0.00 0.00 0.01 0.01 0.03 0.08 0.09 0.10 0.11 0.14 0.17
0.37 0.42 0.40 0.39 0.33 0.29 0.27 0.26 0.24 0.23 0.22 0.26 0.32 0.31 0.30 0.28 0.26 0.23 0.16 0.08 0.05 0.04 0.04 0.03 0.02 0.01 0.01 0.01 0.00 0.00 0.00 0.00 0.00 0.00 0.00 0.01 0.03 0.07 0.08 0.08 0.09 0.10 0.12
0.66 0.67 0.59 0.50 0.42 0.36 0.31 0.28 0.27 0.27 0.28 0.32 0.35 0.33 0.34 0.31 0.28 0.22 0.16 0.09 0.07 0.05 0.05 0.04 0.03 0.02 0.01 0.01 0.01 0.00 0.00 0.00 0.00 0.00 0.00 0.01 0.03 0.07 0.09 0.10 0.12 0.12 0.11
0.90 0.92 0.83 0.66 0.54 0.45 0.39 0.32 0.28 0.28 0.29 0.32 0.32 0.28 0.28 0.30 0.31 0.22 0.14 0.10 0.07 0.06 0.05 0.04 0.03 0.02 0.01 0.01 0.01 0.00 0.00 0.00 0.00 0.00 0.00 0.01 0.04 0.09 0.12 0.14 0.13 0.12 0.11
1.09 1.07 1.04 0.88 0.67 0.53 0.42 0.33 0.31 0.30 0.29 0.29 0.27 0.23 0.22 0.24 0.26 0.19 0.12 0.09 0.09 0.08 0.06 0.04 0.03 0.03 0.01 0.00 0.00 0.00 0.00 0.00 0.00 0.00 0.01 0.02 0.07 0.12 0.12 0.09 0.08 0.07 0.08
1.12 1.09 1.09 0.97 0.84 0.72 0.55 0.37 0.33 0.32 0.31 0.28 0.23 0.23 0.22 0.20 0.21 0.16 0.13 0.10 0.09 0.07 0.06 0.04 0.04 0.03 0.01 0.00 0.00 0.00 0.00 0.00 0.00 0.00 0.01 0.04 0.08 0.09 0.07 0.05 0.06 0.06 0.06
1.20 1.24 1.19 1.10 0.94 0.85 0.74 0.51 0.36 0.32 0.33 0.32 0.24 0.23 0.23 0.22 0.22 0.19 0.15 0.12 0.10 0.07 0.05 0.04 0.02 0.01 0.00 0.00 0.00 0.00 0.00 0.00 0.00 0.00 0.01 0.02 0.03 0.05 0.04 0.03 0.04 0.04 0.03
1.27 1.25 1.24 1.23 1.07 0.88 0.76 0.62 0.45 0.33 0.30 0.32 0.29 0.24 0.23 0.21 0.18 0.15 0.13 0.11 0.10 0.07 0.04 0.03 0.02 0.01 0.01 0.00 0.00 0.00 0.00 0.00 0.00 0.00 0.00 0.00 0.01 0.02 0.03 0.03 0.03 0.03 0.03
1.22 1.28 1.25 1.26 1.20 1.03 0.89 0.71 0.55 0.41 0.34 0.33 0.33 0.30 0.25 0.23 0.19 0.15 0.13 0.12 0.11 0.09 0.06 0.04 0.03 0.01 0.01 0.00 0.00 0.00 0.00 0.00 0.00 0.00 0.00 0.00 0.00 0.01 0.02 0.02 0.03 0.04 0.07
1.06 1.23 1.27 1.27 1.29 1.22 1.01 0.84 0.67 0.50 0.39 0.39 0.38 0.32 0.30 0.28 0.25 0.21 0.17 0.14 0.12 0.10 0.08 0.05 0.03 0.02 0.01 0.00 0.00 0.00 0.00 0.00 0.00 0.00 0.00 0.00 0.00 0.00 0.01 0.02 0.03 0.06 0.09
1.00 1.19 1.20 1.27 1.35 1.33 1.21 1.05 0.81 0.66 0.47 0.39 0.41 0.39 0.35 0.32 0.29 0.27 0.23 0.19 0.15 0.12 0.10 0.08 0.07 0.05 0.03 0.02 0.01 0.00 0.00 0.00 0.00 0.00 0.00 0.00 0.00 0.00 0.00 0.01 0.03 0.06 0.09
1.12 1.21 1.25 1.25 1.37 1.37 1.34 1.30 1.10 0.85 0.65 0.50 0.45 0.48 0.41 0.38 0.37 0.34 0.29 0.22 0.17 0.16 0.13 0.09 0.07 0.06 0.05 0.03 0.02 0.02 0.01 0.00 0.00 0.00 0.00 0.00 0.00 0.00 0.00 0.00 0.02 0.05 0.09
1.20 1.24 1.37 1.33 1.39 1.48 1.48 1.48 1.38 1.17 0.91 0.72 0.59 0.51 0.50 0.43 0.41 0.39 0.34 0.29 0.25 0.19 0.16 0.13 0.09 0.06 0.06 0.05 0.03 0.02 0.01 0.00 0.00 0.00 0.00 0.00 0.00 0.00 0.00 0.00 0.01 0.02 0.05
1.22 1.31 1.45 1.48 1.49 1.64 1.74 1.74 1.67 1.42 1.14 0.97 0.79 0.64 0.58 0.56 0.50 0.44 0.39 0.36 0.35 0.30 0.21 0.16 0.14 0.10 0.08 0.07 0.06 0.03 0.02 0.01 0.01 0.00 0.01 0.01 0.01 0.01 0.01 0.01 0.02 0.02 0.02
1.21 1.32 1.41 1.50 1.56 1.69 1.71 1.68 1.65 1.48 1.27 1.10 0.99 0.89 0.79 0.73 0.70 0.58 0.46 0.44 0.42 0.38 0.33 0.29 0.26 0.22 0.16 0.14 0.11 0.06 0.03 0.02 0.01 0.01 0.01 0.01 0.01 0.02 0.02 0.02 0.02 0.02 0.02
1.02 1.22 1.35 1.44 1.57 1.58 1.58 1.69 1.80 1.86 1.67 1.41 1.26 1.12 0.98 0.92 0.87 0.77 0.65 0.56 0.50 0.49 0.46 0.42 0.38 0.35 0.30 0.28 0.24 0.21 0.11 0.04 0.02 0.01 0.02 0.02 0.02 0.03 0.02 0.03 0.03 0.03 0.03
0.85 1.06 1.30 1.43 1.57 1.60 1.64 1.85 1.99 2.09 1.91 1.61 1.28 1.11 1.08 1.10 1.09 0.97 0.89 0.83 0.72 0.63 0.55 0.51 0.49 0.46 0.40 0.36 0.33 0.34 0.23 0.10 0.04 0.02 0.02 0.02 0.03 0.03 0.03 0.04 0.05 0.05 0.04
0.72 0.88 1.05 1.24 1.43 1.60 1.65 1.69 1.72 1.76 1.71 1.51 1.40 1.31 1.31 1.31 1.29 1.21 1.13 1.08 0.99 0.86 0.70 0.63 0.59 0.55 0.52 0.46 0.39 0.32 0.29 0.21 0.18 0.10 0.04 0.04 0.04 0.04 0.05 0.06 0.06 0.06 0.05
0.63 0.83 0.96 1.07 1.27 1.48 1.59 1.64 1.72 1.67 1.65 1.71 1.67 1.59 1.48 1.41 1.38 1.34 1.27 1.22 1.13 1.03 0.94 0.89 0.81 0.73 0.63 0.56 0.49 0.41 0.39 0.31 0.24 0.24 0.15 0.08 0.08 0.08 0.07 0.06 0.06 0.06 0.07
0.54 0.71 0.91 0.97 1.08 1.23 1.42 1.60 1.66 1.59 1.60 1.63 1.61 1.57 1.52 1.50 1.48 1.39 1.31 1.25 1.18 1.12 1.08 1.03 1.01 0.93 0.84 0.74 0.66 0.57 0.52 0.45 0.35 0.34 0.32 0.21 0.17 0.13 0.11 0.09 0.08 0.09 0.10

GEFSSE_prec_meanprecacc_114.txt.gz
Total_Precipitation_Accumulation
0.02 0.06 0.13 0.09 0.08 0.07 0.07 0.08 0.10 0.12 0.17 0.22 0.22 0.20 0.20 0.20 0.21 0.19 0.23 0.25 0.27 0.30 0.28 0.30 0.31 0.33 0.35 0.33 0.23 0.10 0.05 0.04 0.03 0.03 0.03 0.04 0.06 0.07 0.06 0.07 0.09 0.09 0.10
0.02 0.05 0.12 0.10 0.09 0.09 0.10 0.10 0.11 0.12 0.18 0.23 0.23 0.23 0.25 0.25 0.23 0.22 0.22 0.24 0.25 0.25 0.26 0.25 0.20 0.16 0.12 0.09 0.06 0.03 0.02 0.02 0.01 0.01 0.01 0.02 0.04 0.04 0.04 0.04 0.07 0.09 0.12
0.02 0.06 0.11 0.11 0.10 0.10 0.11 0.11 0.11 0.15 0.20 0.22 0.23 0.24 0.24 0.23 0.23 0.23 0.23 0.22 0.22 0.20 0.21 0.16 0.11 0.06 0.04 0.02 0.02 0.01 0.01 0.01 0.00 0.01 0.01 0.02 0.03 0.05 0.05 0.05 0.07 0.11 0.13
0.03 0.07 0.10 0.14 0.13 0.12 0.12 0.13 0.13 0.16 0.21 0.25 0.27 0.27 0.25 0.24 0.25 0.25 0.21 0.18 0.16 0.14 0.13 0.08 0.04 0.03 0.02 0.01 0.01 0.01 0.01 0.00 0.00 0.01 0.03 0.03 0.03 0.06 0.07 0.07 0.08 0.09 0.10
0.07 0.09 0.15 0.19 0.19 0.17 0.14 0.14 0.16 0.18 0.22 0.27 0.33 0.35 0.33 0.31 0.29 0.25 0.18 0.15 0.12 0.10 0.10 0.06 0.02 0.02 0.01 0.01 0.01 0.01 0.01 0.01 0.00 0.01 0.01 0.02 0.04 0.07 0.07 0.07 0.09 0.10 0.11
0.14 0.16 0.22 0.25 0.26 0.24 0.20 0.18 0.19 0.22 0.23 0.27 0.34 0.38 0.36 0.34 0.33 0.26 0.19 0.12 0.08 0.08 0.08 0.06 0.03 0.02 0.01 0.01 0.01 0.01 0.01 0.01 0.00 0.00 0.01 0.02 0.03 0.07 0.07 0.08 0.11 0.14 0.16
0.25 0.28 0.29 0.30 0.29 0.29 0.26 0.23 0.22 0.24 0.27 0.30 0.37 0.38 0.38 0.34 0.32 0.30 0.21 0.10 0.06 0.07 0.07 0.06 0.04 0.03 0.01 0.01 0.01 0.01 0.00 0.00 0.00 0.00 0.01 0.02 0.04 0.08 0.09 0.10 0.11 0.14 0.17
0.39 0.46 0.44 0.42 0.36 0.32 0.30 0.30 0.29 0.30 0.31 0.35 0.41 0.40 0.40 0.38 0.35 0.32 0.23 0.12 0.07 0.06 0.07 0.06 0.05 0.04 0.03 0.01 0.01 0.00 0.00 0.00 0.00 0.00 0.01 0.02 0.03 0.07 0.08 0.09 0.09 0.10 0.12
0.68 0.70 0.63 0.54 0.45 0.39 0.33 0.30 0.31 0.33 0.35 0.40 0.44 0.42 0.42 0.40 0.40 0.35 0.26 0.15 0.10 0.08 0.08 0.08 0.06 0.05 0.03 0.02 0.01 0.00 0.00 0.00 0.00 0.00 0.00 0.01 0.04 0.08 0.09 0.10 0.12 0.12 0.11
0.91 0.95 0.87 0.72 0.61 0.52 0.44 0.34 0.30 0.32 0.33 0.38 0.38 0.33 0.33 0.36 0.39 0.34 0.24 0.18 0.13 0.09 0.08 0.08 0.07 0.06 0.04 0.02 0.01 0.00 0.00 0.00 0.00 0.00 0.00 0.01 0.04 0.10 0.13 0.14 0.14 0.12 0.11
1.10 1.08 1.06 0.93 0.74 0.62 0.50 0.39 0.33 0.32 0.32 0.32 0.31 0.26 0.25 0.29 0.32 0.26 0.17 0.15 0.16 0.14 0.09 0.07 0.06 0.06 0.04 0.02 0.01 0.00 0.00 0.00 0.00 0.00 0.01 0.02 0.08 0.13 0.13 0.10 0.08 0.07 0.08
1.12 1.09 1.09 0.99 0.87 0.77 0.60 0.44 0.39 0.36 0.34 0.31 0.26 0.27 0.25 0.25 0.28 0.23 0.18 0.15 0.15 0.14 0.10 0.08 0.08 0.06 0.03 0.01 0.00 0.00 0.00 0.00 0.00 0.00 0.01 0.04 0.08 0.09 0.07 0.05 0.06 0.06 0.06
1.20 1.24 1.19 1.11 0.95 0.88 0.78 0.56 0.42 0.37 0.38 0.37 0.29 0.29 0.28 0.29 0.31 0.30 0.25 0.21 0.17 0.12 0.09 0.07 0.06 0.04 0.02 0.01 0.00 0.00 0.00 0.00 0.00 0.00 0.01 0.02 0.03 0.05 0.05 0.04 0.04 0.04 0.03
1.27 1.25 1.25 1.24 1.08 0.90 0.79 0.66 0.50 0.39 0.36 0.37 0.33 0.30 0.32 0.31 0.27 0.26 0.25 0.20 0.20 0.15 0.12 0.09 0.05 0.03 0.02 0.01 0.01 0.00 0.00 0.00 0.00 0.00 0.00 0.00 0.01 0.02 0.03 0.03 0.03 0.03 0.03
1.22 1.28 1.25 1.26 1.20 1.03 0.90 0.73 0.58 0.46 0.39 0.38 0.38 0.34 0.31 0.31 0.28 0.25 0.24 0.24 0.23 0.20 0.16 0.12 0.08 0.06 0.03 0.02 0.01 0.01 0.00 0.00 0.00 0.00 0.00 0.00 0.00 0.01 0.02 0.03 0.04 0.05 0.07
1.06 1.23 1.27 1.27 1.29 1.22 1.02 0.85 0.69 0.54 0.43 0.44 0.44 0.38 0.37 0.35 0.34 0.30 0.26 0.24 0.24 0.23 0.20 0.14 0.10 0.09 0.07 0.05 0.03 0.02 0.01 0.01 0.00 0.00 0.00 0.00 0.00 0.00 0.01 0.02 0.04 0.07 0.09
1.00 1.19 1.20 1.27 1.35 1.33 1.21 1.06 0.83 0.69 0.51 0.44 0.47 0.46 0.43 0.41 0.39 0.37 0.32 0.28 0.25 0.24 0.24 0.22 0.19 0.17 0.12 0.08 0.05 0.04 0.03 0.02 0.01 0.00 0.00 0.00 0.00 0.00 0.00 0.01 0.03 0.07 0.10
1.12 1.21 1.25 1.25 1.37 1.37 1.34 1.30 1.11 0.88 0.69 0.54 0.52 0.55 0.49 0.47 0.47 0.45 0.39 0.30 0.26 0.28 0.28 0.24 0.21 0.19 0.15 0.11 0.07 0.06 0.04 0.03 0.02 0.01 0.00 0.00 0.00 0.00 0.00 0.00 0.02 0.05 0.09
1.20 1.24 1.38 1.33 1.39 1.48 1.48 1.49 1.39 1.20 0.96 0.78 0.66 0.60 0.58 0.53 0.50 0.51 0.45 0.38 0.35 0.30 0.28 0.27 0.22 0.19 0.17 0.14 0.10 0.06 0.04 0.02 0.02 0.02 0.02 0.01 0.01 0.00 0.00 0.00 0.01 0.02 0.05
1.22 1.32 1.45 1.49 1.49 1.65 1.75 1.76 1.70 1.46 1.20 1.04 0.87 0.75 0.70 0.69 0.63 0.57 0.52 0.50 0.47 0.41 0.32 0.28 0.26 0.23 0.20 0.19 0.17 0.12 0.06 0.03 0.02 0.01 0.01 0.02 0.01 0.01 0.01 0.01 0.02 0.02 0.02
1.22 1.33 1.42 1.51 1.57 1.71 1.74 1.71 1.69 1.52 1.33 1.17 1.07 0.99 0.93 0.88 0.87 0.76 0.64 0.62 0.60 0.53 0.44 0.40 0.37 0.34 0.29 0.27 0.25 0.19 0.12 0.08 0.04 0.02 0.02 0.01 0.01 0.02 0.02 0.02 0.03 0.02 0.02
1.03 1.23 1.36 1.46 1.60 1.62 1.63 1.72 1.85 1.91 1.73 1.47 1.32 1.20 1.08 1.04 1.01 0.93 0.84 0.77 0.71 0.67 0.62 0.56 0.51 0.47 0.43 0.42 0.39 0.36 0.24 0.13 0.07 0.03 0.02 0.02 0.03 0.03 0.02 0.03 0.03 0.03 0.03
0.87 1.08 1.32 1.45 1.60 1.64 1.68 1.89 2.03 2.14 1.97 1.66 1.33 1.17 1.15 1.18 1.19 1.08 1.03 1.01 0.93 0.83 0.75 0.70 0.66 0.62 0.55 0.50 0.49 0.52 0.40 0.21 0.11 0.06 0.04 0.03 0.03 0.03 0.04 0.05 0.05 0.05 0.04
0.75 0.91 1.08 1.26 1.45 1.63 1.68 1.73 1.77 1.82 1.77 1.56 1.45 1.36 1.37 1.38 1.37 1.30 1.22 1.18 1.14 1.04 0.90 0.85 0.80 0.74 0.70 0.63 0.57 0.49 0.45 0.34 0.30 0.19 0.09 0.07 0.07 0.06 0.07 0.07 0.07 0.07 0.06
0.65 0.85 0.98 1.09 1.29 1.51 1.62 1.67 1.77 1.72 1.71 1.77 1.73 1.64 1.54 1.48 1.45 1.41 1.36 1.33 1.26 1.18 1.09 1.05 1.00 0.94 0.84 0.75 0.67 0.58 0.54 0.45 0.36 0.35 0.23 0.12 0.11 0.10 0.08 0.08 0.07 0.07 0.07
0.56 0.73 0.93 0.99 1.11 1.26 1.47 1.65 1.70 1.64 1.66 1.69 1.68 1.63 1.59 1.58 1.55 1.46 1.39 1.35 1.29 1.25 1.21 1.17 1.16 1.10 1.02 0.93 0.85 0.76 0.70 0.62 0.49 0.47 0.41 0.26 0.21 0.15 0.12 0.10 0.09 0.10 0.11

GEFSSE_prec_meanprecacc_120.txt.gz
Total_Precipitation_Accumulation
0.03 0.07 0.14 0.10 0.10 0.09 0.08 0.10 0.12 0.13 0.18 0.24 0.23 0.21 0.21 0.21 0.22 0.19 0.24 0.26 0.28 0.32 0.29 0.30 0.31 0.33 0.35 0.33 0.23 0.10 0.05 0.04 0.04 0.03 0.04 0.05 0.07 0.08 0.07 0.08 0.09 0.09 0.11
0.03 0.07 0.13 0.11 0.11 0.11 0.11 0.12 0.12 0.14 0.20 0.26 0.26 0.25 0.25 0.26 0.25 0.23 0.22 0.24 0.26 0.26 0.27 0.25 0.21 0.16 0.12 0.10 0.06 0.04 0.03 0.02 0.01 0.01 0.01 0.02 0.04 0.05 0.05 0.05 0.07 0.10 0.13
0.04 0.07 0.13 0.13 0.12 0.12 0.13 0.13 0.13 0.17 0.22 0.26 0.27 0.29 0.27 0.25 0.24 0.25 0.25 0.23 0.24 0.22 0.24 0.17 0.11 0.07 0.04 0.02 0.02 0.02 0.02 0.01 0.00 0.01 0.02 0.02 0.03 0.05 0.05 0.05 0.08 0.13 0.15
0.04 0.08 0.11 0.15 0.15 0.15 0.14 0.15 0.16 0.19 0.24 0.28 0.31 0.33 0.30 0.28 0.28 0.27 0.23 0.19 0.19 0.17 0.16 0.10 0.05 0.03 0.02 0.02 0.01 0.01 0.01 0.01 0.01 0.02 0.03 0.03 0.03 0.07 0.07 0.08 0.10 0.11 0.12
0.08 0.11 0.17 0.21 0.21 0.19 0.17 0.17 0.19 0.21 0.25 0.31 0.37 0.40 0.38 0.37 0.33 0.28 0.20 0.17 0.15 0.12 0.12 0.08 0.03 0.02 0.02 0.01 0.01 0.01 0.01 0.01 0.00 0.01 0.01 0.02 0.04 0.07 0.07 0.08 0.10 0.11 0.11
0.16 0.18 0.24 0.28 0.29 0.26 0.22 0.20 0.22 0.25 0.27 0.31 0.39 0.43 0.41 0.39 0.38 0.30 0.22 0.15 0.10 0.09 0.10 0.08 0.04 0.02 0.02 0.02 0.01 0.01 0.01 0.01 0.00 0.00 0.01 0.02 0.04 0.08 0.08 0.09 0.11 0.14 0.16
0.27 0.32 0.33 0.33 0.32 0.31 0.29 0.25 0.24 0.27 0.30 0.34 0.40 0.42 0.44 0.40 0.39 0.37 0.27 0.14 0.08 0.08 0.09 0.07 0.06 0.04 0.03 0.02 0.02 0.01 0.01 0.00 0.00 0.00 0.01 0.02 0.04 0.09 0.09 0.10 0.12 0.14 0.17
0.40 0.49 0.48 0.46 0.39 0.35 0.32 0.33 0.31 0.32 0.33 0.38 0.45 0.44 0.44 0.43 0.41 0.40 0.32 0.17 0.10 0.08 0.09 0.08 0.07 0.06 0.04 0.03 0.02 0.01 0.00 0.00 0.00 0.00 0.01 0.02 0.04 0.07 0.09 0.09 0.10 0.11 0.12
0.69 0.72 0.65 0.57 0.48 0.41 0.36 0.33 0.33 0.34 0.37 0.42 0.47 0.45 0.46 0.44 0.44 0.41 0.33 0.21 0.14 0.11 0.11 0.10 0.08 0.06 0.05 0.04 0.02 0.01 0.00 0.00 0.00 0.00 0.01 0.01 0.04 0.08 0.09 0.10 0.12 0.12 0.11
0.92 0.96 0.88 0.74 0.64 0.54 0.46 0.37 0.33 0.34 0.35 0.39 0.39 0.35 0.35 0.39 0.41 0.37 0.28 0.22 0.17 0.13 0.11 0.10 0.08 0.07 0.06 0.04 0.02 0.01 0.00 0.00 0.00 0.00 0.01 0.01 0.04 0.10 0.13 0.14 0.14 0.12 0.11
1.10 1.09 1.07 0.94 0.77 0.65 0.53 0.41 0.35 0.34 0.33 0.34 0.32 0.27 0.27 0.31 0.35 0.28 0.19 0.16 0.19 0.17 0.13 0.10 0.08 0.07 0.05 0.02 0.01 0.00 0.00 0.00 0.00 0.00 0.01 0.02 0.08 0.13 0.13 0.10 0.08 0.07 0.08
1.13 1.10 1.11 1.01 0.89 0.80 0.64 0.47 0.41 0.37 0.36 0.32 0.28 0.28 0.26 0.27 0.31 0.26 0.21 0.17 0.18 0.18 0.15 0.13 0.11 0.08 0.04 0.01 0.01 0.00 0.00 0.00 0.00 0.00 0.01 0.04 0.08 0.09 0.07 0.06 0.06 0.06 0.06
1.21 1.25 1.20 1.12 0.98 0.91 0.82 0.59 0.44 0.38 0.39 0.37 0.30 0.30 0.30 0.30 0.33 0.33 0.29 0.24 0.20 0.17 0.14 0.11 0.09 0.06 0.03 0.01 0.01 0.00 0.00 0.00 0.00 0.00 0.01 0.02 0.03 0.05 0.05 0.04 0.04 0.04 0.03
1.27 1.25 1.25 1.24 1.09 0.92 0.82 0.69 0.53 0.40 0.37 0.38 0.34 0.32 0.34 0.33 0.30 0.29 0.29 0.25 0.24 0.19 0.15 0.12 0.08 0.05 0.04 0.03 0.02 0.01 0.01 0.01 0.00 0.00 0.00 0.00 0.01 0.02 0.03 0.03 0.03 0.03 0.03
1.22 1.28 1.25 1.27 1.21 1.04 0.92 0.77 0.61 0.48 0.41 0.40 0.40 0.36 0.33 0.33 0.31 0.29 0.29 0.31 0.31 0.27 0.22 0.17 0.13 0.09 0.06 0.04 0.03 0.02 0.01 0.01 0.01 0.01 0.00 0.00 0.00 0.01 0.02 0.03 0.04 0.05 0.07
1.06 1.23 1.27 1.27 1.29 1.22 1.02 0.87 0.73 0.57 0.46 0.47 0.46 0.41 0.40 0.38 0.37 0.34 0.31 0.30 0.31 0.31 0.29 0.23 0.17 0.16 0.13 0.09 0.06 0.04 0.03 0.02 0.02 0.01 0.01 0.01 0.00 0.01 0.01 0.02 0.04 0.07 0.10
1.00 1.19 1.20 1.27 1.35 1.33 1.21 1.06 0.83 0.70 0.53 0.46 0.49 0.48 0.48 0.46 0.43 0.42 0.38 0.33 0.30 0.32 0.33 0.32 0.29 0.26 0.20 0.15 0.10 0.08 0.06 0.04 0.03 0.02 0.02 0.01 0.01 0.01 0.01 0.02 0.04 0.08 0.11
1.12 1.21 1.25 1.25 1.37 1.37 1.34 1.30 1.11 0.88 0.70 0.56 0.53 0.56 0.52 0.52 0.53 0.52 0.47 0.36 0.31 0.36 0.37 0.35 0.31 0.28 0.23 0.17 0.12 0.10 0.08 0.06 0.05 0.05 0.04 0.03 0.02 0.02 0.01 0.01 0.03 0.06 0.11
1.20 1.24 1.38 1.34 1.39 1.48 1.48 1.49 1.40 1.21 0.98 0.79 0.68 0.62 0.61 0.57 0.56 0.60 0.55 0.49 0.45 0.40 0.38 0.37 0.33 0.29 0.26 0.22 0.17 0.13 0.09 0.06 0.05 0.05 0.05 0.04 0.04 0.03 0.02 0.02 0.03 0.04 0.06
1.22 1.32 1.45 1.49 1.49 1.65 1.75 1.76 1.70 1.47 1.21 1.06 0.90 0.77 0.73 0.73 0.69 0.66 0.66 0.65 0.64 0.57 0.45 0.40 0.37 0.34 0.30 0.31 0.30 0.25 0.18 0.12 0.08 0.06 0.05 0.05 0.04 0.04 0.04 0.03 0.03 0.03 0.04
1.22 1.33 1.42 1.51 1.58 1.72 1.74 1.72 1.70 1.54 1.36 1.20 1.09 1.01 0.95 0.92 0.92 0.86 0.78 0.81 0.82 0.76 0.65 0.58 0.54 0.48 0.42 0.38 0.37 0.31 0.25 0.20 0.14 0.09 0.07 0.06 0.05 0.05 0.05 0.05 0.04 0.04 0.03
1.03 1.23 1.37 1.46 1.60 1.62 1.63 1.73 1.86 1.93 1.76 1.50 1.34 1.21 1.11 1.07 1.06 1.01 0.97 0.94 0.92 0.93 0.90 0.84 0.78 0.69 0.60 0.57 0.53 0.49 0.35 0.24 0.15 0.10 0.09 0.07 0.06 0.06 0.05 0.05 0.05 0.05 0.05
0.87 1.08 1.32 1.45 1.60 1.64 1.68 1.90 2.04 2.16 2.00 1.71 1.36 1.20 1.18 1.20 1.22 1.13 1.11 1.13 1.08 1.03 0.98 0.96 0.93 0.89 0.78 0.71 0.66 0.68 0.54 0.32 0.18 0.11 0.09 0.08 0.08 0.07 0.08 0.08 0.08 0.08 0.06
0.75 0.91 1.08 1.26 1.45 1.63 1.68 1.73 1.78 1.85 1.82 1.61 1.49 1.40 1.41 1.41 1.40 1.34 1.27 1.25 1.23 1.17 1.06 1.03 1.01 0.97 0.93 0.86 0.77 0.66 0.57 0.44 0.39 0.27 0.15 0.13 0.13 0.11 0.12 0.12 0.11 0.10 0.09
0.65 0.85 0.98 1.09 1.29 1.51 1.62 1.67 1.78 1.75 1.75 1.83 1.79 1.68 1.58 1.51 1.48 1.45 1.39 1.37 1.30 1.24 1.19 1.17 1.14 1.10 1.02 0.96 0.90 0.82 0.77 0.63 0.51 0.47 0.32 0.19 0.18 0.17 0.15 0.13 0.12 0.11 0.11
0.56 0.73 0.93 0.99 1.11 1.27 1.48 1.66 1.71 1.65 1.68 1.72 1.72 1.68 1.64 1.61 1.59 1.51 1.43 1.38 1.32 1.28 1.26 1.25 1.26 1.21 1.15 1.09 1.03 0.96 0.92 0.84 0.69 0.64 0.55 0.36 0.28 0.22 0.18 0.17 0.15 0.15 0.15

GEFSSE_prec_meanprecacc_126.txt.gz
Total_Precipitation_Accumulation
0.04 0.08 0.18 0.14 0.14 0.13 0.12 0.12 0.15 0.17 0.22 0.27 0.24 0.22 0.22 0.22 0.23 0.20 0.24 0.26 0.29 0.32 0.30 0.30 0.32 0.34 0.36 0.34 0.23 0.11 0.06 0.05 0.05 0.04 0.04 0.06 0.08 0.09 0.08 0.08 0.09 0.10 0.13
0.03 0.08 0.16 0.15 0.15 0.15 0.16 0.15 0.15 0.18 0.24 0.30 0.29 0.26 0.27 0.27 0.26 0.24 0.23 0.25 0.27 0.27 0.28 0.25 0.21 0.17 0.13 0.10 0.07 0.04 0.04 0.02 0.01 0.01 0.01 0.03 0.05 0.06 0.05 0.05 0.08 0.11 0.14
0.04 0.08 0.14 0.16 0.17 0.16 0.17 0.16 0.16 0.20 0.26 0.30 0.32 0.33 0.30 0.28 0.27 0.28 0.28 0.25 0.27 0.24 0.25 0.18 0.12 0.08 0.05 0.03 0.02 0.02 0.02 0.01 0.01 0.01 0.02 0.02 0.04 0.06 0.05 0.06 0.09 0.14 0.16
0.06 0.09 0.13 0.17 0.19 0.19 0.19 0.19 0.19 0.22 0.27 0.31 0.35 0.37 0.35 0.34 0.33 0.31 0.27 0.22 0.23 0.20 0.18 0.11 0.06 0.04 0.03 0.02 0.02 0.01 0.01 0.01 0.01 0.02 0.03 0.03 0.03 0.08 0.08 0.09 0.11 0.13 0.13
0.10 0.12 0.18 0.24 0.24 0.22 0.21 0.22 0.23 0.24 0.28 0.33 0.41 0.45 0.43 0.42 0.39 0.33 0.24 0.20 0.18 0.15 0.14 0.10 0.04 0.03 0.02 0.02 0.02 0.01 0.01 0.01 0.00 0.01 0.01 0.02 0.04 0.08 0.09 0.09 0.11 0.12 0.12
0.17 0.19 0.26 0.31 0.32 0.29 0.26 0.24 0.26 0.29 0.30 0.34 0.42 0.47 0.45 0.44 0.44 0.36 0.28 0.18 0.13 0.11 0.12 0.09 0.05 0.03 0.02 0.02 0.02 0.02 0.01 0.01 0.00 0.00 0.01 0.02 0.04 0.09 0.08 0.09 0.12 0.15 0.16
0.28 0.33 0.35 0.37 0.37 0.36 0.33 0.29 0.27 0.30 0.32 0.36 0.43 0.45 0.47 0.45 0.45 0.45 0.34 0.19 0.11 0.11 0.12 0.10 0.07 0.06 0.04 0.03 0.03 0.03 0.02 0.01 0.00 0.00 0.01 0.02 0.04 0.09 0.10 0.11 0.12 0.15 0.17
0.41 0.50 0.50 0.49 0.43 0.39 0.38 0.38 0.34 0.35 0.36 0.41 0.47 0.46 0.47 0.47 0.46 0.47 0.39 0.24 0.15 0.12 0.12 0.11 0.09 0.08 0.07 0.05 0.04 0.03 0.02 0.01 0.00 0.00 0.01 0.02 0.05 0.08 0.09 0.10 0.10 0.11 0.13
0.69 0.73 0.66 0.59 0.50 0.45 0.40 0.38 0.38 0.38 0.40 0.45 0.50 0.48 0.48 0.46 0.47 0.45 0.40 0.28 0.20 0.16 0.15 0.14 0.12 0.09 0.07 0.06 0.04 0.03 0.02 0.01 0.00 0.00 0.01 0.01 0.04 0.08 0.09 0.11 0.12 0.12 0.12
0.93 0.97 0.89 0.76 0.66 0.56 0.48 0.40 0.36 0.37 0.38 0.42 0.43 0.37 0.37 0.40 0.43 0.40 0.32 0.26 0.22 0.18 0.16 0.15 0.12 0.11 0.08 0.06 0.04 0.02 0.01 0.01 0.00 0.00 0.01 0.01 0.04 0.10 0.14 0.15 0.14 0.12 0.11
1.11 1.09 1.08 0.95 0.79 0.67 0.55 0.44 0.37 0.36 0.36 0.36 0.34 0.29 0.29 0.33 0.36 0.30 0.22 0.19 0.23 0.23 0.18 0.15 0.13 0.11 0.08 0.04 0.03 0.02 0.01 0.00 0.00 0.00 0.01 0.02 0.08 0.14 0.14 0.10 0.08 0.08 0.08
1.14 1.10 1.11 1.02 0.91 0.81 0.66 0.50 0.44 0.39 0.37 0.33 0.29 0.29 0.28 0.28 0.32 0.27 0.24 0.20 0.21 0.23 0.21 0.20 0.18 0.14 0.08 0.03 0.01 0.01 0.01 0.00 0.00 0.01 0.02 0.04 0.08 0.10 0.08 0.06 0.06 0.07 0.06
1.22 1.25 1.21 1.13 1.00 0.94 0.85 0.61 0.46 0.40 0.40 0.38 0.31 0.30 0.31 0.31 0.34 0.34 0.31 0.27 0.24 0.21 0.18 0.17 0.17 0.12 0.06 0.03 0.02 0.01 0.01 0.01 0.01 0.01 0.01 0.02 0.04 0.06 0.06 0.05 0.05 0.04 0.03
1.28 1.26 1.26 1.25 1.11 0.95 0.86 0.74 0.57 0.44 0.39 0.39 0.34 0.32 0.34 0.34 0.31 0.30 0.30 0.27 0.28 0.24 0.20 0.18 0.15 0.11 0.08 0.06 0.04 0.02 0.02 0.01 0.01 0.01 0.01 0.01 0.01 0.03 0.05 0.05 0.04 0.04 0.04
1.23 1.29 1.26 1.27 1.22 1.06 0.94 0.80 0.67 0.55 0.47 0.45 0.42 0.36 0.34 0.34 0.31 0.30 0.30 0.33 0.34 0.33 0.28 0.24 0.20 0.17 0.13 0.10 0.07 0.04 0.03 0.02 0.02 0.01 0.01 0.02 0.02 0.02 0.04 0.05 0.06 0.07 0.08
1.06 1.23 1.28 1.27 1.29 1.23 1.03 0.88 0.75 0.62 0.51 0.52 0.50 0.43 0.42 0.39 0.39 0.35 0.32 0.31 0.33 0.35 0.36 0.32 0.27 0.26 0.22 0.17 0.12 0.09 0.06 0.04 0.03 0.02 0.02 0.02 0.02 0.02 0.02 0.04 0.08 0.11 0.13
1.00 1.19 1.21 1.27 1.35 1.33 1.21 1.06 0.83 0.72 0.57 0.51 0.53 0.51 0.51 0.48 0.45 0.44 0.40 0.35 0.32 0.34 0.37 0.39 0.38 0.37 0.31 0.26 0.20 0.17 0.13 0.10 0.08 0.05 0.03 0.02 0.02 0.02 0.02 0.03 0.07 0.12 0.16
1.12 1.21 1.26 1.25 1.37 1.37 1.34 1.30 1.12 0.88 0.70 0.58 0.58 0.61 0.55 0.54 0.54 0.54 0.49 0.38 0.33 0.39 0.42 0.40 0.38 0.37 0.32 0.26 0.21 0.19 0.16 0.14 0.12 0.11 0.09 0.06 0.04 0.03 0.03 0.03 0.05 0.09 0.14
1.20 1.24 1.38 1.34 1.39 1.48 1.48 1.49 1.40 1.21 0.98 0.80 0.69 0.64 0.63 0.60 0.59 0.62 0.57 0.51 0.48 0.43 0.42 0.43 0.38 0.36 0.34 0.31 0.27 0.22 0.17 0.13 0.10 0.10 0.09 0.08 0.06 0.05 0.04 0.04 0.05 0.07 0.10
1.22 1.32 1.45 1.49 1.49 1.65 1.75 1.76 1.70 1.47 1.21 1.07 0.90 0.78 0.74 0.75 0.72 0.69 0.68 0.67 0.68 0.61 0.50 0.46 0.44 0.41 0.37 0.38 0.40 0.35 0.28 0.21 0.15 0.11 0.09 0.08 0.07 0.07 0.06 0.05 0.05 0.05 0.07
1.22 1.33 1.42 1.51 1.58 1.72 1.74 1.72 1.70 1.54 1.36 1.21 1.10 1.01 0.96 0.93 0.95 0.89 0.82 0.85 0.86 0.80 0.70 0.64 0.61 0.58 0.53 0.52 0.52 0.44 0.36 0.32 0.26 0.19 0.15 0.12 0.09 0.08 0.08 0.07 0.06 0.05 0.05
1.03 1.23 1.37 1.46 1.60 1.62 1.63 1.73 1.86 1.93 1.76 1.50 1.35 1.22 1.11 1.08 1.08 1.04 1.01 0.98 0.97 0.97 0.96 0.92 0.88 0.83 0.76 0.75 0.74 0.69 0.53 0.39 0.28 0.20 0.18 0.17 0.15 0.14 0.11 0.10 0.09 0.08 0.07
0.87 1.08 1.32 1.45 1.60 1.64 1.68 1.90 2.04 2.16 2.00 1.72 1.37 1.21 1.19 1.22 1.24 1.15 1.12 1.16 1.11 1.06 1.03 1.02 1.01 0.98 0.93 0.89 0.87 0.91 0.75 0.51 0.33 0.23 0.19 0.17 0.17 0.16 0.16 0.16 0.15 0.13 0.10
0.75 0.91 1.08 1.26 1.45 1.63 1.68 1.73 1.78 1.85 1.82 1.61 1.49 1.41 1.42 1.43 1.42 1.36 1.29 1.28 1.25 1.20 1.10 1.09 1.07 1.02 0.99 0.94 0.90 0.82 0.74 0.60 0.53 0.38 0.23 0.21 0.21 0.20 0.21 0.21 0.21 0.20 0.19
0.65 0.85 0.98 1.09 1.29 1.51 1.62 1.67 1.78 1.75 1.75 1.83 1.79 1.69 1.60 1.55 1.51 1.46 1.41 1.38 1.32 1.26 1.21 1.21 1.18 1.15 1.08 1.02 0.97 0.91 0.88 0.75 0.61 0.57 0.41 0.27 0.27 0.26 0.25 0.24 0.24 0.24 0.24
0.56 0.73 0.93 0.99 1.11 1.27 1.48 1.66 1.71 1.65 1.68 1.72 1.72 1.68 1.67 1.66 1.62 1.52 1.44 1.39 1.33 1.30 1.28 1.27 1.30 1.26 1.20 1.14 1.09 1.02 1.01 0.94 0.79 0.74 0.64 0.42 0.35 0.29 0.27 0.27 0.27 0.28 0.28

GEFSSE_prec_meanprecacc_132.txt.gz
Total_Precipitation_Accumulation
0.05 0.09 0.19 0.17 0.18 0.16 0.15 0.15 0.17 0.19 0.25 0.31 0.28 0.24 0.23 0.23 0.23 0.21 0.25 0.27 0.30 0.33 0.30 0.30 0.32 0.34 0.36 0.34 0.24 0.12 0.08 0.07 0.05 0.04 0.05 0.07 0.08 0.10 0.09 0.09 0.10 0.11 0.14
0.03 0.08 0.17 0.17 0.18 0.18 0.19 0.18 0.17 0.19 0.26 0.33 0.33 0.30 0.29 0.30 0.28 0.26 0.25 0.27 0.28 0.28 0.28 0.26 0.21 0.17 0.14 0.11 0.07 0.05 0.04 0.03 0.01 0.01 0.01 0.03 0.06 0.07 0.06 0.06 0.08 0.12 0.16
0.05 0.09 0.16 0.18 0.19 0.19 0.19 0.18 0.17 0.21 0.27 0.32 0.35 0.38 0.35 0.33 0.31 0.31 0.32 0.28 0.30 0.26 0.26 0.19 0.13 0.09 0.06 0.03 0.02 0.03 0.02 0.01 0.01 0.01 0.02 0.03 0.04 0.07 0.06 0.06 0.10 0.15 0.17
0.06 0.09 0.13 0.19 0.21 0.21 0.21 0.21 0.20 0.23 0.29 0.33 0.37 0.40 0.38 0.38 0.38 0.35 0.33 0.28 0.27 0.22 0.19 0.12 0.07 0.06 0.04 0.02 0.02 0.02 0.01 0.01 0.01 0.02 0.03 0.03 0.04 0.08 0.09 0.09 0.12 0.14 0.14
0.10 0.12 0.19 0.25 0.26 0.25 0.23 0.24 0.25 0.26 0.30 0.36 0.43 0.47 0.45 0.45 0.43 0.38 0.31 0.25 0.22 0.17 0.16 0.11 0.05 0.04 0.03 0.02 0.02 0.02 0.02 0.01 0.00 0.01 0.01 0.02 0.04 0.09 0.10 0.10 0.12 0.13 0.13
0.17 0.20 0.27 0.32 0.34 0.32 0.28 0.25 0.28 0.31 0.32 0.36 0.44 0.48 0.47 0.46 0.48 0.41 0.33 0.24 0.18 0.15 0.14 0.11 0.07 0.05 0.04 0.03 0.03 0.02 0.02 0.01 0.00 0.00 0.01 0.02 0.04 0.09 0.10 0.10 0.12 0.16 0.18
0.28 0.34 0.36 0.39 0.39 0.40 0.38 0.33 0.30 0.32 0.35 0.39 0.45 0.46 0.49 0.47 0.48 0.48 0.38 0.23 0.15 0.14 0.15 0.12 0.09 0.08 0.06 0.05 0.04 0.04 0.03 0.01 0.00 0.00 0.01 0.02 0.05 0.09 0.11 0.12 0.13 0.15 0.18
0.43 0.51 0.51 0.51 0.45 0.42 0.41 0.43 0.38 0.37 0.38 0.43 0.50 0.48 0.50 0.49 0.48 0.49 0.42 0.28 0.18 0.16 0.17 0.15 0.13 0.11 0.09 0.07 0.06 0.05 0.03 0.01 0.00 0.00 0.01 0.02 0.05 0.08 0.10 0.11 0.11 0.12 0.13
0.71 0.74 0.67 0.60 0.51 0.46 0.42 0.41 0.42 0.42 0.43 0.47 0.52 0.50 0.50 0.48 0.48 0.47 0.41 0.30 0.24 0.21 0.21 0.20 0.17 0.13 0.11 0.10 0.07 0.04 0.03 0.01 0.00 0.00 0.01 0.01 0.04 0.08 0.10 0.11 0.13 0.13 0.13
0.94 0.97 0.90 0.77 0.67 0.57 0.50 0.41 0.39 0.41 0.41 0.44 0.44 0.38 0.38 0.41 0.44 0.41 0.32 0.27 0.24 0.21 0.21 0.20 0.18 0.16 0.13 0.10 0.07 0.04 0.03 0.01 0.01 0.01 0.01 0.01 0.04 0.11 0.14 0.15 0.15 0.13 0.12
1.12 1.10 1.09 0.97 0.81 0.68 0.56 0.45 0.39 0.38 0.38 0.38 0.36 0.30 0.30 0.34 0.38 0.32 0.23 0.20 0.24 0.25 0.22 0.20 0.19 0.17 0.13 0.08 0.06 0.04 0.02 0.01 0.01 0.01 0.01 0.02 0.08 0.14 0.14 0.11 0.09 0.08 0.09
1.15 1.11 1.13 1.04 0.94 0.84 0.67 0.51 0.46 0.42 0.39 0.35 0.30 0.30 0.28 0.29 0.33 0.28 0.26 0.22 0.22 0.24 0.23 0.23 0.23 0.21 0.16 0.09 0.06 0.05 0.04 0.03 0.02 0.01 0.02 0.05 0.08 0.10 0.09 0.07 0.07 0.08 0.07
1.23 1.27 1.22 1.15 1.03 0.97 0.88 0.64 0.49 0.44 0.43 0.40 0.32 0.31 0.31 0.32 0.35 0.35 0.32 0.28 0.25 0.22 0.20 0.20 0.21 0.18 0.14 0.11 0.09 0.07 0.06 0.05 0.03 0.02 0.02 0.03 0.04 0.07 0.07 0.07 0.06 0.06 0.05
1.29 1.27 1.27 1.27 1.13 0.97 0.89 0.76 0.60 0.48 0.44 0.43 0.37 0.32 0.35 0.34 0.32 0.31 0.30 0.28 0.29 0.25 0.22 0.20 0.18 0.15 0.14 0.12 0.10 0.09 0.08 0.06 0.04 0.03 0.02 0.02 0.02 0.04 0.07 0.08 0.07 0.06 0.06
1.25 1.30 1.27 1.28 1.23 1.07 0.96 0.83 0.70 0.58 0.50 0.49 0.45 0.39 0.35 0.35 0.32 0.30 0.30 0.33 0.35 0.34 0.30 0.25 0.23 0.20 0.18 0.16 0.13 0.10 0.10 0.08 0.05 0.04 0.03 0.03 0.03 0.03 0.05 0.08 0.10 0.11 0.12
1.08 1.24 1.28 1.28 1.30 1.24 1.04 0.90 0.77 0.64 0.54 0.56 0.54 0.46 0.45 0.41 0.40 0.37 0.33 0.32 0.34 0.35 0.36 0.33 0.30 0.29 0.26 0.23 0.18 0.15 0.12 0.12 0.10 0.06 0.04 0.03 0.03 0.03 0.03 0.06 0.11 0.16 0.18
1.01 1.20 1.21 1.27 1.35 1.34 1.22 1.07 0.85 0.74 0.60 0.54 0.56 0.55 0.54 0.51 0.48 0.45 0.41 0.36 0.33 0.35 0.38 0.40 0.40 0.40 0.35 0.30 0.25 0.23 0.21 0.18 0.17 0.15 0.10 0.07 0.05 0.04 0.03 0.04 0.09 0.16 0.21
1.13 1.21 1.26 1.25 1.37 1.37 1.35 1.31 1.12 0.89 0.72 0.60 0.60 0.64 0.59 0.58 0.57 0.55 0.49 0.38 0.33 0.39 0.42 0.41 0.39 0.39 0.34 0.29 0.24 0.24 0.24 0.23 0.21 0.21 0.19 0.16 0.12 0.09 0.06 0.05 0.06 0.12 0.19
1.20 1.24 1.38 1.34 1.40 1.48 1.48 1.49 1.40 1.22 0.98 0.80 0.69 0.65 0.64 0.63 0.63 0.65 0.59 0.53 0.49 0.44 0.43 0.44 0.39 0.37 0.36 0.34 0.31 0.27 0.24 0.22 0.20 0.20 0.19 0.16 0.13 0.10 0.09 0.08 0.08 0.09 0.13
1.23 1.32 1.46 1.49 1.50 1.66 1.75 1.76 1.70 1.47 1.21 1.07 0.90 0.78 0.74 0.75 0.73 0.72 0.72 0.71 0.70 0.63 0.51 0.47 0.45 0.43 0.40 0.43 0.45 0.41 0.35 0.29 0.26 0.23 0.21 0.18 0.14 0.12 0.11 0.10 0.10 0.09 0.09
1.22 1.33 1.42 1.52 1.58 1.72 1.75 1.72 1.71 1.54 1.36 1.21 1.10 1.01 0.96 0.93 0.95 0.90 0.83 0.88 0.90 0.84 0.73 0.67 0.64 0.61 0.57 0.57 0.58 0.50 0.43 0.40 0.37 0.31 0.27 0.25 0.21 0.18 0.15 0.14 0.12 0.11 0.09
1.03 1.23 1.37 1.46 1.60 1.62 1.63 1.73 1.86 1.93 1.76 1.50 1.35 1.22 1.12 1.08 1.08 1.05 1.02 1.00 1.00 1.01 0.99 0.94 0.91 0.86 0.80 0.80 0.79 0.75 0.59 0.45 0.35 0.31 0.31 0.30 0.28 0.26 0.23 0.21 0.18 0.15 0.13
0.87 1.09 1.32 1.45 1.60 1.64 1.68 1.90 2.04 2.16 2.00 1.72 1.37 1.21 1.19 1.22 1.24 1.15 1.13 1.16 1.12 1.08 1.05 1.04 1.04 1.02 0.96 0.92 0.91 0.96 0.81 0.56 0.38 0.29 0.26 0.27 0.29 0.29 0.29 0.30 0.30 0.27 0.21
0.75 0.91 1.08 1.26 1.45 1.63 1.68 1.73 1.78 1.85 1.82 1.61 1.49 1.41 1.42 1.43 1.42 1.36 1.29 1.28 1.26 1.21 1.11 1.10 1.09 1.05 1.02 0.97 0.94 0.86 0.79 0.64 0.58 0.43 0.29 0.27 0.29 0.28 0.30 0.32 0.35 0.36 0.35
0.65 0.85 0.98 1.09 1.29 1.51 1.62 1.67 1.78 1.75 1.75 1.83 1.79 1.69 1.60 1.55 1.51 1.46 1.41 1.39 1.32 1.26 1.22 1.22 1.20 1.17 1.11 1.05 1.00 0.94 0.92 0.79 0.65 0.61 0.45 0.32 0.32 0.33 0.34 0.35 0.37 0.38 0.40
0.56 0.73 0.93 0.99 1.11 1.27 1.48 1.66 1.71 1.65 1.68 1.72 1.72 1.68 1.67 1.66 1.62 1.52 1.44 1.39 1.33 1.30 1.28 1.28 1.31 1.27 1.23 1.18 1.13 1.07 1.06 1.00 0.85 0.79 0.69 0.46 0.39 0.35 0.34 0.35 0.35 0.37 0.38

GEFSSE_prec_meanprecacc_138.txt.gz
Total_Precipitation_Accumulation
0.05 0.09 0.19 0.18 0.19 0.18 0.17 0.17 0.18 0.21 0.26 0.32 0.29 0.25 0.25 0.25 0.25 0.22 0.27 0.29 0.31 0.34 0.30 0.31 0.32 0.34 0.37 0.35 0.24 0.13 0.08 0.07 0.05 0.04 0.06 0.07 0.09 0.10 0.10 0.10 0.12 0.13 0.15
0.04 0.08 0.17 0.17 0.19 0.19 0.20 0.19 0.18 0.21 0.27 0.34 0.34 0.32 0.32 0.32 0.30 0.28 0.27 0.29 0.30 0.30 0.30 0.27 0.22 0.18 0.14 0.11 0.08 0.05 0.04 0.03 0.01 0.01 0.01 0.03 0.06 0.08 0.06 0.06 0.09 0.14 0.16
0.05 0.10 0.16 0.19 0.21 0.20 0.20 0.18 0.18 0.22 0.28 0.33 0.36 0.39 0.37 0.35 0.34 0.34 0.35 0.32 0.33 0.29 0.29 0.21 0.15 0.10 0.07 0.04 0.03 0.03 0.02 0.01 0.01 0.01 0.02 0.03 0.05 0.07 0.07 0.07 0.10 0.16 0.18
0.06 0.10 0.14 0.19 0.22 0.22 0.21 0.21 0.21 0.24 0.29 0.34 0.38 0.41 0.39 0.39 0.40 0.38 0.36 0.31 0.30 0.25 0.22 0.15 0.10 0.07 0.05 0.03 0.03 0.02 0.02 0.01 0.01 0.02 0.03 0.04 0.05 0.09 0.10 0.10 0.13 0.15 0.15
0.11 0.12 0.19 0.25 0.27 0.26 0.24 0.24 0.25 0.26 0.31 0.36 0.44 0.48 0.46 0.46 0.45 0.40 0.33 0.28 0.24 0.20 0.18 0.13 0.08 0.06 0.04 0.03 0.03 0.02 0.02 0.01 0.01 0.01 0.01 0.02 0.05 0.09 0.10 0.10 0.12 0.14 0.13
0.18 0.20 0.27 0.33 0.35 0.33 0.29 0.26 0.29 0.32 0.33 0.37 0.45 0.49 0.48 0.47 0.49 0.42 0.35 0.25 0.19 0.16 0.16 0.13 0.09 0.08 0.05 0.04 0.04 0.03 0.03 0.02 0.00 0.00 0.01 0.02 0.04 0.10 0.10 0.11 0.13 0.17 0.18
0.29 0.34 0.36 0.39 0.40 0.41 0.40 0.34 0.30 0.32 0.35 0.39 0.46 0.47 0.50 0.48 0.49 0.50 0.39 0.24 0.16 0.15 0.17 0.15 0.13 0.11 0.09 0.06 0.06 0.05 0.04 0.01 0.00 0.01 0.02 0.03 0.05 0.10 0.11 0.12 0.13 0.16 0.19
0.43 0.51 0.52 0.51 0.46 0.43 0.42 0.45 0.40 0.38 0.39 0.45 0.52 0.49 0.50 0.51 0.49 0.50 0.43 0.29 0.19 0.17 0.17 0.17 0.15 0.14 0.13 0.10 0.08 0.07 0.05 0.02 0.00 0.00 0.02 0.03 0.05 0.08 0.10 0.11 0.11 0.13 0.14
0.72 0.75 0.68 0.61 0.52 0.47 0.43 0.43 0.44 0.44 0.44 0.49 0.54 0.52 0.50 0.48 0.49 0.47 0.42 0.31 0.25 0.21 0.22 0.21 0.19 0.16 0.14 0.13 0.10 0.07 0.05 0.02 0.01 0.01 0.01 0.02 0.04 0.08 0.10 0.11 0.13 0.13 0.14
0.96 1.00 0.92 0.79 0.69 0.58 0.51 0.42 0.40 0.43 0.42 0.45 0.45 0.39 0.38 0.41 0.44 0.41 0.32 0.27 0.24 0.22 0.22 0.21 0.19 0.18 0.16 0.13 0.10 0.07 0.05 0.03 0.02 0.02 0.02 0.02 0.05 0.11 0.15 0.15 0.15 0.13 0.12
1.13 1.12 1.11 1.00 0.84 0.71 0.58 0.46 0.41 0.40 0.39 0.39 0.37 0.30 0.30 0.34 0.39 0.32 0.23 0.20 0.24 0.25 0.23 0.20 0.20 0.19 0.16 0.11 0.09 0.07 0.06 0.04 0.03 0.03 0.03 0.04 0.09 0.15 0.15 0.11 0.09 0.09 0.10
1.17 1.14 1.16 1.07 0.98 0.88 0.71 0.54 0.50 0.45 0.41 0.36 0.32 0.31 0.30 0.31 0.35 0.29 0.26 0.22 0.23 0.25 0.23 0.24 0.24 0.22 0.18 0.12 0.10 0.09 0.08 0.05 0.05 0.04 0.04 0.07 0.10 0.12 0.10 0.08 0.08 0.08 0.08
1.27 1.30 1.26 1.20 1.07 1.02 0.94 0.68 0.52 0.48 0.47 0.45 0.36 0.33 0.34 0.35 0.38 0.37 0.33 0.29 0.26 0.22 0.21 0.21 0.23 0.19 0.17 0.15 0.13 0.12 0.10 0.10 0.09 0.07 0.06 0.06 0.07 0.09 0.10 0.08 0.07 0.07 0.06
1.35 1.33 1.32 1.32 1.18 1.03 0.96 0.83 0.65 0.52 0.48 0.47 0.42 0.36 0.38 0.39 0.36 0.34 0.31 0.28 0.29 0.26 0.23 0.22 0.21 0.18 0.16 0.15 0.15 0.14 0.13 0.12 0.11 0.09 0.09 0.09 0.07 0.08 0.10 0.10 0.10 0.08 0.08
1.30 1.35 1.32 1.33 1.26 1.10 0.99 0.87 0.74 0.62 0.54 0.54 0.51 0.44 0.40 0.39 0.36 0.32 0.31 0.33 0.35 0.34 0.31 0.27 0.24 0.23 0.21 0.19 0.16 0.15 0.15 0.15 0.13 0.12 0.11 0.10 0.08 0.08 0.09 0.11 0.13 0.14 0.15
1.13 1.29 1.33 1.33 1.34 1.27 1.07 0.92 0.79 0.67 0.57 0.59 0.57 0.50 0.50 0.47 0.45 0.40 0.36 0.33 0.34 0.36 0.37 0.35 0.32 0.31 0.28 0.25 0.21 0.18 0.16 0.17 0.17 0.15 0.13 0.12 0.10 0.08 0.08 0.10 0.15 0.20 0.23
1.06 1.24 1.24 1.31 1.39 1.37 1.25 1.09 0.86 0.76 0.62 0.56 0.59 0.58 0.57 0.54 0.51 0.49 0.46 0.40 0.36 0.38 0.41 0.42 0.42 0.42 0.37 0.32 0.27 0.25 0.23 0.23 0.22 0.22 0.20 0.17 0.14 0.11 0.10 0.10 0.15 0.23 0.28
1.18 1.25 1.28 1.27 1.39 1.39 1.36 1.32 1.14 0.91 0.74 0.62 0.63 0.67 0.62 0.60 0.59 0.58 0.53 0.43 0.37 0.43 0.45 0.43 0.41 0.41 0.36 0.31 0.26 0.25 0.25 0.25 0.25 0.26 0.29 0.29 0.26 0.20 0.15 0.11 0.12 0.17 0.25
1.24 1.27 1.40 1.36 1.41 1.50 1.49 1.49 1.40 1.23 1.00 0.82 0.71 0.66 0.66 0.64 0.65 0.68 0.63 0.57 0.53 0.47 0.46 0.46 0.41 0.39 0.38 0.36 0.33 0.28 0.25 0.23 0.23 0.24 0.25 0.27 0.29 0.27 0.20 0.15 0.14 0.15 0.19
1.26 1.34 1.47 1.50 1.51 1.67 1.76 1.77 1.71 1.48 1.22 1.08 0.92 0.79 0.75 0.76 0.74 0.73 0.74 0.73 0.73 0.67 0.55 0.51 0.48 0.45 0.42 0.44 0.47 0.42 0.36 0.32 0.28 0.26 0.26 0.25 0.24 0.25 0.23 0.19 0.17 0.15 0.15
1.25 1.35 1.44 1.52 1.59 1.73 1.75 1.73 1.71 1.54 1.37 1.22 1.11 1.01 0.96 0.93 0.95 0.91 0.84 0.89 0.91 0.84 0.75 0.69 0.67 0.63 0.58 0.58 0.59 0.51 0.44 0.42 0.39 0.34 0.33 0.33 0.31 0.30 0.28 0.25 0.22 0.19 0.16
1.06 1.25 1.38 1.47 1.61 1.63 1.64 1.74 1.87 1.94 1.77 1.51 1.35 1.22 1.12 1.09 1.09 1.05 1.02 1.00 1.00 1.01 1.00 0.96 0.92 0.87 0.81 0.81 0.81 0.78 0.61 0.46 0.37 0.33 0.34 0.35 0.35 0.35 0.33 0.30 0.26 0.24 0.21
0.89 1.10 1.33 1.46 1.60 1.64 1.68 1.90 2.05 2.17 2.01 1.73 1.38 1.22 1.20 1.23 1.24 1.15 1.13 1.16 1.12 1.08 1.05 1.05 1.04 1.02 0.96 0.93 0.93 0.98 0.84 0.58 0.40 0.31 0.28 0.29 0.33 0.35 0.36 0.38 0.39 0.36 0.30
0.76 0.92 1.08 1.26 1.46 1.63 1.69 1.73 1.78 1.85 1.82 1.61 1.50 1.41 1.43 1.44 1.43 1.36 1.29 1.28 1.26 1.21 1.11 1.10 1.09 1.05 1.03 0.98 0.95 0.88 0.81 0.66 0.61 0.46 0.31 0.29 0.32 0.33 0.36 0.40 0.43 0.45 0.45
0.65 0.86 0.99 1.10 1.29 1.51 1.62 1.67 1.78 1.75 1.75 1.83 1.79 1.69 1.60 1.55 1.52 1.46 1.41 1.39 1.32 1.26 1.22 1.23 1.20 1.18 1.11 1.06 1.01 0.95 0.93 0.80 0.67 0.64 0.48 0.34 0.35 0.36 0.38 0.42 0.45 0.47 0.48
0.56 0.74 0.94 1.00 1.11 1.27 1.48 1.66 1.71 1.65 1.68 1.72 1.72 1.68 1.67 1.66 1.62 1.52 1.44 1.39 1.33 1.30 1.28 1.28 1.31 1.28 1.23 1.18 1.13 1.07 1.07 1.01 0.86 0.81 0.72 0.51 0.43 0.39 0.38 0.40 0.42 0.44 0.47

GEFSSE_prec_meanprecacc_144.txt.gz
Total_Precipitation_Accumulation
0.06 0.09 0.20 0.18 0.19 0.18 0.17 0.17 0.18 0.21 0.27 0.32 0.29 0.25 0.25 0.26 0.26 0.23 0.28 0.30 0.32 0.34 0.32 0.32 0.34 0.35 0.37 0.35 0.25 0.13 0.08 0.07 0.05 0.05 0.06 0.08 0.09 0.11 0.10 0.11 0.12 0.13 0.16
0.05 0.09 0.18 0.18 0.19 0.19 0.20 0.19 0.18 0.21 0.27 0.34 0.34 0.33 0.32 0.33 0.31 0.29 0.28 0.30 0.32 0.31 0.32 0.29 0.25 0.20 0.16 0.12 0.08 0.05 0.05 0.03 0.01 0.01 0.02 0.03 0.06 0.08 0.07 0.07 0.10 0.14 0.17
0.06 0.10 0.17 0.19 0.21 0.20 0.20 0.19 0.18 0.22 0.29 0.33 0.36 0.40 0.38 0.35 0.34 0.35 0.36 0.33 0.35 0.31 0.31 0.24 0.18 0.14 0.10 0.06 0.04 0.03 0.03 0.01 0.01 0.01 0.02 0.03 0.05 0.08 0.07 0.07 0.11 0.17 0.19
0.07 0.10 0.14 0.20 0.22 0.22 0.22 0.22 0.21 0.24 0.29 0.34 0.38 0.41 0.39 0.39 0.40 0.39 0.37 0.32 0.32 0.27 0.24 0.17 0.13 0.11 0.08 0.06 0.05 0.03 0.02 0.01 0.01 0.02 0.03 0.04 0.05 0.10 0.10 0.10 0.13 0.15 0.15
0.11 0.13 0.20 0.26 0.27 0.26 0.24 0.25 0.26 0.27 0.31 0.37 0.44 0.48 0.46 0.46 0.46 0.41 0.34 0.29 0.24 0.20 0.19 0.15 0.09 0.08 0.06 0.05 0.04 0.03 0.03 0.02 0.01 0.01 0.01 0.02 0.05 0.10 0.11 0.11 0.13 0.15 0.14
0.18 0.21 0.28 0.33 0.36 0.33 0.29 0.26 0.29 0.32 0.33 0.37 0.45 0.50 0.49 0.48 0.50 0.43 0.36 0.25 0.19 0.17 0.17 0.14 0.10 0.09 0.07 0.05 0.05 0.05 0.04 0.03 0.01 0.01 0.01 0.02 0.04 0.10 0.10 0.11 0.14 0.17 0.19
0.29 0.35 0.37 0.40 0.41 0.42 0.40 0.34 0.30 0.33 0.36 0.39 0.46 0.47 0.50 0.48 0.49 0.50 0.40 0.24 0.16 0.16 0.17 0.15 0.13 0.12 0.10 0.08 0.08 0.08 0.07 0.04 0.01 0.01 0.02 0.03 0.05 0.10 0.12 0.13 0.14 0.17 0.19
0.44 0.52 0.52 0.53 0.47 0.44 0.43 0.45 0.40 0.39 0.40 0.45 0.52 0.50 0.50 0.51 0.50 0.51 0.43 0.29 0.20 0.17 0.18 0.18 0.16 0.15 0.14 0.11 0.10 0.10 0.09 0.05 0.02 0.01 0.02 0.03 0.05 0.09 0.11 0.12 0.13 0.14 0.15
0.73 0.76 0.69 0.62 0.53 0.48 0.44 0.44 0.45 0.44 0.44 0.50 0.55 0.52 0.51 0.48 0.49 0.48 0.42 0.31 0.25 0.22 0.23 0.22 0.20 0.17 0.15 0.14 0.12 0.10 0.08 0.05 0.03 0.02 0.02 0.02 0.05 0.09 0.11 0.13 0.14 0.14 0.15
0.99 1.01 0.93 0.80 0.70 0.60 0.53 0.43 0.41 0.43 0.42 0.45 0.45 0.39 0.38 0.41 0.45 0.41 0.32 0.27 0.24 0.22 0.22 0.21 0.20 0.19 0.17 0.14 0.11 0.09 0.07 0.05 0.03 0.03 0.03 0.03 0.06 0.12 0.16 0.18 0.17 0.15 0.13
1.17 1.14 1.13 1.01 0.86 0.73 0.60 0.47 0.42 0.41 0.39 0.39 0.37 0.30 0.30 0.34 0.39 0.32 0.23 0.20 0.24 0.25 0.23 0.21 0.20 0.20 0.17 0.11 0.09 0.08 0.07 0.05 0.04 0.04 0.04 0.06 0.11 0.18 0.18 0.15 0.13 0.12 0.12
1.20 1.17 1.18 1.09 1.00 0.91 0.73 0.56 0.52 0.47 0.42 0.36 0.32 0.31 0.30 0.31 0.35 0.29 0.26 0.22 0.23 0.25 0.24 0.24 0.24 0.23 0.20 0.14 0.11 0.10 0.08 0.06 0.06 0.05 0.06 0.09 0.13 0.16 0.15 0.13 0.12 0.12 0.12
1.32 1.34 1.29 1.22 1.11 1.06 0.98 0.72 0.55 0.50 0.49 0.45 0.37 0.34 0.35 0.36 0.38 0.37 0.33 0.29 0.26 0.22 0.21 0.21 0.23 0.20 0.18 0.17 0.15 0.13 0.11 0.11 0.09 0.08 0.08 0.08 0.10 0.14 0.16 0.16 0.15 0.14 0.12
1.42 1.40 1.37 1.36 1.23 1.09 1.01 0.89 0.71 0.56 0.50 0.49 0.43 0.38 0.40 0.40 0.37 0.34 0.31 0.28 0.29 0.26 0.23 0.22 0.21 0.18 0.17 0.17 0.17 0.16 0.14 0.13 0.11 0.10 0.10 0.11 0.10 0.13 0.17 0.19 0.19 0.18 0.16
1.37 1.44 1.41 1.40 1.32 1.16 1.07 0.95 0.83 0.70 0.60 0.58 0.55 0.48 0.43 0.42 0.38 0.34 0.31 0.33 0.35 0.34 0.31 0.27 0.24 0.23 0.21 0.20 0.18 0.17 0.18 0.17 0.15 0.13 0.12 0.12 0.11 0.11 0.14 0.19 0.23 0.25 0.25
1.18 1.35 1.40 1.40 1.41 1.34 1.14 1.00 0.88 0.75 0.64 0.64 0.61 0.54 0.54 0.51 0.49 0.44 0.39 0.35 0.35 0.36 0.37 0.35 0.32 0.31 0.28 0.25 0.22 0.20 0.18 0.19 0.19 0.18 0.16 0.15 0.12 0.11 0.11 0.16 0.23 0.30 0.33
1.10 1.29 1.30 1.37 1.45 1.42 1.31 1.16 0.93 0.83 0.69 0.61 0.62 0.61 0.60 0.57 0.54 0.52 0.48 0.43 0.39 0.40 0.42 0.43 0.44 0.44 0.38 0.32 0.28 0.26 0.24 0.24 0.24 0.23 0.22 0.20 0.17 0.14 0.14 0.16 0.22 0.32 0.39
1.21 1.30 1.34 1.32 1.45 1.45 1.42 1.39 1.20 0.97 0.80 0.68 0.67 0.70 0.66 0.63 0.62 0.60 0.55 0.46 0.41 0.49 0.51 0.48 0.45 0.44 0.38 0.32 0.27 0.26 0.25 0.25 0.25 0.27 0.30 0.31 0.27 0.23 0.19 0.17 0.18 0.26 0.35
1.28 1.32 1.46 1.42 1.46 1.55 1.56 1.56 1.47 1.29 1.05 0.87 0.75 0.70 0.69 0.66 0.66 0.69 0.64 0.59 0.54 0.48 0.49 0.52 0.48 0.43 0.40 0.37 0.33 0.29 0.25 0.24 0.23 0.24 0.25 0.28 0.30 0.30 0.27 0.24 0.23 0.23 0.30
1.30 1.38 1.52 1.55 1.56 1.71 1.80 1.82 1.77 1.52 1.26 1.11 0.94 0.81 0.76 0.78 0.75 0.74 0.75 0.74 0.74 0.67 0.56 0.52 0.50 0.47 0.43 0.45 0.47 0.43 0.37 0.32 0.29 0.27 0.26 0.26 0.25 0.26 0.26 0.23 0.22 0.22 0.24
1.29 1.39 1.48 1.57 1.63 1.77 1.78 1.77 1.76 1.59 1.40 1.24 1.12 1.03 0.97 0.95 0.97 0.92 0.86 0.90 0.91 0.85 0.75 0.70 0.67 0.63 0.59 0.58 0.59 0.51 0.44 0.42 0.39 0.34 0.33 0.34 0.32 0.31 0.29 0.27 0.24 0.22 0.20
1.11 1.28 1.41 1.51 1.65 1.66 1.66 1.77 1.90 1.98 1.80 1.52 1.37 1.24 1.14 1.10 1.10 1.06 1.03 1.01 1.01 1.02 1.00 0.96 0.93 0.87 0.81 0.81 0.81 0.78 0.62 0.47 0.37 0.33 0.34 0.36 0.35 0.35 0.33 0.31 0.28 0.26 0.23
0.97 1.14 1.36 1.50 1.65 1.67 1.71 1.92 2.07 2.19 2.03 1.73 1.39 1.23 1.22 1.25 1.26 1.17 1.15 1.18 1.13 1.09 1.05 1.05 1.04 1.02 0.96 0.93 0.93 0.98 0.84 0.58 0.40 0.32 0.29 0.30 0.33 0.35 0.36 0.38 0.40 0.38 0.33
0.86 1.00 1.12 1.30 1.50 1.67 1.71 1.75 1.80 1.87 1.83 1.62 1.50 1.42 1.44 1.45 1.44 1.38 1.31 1.30 1.27 1.22 1.12 1.10 1.09 1.05 1.03 0.98 0.95 0.88 0.81 0.66 0.61 0.46 0.32 0.30 0.32 0.33 0.36 0.40 0.44 0.47 0.47
0.75 0.96 1.05 1.14 1.33 1.54 1.65 1.69 1.80 1.76 1.76 1.84 1.80 1.69 1.61 1.56 1.53 1.48 1.43 1.40 1.33 1.27 1.22 1.23 1.20 1.18 1.11 1.06 1.01 0.95 0.93 0.80 0.67 0.65 0.48 0.34 0.35 0.36 0.38 0.42 0.45 0.48 0.50
0.63 0.82 1.02 1.05 1.15 1.29 1.50 1.68 1.73 1.66 1.68 1.72 1.73 1.69 1.68 1.67 1.63 1.54 1.45 1.40 1.34 1.30 1.28 1.28 1.31 1.28 1.23 1.18 1.13 1.07 1.07 1.01 0.86 0.82 0.73 0.51 0.43 0.39 0.38 0.40 0.42 0.45 0.48

GEFSSE_prec_meanprecacc_150.txt.gz
Total_Precipitation_Accumulation
0.06 0.10 0.21 0.20 0.20 0.19 0.18 0.18 0.19 0.21 0.27 0.32 0.29 0.26 0.26 0.26 0.27 0.24 0.29 0.31 0.33 0.36 0.34 0.34 0.36 0.38 0.40 0.38 0.27 0.14 0.09 0.08 0.06 0.05 0.07 0.08 0.10 0.11 0.10 0.11 0.12 0.13 0.16
0.05 0.09 0.19 0.19 0.20 0.20 0.20 0.19 0.18 0.21 0.28 0.34 0.34 0.33 0.33 0.33 0.31 0.29 0.29 0.31 0.33 0.33 0.34 0.32 0.28 0.23 0.20 0.16 0.11 0.08 0.06 0.04 0.02 0.01 0.02 0.03 0.06 0.08 0.07 0.07 0.10 0.15 0.18
0.06 0.10 0.17 0.20 0.22 0.21 0.20 0.19 0.18 0.23 0.29 0.34 0.37 0.40 0.38 0.36 0.34 0.35 0.37 0.34 0.36 0.32 0.33 0.27 0.20 0.16 0.13 0.10 0.08 0.07 0.05 0.03 0.02 0.01 0.02 0.03 0.05 0.08 0.07 0.08 0.12 0.17 0.20
0.07 0.10 0.15 0.21 0.24 0.23 0.22 0.22 0.21 0.24 0.30 0.35 0.39 0.41 0.39 0.40 0.41 0.39 0.38 0.33 0.32 0.27 0.25 0.18 0.14 0.12 0.09 0.08 0.07 0.06 0.05 0.05 0.03 0.02 0.04 0.04 0.06 0.10 0.11 0.12 0.14 0.16 0.16
0.11 0.13 0.21 0.28 0.29 0.28 0.25 0.25 0.26 0.27 0.31 0.37 0.45 0.49 0.46 0.47 0.46 0.42 0.34 0.29 0.25 0.21 0.20 0.15 0.10 0.08 0.06 0.05 0.05 0.05 0.05 0.05 0.03 0.02 0.01 0.02 0.05 0.10 0.12 0.12 0.14 0.16 0.14
0.18 0.21 0.29 0.35 0.38 0.35 0.30 0.27 0.29 0.32 0.33 0.37 0.45 0.50 0.49 0.48 0.50 0.43 0.36 0.26 0.19 0.17 0.17 0.14 0.11 0.10 0.07 0.06 0.06 0.06 0.06 0.05 0.03 0.01 0.01 0.02 0.05 0.10 0.11 0.13 0.15 0.19 0.20
0.30 0.35 0.38 0.42 0.43 0.43 0.41 0.35 0.31 0.33 0.36 0.40 0.46 0.47 0.50 0.49 0.49 0.50 0.40 0.24 0.17 0.16 0.18 0.15 0.14 0.13 0.11 0.09 0.08 0.09 0.08 0.05 0.03 0.01 0.02 0.03 0.05 0.10 0.12 0.14 0.16 0.18 0.21
0.45 0.53 0.54 0.54 0.49 0.45 0.44 0.46 0.41 0.39 0.40 0.45 0.52 0.50 0.51 0.51 0.50 0.51 0.43 0.29 0.20 0.17 0.18 0.18 0.17 0.16 0.14 0.12 0.11 0.11 0.10 0.06 0.03 0.01 0.02 0.03 0.05 0.09 0.12 0.14 0.15 0.16 0.17
0.74 0.77 0.70 0.64 0.55 0.50 0.46 0.45 0.46 0.45 0.45 0.50 0.55 0.52 0.51 0.48 0.49 0.48 0.42 0.31 0.25 0.22 0.23 0.22 0.20 0.17 0.15 0.14 0.13 0.10 0.08 0.05 0.03 0.02 0.02 0.03 0.05 0.10 0.13 0.15 0.17 0.17 0.18
1.01 1.03 0.94 0.82 0.72 0.62 0.54 0.45 0.42 0.44 0.43 0.46 0.45 0.39 0.38 0.41 0.45 0.41 0.33 0.27 0.24 0.22 0.22 0.21 0.20 0.19 0.17 0.14 0.12 0.09 0.07 0.05 0.04 0.03 0.04 0.04 0.07 0.14 0.19 0.21 0.21 0.19 0.18
1.23 1.19 1.17 1.05 0.89 0.76 0.62 0.49 0.44 0.42 0.41 0.40 0.37 0.31 0.30 0.34 0.39 0.32 0.23 0.20 0.24 0.25 0.23 0.21 0.20 0.20 0.17 0.12 0.10 0.08 0.07 0.05 0.04 0.04 0.04 0.06 0.12 0.20 0.22 0.19 0.17 0.18 0.19
1.27 1.23 1.24 1.15 1.05 0.95 0.76 0.58 0.53 0.49 0.44 0.38 0.33 0.31 0.30 0.31 0.35 0.29 0.26 0.22 0.23 0.25 0.24 0.25 0.24 0.23 0.20 0.14 0.12 0.11 0.09 0.06 0.06 0.05 0.06 0.09 0.14 0.19 0.18 0.16 0.16 0.17 0.19
1.39 1.41 1.36 1.27 1.15 1.12 1.03 0.74 0.57 0.52 0.51 0.47 0.38 0.34 0.35 0.36 0.38 0.37 0.33 0.29 0.26 0.22 0.21 0.21 0.23 0.20 0.18 0.17 0.16 0.14 0.12 0.11 0.10 0.08 0.08 0.09 0.11 0.17 0.20 0.20 0.20 0.19 0.18
1.49 1.47 1.46 1.44 1.29 1.14 1.06 0.93 0.75 0.59 0.53 0.51 0.45 0.38 0.40 0.41 0.37 0.34 0.31 0.28 0.29 0.26 0.23 0.22 0.21 0.18 0.17 0.17 0.17 0.17 0.16 0.14 0.12 0.11 0.10 0.11 0.11 0.15 0.20 0.23 0.24 0.23 0.22
1.43 1.52 1.50 1.50 1.41 1.24 1.12 1.00 0.88 0.75 0.64 0.63 0.59 0.50 0.44 0.43 0.38 0.34 0.32 0.34 0.35 0.34 0.31 0.27 0.24 0.23 0.21 0.20 0.18 0.17 0.18 0.19 0.16 0.14 0.12 0.12 0.11 0.11 0.15 0.21 0.27 0.29 0.31
1.24 1.43 1.49 1.50 1.51 1.44 1.22 1.07 0.93 0.80 0.69 0.70 0.67 0.59 0.57 0.53 0.52 0.46 0.41 0.37 0.36 0.37 0.37 0.35 0.32 0.32 0.28 0.25 0.22 0.20 0.18 0.20 0.21 0.19 0.17 0.15 0.12 0.11 0.11 0.17 0.25 0.33 0.38
1.14 1.34 1.37 1.44 1.53 1.51 1.39 1.25 1.00 0.89 0.75 0.68 0.68 0.66 0.64 0.60 0.58 0.57 0.54 0.49 0.43 0.43 0.44 0.45 0.44 0.44 0.38 0.33 0.28 0.26 0.25 0.24 0.25 0.24 0.23 0.20 0.17 0.15 0.14 0.16 0.23 0.34 0.42
1.26 1.34 1.38 1.38 1.53 1.53 1.50 1.47 1.27 1.03 0.87 0.76 0.75 0.79 0.74 0.69 0.67 0.65 0.60 0.50 0.44 0.52 0.53 0.50 0.47 0.46 0.39 0.33 0.28 0.27 0.26 0.26 0.26 0.28 0.30 0.31 0.28 0.23 0.19 0.18 0.19 0.27 0.37
1.32 1.37 1.50 1.47 1.52 1.63 1.63 1.61 1.52 1.33 1.09 0.93 0.82 0.78 0.79 0.76 0.73 0.74 0.70 0.64 0.58 0.52 0.53 0.54 0.49 0.44 0.41 0.38 0.34 0.29 0.26 0.24 0.23 0.24 0.25 0.28 0.31 0.30 0.27 0.25 0.23 0.24 0.31
1.33 1.42 1.56 1.60 1.62 1.76 1.86 1.86 1.80 1.55 1.29 1.15 1.00 0.87 0.83 0.84 0.80 0.78 0.78 0.78 0.78 0.71 0.58 0.53 0.50 0.47 0.43 0.45 0.47 0.43 0.37 0.32 0.29 0.27 0.26 0.26 0.25 0.26 0.26 0.23 0.23 0.23 0.25
1.31 1.41 1.50 1.60 1.69 1.82 1.83 1.81 1.78 1.61 1.43 1.28 1.17 1.08 1.02 1.00 1.01 0.95 0.87 0.91 0.92 0.86 0.76 0.70 0.67 0.64 0.59 0.58 0.59 0.51 0.44 0.42 0.39 0.34 0.33 0.34 0.32 0.31 0.30 0.27 0.25 0.23 0.21
1.12 1.29 1.42 1.52 1.68 1.71 1.71 1.81 1.93 1.99 1.82 1.56 1.41 1.29 1.18 1.15 1.14 1.08 1.05 1.03 1.02 1.02 1.01 0.96 0.93 0.88 0.81 0.81 0.81 0.78 0.62 0.47 0.37 0.33 0.34 0.36 0.35 0.35 0.34 0.31 0.28 0.27 0.24
0.98 1.15 1.37 1.50 1.66 1.71 1.75 1.97 2.11 2.22 2.06 1.77 1.43 1.27 1.26 1.29 1.29 1.19 1.16 1.19 1.14 1.10 1.06 1.05 1.05 1.03 0.97 0.93 0.93 0.99 0.85 0.59 0.40 0.32 0.29 0.30 0.33 0.35 0.36 0.38 0.40 0.38 0.33
0.87 1.01 1.13 1.30 1.50 1.68 1.75 1.80 1.85 1.91 1.87 1.65 1.54 1.45 1.47 1.48 1.47 1.39 1.32 1.30 1.28 1.22 1.13 1.11 1.10 1.06 1.03 0.99 0.95 0.88 0.81 0.67 0.61 0.47 0.32 0.30 0.32 0.33 0.36 0.40 0.44 0.47 0.48
0.76 0.98 1.07 1.15 1.34 1.55 1.68 1.74 1.85 1.81 1.80 1.88 1.83 1.72 1.63 1.59 1.56 1.50 1.43 1.41 1.34 1.28 1.23 1.24 1.21 1.18 1.11 1.06 1.01 0.95 0.93 0.80 0.68 0.65 0.48 0.34 0.35 0.36 0.38 0.42 0.45 0.48 0.50
0.64 0.84 1.05 1.08 1.17 1.31 1.53 1.72 1.78 1.70 1.73 1.77 1.76 1.72 1.70 1.70 1.66 1.56 1.47 1.42 1.36 1.31 1.29 1.29 1.32 1.28 1.24 1.18 1.13 1.08 1.07 1.01 0.86 0.82 0.73 0.51 0.43 0.39 0.38 0.40 0.42 0.45 0.48

GEFSSE_prec_meanprecacc_156.txt.gz
Total_Precipitation_Accumulation
0.06 0.10 0.22 0.21 0.21 0.20 0.19 0.19 0.20 0.22 0.28 0.33 0.30 0.26 0.26 0.27 0.27 0.24 0.29 0.31 0.34 0.37 0.35 0.36 0.38 0.40 0.42 0.41 0.30 0.16 0.10 0.09 0.07 0.06 0.07 0.08 0.10 0.12 0.11 0.11 0.13 0.14 0.17
0.05 0.09 0.20 0.21 0.22 0.21 0.21 0.20 0.19 0.22 0.28 0.35 0.35 0.34 0.34 0.34 0.32 0.30 0.30 0.32 0.33 0.34 0.34 0.33 0.29 0.24 0.21 0.18 0.14 0.10 0.08 0.05 0.03 0.02 0.02 0.04 0.06 0.08 0.07 0.08 0.10 0.15 0.18
0.06 0.11 0.19 0.22 0.23 0.22 0.21 0.20 0.19 0.23 0.29 0.34 0.38 0.42 0.39 0.36 0.35 0.36 0.38 0.34 0.36 0.33 0.34 0.27 0.21 0.16 0.14 0.11 0.09 0.08 0.07 0.04 0.03 0.02 0.02 0.04 0.05 0.08 0.08 0.08 0.12 0.18 0.21
0.07 0.11 0.16 0.23 0.25 0.24 0.23 0.23 0.22 0.25 0.30 0.35 0.40 0.42 0.40 0.40 0.42 0.40 0.38 0.33 0.32 0.27 0.25 0.19 0.14 0.12 0.10 0.08 0.07 0.07 0.06 0.06 0.05 0.03 0.04 0.05 0.06 0.10 0.12 0.13 0.15 0.17 0.17
0.12 0.14 0.22 0.29 0.30 0.28 0.25 0.26 0.27 0.27 0.32 0.37 0.45 0.49 0.47 0.47 0.47 0.42 0.35 0.29 0.25 0.21 0.20 0.16 0.10 0.09 0.07 0.05 0.05 0.05 0.06 0.06 0.04 0.03 0.02 0.03 0.06 0.11 0.13 0.14 0.16 0.17 0.16
0.19 0.22 0.30 0.37 0.39 0.36 0.31 0.28 0.30 0.32 0.34 0.37 0.46 0.51 0.50 0.49 0.50 0.43 0.36 0.26 0.20 0.17 0.17 0.14 0.11 0.10 0.08 0.06 0.06 0.06 0.07 0.06 0.03 0.02 0.02 0.03 0.06 0.11 0.12 0.14 0.16 0.19 0.21
0.31 0.37 0.40 0.44 0.45 0.45 0.42 0.36 0.32 0.34 0.36 0.40 0.47 0.48 0.51 0.49 0.50 0.50 0.41 0.25 0.17 0.16 0.18 0.16 0.14 0.13 0.11 0.09 0.08 0.09 0.08 0.05 0.03 0.02 0.03 0.04 0.06 0.11 0.14 0.16 0.17 0.19 0.22
0.46 0.55 0.57 0.58 0.52 0.48 0.46 0.47 0.42 0.40 0.41 0.46 0.53 0.51 0.52 0.52 0.50 0.51 0.44 0.30 0.20 0.18 0.19 0.18 0.17 0.16 0.14 0.12 0.11 0.11 0.10 0.06 0.03 0.02 0.03 0.04 0.06 0.10 0.14 0.17 0.18 0.18 0.19
0.76 0.80 0.74 0.69 0.58 0.54 0.48 0.47 0.47 0.46 0.46 0.51 0.56 0.53 0.51 0.49 0.49 0.48 0.42 0.31 0.26 0.23 0.23 0.22 0.20 0.18 0.16 0.14 0.13 0.10 0.08 0.05 0.03 0.02 0.02 0.03 0.06 0.12 0.16 0.19 0.22 0.22 0.22
1.05 1.08 0.99 0.86 0.77 0.67 0.58 0.47 0.45 0.45 0.44 0.46 0.46 0.40 0.38 0.41 0.45 0.41 0.33 0.27 0.24 0.23 0.22 0.22 0.20 0.19 0.17 0.14 0.12 0.09 0.07 0.06 0.04 0.03 0.04 0.04 0.08 0.16 0.23 0.25 0.25 0.23 0.23
1.27 1.26 1.25 1.12 0.95 0.83 0.68 0.52 0.47 0.45 0.42 0.41 0.38 0.31 0.30 0.35 0.39 0.33 0.24 0.20 0.24 0.25 0.23 0.21 0.20 0.20 0.17 0.12 0.10 0.08 0.07 0.05 0.05 0.04 0.04 0.06 0.13 0.22 0.24 0.23 0.21 0.22 0.23
1.32 1.28 1.31 1.23 1.14 1.02 0.82 0.62 0.57 0.52 0.45 0.39 0.34 0.32 0.30 0.31 0.35 0.30 0.26 0.22 0.23 0.25 0.24 0.25 0.24 0.23 0.20 0.14 0.12 0.11 0.09 0.07 0.06 0.06 0.06 0.10 0.16 0.21 0.21 0.20 0.20 0.21 0.24
1.44 1.46 1.42 1.36 1.24 1.20 1.08 0.79 0.60 0.55 0.53 0.49 0.39 0.35 0.36 0.36 0.38 0.37 0.33 0.29 0.26 0.22 0.21 0.21 0.23 0.20 0.18 0.17 0.16 0.14 0.12 0.11 0.10 0.08 0.09 0.09 0.12 0.18 0.22 0.22 0.22 0.23 0.23
1.55 1.53 1.51 1.52 1.38 1.23 1.15 1.00 0.79 0.62 0.55 0.52 0.46 0.40 0.42 0.41 0.37 0.34 0.31 0.28 0.30 0.26 0.23 0.22 0.21 0.18 0.17 0.17 0.17 0.17 0.16 0.14 0.12 0.11 0.11 0.11 0.11 0.15 0.21 0.24 0.25 0.26 0.26
1.51 1.59 1.55 1.56 1.49 1.33 1.21 1.08 0.95 0.79 0.66 0.64 0.60 0.52 0.46 0.44 0.39 0.34 0.32 0.34 0.35 0.34 0.31 0.27 0.24 0.23 0.21 0.20 0.18 0.17 0.18 0.19 0.16 0.14 0.13 0.12 0.11 0.12 0.16 0.22 0.28 0.31 0.33
1.31 1.51 1.56 1.56 1.58 1.52 1.32 1.17 1.01 0.85 0.72 0.71 0.68 0.61 0.59 0.55 0.53 0.47 0.42 0.38 0.37 0.37 0.38 0.35 0.33 0.32 0.28 0.26 0.22 0.20 0.18 0.20 0.21 0.19 0.18 0.16 0.13 0.11 0.12 0.18 0.26 0.35 0.40
1.20 1.41 1.45 1.51 1.59 1.59 1.50 1.37 1.14 0.98 0.80 0.70 0.69 0.67 0.66 0.62 0.60 0.59 0.55 0.51 0.47 0.46 0.45 0.46 0.45 0.45 0.39 0.34 0.29 0.27 0.25 0.25 0.25 0.25 0.24 0.22 0.18 0.15 0.15 0.17 0.24 0.35 0.43
1.31 1.39 1.44 1.45 1.59 1.59 1.58 1.58 1.44 1.22 0.98 0.83 0.79 0.82 0.77 0.72 0.69 0.66 0.61 0.51 0.46 0.53 0.55 0.51 0.48 0.46 0.40 0.33 0.28 0.27 0.26 0.26 0.27 0.29 0.32 0.32 0.28 0.24 0.20 0.18 0.20 0.27 0.38
1.38 1.42 1.55 1.51 1.57 1.69 1.69 1.71 1.63 1.48 1.25 1.08 0.93 0.84 0.84 0.82 0.78 0.77 0.71 0.65 0.59 0.54 0.55 0.57 0.52 0.46 0.42 0.38 0.34 0.29 0.26 0.24 0.24 0.25 0.25 0.28 0.31 0.30 0.27 0.25 0.24 0.25 0.32
1.41 1.49 1.61 1.64 1.66 1.81 1.93 1.94 1.92 1.68 1.42 1.26 1.10 0.96 0.91 0.93 0.89 0.84 0.81 0.80 0.81 0.75 0.64 0.58 0.55 0.51 0.45 0.46 0.48 0.43 0.37 0.32 0.29 0.27 0.26 0.26 0.25 0.26 0.26 0.23 0.23 0.23 0.26
1.39 1.48 1.57 1.67 1.73 1.85 1.89 1.88 1.87 1.74 1.54 1.36 1.23 1.12 1.06 1.05 1.10 1.04 0.94 0.94 0.94 0.87 0.78 0.73 0.70 0.65 0.60 0.59 0.60 0.51 0.44 0.42 0.39 0.34 0.33 0.34 0.32 0.31 0.30 0.27 0.25 0.23 0.22
1.16 1.33 1.50 1.61 1.73 1.73 1.73 1.87 1.99 2.09 1.93 1.62 1.45 1.33 1.20 1.17 1.18 1.14 1.10 1.07 1.04 1.03 1.01 0.97 0.94 0.89 0.82 0.82 0.82 0.78 0.62 0.47 0.37 0.33 0.35 0.36 0.35 0.35 0.34 0.31 0.28 0.27 0.24
1.01 1.18 1.42 1.56 1.69 1.72 1.76 1.99 2.16 2.28 2.15 1.85 1.47 1.29 1.27 1.29 1.31 1.24 1.21 1.23 1.17 1.11 1.07 1.06 1.05 1.04 0.98 0.94 0.94 1.00 0.85 0.59 0.40 0.32 0.29 0.30 0.33 0.36 0.36 0.38 0.40 0.38 0.33
0.89 1.02 1.15 1.33 1.52 1.69 1.75 1.80 1.88 1.96 1.93 1.72 1.58 1.47 1.48 1.49 1.48 1.41 1.36 1.34 1.30 1.24 1.13 1.11 1.10 1.06 1.04 0.99 0.95 0.88 0.81 0.67 0.62 0.47 0.32 0.30 0.32 0.33 0.36 0.40 0.44 0.47 0.48
0.77 0.98 1.08 1.15 1.35 1.56 1.68 1.74 1.85 1.83 1.85 1.94 1.87 1.75 1.64 1.60 1.57 1.51 1.45 1.43 1.36 1.30 1.24 1.24 1.21 1.18 1.12 1.06 1.01 0.95 0.93 0.80 0.68 0.65 0.49 0.34 0.35 0.36 0.38 0.42 0.45 0.48 0.50
0.65 0.85 1.06 1.08 1.17 1.32 1.53 1.72 1.78 1.71 1.75 1.82 1.82 1.76 1.72 1.71 1.68 1.58 1.49 1.43 1.37 1.33 1.30 1.29 1.32 1.28 1.24 1.18 1.14 1.08 1.07 1.01 0.86 0.82 0.73 0.51 0.43 0.39 0.38 0.40 0.42 0.45 0.48

GEFSSE_prec_meanprecacc_162.txt.gz
Total_Precipitation_Accumulation
0.06 0.10 0.23 0.22 0.22 0.21 0.21 0.20 0.21 0.23 0.29 0.34 0.31 0.27 0.27 0.27 0.28 0.25 0.30 0.32 0.34 0.38 0.35 0.37 0.39 0.41 0.43 0.42 0.32 0.18 0.12 0.11 0.08 0.07 0.08 0.09 0.10 0.12 0.11 0.12 0.13 0.16 0.17
0.05 0.09 0.21 0.21 0.22 0.23 0.23 0.21 0.20 0.23 0.29 0.36 0.36 0.35 0.35 0.34 0.33 0.31 0.31 0.33 0.34 0.34 0.35 0.33 0.29 0.24 0.21 0.19 0.14 0.11 0.09 0.06 0.03 0.03 0.02 0.04 0.06 0.08 0.07 0.08 0.11 0.16 0.19
0.06 0.11 0.19 0.22 0.24 0.23 0.23 0.21 0.20 0.24 0.30 0.35 0.40 0.43 0.39 0.37 0.36 0.37 0.39 0.35 0.36 0.33 0.34 0.28 0.22 0.17 0.14 0.11 0.10 0.09 0.07 0.05 0.04 0.03 0.02 0.04 0.06 0.08 0.08 0.08 0.12 0.18 0.21
0.07 0.12 0.17 0.23 0.26 0.25 0.24 0.24 0.23 0.26 0.31 0.36 0.41 0.44 0.41 0.41 0.43 0.41 0.39 0.34 0.33 0.28 0.26 0.19 0.15 0.12 0.10 0.09 0.08 0.07 0.07 0.06 0.05 0.03 0.05 0.06 0.08 0.12 0.13 0.13 0.15 0.18 0.18
0.12 0.15 0.23 0.30 0.31 0.29 0.26 0.26 0.27 0.28 0.33 0.38 0.46 0.51 0.49 0.48 0.48 0.43 0.35 0.30 0.25 0.21 0.20 0.16 0.11 0.09 0.07 0.06 0.05 0.05 0.06 0.06 0.04 0.03 0.03 0.06 0.10 0.14 0.15 0.16 0.17 0.18 0.16
0.20 0.23 0.31 0.37 0.40 0.36 0.32 0.28 0.30 0.33 0.34 0.38 0.46 0.51 0.51 0.50 0.51 0.44 0.37 0.26 0.20 0.17 0.17 0.14 0.11 0.10 0.08 0.06 0.06 0.06 0.07 0.06 0.03 0.02 0.04 0.07 0.09 0.15 0.15 0.17 0.18 0.21 0.22
0.31 0.38 0.41 0.46 0.46 0.45 0.43 0.37 0.33 0.34 0.37 0.41 0.48 0.49 0.52 0.51 0.51 0.51 0.41 0.25 0.17 0.16 0.18 0.16 0.14 0.13 0.11 0.09 0.09 0.09 0.08 0.05 0.03 0.03 0.05 0.07 0.10 0.15 0.17 0.19 0.20 0.21 0.24
0.47 0.57 0.58 0.61 0.54 0.49 0.47 0.49 0.44 0.41 0.42 0.47 0.54 0.52 0.53 0.54 0.53 0.53 0.44 0.30 0.21 0.18 0.19 0.18 0.17 0.16 0.15 0.12 0.11 0.11 0.10 0.06 0.03 0.02 0.04 0.06 0.09 0.13 0.17 0.20 0.21 0.21 0.23
0.79 0.84 0.77 0.72 0.62 0.57 0.50 0.48 0.49 0.48 0.47 0.52 0.57 0.54 0.52 0.50 0.50 0.49 0.43 0.32 0.26 0.23 0.23 0.22 0.20 0.18 0.16 0.14 0.13 0.10 0.08 0.05 0.03 0.02 0.03 0.04 0.07 0.14 0.19 0.22 0.24 0.24 0.25
1.09 1.14 1.04 0.91 0.81 0.70 0.61 0.49 0.46 0.47 0.45 0.47 0.46 0.40 0.39 0.41 0.45 0.42 0.33 0.28 0.24 0.23 0.23 0.22 0.20 0.19 0.17 0.14 0.12 0.09 0.07 0.06 0.04 0.03 0.04 0.05 0.09 0.18 0.25 0.27 0.28 0.26 0.27
1.34 1.34 1.33 1.19 1.00 0.87 0.72 0.55 0.51 0.48 0.43 0.41 0.38 0.31 0.30 0.35 0.39 0.33 0.24 0.20 0.24 0.25 0.23 0.21 0.20 0.20 0.17 0.12 0.10 0.08 0.07 0.05 0.05 0.05 0.05 0.07 0.15 0.23 0.26 0.24 0.23 0.24 0.27
1.38 1.37 1.44 1.32 1.20 1.08 0.87 0.66 0.62 0.57 0.48 0.40 0.34 0.32 0.31 0.31 0.36 0.30 0.26 0.22 0.23 0.25 0.24 0.25 0.24 0.23 0.20 0.14 0.12 0.11 0.09 0.07 0.07 0.06 0.07 0.11 0.18 0.23 0.23 0.21 0.22 0.23 0.26
1.51 1.54 1.56 1.49 1.32 1.27 1.15 0.84 0.64 0.59 0.58 0.53 0.41 0.36 0.37 0.38 0.39 0.38 0.34 0.29 0.26 0.22 0.21 0.21 0.23 0.20 0.18 0.17 0.16 0.14 0.12 0.11 0.10 0.09 0.09 0.10 0.13 0.20 0.24 0.24 0.24 0.24 0.25
1.62 1.62 1.63 1.66 1.48 1.31 1.23 1.09 0.85 0.66 0.59 0.56 0.49 0.41 0.43 0.43 0.38 0.35 0.32 0.28 0.30 0.26 0.23 0.22 0.21 0.18 0.17 0.17 0.17 0.17 0.16 0.14 0.12 0.11 0.11 0.12 0.12 0.17 0.22 0.26 0.27 0.28 0.28
1.60 1.69 1.68 1.67 1.60 1.42 1.30 1.18 1.05 0.87 0.71 0.68 0.63 0.54 0.48 0.47 0.41 0.36 0.33 0.34 0.35 0.34 0.31 0.27 0.24 0.23 0.22 0.20 0.18 0.17 0.18 0.19 0.16 0.14 0.13 0.12 0.12 0.12 0.17 0.23 0.29 0.33 0.35
1.41 1.62 1.68 1.67 1.68 1.61 1.41 1.28 1.14 0.97 0.80 0.77 0.73 0.64 0.63 0.59 0.57 0.51 0.44 0.39 0.38 0.38 0.39 0.36 0.33 0.32 0.28 0.26 0.22 0.20 0.19 0.20 0.21 0.20 0.18 0.16 0.13 0.12 0.13 0.18 0.27 0.36 0.42
1.30 1.51 1.56 1.62 1.70 1.68 1.58 1.47 1.26 1.12 0.91 0.79 0.75 0.72 0.71 0.67 0.64 0.62 0.59 0.54 0.48 0.47 0.46 0.46 0.45 0.45 0.39 0.34 0.29 0.27 0.25 0.25 0.26 0.26 0.25 0.23 0.19 0.16 0.15 0.18 0.25 0.36 0.44
1.42 1.49 1.53 1.54 1.70 1.68 1.65 1.65 1.55 1.37 1.15 0.97 0.89 0.87 0.80 0.76 0.72 0.70 0.65 0.55 0.49 0.55 0.56 0.52 0.48 0.47 0.41 0.34 0.29 0.28 0.27 0.27 0.28 0.30 0.33 0.32 0.29 0.24 0.20 0.18 0.20 0.28 0.38
1.49 1.53 1.64 1.59 1.67 1.79 1.76 1.76 1.68 1.58 1.42 1.25 1.05 0.91 0.88 0.85 0.81 0.80 0.74 0.69 0.63 0.55 0.56 0.57 0.52 0.46 0.42 0.39 0.34 0.29 0.26 0.24 0.24 0.25 0.26 0.28 0.31 0.30 0.27 0.25 0.24 0.25 0.32
1.51 1.59 1.71 1.72 1.74 1.91 2.01 1.99 1.97 1.73 1.53 1.43 1.24 1.07 0.97 0.97 0.92 0.87 0.84 0.83 0.85 0.77 0.65 0.59 0.55 0.51 0.45 0.46 0.48 0.43 0.37 0.32 0.29 0.27 0.26 0.26 0.26 0.27 0.27 0.23 0.23 0.23 0.26
1.49 1.58 1.66 1.74 1.80 1.92 1.96 1.96 1.94 1.81 1.63 1.51 1.40 1.26 1.16 1.10 1.13 1.06 0.96 0.97 0.96 0.89 0.79 0.73 0.70 0.65 0.60 0.59 0.60 0.52 0.44 0.42 0.39 0.34 0.33 0.34 0.32 0.31 0.30 0.27 0.25 0.23 0.22
1.27 1.43 1.58 1.69 1.79 1.78 1.79 1.94 2.06 2.16 2.01 1.75 1.60 1.48 1.32 1.23 1.22 1.17 1.12 1.09 1.06 1.05 1.03 0.98 0.94 0.89 0.82 0.82 0.83 0.79 0.63 0.48 0.38 0.33 0.35 0.36 0.36 0.36 0.34 0.31 0.28 0.27 0.24
1.10 1.27 1.50 1.63 1.76 1.77 1.80 2.03 2.21 2.32 2.20 1.92 1.59 1.43 1.42 1.41 1.38 1.28 1.23 1.24 1.19 1.13 1.09 1.07 1.06 1.04 0.98 0.94 0.94 1.00 0.86 0.60 0.41 0.32 0.29 0.30 0.33 0.36 0.37 0.39 0.40 0.38 0.33
0.97 1.10 1.21 1.38 1.57 1.72 1.78 1.83 1.89 1.98 1.95 1.76 1.65 1.56 1.58 1.59 1.54 1.45 1.38 1.35 1.32 1.27 1.16 1.13 1.11 1.06 1.04 0.99 0.95 0.89 0.82 0.67 0.62 0.47 0.32 0.30 0.32 0.33 0.36 0.40 0.44 0.47 0.48
0.85 1.06 1.14 1.21 1.39 1.59 1.70 1.75 1.86 1.84 1.86 1.95 1.91 1.82 1.72 1.67 1.62 1.52 1.46 1.44 1.37 1.31 1.27 1.27 1.23 1.18 1.12 1.06 1.01 0.95 0.93 0.80 0.68 0.65 0.49 0.34 0.35 0.36 0.38 0.42 0.46 0.48 0.50
0.72 0.92 1.11 1.13 1.22 1.34 1.54 1.73 1.78 1.71 1.75 1.82 1.82 1.78 1.77 1.77 1.72 1.60 1.50 1.44 1.38 1.33 1.32 1.32 1.35 1.30 1.24 1.18 1.14 1.08 1.07 1.01 0.86 0.82 0.73 0.51 0.44 0.39 0.38 0.40 0.42 0.45 0.48

GEFSSE_prec_meanprecacc_168.txt.gz
Total_Precipitation_Accumulation
0.07 0.11 0.24 0.22 0.23 0.21 0.22 0.21 0.21 0.24 0.30 0.35 0.32 0.28 0.28 0.28 0.29 0.26 0.30 0.33 0.35 0.38 0.36 0.37 0.39 0.41 0.44 0.43 0.32 0.18 0.13 0.12 0.09 0.08 0.08 0.09 0.10 0.12 0.11 0.12 0.13 0.16 0.18
0.05 0.10 0.22 0.22 0.23 0.24 0.24 0.22 0.20 0.23 0.29 0.37 0.38 0.35 0.35 0.35 0.33 0.31 0.31 0.33 0.35 0.35 0.35 0.34 0.30 0.25 0.22 0.19 0.15 0.11 0.09 0.06 0.04 0.03 0.03 0.04 0.06 0.08 0.08 0.08 0.11 0.17 0.20
0.06 0.11 0.20 0.23 0.24 0.24 0.23 0.21 0.21 0.24 0.31 0.36 0.41 0.44 0.40 0.38 0.37 0.38 0.39 0.36 0.37 0.34 0.35 0.28 0.22 0.17 0.14 0.12 0.10 0.09 0.08 0.05 0.04 0.03 0.03 0.04 0.06 0.08 0.09 0.09 0.13 0.19 0.22
0.08 0.12 0.17 0.24 0.26 0.26 0.25 0.25 0.23 0.26 0.31 0.36 0.42 0.45 0.43 0.42 0.44 0.42 0.40 0.34 0.33 0.28 0.26 0.20 0.15 0.13 0.11 0.09 0.08 0.07 0.07 0.06 0.05 0.03 0.05 0.06 0.08 0.13 0.15 0.16 0.17 0.19 0.19
0.13 0.15 0.24 0.31 0.32 0.30 0.28 0.28 0.27 0.28 0.33 0.39 0.47 0.51 0.50 0.50 0.49 0.44 0.36 0.30 0.26 0.22 0.20 0.16 0.11 0.09 0.07 0.06 0.05 0.05 0.06 0.06 0.04 0.03 0.03 0.06 0.10 0.16 0.18 0.20 0.21 0.21 0.18
0.21 0.24 0.32 0.38 0.41 0.38 0.35 0.31 0.32 0.33 0.35 0.39 0.47 0.52 0.52 0.52 0.53 0.45 0.37 0.27 0.20 0.18 0.17 0.14 0.11 0.10 0.08 0.06 0.06 0.06 0.07 0.06 0.03 0.02 0.04 0.07 0.10 0.16 0.17 0.20 0.23 0.26 0.27
0.36 0.39 0.43 0.47 0.48 0.47 0.45 0.41 0.36 0.35 0.37 0.42 0.49 0.50 0.53 0.52 0.52 0.51 0.41 0.25 0.17 0.17 0.18 0.16 0.14 0.14 0.12 0.09 0.09 0.09 0.08 0.05 0.03 0.03 0.05 0.07 0.10 0.16 0.19 0.22 0.24 0.26 0.30
0.56 0.62 0.61 0.63 0.56 0.52 0.49 0.51 0.47 0.43 0.42 0.47 0.55 0.54 0.54 0.55 0.54 0.54 0.45 0.30 0.21 0.18 0.19 0.18 0.17 0.16 0.15 0.12 0.11 0.11 0.10 0.06 0.03 0.02 0.04 0.06 0.10 0.15 0.20 0.22 0.23 0.23 0.25
0.90 0.93 0.81 0.75 0.64 0.60 0.53 0.50 0.52 0.51 0.48 0.52 0.57 0.55 0.53 0.51 0.51 0.50 0.44 0.33 0.26 0.23 0.24 0.22 0.20 0.18 0.16 0.15 0.13 0.10 0.08 0.05 0.03 0.02 0.03 0.04 0.08 0.15 0.20 0.23 0.26 0.25 0.27
1.21 1.27 1.14 0.96 0.84 0.73 0.64 0.51 0.48 0.50 0.48 0.48 0.47 0.40 0.39 0.42 0.45 0.42 0.33 0.28 0.25 0.23 0.23 0.22 0.20 0.19 0.17 0.15 0.12 0.09 0.07 0.06 0.04 0.03 0.04 0.06 0.10 0.19 0.26 0.29 0.29 0.28 0.29
1.46 1.49 1.49 1.27 1.04 0.90 0.75 0.58 0.54 0.52 0.48 0.44 0.38 0.31 0.30 0.35 0.39 0.33 0.24 0.20 0.24 0.25 0.23 0.21 0.20 0.20 0.17 0.12 0.10 0.08 0.07 0.05 0.05 0.05 0.05 0.08 0.17 0.25 0.28 0.26 0.25 0.26 0.28
1.50 1.51 1.62 1.46 1.28 1.12 0.92 0.70 0.66 0.61 0.52 0.44 0.36 0.32 0.31 0.32 0.36 0.30 0.26 0.22 0.23 0.25 0.24 0.25 0.24 0.23 0.20 0.14 0.12 0.11 0.09 0.07 0.07 0.06 0.07 0.12 0.20 0.25 0.25 0.24 0.24 0.24 0.27
1.59 1.69 1.74 1.71 1.46 1.34 1.20 0.89 0.69 0.63 0.61 0.56 0.44 0.36 0.37 0.38 0.40 0.39 0.34 0.29 0.26 0.23 0.21 0.21 0.23 0.20 0.18 0.17 0.16 0.14 0.12 0.11 0.10 0.09 0.09 0.10 0.14 0.22 0.26 0.26 0.26 0.25 0.26
1.68 1.74 1.78 1.88 1.68 1.43 1.31 1.15 0.92 0.72 0.62 0.59 0.51 0.43 0.43 0.44 0.39 0.36 0.33 0.29 0.30 0.26 0.23 0.22 0.21 0.18 0.18 0.17 0.17 0.17 0.16 0.14 0.12 0.11 0.11 0.12 0.12 0.18 0.24 0.27 0.29 0.29 0.29
1.65 1.80 1.84 1.86 1.82 1.59 1.40 1.25 1.13 0.93 0.75 0.72 0.67 0.56 0.49 0.47 0.42 0.36 0.33 0.35 0.36 0.35 0.31 0.27 0.24 0.23 0.22 0.20 0.18 0.17 0.18 0.19 0.16 0.14 0.13 0.12 0.12 0.13 0.18 0.25 0.31 0.35 0.38
1.48 1.74 1.85 1.86 1.90 1.83 1.56 1.37 1.24 1.04 0.86 0.82 0.78 0.69 0.66 0.61 0.58 0.51 0.45 0.40 0.39 0.39 0.39 0.36 0.33 0.32 0.28 0.26 0.22 0.20 0.19 0.20 0.22 0.20 0.18 0.16 0.13 0.12 0.13 0.20 0.29 0.38 0.44
1.39 1.64 1.74 1.83 1.93 1.93 1.78 1.61 1.38 1.25 1.00 0.85 0.81 0.77 0.76 0.70 0.66 0.64 0.60 0.55 0.50 0.48 0.47 0.46 0.45 0.45 0.39 0.34 0.29 0.27 0.25 0.25 0.26 0.26 0.25 0.23 0.19 0.16 0.15 0.18 0.26 0.37 0.45
1.50 1.59 1.69 1.79 1.96 1.93 1.89 1.84 1.68 1.54 1.33 1.06 0.96 0.94 0.86 0.80 0.75 0.72 0.67 0.56 0.51 0.57 0.57 0.52 0.48 0.47 0.41 0.34 0.29 0.28 0.27 0.27 0.28 0.30 0.33 0.32 0.29 0.24 0.20 0.18 0.21 0.28 0.39
1.58 1.62 1.76 1.78 1.96 2.06 2.00 1.98 1.85 1.72 1.63 1.43 1.15 1.01 0.97 0.93 0.86 0.84 0.77 0.71 0.65 0.58 0.57 0.58 0.52 0.46 0.42 0.39 0.35 0.30 0.26 0.24 0.24 0.25 0.26 0.28 0.31 0.30 0.27 0.25 0.24 0.25 0.32
1.60 1.66 1.79 1.85 1.97 2.20 2.28 2.22 2.16 1.86 1.65 1.63 1.41 1.18 1.08 1.09 1.04 0.95 0.88 0.86 0.87 0.79 0.67 0.60 0.56 0.51 0.45 0.47 0.48 0.43 0.37 0.32 0.29 0.27 0.26 0.26 0.26 0.27 0.27 0.23 0.23 0.23 0.26
1.56 1.65 1.74 1.83 1.92 2.11 2.22 2.20 2.13 1.96 1.73 1.60 1.52 1.38 1.27 1.22 1.26 1.18 1.03 1.01 0.98 0.91 0.81 0.74 0.71 0.66 0.60 0.59 0.60 0.52 0.44 0.42 0.39 0.35 0.34 0.34 0.32 0.31 0.30 0.27 0.25 0.23 0.22
1.33 1.52 1.66 1.76 1.88 1.91 1.96 2.11 2.23 2.29 2.11 1.83 1.64 1.52 1.39 1.31 1.31 1.28 1.22 1.14 1.09 1.06 1.04 1.00 0.96 0.89 0.82 0.82 0.83 0.79 0.63 0.48 0.38 0.34 0.35 0.36 0.36 0.36 0.34 0.31 0.28 0.27 0.24
1.15 1.35 1.59 1.73 1.86 1.90 1.94 2.15 2.32 2.45 2.29 2.00 1.65 1.47 1.46 1.47 1.45 1.34 1.31 1.31 1.23 1.15 1.10 1.09 1.08 1.05 0.98 0.94 0.94 1.00 0.86 0.60 0.41 0.32 0.29 0.30 0.34 0.36 0.37 0.39 0.40 0.38 0.33
1.03 1.18 1.32 1.49 1.67 1.86 1.94 1.97 1.99 2.07 2.03 1.81 1.71 1.62 1.62 1.64 1.61 1.53 1.45 1.41 1.36 1.29 1.17 1.15 1.14 1.08 1.04 0.99 0.95 0.89 0.82 0.67 0.62 0.47 0.32 0.30 0.32 0.33 0.36 0.40 0.44 0.47 0.48
0.90 1.13 1.24 1.32 1.50 1.70 1.84 1.90 1.97 1.92 1.92 1.99 1.94 1.85 1.75 1.71 1.68 1.61 1.52 1.49 1.41 1.34 1.29 1.28 1.25 1.21 1.13 1.07 1.01 0.95 0.93 0.80 0.68 0.65 0.49 0.34 0.35 0.36 0.38 0.42 0.46 0.48 0.50
0.77 0.98 1.20 1.23 1.32 1.44 1.64 1.84 1.89 1.79 1.80 1.85 1.84 1.79 1.78 1.78 1.75 1.66 1.55 1.47 1.40 1.35 1.33 1.33 1.36 1.32 1.26 1.19 1.14 1.08 1.07 1.01 0.86 0.82 0.73 0.51 0.44 0.39 0.38 0.40 0.42 0.45 0.48

GEFSSE_prec_meanprecacc_174.txt.gz
Total_Precipitation_Accumulation
0.07 0.11 0.26 0.26 0.27 0.24 0.23 0.22 0.22 0.24 0.30 0.36 0.33 0.28 0.28 0.29 0.29 0.26 0.31 0.33 0.35 0.38 0.36 0.38 0.41 0.43 0.45 0.44 0.33 0.20 0.13 0.12 0.10 0.08 0.09 0.10 0.11 0.12 0.12 0.12 0.14 0.17 0.19
0.06 0.10 0.24 0.25 0.28 0.27 0.26 0.23 0.22 0.24 0.30 0.37 0.39 0.36 0.35 0.35 0.34 0.32 0.31 0.33 0.35 0.35 0.36 0.35 0.30 0.25 0.22 0.20 0.16 0.12 0.10 0.07 0.04 0.03 0.03 0.04 0.07 0.09 0.08 0.08 0.11 0.17 0.21
0.07 0.12 0.22 0.26 0.29 0.28 0.27 0.23 0.22 0.25 0.32 0.37 0.41 0.45 0.41 0.38 0.37 0.38 0.39 0.36 0.37 0.34 0.35 0.29 0.22 0.17 0.15 0.12 0.10 0.09 0.08 0.05 0.04 0.03 0.03 0.04 0.06 0.09 0.10 0.11 0.14 0.19 0.23
0.08 0.13 0.20 0.27 0.30 0.30 0.29 0.28 0.25 0.27 0.32 0.38 0.43 0.46 0.44 0.43 0.45 0.42 0.40 0.35 0.34 0.29 0.27 0.20 0.15 0.13 0.11 0.09 0.08 0.07 0.07 0.07 0.05 0.04 0.05 0.06 0.08 0.14 0.17 0.19 0.20 0.21 0.21
0.14 0.17 0.27 0.34 0.35 0.34 0.32 0.32 0.31 0.30 0.34 0.40 0.48 0.53 0.51 0.51 0.51 0.45 0.37 0.31 0.26 0.22 0.21 0.16 0.11 0.09 0.08 0.06 0.06 0.05 0.06 0.06 0.04 0.03 0.03 0.06 0.11 0.17 0.20 0.22 0.25 0.25 0.22
0.23 0.26 0.35 0.42 0.45 0.42 0.39 0.36 0.36 0.37 0.36 0.40 0.48 0.53 0.53 0.53 0.55 0.46 0.38 0.28 0.21 0.18 0.18 0.15 0.11 0.11 0.09 0.07 0.06 0.06 0.07 0.06 0.03 0.02 0.04 0.07 0.11 0.18 0.19 0.21 0.25 0.29 0.32
0.39 0.44 0.47 0.52 0.54 0.52 0.49 0.44 0.40 0.40 0.40 0.43 0.50 0.52 0.55 0.54 0.54 0.52 0.42 0.26 0.18 0.17 0.18 0.16 0.14 0.14 0.12 0.09 0.09 0.09 0.09 0.05 0.03 0.03 0.05 0.07 0.11 0.18 0.21 0.23 0.25 0.28 0.32
0.59 0.69 0.69 0.71 0.64 0.59 0.54 0.55 0.50 0.48 0.47 0.49 0.56 0.55 0.57 0.57 0.56 0.55 0.45 0.31 0.21 0.18 0.19 0.19 0.17 0.16 0.15 0.12 0.11 0.11 0.10 0.06 0.03 0.02 0.04 0.06 0.10 0.18 0.23 0.24 0.24 0.24 0.26
0.95 1.02 0.91 0.85 0.73 0.69 0.61 0.54 0.54 0.54 0.53 0.56 0.59 0.56 0.56 0.53 0.53 0.52 0.45 0.33 0.27 0.24 0.24 0.23 0.21 0.18 0.16 0.15 0.13 0.10 0.08 0.05 0.03 0.02 0.03 0.05 0.09 0.17 0.22 0.26 0.28 0.27 0.28
1.28 1.37 1.27 1.08 0.93 0.82 0.73 0.58 0.51 0.52 0.52 0.52 0.49 0.42 0.40 0.44 0.48 0.44 0.35 0.29 0.26 0.23 0.23 0.22 0.21 0.20 0.18 0.15 0.12 0.09 0.07 0.06 0.04 0.03 0.05 0.06 0.11 0.20 0.27 0.30 0.32 0.30 0.30
1.53 1.59 1.62 1.41 1.16 0.99 0.85 0.66 0.58 0.55 0.52 0.49 0.42 0.34 0.32 0.36 0.41 0.35 0.25 0.21 0.25 0.26 0.23 0.21 0.20 0.20 0.17 0.12 0.10 0.08 0.07 0.05 0.05 0.05 0.05 0.09 0.18 0.27 0.29 0.27 0.27 0.27 0.29
1.55 1.60 1.76 1.61 1.40 1.22 1.03 0.80 0.72 0.66 0.57 0.49 0.40 0.36 0.33 0.33 0.37 0.31 0.28 0.23 0.24 0.25 0.24 0.25 0.24 0.23 0.20 0.14 0.12 0.11 0.09 0.07 0.07 0.06 0.07 0.13 0.22 0.28 0.27 0.25 0.25 0.25 0.28
1.64 1.77 1.89 1.87 1.62 1.47 1.31 0.99 0.75 0.69 0.66 0.61 0.49 0.42 0.41 0.40 0.41 0.40 0.35 0.31 0.27 0.23 0.22 0.22 0.23 0.20 0.18 0.17 0.16 0.14 0.12 0.11 0.10 0.09 0.09 0.10 0.15 0.24 0.29 0.27 0.27 0.26 0.27
1.76 1.82 1.91 2.06 1.86 1.60 1.43 1.25 1.00 0.78 0.68 0.65 0.57 0.48 0.49 0.48 0.41 0.37 0.34 0.30 0.31 0.27 0.23 0.22 0.21 0.18 0.18 0.17 0.17 0.17 0.16 0.14 0.12 0.11 0.11 0.12 0.13 0.18 0.25 0.30 0.30 0.30 0.30
1.73 1.88 1.95 2.02 2.02 1.78 1.56 1.36 1.23 1.02 0.80 0.76 0.72 0.62 0.56 0.53 0.45 0.37 0.34 0.36 0.37 0.36 0.32 0.27 0.25 0.23 0.22 0.20 0.18 0.17 0.18 0.19 0.16 0.14 0.13 0.13 0.12 0.14 0.19 0.27 0.34 0.38 0.41
1.58 1.81 1.94 1.99 2.09 2.02 1.72 1.51 1.34 1.14 0.93 0.88 0.83 0.75 0.73 0.66 0.62 0.53 0.45 0.41 0.41 0.41 0.40 0.37 0.33 0.32 0.28 0.26 0.22 0.20 0.19 0.20 0.22 0.20 0.18 0.17 0.14 0.13 0.14 0.21 0.31 0.40 0.47
1.51 1.74 1.82 1.93 2.10 2.13 1.96 1.78 1.53 1.37 1.10 0.93 0.86 0.83 0.85 0.78 0.71 0.65 0.60 0.56 0.51 0.50 0.49 0.47 0.46 0.45 0.39 0.34 0.29 0.27 0.25 0.25 0.26 0.26 0.25 0.23 0.19 0.16 0.15 0.19 0.27 0.38 0.46
1.66 1.73 1.79 1.89 2.08 2.09 2.07 2.04 1.89 1.71 1.49 1.19 1.02 0.98 0.94 0.90 0.85 0.77 0.68 0.57 0.51 0.58 0.58 0.54 0.50 0.47 0.41 0.34 0.29 0.28 0.27 0.27 0.28 0.30 0.33 0.32 0.29 0.24 0.20 0.18 0.21 0.29 0.39
1.73 1.77 1.88 1.90 2.09 2.19 2.13 2.14 2.08 1.94 1.82 1.63 1.29 1.08 1.03 1.01 0.98 0.93 0.79 0.71 0.66 0.58 0.58 0.60 0.54 0.47 0.43 0.39 0.35 0.30 0.26 0.24 0.25 0.25 0.26 0.29 0.31 0.31 0.27 0.25 0.24 0.25 0.32
1.71 1.78 1.89 1.93 2.07 2.36 2.43 2.35 2.35 2.09 1.87 1.86 1.63 1.32 1.17 1.16 1.15 1.10 0.97 0.88 0.88 0.80 0.68 0.62 0.58 0.53 0.46 0.47 0.48 0.43 0.37 0.33 0.29 0.27 0.26 0.26 0.26 0.27 0.27 0.23 0.23 0.23 0.26
1.65 1.74 1.80 1.88 1.97 2.21 2.39 2.37 2.30 2.17 1.94 1.81 1.76 1.60 1.42 1.32 1.35 1.31 1.22 1.11 1.02 0.92 0.82 0.76 0.73 0.68 0.62 0.60 0.61 0.52 0.45 0.42 0.39 0.35 0.34 0.34 0.32 0.31 0.30 0.27 0.25 0.23 0.22
1.40 1.58 1.72 1.80 1.91 1.95 2.04 2.27 2.40 2.46 2.31 2.04 1.86 1.73 1.57 1.45 1.41 1.35 1.34 1.31 1.21 1.12 1.06 1.01 0.98 0.92 0.85 0.84 0.83 0.79 0.63 0.48 0.38 0.34 0.35 0.36 0.36 0.36 0.34 0.31 0.28 0.27 0.24
1.20 1.40 1.64 1.77 1.89 1.92 1.97 2.22 2.44 2.60 2.45 2.18 1.85 1.66 1.63 1.61 1.57 1.44 1.41 1.44 1.36 1.26 1.15 1.11 1.11 1.08 1.01 0.97 0.96 1.00 0.86 0.60 0.41 0.32 0.29 0.30 0.34 0.36 0.37 0.39 0.40 0.38 0.33
1.07 1.22 1.36 1.52 1.70 1.88 1.97 2.02 2.08 2.19 2.18 1.97 1.88 1.79 1.78 1.75 1.71 1.62 1.54 1.52 1.48 1.40 1.25 1.20 1.17 1.12 1.09 1.03 0.98 0.90 0.82 0.67 0.62 0.47 0.32 0.30 0.33 0.34 0.37 0.40 0.44 0.47 0.48
0.94 1.17 1.28 1.35 1.53 1.73 1.87 1.95 2.05 2.02 2.05 2.12 2.08 2.00 1.89 1.82 1.76 1.67 1.58 1.56 1.48 1.42 1.37 1.37 1.30 1.26 1.18 1.11 1.05 0.98 0.94 0.81 0.68 0.65 0.49 0.35 0.35 0.36 0.39 0.42 0.46 0.48 0.50
0.82 1.03 1.23 1.25 1.34 1.47 1.67 1.88 1.96 1.88 1.90 1.95 1.94 1.90 1.89 1.88 1.83 1.72 1.59 1.51 1.45 1.40 1.39 1.40 1.43 1.37 1.30 1.24 1.18 1.12 1.09 1.02 0.87 0.82 0.73 0.51 0.44 0.39 0.39 0.41 0.43 0.45 0.48

GEFSSE_prec_meanprecacc_180.txt.gz
Total_Precipitation_Accumulation
0.07 0.12 0.28 0.27 0.30 0.28 0.26 0.24 0.23 0.25 0.31 0.37 0.35 0.31 0.31 0.31 0.31 0.27 0.31 0.33 0.35 0.39 0.38 0.39 0.42 0.44 0.47 0.47 0.36 0.21 0.14 0.13 0.11 0.09 0.09 0.11 0.12 0.13 0.12 0.13 0.14 0.18 0.20
0.06 0.11 0.25 0.27 0.31 0.32 0.30 0.25 0.23 0.25 0.31 0.38 0.41 0.38 0.37 0.37 0.35 0.33 0.32 0.34 0.36 0.36 0.37 0.36 0.32 0.26 0.23 0.21 0.17 0.13 0.11 0.07 0.04 0.03 0.03 0.04 0.07 0.10 0.09 0.09 0.11 0.18 0.22
0.07 0.12 0.23 0.27 0.31 0.33 0.31 0.27 0.24 0.27 0.33 0.38 0.44 0.47 0.43 0.40 0.38 0.39 0.40 0.37 0.39 0.35 0.36 0.30 0.23 0.18 0.15 0.12 0.11 0.10 0.08 0.06 0.04 0.03 0.03 0.05 0.07 0.10 0.11 0.12 0.14 0.20 0.23
0.09 0.14 0.21 0.29 0.32 0.33 0.33 0.32 0.27 0.29 0.34 0.39 0.44 0.48 0.46 0.46 0.46 0.43 0.41 0.36 0.35 0.29 0.27 0.21 0.16 0.13 0.11 0.09 0.08 0.08 0.07 0.07 0.05 0.04 0.05 0.07 0.09 0.15 0.18 0.21 0.23 0.23 0.22
0.15 0.19 0.30 0.37 0.38 0.38 0.36 0.36 0.34 0.33 0.36 0.42 0.49 0.54 0.54 0.55 0.53 0.46 0.38 0.32 0.27 0.23 0.22 0.17 0.12 0.10 0.08 0.06 0.06 0.06 0.07 0.06 0.04 0.03 0.04 0.06 0.12 0.19 0.21 0.24 0.27 0.27 0.24
0.24 0.29 0.40 0.47 0.51 0.46 0.42 0.39 0.40 0.40 0.39 0.42 0.50 0.54 0.55 0.56 0.58 0.49 0.40 0.29 0.22 0.19 0.19 0.15 0.12 0.11 0.09 0.07 0.07 0.07 0.07 0.06 0.03 0.03 0.04 0.07 0.12 0.20 0.20 0.22 0.26 0.30 0.34
0.40 0.48 0.53 0.59 0.62 0.59 0.53 0.48 0.44 0.44 0.44 0.46 0.52 0.54 0.57 0.56 0.57 0.56 0.45 0.28 0.19 0.18 0.19 0.16 0.15 0.14 0.12 0.10 0.09 0.10 0.09 0.06 0.03 0.03 0.05 0.08 0.13 0.20 0.23 0.25 0.28 0.29 0.34
0.61 0.72 0.74 0.79 0.72 0.68 0.61 0.59 0.54 0.52 0.51 0.53 0.59 0.59 0.60 0.60 0.58 0.58 0.48 0.33 0.23 0.19 0.19 0.19 0.18 0.17 0.16 0.13 0.12 0.11 0.10 0.06 0.03 0.02 0.04 0.07 0.12 0.20 0.26 0.27 0.26 0.25 0.27
0.97 1.05 0.96 0.91 0.80 0.78 0.70 0.60 0.60 0.58 0.58 0.60 0.63 0.60 0.59 0.57 0.57 0.55 0.47 0.35 0.29 0.25 0.24 0.23 0.21 0.19 0.17 0.15 0.13 0.10 0.08 0.05 0.03 0.02 0.03 0.05 0.10 0.19 0.25 0.29 0.31 0.28 0.28
1.30 1.41 1.32 1.14 0.99 0.89 0.82 0.67 0.58 0.58 0.57 0.56 0.53 0.46 0.44 0.48 0.52 0.47 0.38 0.31 0.28 0.25 0.24 0.22 0.21 0.20 0.18 0.15 0.12 0.09 0.07 0.06 0.04 0.03 0.05 0.07 0.12 0.22 0.29 0.33 0.35 0.32 0.31
1.57 1.63 1.67 1.47 1.21 1.05 0.92 0.75 0.68 0.62 0.58 0.54 0.46 0.38 0.36 0.40 0.44 0.37 0.27 0.24 0.27 0.28 0.24 0.21 0.21 0.21 0.17 0.12 0.10 0.08 0.07 0.05 0.05 0.05 0.06 0.10 0.20 0.29 0.30 0.29 0.28 0.28 0.30
1.59 1.65 1.80 1.66 1.46 1.28 1.09 0.87 0.82 0.76 0.65 0.56 0.45 0.41 0.38 0.37 0.40 0.32 0.29 0.25 0.27 0.27 0.25 0.25 0.25 0.24 0.20 0.14 0.12 0.11 0.09 0.07 0.07 0.06 0.07 0.13 0.23 0.30 0.29 0.26 0.26 0.26 0.29
1.72 1.83 1.93 1.92 1.67 1.53 1.37 1.05 0.84 0.82 0.78 0.70 0.54 0.48 0.46 0.45 0.45 0.42 0.37 0.33 0.30 0.25 0.23 0.22 0.24 0.20 0.18 0.17 0.16 0.14 0.12 0.11 0.10 0.09 0.09 0.11 0.16 0.25 0.30 0.29 0.27 0.27 0.28
1.85 1.94 2.00 2.12 1.91 1.65 1.51 1.33 1.09 0.89 0.85 0.80 0.67 0.55 0.54 0.52 0.45 0.40 0.36 0.32 0.33 0.28 0.25 0.24 0.21 0.18 0.18 0.17 0.17 0.17 0.16 0.14 0.12 0.11 0.11 0.12 0.13 0.19 0.26 0.31 0.32 0.32 0.32
1.84 1.98 2.05 2.08 2.07 1.83 1.65 1.50 1.33 1.12 0.96 0.98 0.92 0.76 0.61 0.56 0.50 0.43 0.37 0.38 0.39 0.37 0.33 0.28 0.25 0.23 0.22 0.20 0.18 0.17 0.18 0.19 0.16 0.14 0.13 0.13 0.13 0.14 0.20 0.28 0.36 0.42 0.45
1.71 1.91 2.03 2.07 2.14 2.08 1.80 1.65 1.51 1.26 1.07 1.07 1.07 0.94 0.84 0.71 0.67 0.61 0.53 0.46 0.43 0.42 0.41 0.38 0.34 0.33 0.29 0.26 0.22 0.20 0.19 0.21 0.22 0.20 0.18 0.17 0.14 0.13 0.15 0.23 0.33 0.43 0.51
1.66 1.88 1.91 2.00 2.16 2.19 2.05 1.91 1.69 1.52 1.24 1.10 1.07 1.03 0.99 0.86 0.76 0.72 0.67 0.63 0.56 0.52 0.50 0.48 0.47 0.46 0.40 0.34 0.29 0.27 0.26 0.25 0.26 0.26 0.25 0.23 0.19 0.17 0.16 0.20 0.27 0.39 0.48
1.80 1.92 1.96 1.99 2.15 2.16 2.15 2.16 2.05 1.89 1.64 1.35 1.21 1.17 1.12 1.05 0.92 0.83 0.73 0.61 0.56 0.63 0.61 0.55 0.51 0.49 0.42 0.35 0.30 0.28 0.27 0.27 0.28 0.30 0.33 0.32 0.29 0.25 0.20 0.19 0.21 0.29 0.39
1.84 1.96 2.08 2.05 2.20 2.27 2.22 2.26 2.22 2.09 1.98 1.78 1.46 1.25 1.18 1.19 1.12 1.01 0.86 0.77 0.70 0.62 0.61 0.62 0.56 0.49 0.45 0.40 0.35 0.30 0.26 0.24 0.25 0.25 0.26 0.29 0.32 0.31 0.28 0.25 0.24 0.25 0.32
1.81 1.94 2.08 2.11 2.20 2.46 2.51 2.44 2.45 2.20 1.98 1.98 1.78 1.50 1.33 1.31 1.31 1.21 1.04 0.95 0.94 0.86 0.72 0.64 0.60 0.55 0.48 0.48 0.50 0.44 0.38 0.33 0.29 0.27 0.26 0.26 0.26 0.27 0.27 0.24 0.23 0.23 0.26
1.75 1.89 1.97 2.05 2.11 2.32 2.47 2.45 2.37 2.23 2.00 1.88 1.84 1.74 1.60 1.50 1.52 1.49 1.33 1.18 1.09 1.00 0.88 0.80 0.75 0.70 0.64 0.62 0.63 0.54 0.45 0.43 0.39 0.35 0.34 0.34 0.32 0.31 0.30 0.27 0.25 0.23 0.22
1.49 1.71 1.89 1.96 2.05 2.06 2.11 2.32 2.46 2.52 2.36 2.08 1.91 1.80 1.70 1.63 1.60 1.54 1.50 1.41 1.28 1.20 1.15 1.08 1.02 0.95 0.88 0.87 0.86 0.82 0.65 0.49 0.39 0.34 0.35 0.37 0.36 0.36 0.34 0.31 0.28 0.27 0.24
1.28 1.51 1.79 1.92 2.01 2.01 2.03 2.26 2.47 2.64 2.50 2.23 1.90 1.73 1.73 1.74 1.74 1.64 1.60 1.59 1.45 1.32 1.23 1.20 1.16 1.11 1.04 1.00 1.00 1.04 0.88 0.61 0.41 0.33 0.30 0.31 0.34 0.36 0.37 0.39 0.40 0.38 0.33
1.13 1.30 1.48 1.66 1.81 1.97 2.03 2.07 2.11 2.23 2.23 2.04 1.94 1.86 1.86 1.86 1.84 1.78 1.71 1.69 1.62 1.48 1.31 1.26 1.23 1.15 1.10 1.04 1.01 0.94 0.85 0.69 0.62 0.47 0.33 0.30 0.33 0.34 0.37 0.40 0.44 0.47 0.48
0.99 1.24 1.37 1.45 1.61 1.79 1.94 2.00 2.09 2.04 2.08 2.16 2.13 2.07 1.97 1.91 1.86 1.78 1.71 1.69 1.62 1.52 1.44 1.42 1.36 1.31 1.22 1.14 1.07 1.01 0.98 0.83 0.69 0.66 0.50 0.35 0.36 0.36 0.39 0.43 0.46 0.48 0.50
0.87 1.08 1.29 1.32 1.40 1.52 1.72 1.93 1.99 1.90 1.92 1.97 1.96 1.93 1.94 1.94 1.90 1.80 1.67 1.60 1.55 1.52 1.47 1.45 1.47 1.42 1.36 1.28 1.21 1.14 1.13 1.06 0.89 0.84 0.74 0.52 0.44 0.39 0.39 0.41 0.43 0.45 0.48

GEFSSE_prec_meanprecacc_186.txt.gz
Total_Precipitation_Accumulation
0.08 0.13 0.28 0.28 0.30 0.29 0.28 0.25 0.25 0.27 0.33 0.40 0.39 0.34 0.33 0.34 0.33 0.28 0.32 0.35 0.36 0.40 0.39 0.40 0.42 0.45 0.48 0.49 0.38 0.21 0.15 0.14 0.11 0.09 0.10 0.11 0.12 0.14 0.13 0.13 0.16 0.19 0.21
0.06 0.12 0.26 0.27 0.31 0.34 0.32 0.27 0.24 0.26 0.32 0.41 0.44 0.42 0.41 0.40 0.38 0.35 0.33 0.36 0.37 0.38 0.38 0.38 0.33 0.27 0.25 0.23 0.18 0.14 0.11 0.08 0.05 0.04 0.03 0.05 0.08 0.10 0.10 0.09 0.12 0.19 0.22
0.07 0.13 0.24 0.28 0.32 0.34 0.33 0.28 0.25 0.28 0.34 0.40 0.46 0.50 0.46 0.43 0.42 0.42 0.42 0.39 0.41 0.38 0.40 0.33 0.26 0.19 0.16 0.13 0.11 0.10 0.09 0.06 0.04 0.03 0.04 0.06 0.07 0.11 0.12 0.13 0.15 0.20 0.24
0.09 0.15 0.23 0.30 0.33 0.35 0.34 0.33 0.30 0.31 0.35 0.40 0.46 0.51 0.49 0.49 0.50 0.47 0.44 0.39 0.39 0.34 0.33 0.25 0.18 0.14 0.12 0.10 0.09 0.08 0.07 0.07 0.05 0.04 0.06 0.08 0.10 0.16 0.20 0.22 0.25 0.25 0.25
0.15 0.20 0.33 0.39 0.40 0.40 0.38 0.40 0.37 0.35 0.38 0.43 0.51 0.56 0.56 0.57 0.56 0.49 0.42 0.36 0.32 0.28 0.27 0.20 0.13 0.11 0.09 0.07 0.06 0.06 0.07 0.06 0.04 0.03 0.04 0.07 0.13 0.20 0.23 0.25 0.29 0.29 0.27
0.24 0.31 0.44 0.51 0.54 0.48 0.45 0.43 0.44 0.43 0.41 0.44 0.52 0.56 0.57 0.59 0.60 0.52 0.44 0.33 0.26 0.22 0.22 0.18 0.13 0.12 0.09 0.07 0.07 0.07 0.07 0.06 0.03 0.03 0.05 0.09 0.13 0.21 0.22 0.23 0.27 0.32 0.36
0.40 0.50 0.56 0.63 0.66 0.62 0.55 0.51 0.47 0.47 0.46 0.48 0.54 0.56 0.60 0.59 0.59 0.58 0.48 0.31 0.23 0.21 0.22 0.19 0.16 0.15 0.13 0.10 0.09 0.10 0.09 0.06 0.03 0.03 0.06 0.09 0.14 0.22 0.24 0.26 0.29 0.31 0.36
0.61 0.74 0.78 0.84 0.77 0.72 0.64 0.61 0.56 0.55 0.54 0.55 0.61 0.60 0.63 0.63 0.61 0.60 0.50 0.35 0.26 0.22 0.22 0.21 0.19 0.18 0.16 0.13 0.12 0.12 0.10 0.06 0.03 0.02 0.05 0.08 0.13 0.22 0.27 0.28 0.28 0.27 0.28
0.98 1.07 1.00 0.96 0.84 0.81 0.74 0.63 0.62 0.61 0.60 0.63 0.65 0.62 0.62 0.60 0.61 0.58 0.50 0.38 0.33 0.28 0.27 0.25 0.23 0.20 0.18 0.16 0.13 0.10 0.08 0.06 0.03 0.03 0.03 0.06 0.12 0.21 0.26 0.30 0.32 0.29 0.29
1.33 1.44 1.36 1.19 1.04 0.92 0.85 0.70 0.61 0.61 0.60 0.59 0.56 0.48 0.46 0.51 0.56 0.51 0.40 0.34 0.31 0.28 0.27 0.24 0.23 0.22 0.19 0.16 0.12 0.09 0.07 0.06 0.04 0.04 0.05 0.08 0.13 0.23 0.30 0.34 0.35 0.33 0.32
1.62 1.68 1.73 1.54 1.28 1.09 0.95 0.78 0.71 0.65 0.61 0.58 0.50 0.41 0.39 0.44 0.48 0.40 0.29 0.27 0.30 0.30 0.26 0.23 0.22 0.22 0.18 0.12 0.10 0.08 0.07 0.05 0.05 0.05 0.06 0.11 0.22 0.30 0.31 0.29 0.29 0.29 0.31
1.65 1.73 1.89 1.76 1.55 1.35 1.12 0.90 0.86 0.81 0.69 0.60 0.49 0.46 0.43 0.42 0.46 0.37 0.30 0.27 0.29 0.29 0.27 0.27 0.26 0.25 0.21 0.14 0.12 0.11 0.09 0.07 0.07 0.06 0.08 0.14 0.25 0.32 0.30 0.27 0.26 0.26 0.29
1.76 1.92 2.04 2.03 1.77 1.61 1.42 1.09 0.87 0.86 0.84 0.74 0.60 0.55 0.53 0.52 0.52 0.49 0.41 0.35 0.32 0.27 0.25 0.24 0.26 0.22 0.19 0.17 0.16 0.14 0.12 0.12 0.10 0.09 0.09 0.11 0.17 0.27 0.32 0.29 0.28 0.28 0.28
1.89 1.99 2.09 2.24 2.04 1.75 1.56 1.37 1.13 0.94 0.90 0.86 0.73 0.63 0.64 0.62 0.52 0.47 0.42 0.35 0.35 0.30 0.27 0.25 0.23 0.20 0.19 0.18 0.17 0.17 0.16 0.14 0.12 0.11 0.11 0.12 0.14 0.20 0.27 0.32 0.33 0.33 0.34
1.88 2.04 2.12 2.18 2.20 1.96 1.72 1.55 1.38 1.18 1.01 1.04 0.98 0.84 0.74 0.69 0.59 0.49 0.43 0.43 0.42 0.39 0.35 0.31 0.27 0.25 0.23 0.22 0.19 0.17 0.18 0.19 0.17 0.14 0.13 0.13 0.13 0.14 0.20 0.30 0.38 0.45 0.47
1.76 1.98 2.12 2.17 2.26 2.22 1.90 1.70 1.55 1.33 1.15 1.14 1.13 1.02 0.98 0.90 0.84 0.74 0.61 0.54 0.49 0.46 0.44 0.41 0.38 0.35 0.31 0.28 0.23 0.21 0.19 0.21 0.22 0.20 0.18 0.17 0.14 0.13 0.15 0.24 0.35 0.46 0.53
1.71 1.94 1.99 2.09 2.26 2.31 2.15 1.95 1.72 1.56 1.32 1.19 1.14 1.10 1.11 1.05 0.98 0.91 0.83 0.76 0.66 0.59 0.56 0.53 0.51 0.50 0.43 0.36 0.30 0.28 0.26 0.26 0.26 0.27 0.25 0.23 0.20 0.17 0.16 0.21 0.29 0.40 0.49
1.84 1.98 2.04 2.07 2.24 2.27 2.26 2.22 2.08 1.91 1.68 1.42 1.30 1.26 1.21 1.19 1.12 1.03 0.91 0.78 0.68 0.69 0.68 0.62 0.56 0.54 0.46 0.37 0.31 0.29 0.28 0.28 0.28 0.30 0.33 0.33 0.29 0.25 0.20 0.19 0.21 0.29 0.40
1.86 2.01 2.15 2.15 2.30 2.38 2.35 2.35 2.27 2.13 2.02 1.82 1.51 1.32 1.27 1.29 1.27 1.21 1.04 0.91 0.83 0.71 0.68 0.68 0.61 0.54 0.49 0.44 0.38 0.32 0.27 0.25 0.25 0.26 0.26 0.29 0.32 0.31 0.28 0.25 0.24 0.25 0.32
1.83 1.98 2.14 2.19 2.30 2.56 2.63 2.57 2.52 2.24 2.02 2.01 1.81 1.54 1.39 1.39 1.42 1.36 1.20 1.10 1.08 0.96 0.80 0.69 0.65 0.60 0.52 0.53 0.52 0.46 0.39 0.34 0.30 0.27 0.26 0.26 0.26 0.27 0.27 0.24 0.23 0.23 0.26
1.77 1.92 2.04 2.13 2.20 2.43 2.57 2.56 2.46 2.28 2.04 1.92 1.87 1.77 1.64 1.56 1.58 1.57 1.44 1.32 1.25 1.14 0.99 0.86 0.78 0.74 0.68 0.66 0.66 0.56 0.47 0.44 0.40 0.35 0.34 0.34 0.32 0.31 0.30 0.28 0.25 0.23 0.22
1.50 1.73 1.94 2.04 2.14 2.16 2.21 2.42 2.55 2.60 2.41 2.12 1.93 1.83 1.72 1.66 1.64 1.60 1.58 1.52 1.43 1.35 1.27 1.18 1.08 0.98 0.91 0.90 0.90 0.85 0.68 0.52 0.41 0.36 0.37 0.37 0.36 0.36 0.34 0.32 0.29 0.27 0.24
1.29 1.52 1.81 1.97 2.08 2.08 2.12 2.36 2.55 2.70 2.54 2.25 1.92 1.75 1.75 1.77 1.77 1.68 1.67 1.68 1.59 1.49 1.39 1.33 1.24 1.16 1.07 1.03 1.03 1.08 0.92 0.65 0.45 0.36 0.32 0.32 0.35 0.37 0.37 0.39 0.41 0.38 0.33
1.14 1.31 1.50 1.69 1.86 2.03 2.09 2.14 2.19 2.28 2.27 2.06 1.96 1.88 1.89 1.88 1.87 1.81 1.77 1.76 1.72 1.62 1.46 1.39 1.33 1.22 1.14 1.08 1.05 0.98 0.89 0.72 0.66 0.51 0.35 0.32 0.34 0.34 0.37 0.41 0.44 0.47 0.48
1.01 1.25 1.39 1.47 1.64 1.84 1.99 2.06 2.16 2.12 2.14 2.21 2.17 2.09 2.00 1.94 1.90 1.82 1.76 1.76 1.68 1.61 1.56 1.56 1.48 1.39 1.27 1.17 1.10 1.04 1.02 0.86 0.71 0.68 0.51 0.37 0.37 0.37 0.39 0.43 0.46 0.48 0.50
0.91 1.11 1.32 1.34 1.42 1.55 1.76 1.97 2.05 1.96 1.97 2.03 2.01 1.97 1.97 1.96 1.93 1.83 1.72 1.67 1.63 1.61 1.58 1.59 1.61 1.51 1.43 1.34 1.25 1.17 1.15 1.08 0.91 0.85 0.76 0.53 0.45 0.40 0.40 0.42 0.43 0.45 0.49

GEFSSE_prec_meanprecacc_192.txt.gz
Total_Precipitation_Accumulation
0.08 0.14 0.30 0.29 0.31 0.29 0.29 0.26 0.26 0.28 0.35 0.43 0.41 0.36 0.34 0.35 0.34 0.29 0.33 0.36 0.38 0.42 0.40 0.41 0.44 0.46 0.49 0.50 0.39 0.22 0.15 0.14 0.11 0.10 0.10 0.12 0.14 0.16 0.14 0.14 0.17 0.20 0.22
0.07 0.13 0.27 0.29 0.33 0.35 0.33 0.28 0.26 0.28 0.34 0.43 0.46 0.44 0.43 0.42 0.40 0.36 0.35 0.37 0.39 0.41 0.41 0.39 0.34 0.28 0.26 0.24 0.19 0.15 0.12 0.08 0.05 0.04 0.03 0.05 0.08 0.11 0.10 0.10 0.13 0.20 0.24
0.08 0.14 0.25 0.30 0.34 0.35 0.34 0.29 0.26 0.29 0.35 0.41 0.47 0.52 0.48 0.46 0.44 0.44 0.44 0.41 0.44 0.41 0.43 0.36 0.27 0.21 0.17 0.14 0.12 0.11 0.10 0.06 0.04 0.03 0.04 0.06 0.08 0.12 0.13 0.14 0.16 0.22 0.26
0.09 0.16 0.24 0.32 0.36 0.37 0.35 0.34 0.30 0.32 0.37 0.41 0.47 0.53 0.51 0.51 0.52 0.49 0.46 0.42 0.42 0.38 0.39 0.30 0.21 0.17 0.13 0.11 0.10 0.09 0.08 0.08 0.06 0.04 0.06 0.08 0.11 0.18 0.22 0.24 0.27 0.27 0.27
0.16 0.21 0.35 0.42 0.43 0.42 0.40 0.41 0.38 0.36 0.40 0.45 0.52 0.57 0.58 0.59 0.59 0.52 0.45 0.38 0.33 0.30 0.31 0.26 0.17 0.13 0.10 0.08 0.07 0.07 0.08 0.07 0.04 0.03 0.04 0.08 0.14 0.22 0.25 0.27 0.30 0.31 0.28
0.26 0.33 0.45 0.53 0.58 0.52 0.48 0.44 0.45 0.44 0.43 0.46 0.53 0.57 0.59 0.60 0.63 0.54 0.46 0.34 0.27 0.24 0.25 0.22 0.16 0.13 0.11 0.09 0.08 0.08 0.08 0.06 0.04 0.03 0.05 0.09 0.14 0.23 0.23 0.24 0.28 0.33 0.37
0.44 0.53 0.59 0.66 0.71 0.66 0.59 0.53 0.48 0.49 0.48 0.49 0.56 0.58 0.61 0.61 0.61 0.60 0.50 0.32 0.24 0.23 0.24 0.21 0.18 0.17 0.15 0.12 0.10 0.10 0.09 0.06 0.03 0.03 0.06 0.09 0.15 0.23 0.25 0.27 0.30 0.32 0.37
0.67 0.79 0.81 0.87 0.82 0.77 0.68 0.64 0.57 0.56 0.55 0.57 0.62 0.62 0.65 0.66 0.63 0.62 0.52 0.37 0.28 0.25 0.25 0.24 0.20 0.19 0.18 0.15 0.13 0.12 0.10 0.06 0.03 0.03 0.05 0.09 0.15 0.24 0.29 0.29 0.29 0.28 0.30
1.06 1.14 1.03 1.00 0.88 0.87 0.79 0.68 0.64 0.62 0.62 0.64 0.66 0.64 0.64 0.63 0.63 0.60 0.52 0.40 0.35 0.31 0.30 0.28 0.25 0.21 0.19 0.17 0.15 0.11 0.08 0.06 0.03 0.03 0.04 0.07 0.13 0.23 0.27 0.32 0.34 0.31 0.31
1.41 1.53 1.41 1.23 1.08 0.97 0.90 0.75 0.67 0.63 0.62 0.61 0.57 0.49 0.47 0.53 0.59 0.54 0.42 0.36 0.34 0.32 0.30 0.28 0.26 0.23 0.20 0.17 0.14 0.10 0.07 0.06 0.04 0.04 0.06 0.09 0.15 0.25 0.31 0.35 0.37 0.35 0.33
1.70 1.77 1.79 1.61 1.34 1.15 1.00 0.83 0.79 0.70 0.63 0.60 0.51 0.41 0.40 0.46 0.50 0.42 0.31 0.28 0.31 0.33 0.30 0.27 0.25 0.23 0.19 0.14 0.11 0.09 0.08 0.05 0.05 0.05 0.06 0.12 0.23 0.31 0.32 0.30 0.30 0.30 0.32
1.74 1.82 1.95 1.83 1.64 1.43 1.19 0.95 0.94 0.87 0.71 0.61 0.50 0.46 0.44 0.44 0.48 0.40 0.32 0.28 0.30 0.31 0.29 0.31 0.29 0.27 0.23 0.16 0.13 0.11 0.10 0.07 0.07 0.07 0.08 0.15 0.26 0.34 0.31 0.28 0.27 0.27 0.30
1.85 2.00 2.09 2.10 1.85 1.71 1.52 1.16 0.95 0.94 0.88 0.77 0.61 0.56 0.54 0.54 0.54 0.52 0.43 0.38 0.34 0.28 0.26 0.26 0.28 0.23 0.21 0.19 0.17 0.15 0.13 0.12 0.10 0.09 0.10 0.12 0.18 0.29 0.33 0.30 0.29 0.28 0.29
2.01 2.07 2.14 2.30 2.13 1.86 1.69 1.47 1.22 1.04 0.97 0.91 0.76 0.65 0.66 0.63 0.54 0.49 0.45 0.40 0.39 0.33 0.29 0.27 0.24 0.21 0.20 0.19 0.18 0.18 0.17 0.15 0.12 0.11 0.11 0.13 0.14 0.21 0.28 0.33 0.34 0.34 0.34
2.03 2.13 2.18 2.26 2.30 2.09 1.89 1.66 1.46 1.27 1.10 1.11 1.04 0.88 0.77 0.72 0.61 0.51 0.46 0.47 0.47 0.43 0.38 0.33 0.29 0.26 0.24 0.23 0.20 0.18 0.19 0.20 0.17 0.14 0.13 0.13 0.13 0.15 0.22 0.31 0.40 0.46 0.49
1.92 2.09 2.17 2.24 2.35 2.33 2.07 1.87 1.64 1.40 1.23 1.23 1.20 1.08 1.02 0.94 0.88 0.77 0.64 0.57 0.53 0.52 0.50 0.44 0.40 0.37 0.33 0.30 0.24 0.21 0.20 0.22 0.22 0.20 0.18 0.17 0.14 0.14 0.16 0.25 0.38 0.49 0.55
1.87 2.08 2.08 2.15 2.34 2.41 2.30 2.12 1.86 1.64 1.39 1.29 1.22 1.16 1.17 1.10 1.04 0.99 0.89 0.81 0.73 0.69 0.65 0.60 0.56 0.53 0.45 0.39 0.33 0.30 0.27 0.27 0.27 0.27 0.26 0.24 0.20 0.17 0.17 0.22 0.31 0.42 0.51
1.93 2.11 2.14 2.13 2.30 2.36 2.38 2.40 2.24 2.02 1.76 1.49 1.36 1.31 1.27 1.25 1.19 1.12 1.02 0.88 0.77 0.81 0.81 0.75 0.67 0.60 0.49 0.41 0.35 0.32 0.29 0.29 0.29 0.31 0.33 0.33 0.30 0.25 0.21 0.20 0.22 0.31 0.41
1.89 2.06 2.23 2.21 2.34 2.44 2.43 2.48 2.45 2.25 2.10 1.89 1.57 1.36 1.31 1.34 1.34 1.29 1.17 1.07 0.99 0.84 0.80 0.81 0.74 0.64 0.56 0.49 0.42 0.35 0.30 0.27 0.27 0.27 0.27 0.29 0.32 0.31 0.28 0.26 0.25 0.26 0.33
1.84 2.00 2.17 2.23 2.33 2.59 2.68 2.64 2.62 2.36 2.12 2.09 1.86 1.57 1.41 1.41 1.46 1.41 1.29 1.22 1.21 1.10 0.93 0.81 0.76 0.72 0.63 0.60 0.57 0.49 0.42 0.36 0.33 0.29 0.27 0.27 0.26 0.28 0.27 0.24 0.23 0.24 0.26
1.78 1.94 2.06 2.15 2.22 2.45 2.61 2.61 2.54 2.38 2.13 2.01 1.97 1.81 1.66 1.57 1.59 1.59 1.46 1.37 1.31 1.21 1.07 0.97 0.89 0.85 0.82 0.78 0.74 0.61 0.50 0.46 0.44 0.39 0.37 0.36 0.33 0.32 0.31 0.28 0.25 0.23 0.22
1.51 1.75 1.96 2.05 2.15 2.17 2.25 2.46 2.62 2.69 2.49 2.18 2.00 1.90 1.76 1.67 1.65 1.61 1.59 1.54 1.46 1.38 1.32 1.25 1.18 1.09 1.03 1.04 1.01 0.93 0.74 0.56 0.44 0.39 0.41 0.40 0.38 0.37 0.35 0.32 0.29 0.27 0.24
1.31 1.54 1.83 1.99 2.10 2.10 2.14 2.40 2.62 2.77 2.62 2.31 1.96 1.79 1.79 1.79 1.78 1.69 1.68 1.69 1.61 1.51 1.42 1.37 1.32 1.26 1.18 1.15 1.16 1.18 0.99 0.71 0.49 0.39 0.35 0.36 0.37 0.38 0.38 0.40 0.41 0.38 0.33
1.17 1.34 1.52 1.71 1.87 2.04 2.11 2.16 2.23 2.33 2.32 2.11 2.00 1.91 1.92 1.90 1.88 1.82 1.78 1.77 1.73 1.64 1.49 1.43 1.37 1.29 1.24 1.19 1.17 1.09 0.97 0.78 0.70 0.54 0.39 0.36 0.37 0.37 0.38 0.41 0.45 0.48 0.48
1.04 1.28 1.41 1.49 1.65 1.85 2.00 2.07 2.18 2.15 2.18 2.24 2.20 2.12 2.03 1.97 1.91 1.83 1.78 1.77 1.70 1.63 1.58 1.59 1.52 1.45 1.35 1.25 1.19 1.14 1.11 0.94 0.78 0.73 0.56 0.42 0.41 0.40 0.41 0.44 0.47 0.49 0.51
0.93 1.13 1.34 1.36 1.44 1.57 1.78 1.99 2.07 1.99 2.00 2.05 2.03 2.00 1.99 1.99 1.95 1.85 1.74 1.69 1.65 1.63 1.60 1.61 1.65 1.57 1.51 1.42 1.33 1.25 1.24 1.17 0.98 0.91 0.81 0.59 0.51 0.45 0.43 0.43 0.44 0.46 0.49

GEFSSE_prec_meanprecacc_198.txt.gz
Total_Precipitation_Accumulation
0.08 0.15 0.33 0.32 0.33 0.31 0.31 0.27 0.27 0.29 0.37 0.45 0.43 0.38 0.37 0.37 0.35 0.30 0.35 0.37 0.40 0.44 0.42 0.42 0.45 0.47 0.50 0.51 0.41 0.24 0.17 0.15 0.12 0.10 0.12 0.14 0.16 0.17 0.14 0.15 0.18 0.21 0.24
0.07 0.13 0.30 0.31 0.35 0.37 0.35 0.30 0.27 0.30 0.36 0.44 0.48 0.46 0.46 0.45 0.42 0.37 0.36 0.39 0.40 0.42 0.43 0.41 0.36 0.30 0.27 0.26 0.20 0.16 0.13 0.09 0.06 0.04 0.03 0.05 0.09 0.12 0.11 0.11 0.14 0.22 0.26
0.08 0.15 0.27 0.32 0.37 0.38 0.36 0.31 0.28 0.31 0.38 0.43 0.49 0.54 0.51 0.49 0.47 0.45 0.46 0.42 0.45 0.42 0.45 0.38 0.29 0.22 0.19 0.16 0.13 0.12 0.11 0.07 0.05 0.04 0.04 0.06 0.09 0.13 0.14 0.15 0.18 0.25 0.29
0.10 0.16 0.26 0.35 0.39 0.41 0.39 0.37 0.32 0.33 0.39 0.43 0.49 0.54 0.53 0.53 0.55 0.51 0.48 0.43 0.44 0.40 0.40 0.32 0.23 0.18 0.15 0.12 0.12 0.10 0.09 0.08 0.06 0.04 0.06 0.08 0.12 0.21 0.24 0.26 0.30 0.30 0.30
0.17 0.21 0.36 0.44 0.46 0.45 0.44 0.44 0.40 0.38 0.42 0.46 0.53 0.59 0.59 0.62 0.62 0.55 0.46 0.40 0.36 0.32 0.33 0.28 0.19 0.15 0.11 0.09 0.09 0.08 0.09 0.07 0.04 0.03 0.04 0.08 0.15 0.25 0.27 0.29 0.33 0.34 0.30
0.28 0.35 0.48 0.57 0.61 0.56 0.51 0.49 0.48 0.47 0.45 0.48 0.54 0.59 0.60 0.62 0.65 0.58 0.48 0.36 0.29 0.26 0.27 0.24 0.18 0.15 0.12 0.10 0.09 0.09 0.09 0.07 0.04 0.03 0.05 0.09 0.15 0.24 0.24 0.26 0.30 0.35 0.38
0.47 0.56 0.63 0.71 0.75 0.71 0.64 0.58 0.53 0.52 0.50 0.51 0.57 0.59 0.63 0.63 0.63 0.63 0.53 0.35 0.26 0.25 0.27 0.24 0.20 0.18 0.16 0.13 0.12 0.12 0.10 0.06 0.04 0.03 0.06 0.10 0.16 0.25 0.27 0.29 0.31 0.33 0.38
0.73 0.84 0.86 0.93 0.87 0.82 0.73 0.69 0.63 0.62 0.58 0.58 0.64 0.64 0.67 0.68 0.66 0.65 0.56 0.41 0.30 0.27 0.27 0.26 0.22 0.20 0.20 0.16 0.14 0.13 0.11 0.06 0.03 0.03 0.05 0.09 0.16 0.25 0.30 0.30 0.30 0.29 0.31
1.12 1.22 1.13 1.10 0.96 0.93 0.85 0.74 0.71 0.69 0.68 0.67 0.68 0.65 0.66 0.67 0.67 0.64 0.55 0.43 0.37 0.34 0.33 0.31 0.26 0.23 0.21 0.19 0.16 0.13 0.09 0.06 0.03 0.03 0.04 0.07 0.15 0.25 0.29 0.32 0.35 0.32 0.32
1.48 1.62 1.55 1.37 1.20 1.07 0.99 0.83 0.76 0.75 0.73 0.67 0.60 0.51 0.50 0.57 0.63 0.58 0.46 0.39 0.36 0.35 0.34 0.33 0.30 0.26 0.22 0.19 0.16 0.12 0.08 0.06 0.05 0.04 0.06 0.10 0.17 0.27 0.32 0.36 0.38 0.36 0.35
1.79 1.88 1.94 1.76 1.48 1.27 1.11 0.92 0.87 0.83 0.77 0.69 0.55 0.44 0.43 0.48 0.53 0.46 0.34 0.31 0.34 0.36 0.34 0.31 0.29 0.28 0.22 0.16 0.13 0.11 0.10 0.07 0.06 0.06 0.07 0.13 0.25 0.33 0.33 0.32 0.32 0.32 0.34
1.84 1.93 2.08 1.96 1.78 1.57 1.31 1.06 1.03 0.97 0.80 0.68 0.54 0.49 0.46 0.45 0.49 0.42 0.36 0.32 0.34 0.34 0.32 0.35 0.34 0.31 0.26 0.18 0.16 0.14 0.12 0.09 0.08 0.07 0.09 0.16 0.28 0.35 0.32 0.29 0.29 0.29 0.32
1.94 2.10 2.21 2.21 1.96 1.83 1.64 1.28 1.06 1.02 0.95 0.82 0.65 0.58 0.56 0.56 0.55 0.54 0.46 0.41 0.37 0.31 0.28 0.29 0.32 0.28 0.23 0.20 0.19 0.17 0.15 0.14 0.12 0.10 0.11 0.13 0.19 0.30 0.35 0.32 0.30 0.30 0.30
2.08 2.14 2.25 2.40 2.22 1.94 1.77 1.57 1.33 1.13 1.04 0.96 0.81 0.69 0.69 0.66 0.56 0.50 0.46 0.41 0.42 0.36 0.31 0.28 0.25 0.24 0.23 0.20 0.20 0.19 0.18 0.16 0.14 0.13 0.13 0.14 0.16 0.22 0.31 0.36 0.36 0.35 0.36
2.09 2.21 2.29 2.38 2.40 2.17 1.96 1.75 1.56 1.37 1.20 1.20 1.12 0.95 0.82 0.75 0.64 0.54 0.49 0.49 0.50 0.47 0.42 0.37 0.32 0.28 0.27 0.25 0.22 0.20 0.20 0.21 0.19 0.16 0.14 0.14 0.14 0.16 0.24 0.34 0.43 0.48 0.50
1.98 2.17 2.29 2.37 2.48 2.44 2.14 1.95 1.76 1.51 1.33 1.34 1.30 1.16 1.08 0.98 0.91 0.80 0.68 0.60 0.57 0.55 0.54 0.49 0.44 0.40 0.35 0.32 0.27 0.24 0.22 0.23 0.24 0.22 0.20 0.18 0.15 0.15 0.18 0.29 0.42 0.52 0.57
1.93 2.15 2.16 2.26 2.45 2.52 2.38 2.18 1.95 1.78 1.51 1.41 1.34 1.25 1.24 1.15 1.08 1.02 0.92 0.85 0.78 0.73 0.69 0.66 0.62 0.57 0.48 0.42 0.36 0.32 0.30 0.29 0.29 0.29 0.27 0.25 0.21 0.18 0.19 0.25 0.36 0.47 0.53
1.98 2.16 2.20 2.21 2.38 2.44 2.46 2.45 2.29 2.12 1.89 1.63 1.50 1.43 1.35 1.30 1.23 1.15 1.06 0.92 0.83 0.87 0.87 0.81 0.73 0.67 0.55 0.45 0.38 0.34 0.32 0.32 0.32 0.33 0.35 0.34 0.31 0.26 0.22 0.22 0.26 0.35 0.43
1.94 2.11 2.27 2.25 2.39 2.49 2.49 2.51 2.49 2.30 2.18 2.00 1.69 1.48 1.41 1.41 1.38 1.33 1.21 1.12 1.05 0.93 0.90 0.90 0.82 0.71 0.63 0.55 0.47 0.39 0.33 0.30 0.30 0.30 0.29 0.30 0.33 0.32 0.29 0.27 0.26 0.28 0.35
1.88 2.03 2.20 2.26 2.37 2.63 2.71 2.67 2.64 2.39 2.16 2.14 1.94 1.67 1.51 1.49 1.52 1.46 1.33 1.27 1.28 1.18 1.03 0.91 0.85 0.80 0.70 0.67 0.64 0.55 0.47 0.41 0.37 0.33 0.30 0.29 0.28 0.29 0.28 0.25 0.24 0.25 0.28
1.80 1.96 2.08 2.18 2.25 2.48 2.64 2.62 2.55 2.39 2.16 2.04 2.01 1.88 1.75 1.65 1.66 1.64 1.50 1.40 1.35 1.27 1.16 1.07 0.98 0.93 0.89 0.85 0.83 0.71 0.58 0.53 0.50 0.45 0.41 0.39 0.36 0.34 0.32 0.30 0.27 0.25 0.23
1.53 1.77 1.98 2.07 2.18 2.20 2.28 2.48 2.63 2.70 2.50 2.20 2.04 1.96 1.84 1.75 1.72 1.67 1.63 1.56 1.48 1.42 1.39 1.34 1.28 1.18 1.11 1.11 1.10 1.05 0.87 0.69 0.53 0.47 0.48 0.46 0.42 0.40 0.37 0.34 0.31 0.28 0.25
1.32 1.56 1.86 2.01 2.12 2.13 2.17 2.42 2.64 2.79 2.63 2.33 1.99 1.83 1.84 1.86 1.84 1.74 1.71 1.72 1.62 1.53 1.45 1.41 1.37 1.31 1.24 1.22 1.24 1.28 1.12 0.84 0.60 0.48 0.43 0.43 0.43 0.43 0.42 0.42 0.43 0.40 0.35
1.18 1.36 1.53 1.72 1.89 2.07 2.13 2.18 2.24 2.35 2.34 2.13 2.02 1.93 1.94 1.93 1.92 1.86 1.80 1.79 1.74 1.65 1.51 1.45 1.40 1.31 1.27 1.23 1.23 1.17 1.07 0.89 0.81 0.66 0.48 0.44 0.45 0.45 0.44 0.45 0.47 0.49 0.49
1.05 1.29 1.42 1.50 1.68 1.88 2.03 2.10 2.21 2.17 2.19 2.26 2.21 2.14 2.05 1.99 1.93 1.85 1.80 1.79 1.71 1.64 1.60 1.61 1.54 1.48 1.37 1.28 1.23 1.20 1.17 1.02 0.86 0.82 0.65 0.50 0.50 0.50 0.51 0.52 0.52 0.51 0.52
0.93 1.14 1.35 1.38 1.47 1.59 1.80 2.03 2.11 2.02 2.03 2.07 2.05 2.01 2.01 2.00 1.97 1.87 1.75 1.70 1.67 1.64 1.61 1.63 1.67 1.60 1.53 1.45 1.36 1.28 1.28 1.21 1.04 0.98 0.89 0.67 0.59 0.54 0.52 0.54 0.54 0.53 0.53

GEFSSE_prec_meanprecacc_204.txt.gz
Total_Precipitation_Accumulation
0.09 0.15 0.35 0.33 0.35 0.34 0.33 0.29 0.27 0.30 0.38 0.46 0.46 0.42 0.41 0.40 0.39 0.34 0.38 0.40 0.42 0.46 0.44 0.45 0.48 0.50 0.53 0.54 0.43 0.26 0.19 0.18 0.14 0.11 0.12 0.15 0.18 0.19 0.16 0.16 0.20 0.22 0.27
0.07 0.14 0.31 0.33 0.37 0.39 0.37 0.31 0.29 0.31 0.37 0.45 0.50 0.49 0.49 0.48 0.46 0.41 0.39 0.41 0.43 0.44 0.45 0.45 0.38 0.32 0.30 0.29 0.22 0.17 0.15 0.10 0.06 0.05 0.04 0.06 0.10 0.13 0.11 0.12 0.15 0.24 0.29
0.08 0.15 0.28 0.34 0.39 0.40 0.39 0.33 0.29 0.32 0.39 0.44 0.50 0.56 0.54 0.52 0.51 0.49 0.48 0.46 0.48 0.45 0.48 0.41 0.31 0.24 0.21 0.18 0.15 0.14 0.12 0.08 0.05 0.04 0.04 0.07 0.10 0.14 0.15 0.16 0.19 0.27 0.32
0.10 0.17 0.27 0.37 0.42 0.43 0.41 0.39 0.34 0.35 0.41 0.46 0.50 0.55 0.55 0.56 0.58 0.53 0.51 0.47 0.48 0.43 0.43 0.35 0.26 0.20 0.16 0.14 0.13 0.12 0.10 0.08 0.06 0.04 0.06 0.08 0.13 0.22 0.26 0.28 0.32 0.33 0.32
0.18 0.22 0.37 0.47 0.50 0.48 0.46 0.46 0.43 0.41 0.45 0.50 0.56 0.61 0.61 0.63 0.64 0.57 0.49 0.44 0.40 0.36 0.36 0.31 0.21 0.16 0.12 0.10 0.10 0.09 0.10 0.08 0.05 0.03 0.04 0.08 0.16 0.28 0.30 0.31 0.36 0.36 0.32
0.30 0.36 0.49 0.59 0.65 0.60 0.54 0.52 0.51 0.50 0.50 0.52 0.57 0.61 0.63 0.64 0.67 0.60 0.51 0.40 0.32 0.30 0.30 0.28 0.20 0.17 0.13 0.11 0.11 0.11 0.10 0.08 0.04 0.03 0.05 0.10 0.16 0.27 0.26 0.29 0.32 0.36 0.39
0.49 0.58 0.65 0.75 0.81 0.77 0.69 0.62 0.57 0.56 0.55 0.56 0.60 0.61 0.65 0.65 0.66 0.65 0.56 0.38 0.29 0.28 0.30 0.28 0.23 0.20 0.17 0.14 0.13 0.13 0.11 0.07 0.04 0.04 0.07 0.10 0.17 0.27 0.29 0.31 0.32 0.33 0.38
0.75 0.87 0.90 0.98 0.95 0.90 0.80 0.74 0.68 0.67 0.64 0.64 0.68 0.66 0.69 0.70 0.68 0.68 0.59 0.44 0.33 0.30 0.31 0.29 0.26 0.22 0.21 0.17 0.15 0.14 0.11 0.06 0.03 0.03 0.06 0.10 0.16 0.27 0.32 0.31 0.31 0.30 0.32
1.14 1.25 1.18 1.16 1.03 1.03 0.94 0.81 0.78 0.74 0.74 0.74 0.74 0.69 0.68 0.68 0.69 0.67 0.58 0.46 0.40 0.37 0.36 0.34 0.30 0.26 0.22 0.20 0.17 0.13 0.09 0.06 0.04 0.03 0.04 0.08 0.16 0.27 0.30 0.33 0.36 0.34 0.34
1.50 1.66 1.59 1.42 1.25 1.13 1.06 0.91 0.84 0.82 0.80 0.76 0.68 0.57 0.53 0.59 0.64 0.60 0.48 0.41 0.38 0.37 0.37 0.36 0.33 0.30 0.25 0.20 0.17 0.12 0.09 0.07 0.05 0.04 0.06 0.10 0.19 0.30 0.34 0.38 0.40 0.37 0.37
1.81 1.91 1.97 1.80 1.53 1.33 1.18 0.99 0.97 0.93 0.87 0.80 0.65 0.51 0.47 0.51 0.55 0.47 0.36 0.33 0.36 0.38 0.36 0.34 0.32 0.31 0.26 0.18 0.15 0.13 0.10 0.08 0.06 0.07 0.08 0.14 0.27 0.36 0.35 0.33 0.34 0.34 0.36
1.86 1.95 2.11 1.99 1.82 1.63 1.38 1.13 1.12 1.07 0.91 0.77 0.63 0.56 0.50 0.48 0.51 0.44 0.38 0.34 0.36 0.36 0.35 0.39 0.37 0.34 0.29 0.21 0.17 0.15 0.13 0.10 0.09 0.08 0.11 0.18 0.31 0.39 0.35 0.31 0.30 0.30 0.33
1.96 2.12 2.24 2.24 1.98 1.86 1.71 1.37 1.15 1.12 1.04 0.91 0.74 0.64 0.60 0.59 0.57 0.56 0.48 0.43 0.40 0.33 0.30 0.32 0.35 0.30 0.25 0.22 0.20 0.18 0.16 0.15 0.13 0.11 0.12 0.15 0.21 0.33 0.37 0.34 0.32 0.31 0.31
2.10 2.17 2.27 2.43 2.25 1.96 1.81 1.64 1.43 1.24 1.13 1.03 0.89 0.77 0.74 0.69 0.58 0.53 0.48 0.44 0.45 0.39 0.34 0.32 0.28 0.26 0.26 0.23 0.21 0.21 0.20 0.17 0.14 0.14 0.14 0.16 0.17 0.24 0.33 0.38 0.38 0.37 0.38
2.12 2.24 2.32 2.41 2.43 2.19 1.99 1.80 1.62 1.45 1.29 1.26 1.17 1.02 0.90 0.80 0.67 0.56 0.51 0.52 0.52 0.49 0.46 0.41 0.35 0.32 0.30 0.28 0.25 0.22 0.23 0.23 0.20 0.18 0.16 0.16 0.16 0.18 0.27 0.37 0.46 0.51 0.53
2.00 2.20 2.32 2.41 2.52 2.46 2.17 2.00 1.81 1.56 1.38 1.40 1.36 1.22 1.16 1.05 0.96 0.82 0.70 0.63 0.60 0.58 0.58 0.54 0.48 0.45 0.38 0.34 0.29 0.26 0.24 0.25 0.26 0.24 0.22 0.20 0.18 0.17 0.21 0.33 0.46 0.57 0.61
1.97 2.19 2.21 2.31 2.50 2.55 2.40 2.22 2.02 1.83 1.56 1.45 1.37 1.30 1.30 1.21 1.12 1.05 0.95 0.87 0.80 0.77 0.74 0.71 0.67 0.62 0.52 0.44 0.37 0.34 0.31 0.30 0.31 0.31 0.30 0.27 0.23 0.20 0.21 0.29 0.42 0.54 0.59
2.06 2.23 2.25 2.25 2.42 2.48 2.49 2.49 2.34 2.19 1.94 1.66 1.53 1.46 1.40 1.36 1.28 1.19 1.09 0.94 0.85 0.90 0.91 0.87 0.80 0.73 0.61 0.50 0.41 0.36 0.33 0.33 0.33 0.35 0.37 0.36 0.33 0.28 0.24 0.25 0.30 0.41 0.50
2.03 2.19 2.33 2.30 2.43 2.54 2.52 2.54 2.53 2.36 2.23 2.03 1.71 1.50 1.44 1.47 1.46 1.39 1.25 1.15 1.07 0.94 0.92 0.95 0.90 0.78 0.70 0.65 0.57 0.46 0.37 0.33 0.32 0.31 0.31 0.33 0.36 0.34 0.31 0.30 0.30 0.33 0.41
1.97 2.12 2.26 2.32 2.41 2.67 2.74 2.69 2.67 2.43 2.19 2.16 1.96 1.68 1.52 1.53 1.58 1.53 1.39 1.32 1.31 1.20 1.04 0.94 0.94 0.90 0.78 0.75 0.72 0.63 0.54 0.47 0.41 0.36 0.33 0.31 0.31 0.32 0.32 0.28 0.28 0.28 0.32
1.87 2.05 2.16 2.24 2.31 2.53 2.67 2.64 2.57 2.41 2.17 2.06 2.02 1.89 1.75 1.67 1.69 1.69 1.56 1.46 1.40 1.30 1.18 1.09 1.02 1.00 0.97 0.92 0.89 0.76 0.64 0.58 0.55 0.49 0.45 0.42 0.39 0.37 0.35 0.33 0.30 0.28 0.26
1.59 1.83 2.06 2.15 2.24 2.25 2.31 2.51 2.65 2.72 2.52 2.22 2.05 1.96 1.84 1.76 1.74 1.70 1.67 1.61 1.52 1.45 1.41 1.36 1.31 1.22 1.16 1.16 1.14 1.10 0.93 0.75 0.60 0.52 0.53 0.52 0.48 0.46 0.42 0.38 0.34 0.32 0.28
1.38 1.62 1.91 2.06 2.18 2.19 2.22 2.46 2.67 2.81 2.66 2.34 2.00 1.84 1.85 1.86 1.86 1.76 1.74 1.75 1.66 1.55 1.46 1.43 1.40 1.34 1.28 1.26 1.28 1.33 1.17 0.91 0.67 0.55 0.50 0.51 0.51 0.50 0.48 0.48 0.48 0.44 0.38
1.22 1.40 1.57 1.75 1.91 2.10 2.17 2.21 2.27 2.37 2.36 2.14 2.03 1.94 1.95 1.95 1.94 1.88 1.82 1.81 1.77 1.68 1.53 1.47 1.42 1.34 1.30 1.26 1.25 1.21 1.11 0.94 0.87 0.73 0.55 0.51 0.53 0.52 0.52 0.53 0.55 0.57 0.56
1.07 1.33 1.45 1.52 1.69 1.90 2.05 2.12 2.22 2.18 2.21 2.27 2.23 2.15 2.06 2.01 1.96 1.89 1.83 1.81 1.73 1.66 1.62 1.63 1.56 1.50 1.40 1.31 1.26 1.22 1.20 1.04 0.89 0.87 0.70 0.54 0.55 0.55 0.58 0.62 0.64 0.63 0.63
0.98 1.17 1.38 1.39 1.47 1.60 1.82 2.04 2.12 2.03 2.03 2.08 2.07 2.03 2.02 2.02 1.99 1.90 1.78 1.73 1.69 1.66 1.63 1.64 1.69 1.62 1.55 1.47 1.38 1.30 1.30 1.24 1.07 1.02 0.93 0.71 0.63 0.58 0.57 0.61 0.65 0.66 0.65

GEFSSE_prec_meanprecacc_210.txt.gz
Total_Precipitation_Accumulation
0.09 0.15 0.36 0.34 0.36 0.35 0.34 0.29 0.28 0.31 0.39 0.48 0.48 0.44 0.45 0.45 0.45 0.37 0.42 0.43 0.44 0.48 0.46 0.48 0.52 0.56 0.58 0.57 0.46 0.28 0.20 0.19 0.15 0.12 0.13 0.16 0.19 0.20 0.17 0.17 0.22 0.25 0.28
0.07 0.14 0.32 0.34 0.38 0.40 0.38 0.32 0.30 0.32 0.38 0.46 0.51 0.52 0.53 0.54 0.53 0.47 0.45 0.46 0.46 0.47 0.48 0.47 0.42 0.37 0.34 0.33 0.26 0.20 0.17 0.11 0.07 0.05 0.04 0.06 0.11 0.14 0.13 0.14 0.20 0.27 0.32
0.08 0.16 0.29 0.35 0.40 0.41 0.39 0.34 0.30 0.33 0.40 0.45 0.51 0.57 0.57 0.57 0.57 0.56 0.54 0.50 0.52 0.48 0.52 0.44 0.34 0.27 0.24 0.21 0.19 0.16 0.15 0.08 0.05 0.04 0.04 0.07 0.10 0.15 0.16 0.18 0.23 0.30 0.36
0.11 0.17 0.28 0.39 0.44 0.44 0.42 0.40 0.35 0.36 0.42 0.47 0.52 0.58 0.58 0.59 0.62 0.58 0.55 0.51 0.51 0.47 0.46 0.37 0.29 0.23 0.18 0.16 0.16 0.14 0.12 0.09 0.06 0.05 0.07 0.10 0.14 0.23 0.27 0.30 0.35 0.36 0.35
0.18 0.23 0.38 0.48 0.52 0.51 0.48 0.48 0.45 0.42 0.47 0.52 0.59 0.63 0.64 0.66 0.66 0.60 0.53 0.47 0.43 0.40 0.40 0.33 0.24 0.19 0.15 0.12 0.12 0.12 0.11 0.08 0.05 0.03 0.05 0.09 0.17 0.30 0.32 0.34 0.39 0.38 0.34
0.30 0.37 0.50 0.61 0.68 0.64 0.59 0.55 0.53 0.52 0.52 0.54 0.60 0.65 0.66 0.67 0.69 0.64 0.55 0.43 0.35 0.33 0.33 0.30 0.22 0.19 0.16 0.13 0.13 0.13 0.11 0.08 0.04 0.04 0.06 0.11 0.17 0.29 0.29 0.32 0.34 0.37 0.41
0.49 0.59 0.66 0.77 0.84 0.82 0.75 0.67 0.61 0.59 0.58 0.59 0.64 0.66 0.68 0.67 0.68 0.69 0.60 0.42 0.31 0.30 0.32 0.30 0.25 0.22 0.19 0.16 0.14 0.14 0.12 0.08 0.04 0.04 0.08 0.12 0.19 0.30 0.33 0.34 0.34 0.35 0.40
0.75 0.88 0.91 1.01 0.98 0.95 0.86 0.80 0.71 0.70 0.67 0.68 0.72 0.70 0.72 0.73 0.70 0.71 0.63 0.48 0.36 0.32 0.34 0.32 0.28 0.25 0.23 0.19 0.16 0.14 0.12 0.07 0.04 0.03 0.07 0.11 0.18 0.30 0.35 0.34 0.32 0.31 0.33
1.15 1.26 1.19 1.17 1.05 1.06 1.00 0.87 0.82 0.77 0.77 0.78 0.79 0.74 0.72 0.71 0.72 0.69 0.61 0.49 0.43 0.39 0.40 0.38 0.32 0.29 0.24 0.22 0.18 0.14 0.10 0.06 0.04 0.04 0.05 0.09 0.17 0.30 0.33 0.36 0.38 0.35 0.35
1.50 1.66 1.60 1.43 1.27 1.16 1.10 0.97 0.90 0.86 0.83 0.79 0.72 0.61 0.57 0.62 0.68 0.63 0.50 0.43 0.41 0.39 0.40 0.39 0.37 0.33 0.28 0.23 0.19 0.14 0.09 0.07 0.05 0.05 0.07 0.11 0.20 0.32 0.37 0.40 0.42 0.40 0.39
1.82 1.92 1.98 1.81 1.55 1.36 1.22 1.04 1.02 0.98 0.90 0.84 0.70 0.56 0.51 0.54 0.58 0.51 0.39 0.35 0.38 0.39 0.38 0.37 0.36 0.34 0.29 0.22 0.18 0.15 0.12 0.08 0.07 0.07 0.09 0.16 0.29 0.39 0.38 0.35 0.36 0.37 0.39
1.87 1.96 2.13 2.01 1.84 1.65 1.41 1.16 1.16 1.12 0.94 0.82 0.68 0.62 0.55 0.52 0.55 0.49 0.42 0.36 0.37 0.37 0.36 0.41 0.41 0.37 0.33 0.24 0.19 0.17 0.14 0.11 0.10 0.09 0.11 0.20 0.33 0.42 0.37 0.32 0.32 0.32 0.35
1.97 2.13 2.25 2.26 2.00 1.88 1.73 1.40 1.20 1.17 1.10 0.98 0.81 0.71 0.67 0.64 0.62 0.61 0.52 0.46 0.42 0.35 0.31 0.33 0.38 0.32 0.28 0.25 0.23 0.20 0.17 0.16 0.14 0.12 0.13 0.17 0.25 0.36 0.39 0.36 0.34 0.33 0.33
2.11 2.18 2.29 2.45 2.27 1.98 1.83 1.65 1.46 1.30 1.20 1.10 0.96 0.86 0.85 0.77 0.64 0.58 0.53 0.47 0.48 0.40 0.35 0.33 0.30 0.28 0.28 0.27 0.25 0.23 0.21 0.19 0.16 0.15 0.15 0.17 0.19 0.27 0.36 0.40 0.40 0.40 0.40
2.13 2.26 2.33 2.43 2.45 2.22 2.01 1.82 1.64 1.47 1.34 1.34 1.25 1.10 1.00 0.90 0.73 0.62 0.56 0.56 0.56 0.52 0.47 0.42 0.37 0.34 0.32 0.32 0.29 0.25 0.25 0.25 0.22 0.20 0.18 0.17 0.17 0.20 0.30 0.41 0.49 0.54 0.56
2.02 2.21 2.34 2.42 2.54 2.49 2.20 2.04 1.85 1.59 1.41 1.45 1.43 1.29 1.22 1.12 1.02 0.88 0.76 0.70 0.67 0.63 0.60 0.56 0.50 0.47 0.42 0.38 0.34 0.29 0.25 0.27 0.29 0.28 0.25 0.22 0.19 0.18 0.23 0.37 0.51 0.61 0.64
1.99 2.21 2.23 2.32 2.52 2.59 2.45 2.27 2.07 1.87 1.59 1.49 1.43 1.35 1.35 1.26 1.17 1.09 1.00 0.95 0.90 0.84 0.77 0.73 0.71 0.67 0.57 0.49 0.43 0.39 0.35 0.33 0.33 0.34 0.33 0.29 0.24 0.21 0.22 0.31 0.45 0.59 0.64
2.10 2.27 2.29 2.29 2.45 2.51 2.54 2.54 2.40 2.24 1.98 1.69 1.57 1.51 1.46 1.42 1.32 1.22 1.13 1.01 0.96 0.99 0.98 0.90 0.83 0.78 0.66 0.55 0.46 0.41 0.37 0.36 0.36 0.38 0.39 0.38 0.33 0.29 0.24 0.25 0.32 0.46 0.57
2.06 2.23 2.38 2.35 2.47 2.56 2.56 2.60 2.58 2.41 2.28 2.06 1.73 1.53 1.49 1.52 1.51 1.43 1.29 1.19 1.14 1.03 0.99 0.99 0.93 0.81 0.74 0.70 0.63 0.52 0.42 0.36 0.35 0.35 0.35 0.35 0.36 0.35 0.31 0.30 0.31 0.35 0.46
1.99 2.16 2.32 2.36 2.44 2.70 2.78 2.74 2.72 2.47 2.24 2.20 1.98 1.70 1.56 1.58 1.63 1.57 1.43 1.36 1.37 1.26 1.09 0.98 0.97 0.93 0.82 0.80 0.78 0.70 0.61 0.52 0.45 0.39 0.37 0.35 0.33 0.33 0.33 0.29 0.29 0.30 0.35
1.90 2.09 2.23 2.30 2.35 2.56 2.70 2.68 2.60 2.45 2.22 2.09 2.04 1.91 1.78 1.71 1.74 1.73 1.60 1.48 1.44 1.35 1.22 1.13 1.05 1.04 1.02 0.97 0.96 0.84 0.71 0.65 0.60 0.52 0.48 0.46 0.43 0.41 0.38 0.35 0.33 0.30 0.28
1.63 1.88 2.13 2.24 2.31 2.30 2.35 2.54 2.68 2.75 2.56 2.25 2.07 1.98 1.86 1.78 1.76 1.73 1.70 1.63 1.54 1.48 1.44 1.39 1.33 1.26 1.20 1.20 1.18 1.15 0.99 0.81 0.64 0.55 0.56 0.55 0.51 0.50 0.46 0.41 0.37 0.35 0.31
1.40 1.65 1.97 2.14 2.27 2.27 2.27 2.52 2.73 2.86 2.68 2.36 2.01 1.85 1.85 1.87 1.87 1.77 1.75 1.76 1.67 1.57 1.49 1.46 1.42 1.37 1.31 1.29 1.30 1.36 1.21 0.95 0.70 0.57 0.52 0.53 0.54 0.54 0.52 0.52 0.52 0.47 0.41
1.25 1.43 1.61 1.82 1.99 2.18 2.25 2.30 2.33 2.41 2.38 2.15 2.03 1.95 1.95 1.95 1.94 1.89 1.83 1.82 1.78 1.69 1.54 1.49 1.44 1.37 1.33 1.29 1.28 1.23 1.14 0.97 0.90 0.75 0.58 0.54 0.55 0.55 0.56 0.57 0.60 0.61 0.60
1.10 1.35 1.49 1.56 1.75 1.95 2.10 2.16 2.27 2.21 2.23 2.28 2.23 2.15 2.07 2.02 1.96 1.89 1.84 1.82 1.74 1.67 1.63 1.65 1.58 1.52 1.43 1.34 1.28 1.25 1.23 1.07 0.92 0.89 0.74 0.58 0.59 0.58 0.61 0.65 0.66 0.68 0.68
1.00 1.21 1.43 1.43 1.51 1.64 1.86 2.08 2.15 2.05 2.05 2.09 2.07 2.04 2.03 2.03 2.00 1.91 1.80 1.75 1.71 1.68 1.65 1.67 1.72 1.65 1.59 1.51 1.41 1.33 1.32 1.26 1.10 1.05 0.97 0.76 0.69 0.63 0.61 0.63 0.67 0.70 0.69

GEFSSE_prec_meanprecacc_216.txt.gz
Total_Precipitation_Accumulation
0.09 0.16 0.37 0.36 0.38 0.36 0.35 0.31 0.29 0.32 0.39 0.48 0.49 0.45 0.46 0.48 0.47 0.40 0.44 0.46 0.48 0.52 0.50 0.52 0.56 0.60 0.61 0.60 0.49 0.30 0.21 0.20 0.17 0.13 0.15 0.17 0.20 0.22 0.18 0.19 0.23 0.25 0.29
0.07 0.15 0.33 0.35 0.40 0.41 0.39 0.34 0.31 0.33 0.39 0.47 0.52 0.53 0.56 0.57 0.55 0.50 0.49 0.49 0.49 0.50 0.51 0.50 0.45 0.40 0.37 0.36 0.29 0.22 0.18 0.12 0.07 0.05 0.04 0.07 0.12 0.17 0.15 0.15 0.21 0.29 0.34
0.09 0.16 0.30 0.36 0.42 0.43 0.41 0.35 0.31 0.34 0.41 0.46 0.52 0.59 0.60 0.60 0.59 0.59 0.57 0.53 0.55 0.51 0.54 0.46 0.36 0.30 0.27 0.25 0.22 0.19 0.17 0.09 0.06 0.04 0.05 0.08 0.11 0.17 0.18 0.20 0.27 0.35 0.40
0.12 0.18 0.28 0.40 0.46 0.46 0.44 0.42 0.36 0.37 0.43 0.48 0.53 0.59 0.61 0.62 0.64 0.61 0.58 0.54 0.55 0.49 0.48 0.39 0.31 0.26 0.21 0.19 0.18 0.16 0.14 0.10 0.07 0.05 0.07 0.10 0.14 0.25 0.29 0.33 0.40 0.40 0.38
0.19 0.24 0.38 0.49 0.54 0.54 0.50 0.50 0.47 0.44 0.48 0.53 0.60 0.65 0.66 0.69 0.69 0.64 0.57 0.51 0.46 0.43 0.41 0.35 0.26 0.21 0.17 0.14 0.14 0.14 0.13 0.10 0.05 0.04 0.06 0.10 0.18 0.33 0.36 0.37 0.42 0.40 0.35
0.31 0.38 0.51 0.61 0.69 0.66 0.61 0.57 0.55 0.54 0.54 0.56 0.62 0.66 0.68 0.72 0.74 0.67 0.60 0.48 0.37 0.35 0.35 0.31 0.24 0.20 0.17 0.15 0.15 0.15 0.14 0.10 0.05 0.04 0.07 0.11 0.18 0.32 0.33 0.36 0.36 0.39 0.42
0.50 0.60 0.67 0.78 0.85 0.84 0.78 0.69 0.63 0.62 0.60 0.61 0.66 0.68 0.72 0.72 0.74 0.74 0.65 0.48 0.36 0.33 0.35 0.32 0.27 0.23 0.21 0.18 0.16 0.16 0.15 0.11 0.05 0.04 0.08 0.12 0.20 0.33 0.37 0.38 0.35 0.36 0.42
0.76 0.88 0.91 1.02 0.99 0.96 0.88 0.83 0.73 0.71 0.69 0.70 0.75 0.74 0.77 0.77 0.75 0.75 0.67 0.54 0.41 0.35 0.37 0.34 0.30 0.26 0.24 0.20 0.18 0.16 0.14 0.10 0.05 0.04 0.07 0.12 0.20 0.33 0.39 0.36 0.34 0.33 0.35
1.15 1.26 1.20 1.18 1.06 1.07 1.01 0.89 0.84 0.78 0.79 0.80 0.82 0.77 0.76 0.75 0.75 0.73 0.65 0.56 0.48 0.42 0.43 0.42 0.35 0.31 0.27 0.23 0.20 0.15 0.11 0.08 0.05 0.04 0.05 0.10 0.19 0.33 0.36 0.39 0.40 0.38 0.37
1.51 1.67 1.61 1.44 1.28 1.17 1.12 0.99 0.92 0.88 0.85 0.81 0.74 0.63 0.59 0.65 0.71 0.66 0.53 0.50 0.47 0.42 0.43 0.43 0.40 0.35 0.29 0.25 0.20 0.16 0.11 0.08 0.06 0.05 0.07 0.12 0.22 0.35 0.40 0.43 0.45 0.43 0.42
1.82 1.92 1.99 1.83 1.56 1.37 1.24 1.06 1.04 1.00 0.91 0.85 0.71 0.57 0.52 0.56 0.60 0.53 0.42 0.42 0.46 0.43 0.41 0.40 0.38 0.36 0.30 0.23 0.20 0.17 0.13 0.09 0.07 0.08 0.09 0.16 0.30 0.42 0.41 0.38 0.39 0.40 0.42
1.88 1.97 2.14 2.03 1.85 1.67 1.43 1.18 1.18 1.14 0.96 0.82 0.69 0.62 0.56 0.54 0.58 0.51 0.44 0.41 0.46 0.43 0.40 0.44 0.43 0.40 0.34 0.25 0.20 0.18 0.16 0.11 0.10 0.09 0.12 0.21 0.36 0.45 0.40 0.35 0.35 0.36 0.39
1.98 2.14 2.26 2.28 2.02 1.90 1.75 1.41 1.22 1.20 1.12 0.99 0.82 0.72 0.68 0.67 0.66 0.65 0.55 0.49 0.48 0.40 0.35 0.36 0.40 0.34 0.29 0.26 0.24 0.21 0.18 0.17 0.15 0.12 0.14 0.18 0.28 0.39 0.42 0.38 0.37 0.37 0.37
2.13 2.19 2.30 2.46 2.28 2.00 1.84 1.67 1.48 1.33 1.24 1.14 0.98 0.88 0.86 0.79 0.68 0.63 0.57 0.50 0.52 0.45 0.38 0.35 0.32 0.29 0.29 0.29 0.27 0.25 0.24 0.22 0.17 0.16 0.16 0.19 0.22 0.30 0.38 0.43 0.43 0.42 0.43
2.14 2.26 2.34 2.43 2.46 2.23 2.02 1.84 1.66 1.50 1.37 1.38 1.31 1.14 1.02 0.93 0.78 0.67 0.61 0.61 0.62 0.57 0.52 0.46 0.39 0.35 0.34 0.34 0.32 0.28 0.28 0.28 0.24 0.22 0.19 0.19 0.19 0.23 0.33 0.45 0.52 0.57 0.59
2.03 2.22 2.34 2.43 2.55 2.51 2.21 2.05 1.87 1.63 1.44 1.48 1.48 1.34 1.26 1.15 1.06 0.92 0.82 0.76 0.73 0.70 0.67 0.61 0.53 0.49 0.44 0.41 0.37 0.33 0.29 0.30 0.31 0.31 0.28 0.24 0.21 0.20 0.26 0.41 0.55 0.65 0.68
2.01 2.22 2.23 2.33 2.53 2.60 2.46 2.28 2.08 1.90 1.63 1.53 1.47 1.39 1.39 1.30 1.21 1.14 1.05 1.02 0.97 0.92 0.84 0.80 0.74 0.69 0.60 0.52 0.47 0.44 0.39 0.36 0.36 0.37 0.37 0.33 0.28 0.24 0.25 0.35 0.49 0.63 0.69
2.11 2.28 2.30 2.30 2.46 2.53 2.55 2.55 2.41 2.26 2.01 1.74 1.61 1.54 1.49 1.46 1.37 1.27 1.18 1.08 1.03 1.07 1.07 0.98 0.88 0.81 0.70 0.60 0.51 0.47 0.42 0.41 0.39 0.40 0.42 0.43 0.39 0.33 0.28 0.28 0.35 0.49 0.61
2.06 2.24 2.38 2.36 2.48 2.57 2.58 2.61 2.59 2.42 2.30 2.10 1.78 1.57 1.52 1.56 1.55 1.48 1.33 1.25 1.23 1.10 1.06 1.07 0.98 0.85 0.79 0.75 0.68 0.58 0.48 0.40 0.38 0.38 0.37 0.38 0.40 0.37 0.33 0.32 0.33 0.37 0.48
1.99 2.16 2.33 2.37 2.45 2.71 2.79 2.75 2.73 2.48 2.25 2.23 2.02 1.74 1.59 1.61 1.66 1.61 1.47 1.41 1.46 1.35 1.16 1.03 1.01 0.96 0.85 0.84 0.82 0.75 0.67 0.57 0.49 0.42 0.40 0.38 0.37 0.36 0.35 0.31 0.30 0.31 0.36
1.91 2.10 2.24 2.32 2.37 2.58 2.72 2.70 2.62 2.47 2.24 2.13 2.09 1.95 1.81 1.73 1.77 1.77 1.63 1.53 1.52 1.44 1.29 1.18 1.08 1.06 1.03 0.99 1.01 0.90 0.77 0.71 0.65 0.57 0.51 0.49 0.47 0.44 0.41 0.38 0.35 0.31 0.29
1.65 1.89 2.15 2.26 2.34 2.32 2.36 2.56 2.69 2.77 2.58 2.30 2.12 2.02 1.91 1.82 1.81 1.79 1.75 1.68 1.61 1.57 1.50 1.44 1.37 1.28 1.23 1.23 1.23 1.22 1.05 0.87 0.69 0.59 0.59 0.58 0.54 0.53 0.49 0.44 0.39 0.36 0.33
1.41 1.66 1.98 2.16 2.30 2.30 2.30 2.54 2.75 2.88 2.71 2.39 2.04 1.88 1.89 1.90 1.91 1.83 1.81 1.82 1.75 1.65 1.55 1.50 1.45 1.40 1.34 1.32 1.33 1.42 1.27 0.99 0.73 0.60 0.54 0.54 0.55 0.56 0.54 0.55 0.54 0.49 0.44
1.25 1.44 1.62 1.84 2.03 2.22 2.29 2.33 2.36 2.43 2.41 2.17 2.05 1.96 1.97 1.97 1.97 1.92 1.87 1.87 1.83 1.74 1.59 1.54 1.48 1.39 1.36 1.33 1.31 1.26 1.19 1.01 0.93 0.79 0.60 0.55 0.57 0.57 0.59 0.60 0.62 0.63 0.61
1.11 1.36 1.50 1.58 1.78 2.02 2.16 2.21 2.31 2.25 2.25 2.29 2.24 2.16 2.07 2.02 1.98 1.91 1.86 1.85 1.77 1.69 1.66 1.67 1.60 1.54 1.45 1.38 1.31 1.27 1.26 1.11 0.96 0.94 0.78 0.61 0.60 0.60 0.63 0.67 0.69 0.70 0.70
1.03 1.22 1.44 1.45 1.54 1.70 1.94 2.15 2.20 2.10 2.09 2.12 2.09 2.04 2.03 2.03 2.00 1.91 1.81 1.76 1.72 1.69 1.67 1.69 1.73 1.68 1.62 1.54 1.44 1.35 1.35 1.29 1.13 1.08 1.02 0.80 0.71 0.65 0.62 0.66 0.70 0.72 0.71

GEFSSE_prec_meanprecacc_222.txt.gz
Total_Precipitation_Accumulation
0.09 0.18 0.40 0.38 0.41 0.40 0.38 0.33 0.31 0.33 0.40 0.50 0.51 0.46 0.47 0.48 0.48 0.40 0.45 0.47 0.49 0.54 0.54 0.57 0.60 0.62 0.64 0.64 0.51 0.32 0.24 0.22 0.18 0.15 0.17 0.18 0.22 0.23 0.20 0.20 0.24 0.27 0.31
0.09 0.17 0.37 0.37 0.42 0.45 0.42 0.35 0.32 0.34 0.40 0.48 0.53 0.54 0.58 0.59 0.56 0.52 0.51 0.51 0.51 0.54 0.56 0.56 0.49 0.42 0.40 0.38 0.31 0.24 0.21 0.13 0.09 0.06 0.05 0.08 0.14 0.20 0.18 0.17 0.22 0.31 0.36
0.11 0.18 0.34 0.40 0.45 0.45 0.43 0.37 0.32 0.34 0.42 0.47 0.53 0.60 0.63 0.63 0.62 0.62 0.61 0.56 0.58 0.55 0.58 0.51 0.40 0.32 0.28 0.26 0.23 0.20 0.19 0.10 0.06 0.05 0.05 0.08 0.12 0.20 0.21 0.22 0.30 0.39 0.43
0.13 0.20 0.30 0.42 0.48 0.48 0.45 0.44 0.38 0.38 0.44 0.49 0.55 0.60 0.64 0.64 0.66 0.64 0.61 0.58 0.58 0.52 0.51 0.42 0.34 0.28 0.23 0.20 0.19 0.17 0.16 0.11 0.07 0.05 0.07 0.11 0.15 0.28 0.32 0.36 0.44 0.44 0.42
0.21 0.25 0.39 0.51 0.55 0.55 0.52 0.51 0.48 0.45 0.49 0.54 0.61 0.66 0.69 0.72 0.71 0.66 0.60 0.54 0.48 0.45 0.44 0.36 0.28 0.23 0.19 0.16 0.16 0.15 0.14 0.10 0.06 0.04 0.06 0.10 0.19 0.37 0.41 0.43 0.47 0.44 0.39
0.34 0.40 0.52 0.62 0.71 0.68 0.63 0.59 0.56 0.55 0.55 0.57 0.64 0.68 0.70 0.75 0.77 0.70 0.62 0.49 0.39 0.37 0.37 0.33 0.25 0.23 0.20 0.17 0.17 0.17 0.15 0.11 0.05 0.04 0.07 0.11 0.20 0.37 0.39 0.42 0.41 0.43 0.45
0.52 0.61 0.68 0.78 0.86 0.85 0.81 0.72 0.65 0.63 0.62 0.63 0.68 0.71 0.75 0.75 0.76 0.76 0.67 0.50 0.37 0.35 0.37 0.33 0.28 0.25 0.23 0.20 0.18 0.18 0.16 0.12 0.05 0.05 0.08 0.13 0.23 0.38 0.42 0.42 0.39 0.40 0.45
0.77 0.89 0.92 1.02 1.01 0.98 0.90 0.86 0.75 0.73 0.71 0.73 0.78 0.78 0.80 0.80 0.78 0.78 0.70 0.57 0.44 0.38 0.40 0.37 0.32 0.28 0.26 0.22 0.20 0.18 0.15 0.10 0.05 0.04 0.08 0.13 0.23 0.36 0.42 0.38 0.36 0.35 0.38
1.16 1.27 1.21 1.19 1.07 1.09 1.03 0.92 0.86 0.80 0.81 0.82 0.85 0.81 0.79 0.78 0.78 0.76 0.69 0.60 0.52 0.48 0.49 0.46 0.37 0.33 0.28 0.25 0.21 0.17 0.12 0.09 0.06 0.04 0.06 0.11 0.22 0.36 0.39 0.41 0.42 0.39 0.39
1.52 1.67 1.61 1.45 1.29 1.18 1.15 1.02 0.94 0.89 0.87 0.83 0.76 0.65 0.61 0.67 0.72 0.68 0.56 0.54 0.51 0.48 0.50 0.49 0.43 0.37 0.31 0.26 0.22 0.17 0.12 0.09 0.07 0.06 0.08 0.13 0.24 0.38 0.42 0.46 0.48 0.45 0.44
1.83 1.93 1.99 1.83 1.56 1.38 1.25 1.09 1.09 1.03 0.94 0.87 0.73 0.58 0.53 0.57 0.61 0.55 0.44 0.44 0.49 0.48 0.48 0.48 0.45 0.39 0.33 0.25 0.21 0.18 0.14 0.10 0.08 0.09 0.11 0.17 0.33 0.45 0.44 0.41 0.42 0.43 0.46
1.89 1.98 2.14 2.03 1.86 1.67 1.44 1.20 1.21 1.18 0.98 0.84 0.71 0.64 0.58 0.55 0.59 0.53 0.46 0.43 0.48 0.45 0.44 0.50 0.50 0.45 0.37 0.27 0.23 0.20 0.17 0.13 0.11 0.10 0.13 0.22 0.39 0.49 0.45 0.38 0.38 0.39 0.42
2.00 2.15 2.27 2.29 2.03 1.91 1.76 1.42 1.23 1.22 1.15 1.02 0.85 0.75 0.71 0.68 0.67 0.66 0.57 0.51 0.50 0.42 0.37 0.40 0.45 0.38 0.32 0.28 0.25 0.22 0.20 0.19 0.16 0.13 0.15 0.20 0.32 0.44 0.46 0.42 0.40 0.40 0.41
2.15 2.20 2.31 2.47 2.30 2.02 1.87 1.69 1.49 1.34 1.27 1.17 1.02 0.92 0.91 0.83 0.70 0.64 0.59 0.52 0.54 0.48 0.41 0.39 0.36 0.33 0.32 0.31 0.29 0.27 0.26 0.25 0.19 0.17 0.18 0.21 0.26 0.35 0.42 0.46 0.47 0.46 0.46
2.18 2.29 2.36 2.44 2.47 2.24 2.04 1.86 1.69 1.53 1.39 1.41 1.36 1.19 1.07 0.98 0.81 0.68 0.62 0.65 0.66 0.61 0.55 0.49 0.44 0.40 0.38 0.38 0.35 0.30 0.30 0.31 0.26 0.23 0.21 0.22 0.22 0.27 0.38 0.50 0.57 0.60 0.62
2.07 2.25 2.37 2.45 2.56 2.52 2.23 2.07 1.90 1.66 1.48 1.51 1.51 1.39 1.32 1.21 1.11 0.95 0.84 0.79 0.78 0.75 0.72 0.66 0.60 0.56 0.49 0.45 0.41 0.36 0.31 0.32 0.33 0.32 0.30 0.27 0.23 0.23 0.31 0.47 0.61 0.70 0.73
2.03 2.25 2.26 2.35 2.55 2.61 2.48 2.30 2.10 1.93 1.65 1.56 1.49 1.42 1.43 1.35 1.25 1.17 1.08 1.05 1.00 0.96 0.91 0.87 0.81 0.78 0.66 0.56 0.50 0.47 0.43 0.39 0.38 0.39 0.39 0.35 0.29 0.26 0.29 0.41 0.56 0.70 0.75
2.12 2.29 2.32 2.31 2.47 2.54 2.56 2.56 2.42 2.27 2.02 1.76 1.64 1.58 1.53 1.49 1.39 1.29 1.20 1.10 1.06 1.11 1.13 1.06 0.96 0.92 0.79 0.66 0.55 0.51 0.46 0.44 0.42 0.43 0.45 0.44 0.40 0.34 0.29 0.32 0.39 0.55 0.67
2.06 2.24 2.39 2.37 2.49 2.58 2.58 2.62 2.60 2.43 2.31 2.12 1.80 1.60 1.56 1.61 1.58 1.49 1.35 1.27 1.25 1.14 1.13 1.15 1.06 0.94 0.88 0.82 0.73 0.62 0.52 0.45 0.42 0.42 0.41 0.41 0.42 0.39 0.35 0.35 0.36 0.41 0.53
1.99 2.17 2.33 2.38 2.47 2.72 2.80 2.76 2.74 2.49 2.27 2.25 2.04 1.78 1.62 1.64 1.69 1.63 1.49 1.44 1.50 1.38 1.23 1.11 1.09 1.04 0.92 0.89 0.87 0.79 0.70 0.61 0.54 0.47 0.45 0.42 0.39 0.38 0.37 0.33 0.32 0.33 0.39
1.91 2.10 2.25 2.33 2.38 2.59 2.73 2.71 2.63 2.48 2.25 2.15 2.11 1.99 1.85 1.75 1.79 1.78 1.64 1.55 1.56 1.47 1.34 1.25 1.15 1.13 1.10 1.04 1.05 0.93 0.81 0.76 0.70 0.61 0.56 0.54 0.51 0.48 0.44 0.40 0.36 0.33 0.31
1.65 1.90 2.15 2.27 2.34 2.34 2.38 2.57 2.71 2.78 2.61 2.32 2.15 2.06 1.95 1.85 1.82 1.80 1.76 1.70 1.63 1.60 1.55 1.49 1.43 1.34 1.28 1.27 1.26 1.25 1.08 0.91 0.74 0.64 0.62 0.60 0.57 0.57 0.52 0.46 0.40 0.37 0.34
1.41 1.67 1.99 2.16 2.30 2.31 2.32 2.56 2.76 2.90 2.75 2.42 2.07 1.90 1.91 1.92 1.92 1.83 1.82 1.84 1.78 1.69 1.59 1.55 1.49 1.45 1.39 1.36 1.36 1.45 1.29 1.01 0.76 0.64 0.57 0.56 0.57 0.58 0.57 0.57 0.56 0.50 0.45
1.26 1.44 1.63 1.84 2.03 2.23 2.31 2.36 2.38 2.47 2.46 2.20 2.09 1.99 1.99 1.98 1.98 1.93 1.89 1.89 1.86 1.78 1.63 1.58 1.51 1.44 1.41 1.37 1.35 1.29 1.21 1.03 0.95 0.81 0.64 0.58 0.58 0.58 0.61 0.62 0.64 0.64 0.62
1.11 1.36 1.51 1.58 1.79 2.02 2.17 2.22 2.33 2.29 2.29 2.34 2.29 2.19 2.10 2.04 1.99 1.93 1.89 1.88 1.80 1.73 1.70 1.71 1.64 1.58 1.50 1.42 1.36 1.31 1.30 1.14 0.99 0.96 0.80 0.63 0.63 0.61 0.65 0.69 0.70 0.71 0.70
1.03 1.22 1.44 1.45 1.54 1.71 1.95 2.17 2.21 2.13 2.15 2.18 2.16 2.09 2.07 2.05 2.02 1.94 1.84 1.79 1.75 1.74 1.72 1.75 1.79 1.72 1.66 1.59 1.49 1.39 1.39 1.34 1.17 1.12 1.05 0.83 0.74 0.67 0.64 0.67 0.71 0.73 0.71

GEFSSE_prec_meanprecacc_228.txt.gz
Total_Precipitation_Accumulation
0.11 0.19 0.42 0.40 0.43 0.41 0.39 0.34 0.32 0.35 0.43 0.52 0.52 0.48 0.49 0.50 0.49 0.42 0.46 0.48 0.50 0.55 0.56 0.62 0.64 0.65 0.67 0.67 0.55 0.35 0.26 0.24 0.20 0.15 0.17 0.19 0.24 0.25 0.21 0.21 0.25 0.29 0.34
0.11 0.19 0.39 0.40 0.45 0.47 0.44 0.37 0.33 0.35 0.42 0.50 0.55 0.56 0.60 0.61 0.58 0.53 0.52 0.52 0.53 0.56 0.58 0.60 0.54 0.45 0.41 0.40 0.33 0.27 0.23 0.15 0.10 0.07 0.06 0.08 0.15 0.22 0.19 0.18 0.23 0.33 0.38
0.12 0.20 0.36 0.42 0.48 0.47 0.45 0.38 0.33 0.35 0.43 0.49 0.55 0.62 0.65 0.66 0.64 0.65 0.63 0.58 0.62 0.59 0.61 0.54 0.42 0.34 0.30 0.27 0.24 0.22 0.21 0.12 0.08 0.05 0.05 0.09 0.13 0.22 0.22 0.24 0.32 0.41 0.45
0.15 0.21 0.32 0.45 0.51 0.50 0.47 0.45 0.39 0.40 0.45 0.50 0.56 0.62 0.67 0.68 0.71 0.70 0.67 0.64 0.64 0.56 0.53 0.45 0.36 0.29 0.24 0.21 0.20 0.19 0.17 0.13 0.08 0.05 0.08 0.11 0.16 0.30 0.36 0.40 0.47 0.46 0.45
0.23 0.27 0.42 0.54 0.58 0.57 0.54 0.53 0.49 0.46 0.50 0.56 0.63 0.68 0.72 0.74 0.75 0.69 0.64 0.59 0.53 0.47 0.46 0.39 0.30 0.26 0.22 0.18 0.17 0.16 0.15 0.12 0.07 0.04 0.06 0.11 0.20 0.40 0.45 0.48 0.52 0.47 0.42
0.36 0.43 0.56 0.65 0.72 0.70 0.65 0.60 0.57 0.56 0.57 0.59 0.66 0.71 0.74 0.78 0.80 0.74 0.65 0.52 0.41 0.39 0.40 0.35 0.27 0.25 0.23 0.19 0.18 0.18 0.16 0.12 0.06 0.04 0.07 0.12 0.21 0.41 0.43 0.46 0.45 0.48 0.48
0.55 0.64 0.70 0.80 0.88 0.87 0.84 0.75 0.67 0.65 0.63 0.64 0.70 0.74 0.79 0.79 0.80 0.81 0.70 0.52 0.39 0.36 0.39 0.36 0.29 0.27 0.25 0.22 0.20 0.19 0.17 0.12 0.06 0.05 0.09 0.14 0.25 0.42 0.47 0.47 0.44 0.44 0.49
0.78 0.91 0.94 1.05 1.04 1.01 0.93 0.89 0.78 0.75 0.73 0.75 0.80 0.81 0.85 0.85 0.82 0.82 0.73 0.60 0.46 0.40 0.42 0.39 0.33 0.29 0.28 0.24 0.22 0.19 0.15 0.11 0.06 0.04 0.08 0.14 0.25 0.40 0.49 0.43 0.39 0.38 0.41
1.17 1.28 1.22 1.20 1.09 1.11 1.05 0.94 0.88 0.82 0.83 0.85 0.87 0.83 0.82 0.81 0.81 0.80 0.72 0.64 0.56 0.51 0.52 0.48 0.39 0.34 0.30 0.27 0.23 0.19 0.13 0.09 0.06 0.05 0.06 0.13 0.26 0.40 0.45 0.45 0.44 0.41 0.42
1.53 1.68 1.62 1.45 1.29 1.19 1.16 1.04 0.97 0.91 0.88 0.85 0.78 0.67 0.63 0.69 0.75 0.70 0.59 0.57 0.55 0.52 0.54 0.52 0.46 0.39 0.33 0.28 0.23 0.18 0.13 0.10 0.08 0.06 0.09 0.15 0.28 0.42 0.48 0.51 0.51 0.47 0.47
1.84 1.94 2.00 1.84 1.57 1.39 1.27 1.10 1.11 1.06 0.96 0.88 0.74 0.59 0.55 0.59 0.63 0.57 0.45 0.46 0.52 0.51 0.51 0.52 0.48 0.42 0.35 0.28 0.24 0.19 0.16 0.11 0.09 0.09 0.11 0.19 0.36 0.49 0.49 0.46 0.45 0.45 0.48
1.90 1.99 2.15 2.04 1.87 1.68 1.45 1.21 1.24 1.22 1.02 0.87 0.71 0.65 0.60 0.58 0.61 0.55 0.48 0.45 0.51 0.48 0.46 0.53 0.54 0.48 0.40 0.30 0.26 0.22 0.19 0.15 0.13 0.11 0.14 0.24 0.42 0.54 0.51 0.43 0.41 0.41 0.44
2.01 2.17 2.28 2.29 2.04 1.93 1.78 1.44 1.25 1.25 1.18 1.05 0.88 0.77 0.73 0.71 0.69 0.67 0.59 0.53 0.52 0.44 0.39 0.42 0.48 0.42 0.35 0.31 0.28 0.25 0.23 0.21 0.18 0.15 0.17 0.23 0.36 0.49 0.52 0.46 0.42 0.43 0.43
2.17 2.22 2.32 2.48 2.30 2.03 1.88 1.71 1.51 1.36 1.29 1.20 1.05 0.94 0.92 0.85 0.73 0.67 0.62 0.55 0.57 0.50 0.43 0.42 0.39 0.37 0.37 0.36 0.33 0.30 0.28 0.27 0.21 0.20 0.21 0.24 0.31 0.42 0.48 0.50 0.50 0.50 0.50
2.21 2.31 2.37 2.45 2.48 2.25 2.06 1.87 1.70 1.54 1.41 1.43 1.38 1.22 1.09 1.00 0.85 0.73 0.65 0.67 0.69 0.65 0.59 0.52 0.47 0.45 0.43 0.43 0.40 0.33 0.33 0.34 0.29 0.26 0.24 0.24 0.26 0.34 0.44 0.54 0.61 0.64 0.66
2.11 2.28 2.38 2.46 2.57 2.53 2.24 2.08 1.91 1.67 1.49 1.52 1.53 1.41 1.34 1.23 1.14 1.00 0.89 0.83 0.81 0.79 0.75 0.69 0.62 0.61 0.57 0.51 0.48 0.40 0.34 0.35 0.36 0.36 0.34 0.30 0.27 0.27 0.37 0.53 0.65 0.74 0.77
2.08 2.28 2.28 2.37 2.56 2.62 2.49 2.31 2.11 1.95 1.68 1.58 1.51 1.44 1.45 1.37 1.28 1.21 1.13 1.10 1.05 1.01 0.94 0.89 0.83 0.81 0.75 0.65 0.58 0.52 0.47 0.43 0.42 0.44 0.43 0.39 0.34 0.30 0.34 0.48 0.63 0.75 0.79
2.15 2.32 2.34 2.33 2.49 2.55 2.57 2.57 2.43 2.29 2.05 1.79 1.66 1.60 1.56 1.53 1.43 1.32 1.23 1.14 1.11 1.16 1.18 1.11 1.01 0.96 0.85 0.75 0.65 0.58 0.51 0.49 0.46 0.47 0.49 0.49 0.44 0.37 0.33 0.37 0.47 0.62 0.72
2.08 2.26 2.40 2.39 2.52 2.60 2.60 2.63 2.61 2.44 2.33 2.14 1.83 1.62 1.59 1.66 1.64 1.55 1.40 1.30 1.28 1.17 1.17 1.20 1.13 1.02 0.95 0.91 0.83 0.73 0.60 0.52 0.48 0.47 0.45 0.45 0.45 0.41 0.38 0.38 0.40 0.46 0.59
2.00 2.17 2.34 2.39 2.48 2.74 2.82 2.78 2.75 2.50 2.28 2.26 2.06 1.80 1.65 1.69 1.77 1.71 1.55 1.49 1.53 1.40 1.25 1.14 1.13 1.09 0.99 0.99 0.97 0.89 0.80 0.70 0.62 0.54 0.49 0.45 0.43 0.41 0.40 0.35 0.34 0.36 0.43
1.92 2.10 2.25 2.33 2.38 2.60 2.75 2.73 2.65 2.49 2.26 2.16 2.12 2.00 1.87 1.79 1.85 1.85 1.71 1.61 1.60 1.50 1.36 1.27 1.18 1.17 1.15 1.13 1.17 1.07 0.94 0.86 0.80 0.71 0.62 0.58 0.54 0.52 0.47 0.42 0.39 0.35 0.33
1.65 1.90 2.15 2.27 2.35 2.34 2.38 2.58 2.72 2.79 2.62 2.33 2.16 2.07 1.96 1.88 1.87 1.86 1.82 1.76 1.68 1.63 1.57 1.51 1.46 1.38 1.33 1.35 1.37 1.37 1.20 1.02 0.82 0.71 0.68 0.64 0.61 0.60 0.56 0.49 0.43 0.40 0.37
1.41 1.67 1.99 2.16 2.30 2.31 2.32 2.57 2.77 2.92 2.76 2.44 2.08 1.91 1.92 1.94 1.94 1.87 1.86 1.89 1.82 1.72 1.61 1.57 1.52 1.49 1.43 1.41 1.43 1.53 1.37 1.09 0.83 0.69 0.62 0.61 0.61 0.62 0.60 0.60 0.59 0.53 0.48
1.26 1.44 1.63 1.84 2.03 2.23 2.31 2.37 2.40 2.49 2.48 2.23 2.11 2.01 2.00 1.99 1.99 1.95 1.91 1.91 1.89 1.80 1.64 1.60 1.54 1.47 1.46 1.43 1.41 1.36 1.27 1.07 0.98 0.85 0.68 0.62 0.62 0.62 0.64 0.65 0.66 0.67 0.64
1.11 1.36 1.51 1.58 1.79 2.03 2.18 2.23 2.34 2.30 2.32 2.36 2.32 2.22 2.11 2.05 2.00 1.94 1.90 1.89 1.81 1.75 1.71 1.73 1.67 1.61 1.54 1.46 1.39 1.36 1.35 1.19 1.01 0.98 0.84 0.68 0.68 0.66 0.68 0.72 0.73 0.74 0.73
1.04 1.23 1.45 1.46 1.55 1.71 1.95 2.17 2.22 2.15 2.16 2.21 2.19 2.12 2.09 2.07 2.04 1.95 1.84 1.80 1.76 1.75 1.74 1.77 1.82 1.75 1.69 1.62 1.52 1.41 1.42 1.38 1.21 1.14 1.08 0.87 0.78 0.72 0.69 0.72 0.75 0.76 0.74

GEFSSE_prec_meanprecacc_234.txt.gz
Total_Precipitation_Accumulation
0.13 0.21 0.43 0.42 0.44 0.42 0.40 0.35 0.33 0.36 0.45 0.54 0.55 0.50 0.51 0.51 0.51 0.43 0.48 0.50 0.53 0.57 0.59 0.66 0.69 0.67 0.69 0.68 0.57 0.37 0.27 0.24 0.21 0.16 0.19 0.21 0.25 0.25 0.22 0.23 0.27 0.30 0.35
0.14 0.22 0.41 0.41 0.46 0.48 0.45 0.37 0.34 0.36 0.44 0.52 0.58 0.57 0.61 0.62 0.59 0.55 0.54 0.54 0.57 0.59 0.61 0.63 0.57 0.48 0.43 0.42 0.35 0.30 0.25 0.16 0.11 0.08 0.06 0.09 0.16 0.23 0.21 0.21 0.25 0.34 0.40
0.15 0.23 0.39 0.44 0.50 0.49 0.45 0.39 0.34 0.36 0.44 0.50 0.58 0.64 0.67 0.67 0.66 0.67 0.66 0.62 0.67 0.63 0.64 0.56 0.45 0.37 0.32 0.29 0.26 0.24 0.22 0.13 0.09 0.06 0.06 0.10 0.14 0.23 0.24 0.26 0.34 0.42 0.48
0.18 0.25 0.34 0.47 0.53 0.52 0.48 0.46 0.40 0.41 0.47 0.52 0.58 0.65 0.68 0.70 0.75 0.75 0.73 0.71 0.71 0.60 0.55 0.48 0.40 0.32 0.27 0.23 0.21 0.20 0.19 0.14 0.09 0.07 0.10 0.14 0.18 0.32 0.37 0.42 0.49 0.48 0.47
0.27 0.33 0.46 0.57 0.60 0.59 0.56 0.54 0.51 0.48 0.52 0.58 0.65 0.71 0.74 0.77 0.78 0.73 0.69 0.64 0.57 0.50 0.48 0.42 0.33 0.28 0.25 0.20 0.18 0.17 0.17 0.13 0.07 0.05 0.08 0.13 0.23 0.44 0.48 0.51 0.56 0.50 0.44
0.40 0.48 0.61 0.70 0.76 0.73 0.68 0.62 0.59 0.58 0.58 0.60 0.68 0.73 0.77 0.82 0.84 0.78 0.69 0.54 0.43 0.40 0.41 0.37 0.30 0.28 0.25 0.21 0.20 0.19 0.17 0.13 0.06 0.06 0.11 0.15 0.24 0.46 0.47 0.50 0.51 0.53 0.52
0.57 0.66 0.74 0.83 0.91 0.89 0.86 0.78 0.70 0.67 0.65 0.66 0.73 0.77 0.84 0.89 0.87 0.86 0.73 0.55 0.42 0.39 0.42 0.38 0.32 0.29 0.27 0.23 0.21 0.21 0.18 0.13 0.06 0.06 0.12 0.17 0.29 0.46 0.51 0.52 0.49 0.48 0.53
0.79 0.92 0.95 1.07 1.06 1.03 0.96 0.91 0.80 0.78 0.76 0.78 0.84 0.84 0.89 0.92 0.88 0.86 0.77 0.63 0.49 0.42 0.44 0.41 0.35 0.32 0.30 0.26 0.23 0.21 0.16 0.11 0.06 0.05 0.10 0.18 0.30 0.45 0.54 0.47 0.44 0.41 0.43
1.18 1.31 1.24 1.22 1.10 1.12 1.07 0.96 0.90 0.84 0.86 0.88 0.90 0.85 0.85 0.84 0.84 0.82 0.75 0.67 0.60 0.54 0.54 0.51 0.42 0.37 0.33 0.29 0.25 0.20 0.13 0.09 0.07 0.06 0.08 0.16 0.29 0.45 0.52 0.51 0.49 0.44 0.44
1.55 1.71 1.64 1.46 1.30 1.21 1.17 1.05 0.98 0.92 0.90 0.88 0.81 0.68 0.65 0.70 0.76 0.73 0.60 0.59 0.58 0.56 0.58 0.55 0.49 0.41 0.35 0.30 0.24 0.19 0.14 0.10 0.08 0.08 0.11 0.18 0.31 0.46 0.54 0.56 0.55 0.51 0.50
1.86 1.95 2.01 1.85 1.59 1.41 1.28 1.11 1.12 1.07 0.97 0.91 0.76 0.61 0.57 0.61 0.66 0.60 0.48 0.48 0.54 0.53 0.54 0.55 0.50 0.44 0.36 0.29 0.24 0.20 0.16 0.12 0.10 0.11 0.14 0.21 0.40 0.53 0.56 0.52 0.49 0.49 0.51
1.92 2.01 2.16 2.05 1.88 1.70 1.46 1.23 1.26 1.24 1.04 0.89 0.73 0.66 0.61 0.60 0.64 0.58 0.50 0.46 0.52 0.49 0.49 0.56 0.56 0.50 0.41 0.31 0.27 0.23 0.21 0.16 0.14 0.13 0.16 0.26 0.47 0.58 0.57 0.48 0.44 0.45 0.47
2.03 2.20 2.30 2.31 2.05 1.94 1.80 1.46 1.27 1.28 1.21 1.08 0.90 0.79 0.74 0.73 0.72 0.70 0.61 0.56 0.54 0.46 0.42 0.44 0.50 0.44 0.37 0.34 0.31 0.26 0.24 0.22 0.19 0.18 0.20 0.25 0.41 0.55 0.57 0.50 0.46 0.47 0.46
2.21 2.26 2.35 2.51 2.33 2.04 1.90 1.74 1.54 1.39 1.33 1.23 1.07 0.98 0.95 0.88 0.76 0.69 0.63 0.57 0.59 0.53 0.48 0.46 0.42 0.39 0.39 0.39 0.36 0.32 0.30 0.29 0.23 0.22 0.23 0.27 0.35 0.47 0.54 0.55 0.54 0.54 0.54
2.23 2.34 2.41 2.48 2.50 2.27 2.08 1.90 1.72 1.57 1.44 1.47 1.41 1.26 1.14 1.04 0.88 0.76 0.68 0.70 0.72 0.68 0.63 0.57 0.52 0.51 0.47 0.47 0.43 0.36 0.35 0.37 0.32 0.29 0.28 0.27 0.29 0.39 0.50 0.59 0.66 0.69 0.71
2.14 2.31 2.42 2.50 2.60 2.55 2.26 2.10 1.94 1.69 1.52 1.56 1.57 1.45 1.38 1.28 1.19 1.05 0.93 0.86 0.84 0.82 0.79 0.73 0.67 0.66 0.62 0.56 0.52 0.44 0.38 0.39 0.42 0.41 0.38 0.34 0.30 0.31 0.41 0.58 0.71 0.79 0.82
2.11 2.31 2.31 2.40 2.59 2.65 2.51 2.33 2.13 1.97 1.70 1.61 1.54 1.47 1.48 1.40 1.31 1.25 1.19 1.15 1.09 1.05 0.99 0.94 0.89 0.86 0.78 0.67 0.60 0.56 0.50 0.46 0.46 0.50 0.50 0.45 0.39 0.34 0.39 0.54 0.69 0.81 0.85
2.16 2.34 2.36 2.35 2.51 2.57 2.60 2.60 2.46 2.32 2.08 1.82 1.69 1.62 1.58 1.55 1.46 1.35 1.26 1.18 1.16 1.22 1.23 1.14 1.05 1.00 0.88 0.77 0.68 0.62 0.54 0.52 0.50 0.52 0.55 0.56 0.51 0.42 0.38 0.44 0.54 0.69 0.79
2.09 2.28 2.44 2.42 2.55 2.63 2.62 2.66 2.64 2.47 2.36 2.17 1.85 1.64 1.61 1.68 1.68 1.59 1.42 1.32 1.31 1.21 1.21 1.23 1.16 1.05 0.98 0.93 0.85 0.76 0.65 0.56 0.52 0.50 0.49 0.50 0.52 0.47 0.42 0.44 0.47 0.54 0.65
2.00 2.18 2.36 2.44 2.54 2.79 2.86 2.81 2.78 2.53 2.31 2.29 2.09 1.82 1.67 1.71 1.81 1.75 1.58 1.52 1.56 1.44 1.28 1.17 1.16 1.12 1.02 1.01 1.00 0.93 0.84 0.75 0.68 0.59 0.54 0.50 0.48 0.46 0.45 0.41 0.40 0.42 0.49
1.92 2.10 2.25 2.35 2.42 2.64 2.80 2.78 2.69 2.52 2.29 2.18 2.15 2.03 1.89 1.81 1.88 1.88 1.74 1.63 1.63 1.54 1.39 1.30 1.21 1.20 1.18 1.15 1.21 1.12 0.99 0.93 0.87 0.80 0.70 0.63 0.59 0.55 0.51 0.48 0.44 0.40 0.38
1.65 1.90 2.15 2.27 2.36 2.36 2.41 2.63 2.78 2.84 2.66 2.36 2.19 2.09 1.99 1.90 1.90 1.88 1.84 1.78 1.71 1.67 1.61 1.55 1.49 1.40 1.36 1.37 1.40 1.42 1.27 1.11 0.92 0.82 0.80 0.75 0.68 0.64 0.59 0.53 0.47 0.44 0.41
1.41 1.67 1.99 2.17 2.31 2.32 2.34 2.59 2.81 2.98 2.82 2.48 2.11 1.94 1.94 1.96 1.97 1.89 1.88 1.91 1.85 1.76 1.66 1.62 1.57 1.52 1.47 1.44 1.45 1.56 1.42 1.16 0.91 0.79 0.73 0.71 0.70 0.68 0.65 0.63 0.62 0.57 0.52
1.26 1.45 1.63 1.85 2.04 2.24 2.33 2.39 2.42 2.52 2.52 2.26 2.13 2.03 2.01 2.01 2.01 1.97 1.93 1.93 1.91 1.84 1.68 1.64 1.58 1.51 1.50 1.47 1.44 1.39 1.29 1.11 1.03 0.92 0.77 0.70 0.70 0.69 0.71 0.70 0.71 0.72 0.69
1.12 1.37 1.51 1.59 1.80 2.03 2.19 2.24 2.37 2.34 2.35 2.39 2.34 2.24 2.14 2.07 2.02 1.96 1.92 1.91 1.83 1.78 1.74 1.77 1.70 1.65 1.57 1.49 1.43 1.39 1.39 1.22 1.05 1.03 0.90 0.75 0.75 0.73 0.76 0.81 0.79 0.80 0.79
1.06 1.24 1.45 1.46 1.55 1.72 1.97 2.19 2.24 2.18 2.19 2.23 2.20 2.14 2.11 2.09 2.06 1.97 1.87 1.82 1.78 1.77 1.76 1.79 1.83 1.78 1.73 1.66 1.56 1.44 1.45 1.43 1.26 1.19 1.13 0.93 0.85 0.78 0.75 0.78 0.82 0.82 0.80

GEFSSE_prec_meanprecacc_240.txt.gz
Total_Precipitation_Accumulation
0.15 0.22 0.45 0.44 0.45 0.43 0.41 0.35 0.34 0.37 0.45 0.55 0.56 0.51 0.51 0.52 0.51 0.44 0.50 0.52 0.55 0.59 0.60 0.66 0.70 0.69 0.70 0.69 0.58 0.38 0.28 0.26 0.22 0.17 0.20 0.22 0.26 0.27 0.23 0.25 0.28 0.30 0.37
0.15 0.23 0.42 0.43 0.48 0.50 0.46 0.38 0.35 0.37 0.45 0.54 0.59 0.59 0.62 0.64 0.60 0.55 0.56 0.57 0.59 0.61 0.63 0.64 0.58 0.49 0.45 0.43 0.36 0.30 0.26 0.17 0.12 0.08 0.06 0.09 0.18 0.25 0.23 0.23 0.27 0.36 0.43
0.16 0.24 0.40 0.46 0.51 0.51 0.47 0.40 0.35 0.38 0.45 0.52 0.60 0.66 0.68 0.69 0.67 0.68 0.68 0.66 0.69 0.65 0.66 0.58 0.47 0.38 0.34 0.30 0.27 0.25 0.23 0.14 0.09 0.07 0.06 0.10 0.15 0.26 0.26 0.28 0.37 0.45 0.50
0.19 0.26 0.35 0.49 0.55 0.54 0.50 0.48 0.41 0.42 0.48 0.53 0.60 0.67 0.70 0.72 0.77 0.77 0.76 0.74 0.74 0.62 0.57 0.50 0.42 0.33 0.28 0.24 0.22 0.21 0.21 0.16 0.10 0.07 0.11 0.16 0.20 0.36 0.40 0.45 0.53 0.51 0.50
0.27 0.34 0.48 0.60 0.62 0.61 0.58 0.57 0.53 0.49 0.53 0.59 0.67 0.74 0.76 0.79 0.81 0.76 0.72 0.67 0.61 0.52 0.49 0.43 0.34 0.29 0.25 0.21 0.19 0.18 0.18 0.14 0.08 0.06 0.09 0.15 0.26 0.48 0.52 0.55 0.60 0.54 0.47
0.40 0.48 0.62 0.71 0.78 0.75 0.70 0.65 0.62 0.60 0.60 0.62 0.71 0.78 0.81 0.86 0.87 0.80 0.72 0.57 0.46 0.42 0.43 0.38 0.31 0.28 0.26 0.21 0.20 0.20 0.18 0.13 0.06 0.06 0.11 0.16 0.26 0.51 0.51 0.56 0.58 0.57 0.55
0.57 0.66 0.74 0.85 0.93 0.92 0.88 0.80 0.72 0.69 0.68 0.68 0.76 0.82 0.91 0.94 0.91 0.88 0.75 0.57 0.44 0.40 0.44 0.39 0.33 0.30 0.27 0.23 0.22 0.21 0.18 0.13 0.06 0.07 0.12 0.18 0.31 0.52 0.58 0.58 0.58 0.54 0.56
0.79 0.92 0.96 1.09 1.08 1.06 0.98 0.93 0.82 0.80 0.79 0.80 0.86 0.89 0.94 0.98 0.93 0.90 0.79 0.65 0.50 0.44 0.46 0.42 0.37 0.33 0.31 0.26 0.24 0.21 0.16 0.11 0.06 0.06 0.11 0.18 0.31 0.51 0.60 0.53 0.50 0.46 0.46
1.19 1.31 1.25 1.23 1.11 1.13 1.08 0.97 0.91 0.85 0.88 0.91 0.93 0.88 0.89 0.90 0.89 0.85 0.77 0.69 0.61 0.56 0.55 0.53 0.45 0.39 0.34 0.30 0.26 0.21 0.14 0.09 0.07 0.06 0.08 0.16 0.30 0.48 0.58 0.58 0.54 0.48 0.47
1.56 1.71 1.64 1.47 1.31 1.21 1.17 1.06 0.99 0.93 0.91 0.90 0.82 0.70 0.67 0.73 0.79 0.75 0.62 0.61 0.60 0.58 0.59 0.56 0.51 0.44 0.36 0.31 0.25 0.19 0.14 0.10 0.08 0.08 0.11 0.19 0.33 0.51 0.61 0.62 0.59 0.54 0.53
1.88 1.96 2.01 1.85 1.59 1.41 1.29 1.12 1.14 1.08 0.99 0.92 0.77 0.62 0.58 0.63 0.68 0.61 0.48 0.48 0.55 0.55 0.56 0.57 0.52 0.46 0.38 0.30 0.26 0.21 0.17 0.12 0.10 0.11 0.14 0.23 0.42 0.59 0.63 0.58 0.54 0.52 0.55
1.95 2.04 2.18 2.06 1.88 1.70 1.47 1.23 1.27 1.25 1.05 0.90 0.74 0.67 0.63 0.61 0.65 0.59 0.51 0.46 0.53 0.51 0.50 0.59 0.58 0.52 0.42 0.32 0.27 0.24 0.21 0.16 0.14 0.13 0.16 0.27 0.49 0.63 0.63 0.52 0.48 0.48 0.51
2.07 2.23 2.33 2.33 2.07 1.95 1.81 1.46 1.28 1.29 1.23 1.10 0.92 0.81 0.76 0.75 0.73 0.71 0.63 0.57 0.55 0.46 0.42 0.45 0.51 0.45 0.38 0.34 0.31 0.27 0.24 0.22 0.20 0.18 0.20 0.26 0.43 0.59 0.62 0.54 0.49 0.50 0.49
2.23 2.28 2.38 2.53 2.34 2.06 1.92 1.75 1.55 1.40 1.35 1.26 1.10 1.00 0.98 0.91 0.78 0.70 0.64 0.58 0.61 0.54 0.48 0.47 0.43 0.39 0.40 0.40 0.36 0.33 0.31 0.29 0.23 0.22 0.23 0.27 0.37 0.52 0.60 0.61 0.58 0.57 0.57
2.24 2.36 2.43 2.51 2.52 2.29 2.10 1.92 1.75 1.59 1.46 1.49 1.44 1.28 1.16 1.07 0.91 0.79 0.70 0.70 0.72 0.69 0.64 0.58 0.53 0.52 0.48 0.48 0.44 0.37 0.36 0.37 0.32 0.29 0.28 0.28 0.30 0.42 0.55 0.65 0.71 0.73 0.74
2.14 2.32 2.44 2.53 2.63 2.58 2.28 2.12 1.95 1.71 1.53 1.58 1.59 1.47 1.41 1.31 1.23 1.10 0.98 0.88 0.85 0.83 0.80 0.75 0.68 0.68 0.64 0.58 0.54 0.47 0.40 0.41 0.43 0.42 0.39 0.35 0.32 0.34 0.47 0.63 0.77 0.85 0.86
2.11 2.32 2.33 2.42 2.62 2.68 2.55 2.37 2.16 1.99 1.71 1.62 1.55 1.49 1.51 1.44 1.36 1.31 1.25 1.19 1.12 1.07 1.00 0.96 0.92 0.89 0.81 0.70 0.63 0.58 0.53 0.49 0.49 0.53 0.52 0.47 0.42 0.38 0.44 0.60 0.76 0.89 0.90
2.17 2.35 2.38 2.37 2.53 2.60 2.63 2.64 2.52 2.37 2.11 1.84 1.70 1.64 1.61 1.59 1.50 1.40 1.31 1.23 1.21 1.27 1.27 1.19 1.10 1.04 0.91 0.80 0.70 0.64 0.56 0.54 0.52 0.55 0.59 0.60 0.56 0.47 0.42 0.50 0.61 0.76 0.85
2.10 2.29 2.45 2.44 2.57 2.67 2.67 2.69 2.67 2.53 2.43 2.23 1.89 1.67 1.64 1.71 1.71 1.62 1.47 1.37 1.36 1.26 1.26 1.29 1.21 1.10 1.03 0.97 0.88 0.78 0.67 0.59 0.55 0.54 0.54 0.56 0.58 0.54 0.47 0.49 0.54 0.60 0.71
2.01 2.19 2.37 2.45 2.57 2.83 2.92 2.85 2.80 2.56 2.34 2.35 2.18 1.89 1.72 1.75 1.84 1.78 1.62 1.56 1.60 1.49 1.33 1.22 1.22 1.18 1.08 1.07 1.05 0.96 0.86 0.77 0.71 0.63 0.57 0.55 0.54 0.52 0.50 0.47 0.47 0.50 0.57
1.93 2.11 2.26 2.36 2.45 2.68 2.85 2.83 2.71 2.54 2.30 2.21 2.19 2.09 1.97 1.88 1.93 1.92 1.77 1.66 1.66 1.58 1.44 1.35 1.27 1.26 1.24 1.21 1.28 1.19 1.06 0.96 0.90 0.82 0.73 0.67 0.64 0.62 0.57 0.53 0.50 0.48 0.49
1.66 1.91 2.16 2.28 2.37 2.38 2.44 2.66 2.81 2.86 2.67 2.38 2.22 2.14 2.04 1.96 1.96 1.94 1.90 1.82 1.74 1.69 1.64 1.59 1.54 1.45 1.41 1.43 1.47 1.51 1.37 1.20 0.97 0.84 0.83 0.78 0.71 0.69 0.64 0.58 0.52 0.49 0.49
1.42 1.67 1.99 2.17 2.31 2.33 2.35 2.61 2.83 2.99 2.83 2.49 2.14 1.97 1.98 2.00 2.01 1.93 1.93 1.97 1.90 1.79 1.68 1.64 1.60 1.57 1.51 1.49 1.51 1.62 1.48 1.22 0.97 0.83 0.76 0.73 0.72 0.71 0.69 0.68 0.67 0.62 0.58
1.28 1.45 1.63 1.85 2.04 2.24 2.33 2.40 2.44 2.55 2.55 2.29 2.16 2.06 2.05 2.05 2.05 2.01 1.97 1.97 1.96 1.89 1.72 1.67 1.61 1.56 1.56 1.53 1.50 1.42 1.32 1.14 1.06 0.95 0.80 0.73 0.73 0.73 0.75 0.75 0.76 0.77 0.74
1.14 1.38 1.51 1.59 1.80 2.04 2.20 2.25 2.38 2.36 2.39 2.44 2.39 2.28 2.17 2.11 2.05 2.00 1.96 1.95 1.87 1.81 1.78 1.80 1.73 1.69 1.62 1.54 1.47 1.42 1.41 1.24 1.08 1.05 0.93 0.78 0.78 0.77 0.81 0.85 0.84 0.84 0.83
1.06 1.24 1.46 1.47 1.56 1.72 1.97 2.19 2.25 2.20 2.24 2.28 2.27 2.19 2.15 2.13 2.09 2.00 1.90 1.86 1.81 1.80 1.80 1.83 1.87 1.81 1.77 1.71 1.59 1.47 1.47 1.45 1.28 1.21 1.14 0.94 0.87 0.81 0.79 0.82 0.86 0.86 0.84